<?xml version='1.0' encoding='UTF-8'?><gpx version="1.1" creator="JPX - https://github.com/jenetics/jpx" xmlns="http://www.topografix.com/GPX/1/1"><trk><trkseg><trkpt lat="36.88928510139581" lon="15.067134985331824"><ele>106.0</ele><time>2026-04-04T13:14:07.999Z</time></trkpt><trkpt lat="36.88926791901458" lon="15.067237775092421"><ele>106.0</ele><time>2026-04-04T13:14:16.999Z</time></trkpt><trkpt lat="36.88922910741523" lon="15.067309179208852"><ele>106.0</ele><time>2026-04-04T13:14:23Z</time></trkpt><trkpt lat="36.889203469347905" lon="15.067382890294908"><ele>106.0</ele><time>2026-04-04T13:14:26Z</time></trkpt><trkpt lat="36.889311557020825" lon="15.06710049690752"><ele>106.0</ele><time>2026-04-04T13:14:28Z</time></trkpt><trkpt lat="36.88941602408996" lon="15.06705480026164"><ele>106.0</ele><time>2026-04-04T13:16:05.999Z</time></trkpt><trkpt lat="36.8894781557521" lon="15.067093740013854"><ele>106.0</ele><time>2026-04-04T13:16:07Z</time></trkpt><trkpt lat="36.88955208150718" lon="15.067130794601551"><ele>106.0</ele><time>2026-04-04T13:16:08Z</time></trkpt><trkpt lat="36.88967201807965" lon="15.067226828425092"><ele>106.0</ele><time>2026-04-04T13:16:14Z</time></trkpt><trkpt lat="36.88973161124142" lon="15.067258494909328"><ele>106.00000000000001</ele><time>2026-04-04T13:16:15Z</time></trkpt><trkpt lat="36.88980628780601" lon="15.067280494295016"><ele>106.0</ele><time>2026-04-04T13:16:16Z</time></trkpt><trkpt lat="36.88989002271232" lon="15.067322253506932"><ele>106.0</ele><time>2026-04-04T13:16:17Z</time></trkpt><trkpt lat="36.889990867889864" lon="15.067364968626622"><ele>106.0</ele><time>2026-04-04T13:16:18Z</time></trkpt><trkpt lat="36.89007662122841" lon="15.06740541153067"><ele>106.00000000000001</ele><time>2026-04-04T13:16:19Z</time></trkpt><trkpt lat="36.89014964905539" lon="15.067435877301165"><ele>106.0</ele><time>2026-04-04T13:16:20Z</time></trkpt><trkpt lat="36.89022365252889" lon="15.067434762699202"><ele>107.0</ele><time>2026-04-04T13:16:22Z</time></trkpt><trkpt lat="36.890275875100684" lon="15.06727264849558"><ele>108.0</ele><time>2026-04-04T13:16:24Z</time></trkpt><trkpt lat="36.89028846411541" lon="15.067167829010662"><ele>109.0</ele><time>2026-04-04T13:16:25Z</time></trkpt><trkpt lat="36.8903131268333" lon="15.067052075807606"><ele>110.0</ele><time>2026-04-04T13:16:26Z</time></trkpt><trkpt lat="36.89034196198522" lon="15.066932201850122"><ele>111.0</ele><time>2026-04-04T13:16:27Z</time></trkpt><trkpt lat="36.89037193929805" lon="15.066801341579948"><ele>111.0</ele><time>2026-04-04T13:16:28Z</time></trkpt><trkpt lat="36.89040554734325" lon="15.066673933508836"><ele>111.0</ele><time>2026-04-04T13:16:29Z</time></trkpt><trkpt lat="36.89044312560792" lon="15.06653668715126"><ele>111.0</ele><time>2026-04-04T13:16:30Z</time></trkpt><trkpt lat="36.89047428090314" lon="15.066392235269529"><ele>111.0</ele><time>2026-04-04T13:16:31Z</time></trkpt><trkpt lat="36.890512462957005" lon="15.066240880154496"><ele>110.75</ele><time>2026-04-04T13:16:32Z</time></trkpt><trkpt lat="36.890549472701885" lon="15.066093603054393"><ele>110.5</ele><time>2026-04-04T13:16:33Z</time></trkpt><trkpt lat="36.89059303239425" lon="15.06595483028203"><ele>110.25</ele><time>2026-04-04T13:16:34Z</time></trkpt><trkpt lat="36.89063630979521" lon="15.065812622700506"><ele>110.0</ele><time>2026-04-04T13:16:35Z</time></trkpt><trkpt lat="36.890674934430855" lon="15.065673089999937"><ele>109.49999999999999</ele><time>2026-04-04T13:16:36Z</time></trkpt><trkpt lat="36.89071077105929" lon="15.065529251274254"><ele>109.0</ele><time>2026-04-04T13:16:37Z</time></trkpt><trkpt lat="36.89073741032419" lon="15.065392644737146"><ele>108.5</ele><time>2026-04-04T13:16:38Z</time></trkpt><trkpt lat="36.89076201450253" lon="15.06529364663872"><ele>108.0</ele><time>2026-04-04T13:16:39Z</time></trkpt><trkpt lat="36.890781951274995" lon="15.065216344453264"><ele>107.49999999999999</ele><time>2026-04-04T13:16:40Z</time></trkpt><trkpt lat="36.890799772703396" lon="15.065135929116632"><ele>107.0</ele><time>2026-04-04T13:16:41Z</time></trkpt><trkpt lat="36.89082293118912" lon="15.06502261571067"><ele>106.25</ele><time>2026-04-04T13:16:42Z</time></trkpt><trkpt lat="36.890844078443195" lon="15.064896511842155"><ele>105.5</ele><time>2026-04-04T13:16:43Z</time></trkpt><trkpt lat="36.89085950365607" lon="15.064754881919086"><ele>104.75</ele><time>2026-04-04T13:16:44Z</time></trkpt><trkpt lat="36.89087073494377" lon="15.064603019745045"><ele>104.0</ele><time>2026-04-04T13:16:45Z</time></trkpt><trkpt lat="36.8908833204253" lon="15.064463009930725"><ele>104.0</ele><time>2026-04-04T13:16:46Z</time></trkpt><trkpt lat="36.89090319792682" lon="15.064318168144"><ele>104.0</ele><time>2026-04-04T13:16:47Z</time></trkpt><trkpt lat="36.89092948776001" lon="15.064172489463594"><ele>104.0</ele><time>2026-04-04T13:16:48Z</time></trkpt><trkpt lat="36.89094929300425" lon="15.064019157559398"><ele>104.0</ele><time>2026-04-04T13:16:49Z</time></trkpt><trkpt lat="36.89097014952234" lon="15.063889025702588"><ele>103.0</ele><time>2026-04-04T13:16:50Z</time></trkpt><trkpt lat="36.890983950975475" lon="15.063772111571074"><ele>102.0</ele><time>2026-04-04T13:16:51Z</time></trkpt><trkpt lat="36.890995766031985" lon="15.06366914979674"><ele>101.0</ele><time>2026-04-04T13:16:52Z</time></trkpt><trkpt lat="36.890998719941535" lon="15.063569616365593"><ele>100.0</ele><time>2026-04-04T13:16:54Z</time></trkpt><trkpt lat="36.89095656660217" lon="15.063429159315051"><ele>99.0</ele><time>2026-04-04T13:16:56Z</time></trkpt><trkpt lat="36.89090387953821" lon="15.063333938857818"><ele>98.0</ele><time>2026-04-04T13:16:57Z</time></trkpt><trkpt lat="36.89084742181545" lon="15.06324330245842"><ele>97.0</ele><time>2026-04-04T13:16:58Z</time></trkpt><trkpt lat="36.89079234364747" lon="15.063137271929671"><ele>96.0</ele><time>2026-04-04T13:16:59Z</time></trkpt><trkpt lat="36.89074822107098" lon="15.063045834588905"><ele>95.0</ele><time>2026-04-04T13:17:00Z</time></trkpt><trkpt lat="36.89069917675275" lon="15.062970514997716"><ele>94.0</ele><time>2026-04-04T13:17:01Z</time></trkpt><trkpt lat="36.89067580919408" lon="15.062890021640229"><ele>93.0</ele><time>2026-04-04T13:17:02Z</time></trkpt><trkpt lat="36.890643369966945" lon="15.062820192293469"><ele>93.0</ele><time>2026-04-04T13:17:03Z</time></trkpt><trkpt lat="36.890610011079204" lon="15.062716110273813"><ele>93.0</ele><time>2026-04-04T13:17:05Z</time></trkpt><trkpt lat="36.89057848987102" lon="15.06264665918762"><ele>93.0</ele><time>2026-04-04T13:17:07Z</time></trkpt><trkpt lat="36.89046399343751" lon="15.062555204348834"><ele>93.0</ele><time>2026-04-04T13:17:09Z</time></trkpt><trkpt lat="36.89039449584084" lon="15.062493354763683"><ele>93.0</ele><time>2026-04-04T13:17:10Z</time></trkpt><trkpt lat="36.890321268339285" lon="15.062420913167152"><ele>92.66666666666667</ele><time>2026-04-04T13:17:11Z</time></trkpt><trkpt lat="36.890260275728906" lon="15.06235699357222"><ele>92.33333333333333</ele><time>2026-04-04T13:17:12Z</time></trkpt><trkpt lat="36.89020351016533" lon="15.062311161322368"><ele>92.0</ele><time>2026-04-04T13:17:13Z</time></trkpt><trkpt lat="36.89013635800965" lon="15.06227661907503"><ele>91.66666666666666</ele><time>2026-04-04T13:17:14Z</time></trkpt><trkpt lat="36.89005476667173" lon="15.06225877446297"><ele>91.33333333333333</ele><time>2026-04-04T13:17:15Z</time></trkpt><trkpt lat="36.88996491379095" lon="15.062250021740292"><ele>91.0</ele><time>2026-04-04T13:17:16Z</time></trkpt><trkpt lat="36.889874911269835" lon="15.062268180274222"><ele>92.0</ele><time>2026-04-04T13:17:17Z</time></trkpt><trkpt lat="36.88975635995667" lon="15.062309057217343"><ele>93.0</ele><time>2026-04-04T13:17:18Z</time></trkpt><trkpt lat="36.88962152724286" lon="15.062365887063581"><ele>94.0</ele><time>2026-04-04T13:17:19Z</time></trkpt><trkpt lat="36.889483281260155" lon="15.062451828491005"><ele>95.0</ele><time>2026-04-04T13:17:20Z</time></trkpt><trkpt lat="36.88932740104831" lon="15.062576111578512"><ele>93.0</ele><time>2026-04-04T13:17:21Z</time></trkpt><trkpt lat="36.88919644692869" lon="15.062689653035429"><ele>91.0</ele><time>2026-04-04T13:17:22Z</time></trkpt><trkpt lat="36.88908435573207" lon="15.062763779594954"><ele>89.0</ele><time>2026-04-04T13:17:23Z</time></trkpt><trkpt lat="36.888967613220075" lon="15.062777500973159"><ele>87.0</ele><time>2026-04-04T13:17:24Z</time></trkpt><trkpt lat="36.88883686903425" lon="15.062756833114978"><ele>87.0</ele><time>2026-04-04T13:17:25Z</time></trkpt><trkpt lat="36.88870257347659" lon="15.062724800825352"><ele>87.0</ele><time>2026-04-04T13:17:26Z</time></trkpt><trkpt lat="36.88856770726419" lon="15.062663818960946"><ele>87.0</ele><time>2026-04-04T13:17:27Z</time></trkpt><trkpt lat="36.88842533139205" lon="15.062600196105574"><ele>87.0</ele><time>2026-04-04T13:17:28Z</time></trkpt><trkpt lat="36.88827695262129" lon="15.062537339186248"><ele>85.33333333333333</ele><time>2026-04-04T13:17:29Z</time></trkpt><trkpt lat="36.8881249877553" lon="15.062476567489806"><ele>83.66666666666666</ele><time>2026-04-04T13:17:29.999Z</time></trkpt><trkpt lat="36.8879781221494" lon="15.06241773386165"><ele>82.0</ele><time>2026-04-04T13:17:30.999Z</time></trkpt><trkpt lat="36.88783927444901" lon="15.062355262524253"><ele>81.75</ele><time>2026-04-04T13:17:31.999Z</time></trkpt><trkpt lat="36.88771097096721" lon="15.062288497810892"><ele>81.5</ele><time>2026-04-04T13:17:32.999Z</time></trkpt><trkpt lat="36.88759609832742" lon="15.062204199551472"><ele>81.25</ele><time>2026-04-04T13:17:33.999Z</time></trkpt><trkpt lat="36.88748912290542" lon="15.062105286695276"><ele>81.0</ele><time>2026-04-04T13:17:34.999Z</time></trkpt><trkpt lat="36.8873828813365" lon="15.062000616455588"><ele>80.2</ele><time>2026-04-04T13:17:35.999Z</time></trkpt><trkpt lat="36.887285295941076" lon="15.061907421063566"><ele>79.39999999999999</ele><time>2026-04-04T13:17:36.999Z</time></trkpt><trkpt lat="36.88720286568786" lon="15.061828019558233"><ele>78.6</ele><time>2026-04-04T13:17:37.999Z</time></trkpt><trkpt lat="36.88711782996481" lon="15.06174826238124"><ele>77.8</ele><time>2026-04-04T13:17:38.999Z</time></trkpt><trkpt lat="36.88704393889169" lon="15.061677710027649"><ele>77.0</ele><time>2026-04-04T13:17:39.999Z</time></trkpt><trkpt lat="36.88697762379165" lon="15.061622224960432"><ele>77.0</ele><time>2026-04-04T13:17:40.999Z</time></trkpt><trkpt lat="36.886897395183446" lon="15.061603854228572"><ele>77.0</ele><time>2026-04-04T13:17:41.999Z</time></trkpt><trkpt lat="36.88679741791301" lon="15.061623502618266"><ele>77.0</ele><time>2026-04-04T13:17:42.999Z</time></trkpt><trkpt lat="36.88669693435708" lon="15.06168935322171"><ele>77.0</ele><time>2026-04-04T13:17:43.999Z</time></trkpt><trkpt lat="36.88657720594243" lon="15.061779202718311"><ele>77.0</ele><time>2026-04-04T13:17:44.999Z</time></trkpt><trkpt lat="36.886435632617086" lon="15.061863482942465"><ele>80.33333333333334</ele><time>2026-04-04T13:17:45.999Z</time></trkpt><trkpt lat="36.8862840644959" lon="15.061933825374707"><ele>83.66666666666667</ele><time>2026-04-04T13:17:46.999Z</time></trkpt><trkpt lat="36.88613221850252" lon="15.062007610082814"><ele>87.0</ele><time>2026-04-04T13:17:47.999Z</time></trkpt><trkpt lat="36.88598181239168" lon="15.062086346033235"><ele>88.0</ele><time>2026-04-04T13:17:48.999Z</time></trkpt><trkpt lat="36.88583332769339" lon="15.062164481869557"><ele>89.0</ele><time>2026-04-04T13:17:49.999Z</time></trkpt><trkpt lat="36.88569980563379" lon="15.06223108114477"><ele>90.0</ele><time>2026-04-04T13:17:50.999Z</time></trkpt><trkpt lat="36.88558357180233" lon="15.062290407291743"><ele>91.0</ele><time>2026-04-04T13:17:51.999Z</time></trkpt><trkpt lat="36.88545749987242" lon="15.062359070416397"><ele>91.0</ele><time>2026-04-04T13:17:52.999Z</time></trkpt><trkpt lat="36.885303493689015" lon="15.062440158670261"><ele>91.0</ele><time>2026-04-04T13:17:53.999Z</time></trkpt><trkpt lat="36.88513108392324" lon="15.062512859196827"><ele>91.0</ele><time>2026-04-04T13:17:54.999Z</time></trkpt><trkpt lat="36.88495966929258" lon="15.0625619077042"><ele>89.33333333333333</ele><time>2026-04-04T13:17:55.999Z</time></trkpt><trkpt lat="36.88478571212849" lon="15.062617658850588"><ele>87.66666666666667</ele><time>2026-04-04T13:17:56.999Z</time></trkpt><trkpt lat="36.88460978000265" lon="15.062683433131813"><ele>86.0</ele><time>2026-04-04T13:17:57.999Z</time></trkpt><trkpt lat="36.884435939870365" lon="15.062745150359028"><ele>85.66666666666667</ele><time>2026-04-04T13:17:58.999Z</time></trkpt><trkpt lat="36.884256941715435" lon="15.062808707931387"><ele>85.33333333333333</ele><time>2026-04-04T13:17:59.999Z</time></trkpt><trkpt lat="36.88405651604246" lon="15.062893501683606"><ele>85.0</ele><time>2026-04-04T13:18:00.999Z</time></trkpt><trkpt lat="36.88383271944456" lon="15.062968139088825"><ele>85.0</ele><time>2026-04-04T13:18:01.999Z</time></trkpt><trkpt lat="36.88361471745583" lon="15.063032306678306"><ele>85.0</ele><time>2026-04-04T13:18:02.999Z</time></trkpt><trkpt lat="36.883392096058564" lon="15.063061749853153"><ele>85.0</ele><time>2026-04-04T13:18:03.999Z</time></trkpt><trkpt lat="36.883187110229045" lon="15.06306547112511"><ele>82.66666666666666</ele><time>2026-04-04T13:18:04.999Z</time></trkpt><trkpt lat="36.88300854132916" lon="15.063063681547455"><ele>80.33333333333333</ele><time>2026-04-04T13:18:05.999Z</time></trkpt><trkpt lat="36.882841592678105" lon="15.063065132397917"><ele>78.0</ele><time>2026-04-04T13:18:06.999Z</time></trkpt><trkpt lat="36.88268963673748" lon="15.063050482692194"><ele>78.33333333333333</ele><time>2026-04-04T13:18:07.999Z</time></trkpt><trkpt lat="36.88254025078098" lon="15.063001999243625"><ele>78.66666666666666</ele><time>2026-04-04T13:18:08.999Z</time></trkpt><trkpt lat="36.88240184001685" lon="15.062908588595254"><ele>79.0</ele><time>2026-04-04T13:18:09.999Z</time></trkpt><trkpt lat="36.88227648784039" lon="15.062786659216254"><ele>79.0</ele><time>2026-04-04T13:18:10.999Z</time></trkpt><trkpt lat="36.882159143810405" lon="15.06264480303202"><ele>79.0</ele><time>2026-04-04T13:18:11.999Z</time></trkpt><trkpt lat="36.88203766688122" lon="15.062499419716897"><ele>79.0</ele><time>2026-04-04T13:18:13Z</time></trkpt><trkpt lat="36.88191532187262" lon="15.062349988311789"><ele>79.66666666666666</ele><time>2026-04-04T13:18:14Z</time></trkpt><trkpt lat="36.88178800232444" lon="15.06220029228265"><ele>80.33333333333333</ele><time>2026-04-04T13:18:15Z</time></trkpt><trkpt lat="36.881658350072485" lon="15.062049823799342"><ele>81.0</ele><time>2026-04-04T13:18:16Z</time></trkpt><trkpt lat="36.881526273515554" lon="15.06189396341083"><ele>82.0</ele><time>2026-04-04T13:18:17Z</time></trkpt><trkpt lat="36.88139366074902" lon="15.06173666488034"><ele>83.0</ele><time>2026-04-04T13:18:18Z</time></trkpt><trkpt lat="36.8812597829315" lon="15.061578211930057"><ele>84.0</ele><time>2026-04-04T13:18:19Z</time></trkpt><trkpt lat="36.8811258300349" lon="15.061416983014649"><ele>84.0</ele><time>2026-04-04T13:18:20Z</time></trkpt><trkpt lat="36.88098731101831" lon="15.061260523766995"><ele>84.0</ele><time>2026-04-04T13:18:21Z</time></trkpt><trkpt lat="36.8808518817789" lon="15.061101879584614"><ele>84.0</ele><time>2026-04-04T13:18:22Z</time></trkpt><trkpt lat="36.88071493669338" lon="15.060943906877043"><ele>85.0</ele><time>2026-04-04T13:18:23Z</time></trkpt><trkpt lat="36.88057797504442" lon="15.060786277173966"><ele>86.0</ele><time>2026-04-04T13:18:24Z</time></trkpt><trkpt lat="36.88044210187158" lon="15.060625486086572"><ele>87.0</ele><time>2026-04-04T13:18:25Z</time></trkpt><trkpt lat="36.8802989624256" lon="15.060459520093755"><ele>88.0</ele><time>2026-04-04T13:18:26Z</time></trkpt><trkpt lat="36.88014972088247" lon="15.06028803116577"><ele>89.0</ele><time>2026-04-04T13:18:27Z</time></trkpt><trkpt lat="36.87998365344183" lon="15.06009661352291"><ele>90.0</ele><time>2026-04-04T13:18:28Z</time></trkpt><trkpt lat="36.87981381108121" lon="15.059893992782655"><ele>93.0</ele><time>2026-04-04T13:18:29Z</time></trkpt><trkpt lat="36.87963733773586" lon="15.059663403058545"><ele>96.0</ele><time>2026-04-04T13:18:30Z</time></trkpt><trkpt lat="36.87947991770911" lon="15.059406298715167"><ele>96.0</ele><time>2026-04-04T13:18:31Z</time></trkpt><trkpt lat="36.87936711714607" lon="15.059126929759916"><ele>96.0</ele><time>2026-04-04T13:18:32Z</time></trkpt><trkpt lat="36.87925196470618" lon="15.058829063097114"><ele>99.0</ele><time>2026-04-04T13:18:33Z</time></trkpt><trkpt lat="36.87912855531793" lon="15.05851091099598"><ele>102.0</ele><time>2026-04-04T13:18:34Z</time></trkpt><trkpt lat="36.879008365823864" lon="15.058217487216318"><ele>103.5</ele><time>2026-04-04T13:18:35Z</time></trkpt><trkpt lat="36.87890040956711" lon="15.057930121133197"><ele>105.0</ele><time>2026-04-04T13:18:36Z</time></trkpt><trkpt lat="36.87878713011574" lon="15.057649250125476"><ele>107.0</ele><time>2026-04-04T13:18:37Z</time></trkpt><trkpt lat="36.878670457226484" lon="15.057353222054509"><ele>109.0</ele><time>2026-04-04T13:18:38Z</time></trkpt><trkpt lat="36.87855492796685" lon="15.057053588216858"><ele>109.0</ele><time>2026-04-04T13:18:39Z</time></trkpt><trkpt lat="36.87844222697395" lon="15.056764993156978"><ele>109.0</ele><time>2026-04-04T13:18:40Z</time></trkpt><trkpt lat="36.878332234532756" lon="15.056486072069067"><ele>109.5</ele><time>2026-04-04T13:18:41Z</time></trkpt><trkpt lat="36.878223698351455" lon="15.05620926600068"><ele>110.0</ele><time>2026-04-04T13:18:42Z</time></trkpt><trkpt lat="36.87811838440058" lon="15.055935697164001"><ele>111.5</ele><time>2026-04-04T13:18:43Z</time></trkpt><trkpt lat="36.878012883179174" lon="15.055661648211103"><ele>113.0</ele><time>2026-04-04T13:18:44Z</time></trkpt><trkpt lat="36.87790578486956" lon="15.055377850723323"><ele>113.0</ele><time>2026-04-04T13:18:45Z</time></trkpt><trkpt lat="36.877784528589274" lon="15.055074752811619"><ele>113.0</ele><time>2026-04-04T13:18:46Z</time></trkpt><trkpt lat="36.87766495759914" lon="15.05478284110952"><ele>113.66666666666666</ele><time>2026-04-04T13:18:47Z</time></trkpt><trkpt lat="36.877565646844396" lon="15.054537109284114"><ele>114.33333333333334</ele><time>2026-04-04T13:18:48Z</time></trkpt><trkpt lat="36.87748896419716" lon="15.054339892687608"><ele>115.0</ele><time>2026-04-04T13:18:49Z</time></trkpt><trkpt lat="36.87743822956522" lon="15.054205814887212"><ele>115.33333333333334</ele><time>2026-04-04T13:18:50Z</time></trkpt><trkpt lat="36.87739926831355" lon="15.054094234257672"><ele>115.66666666666667</ele><time>2026-04-04T13:18:51Z</time></trkpt><trkpt lat="36.87737739737168" lon="15.053991970620656"><ele>116.0</ele><time>2026-04-04T13:18:52Z</time></trkpt><trkpt lat="36.87737502234678" lon="15.053885875265687"><ele>116.33333333333334</ele><time>2026-04-04T13:18:53Z</time></trkpt><trkpt lat="36.87736908495344" lon="15.053804520863073"><ele>116.66666666666667</ele><time>2026-04-04T13:18:54Z</time></trkpt><trkpt lat="36.87733169680225" lon="15.053708656259284"><ele>117.0</ele><time>2026-04-04T13:18:56Z</time></trkpt><trkpt lat="36.877355876649936" lon="15.053625319694154"><ele>117.0</ele><time>2026-04-04T13:20:36Z</time></trkpt><trkpt lat="36.877428258379936" lon="15.053583864443958"><ele>117.0</ele><time>2026-04-04T13:20:38Z</time></trkpt><trkpt lat="36.8775206849617" lon="15.05358491784796"><ele>117.0</ele><time>2026-04-04T13:22:27Z</time></trkpt><trkpt lat="36.87747848474078" lon="15.053657052668934"><ele>117.0</ele><time>2026-04-04T13:25:14Z</time></trkpt><trkpt lat="36.87741512295123" lon="15.05360155885113"><ele>117.0</ele><time>2026-04-04T13:25:16Z</time></trkpt><trkpt lat="36.87732974386413" lon="15.053543515160685"><ele>117.0</ele><time>2026-04-04T13:25:19Z</time></trkpt><trkpt lat="36.877242341547834" lon="15.053518129354291"><ele>117.0</ele><time>2026-04-04T13:25:22Z</time></trkpt><trkpt lat="36.87717552912" lon="15.053475719814392"><ele>117.0</ele><time>2026-04-04T13:25:24Z</time></trkpt><trkpt lat="36.87713288476484" lon="15.05341415474866"><ele>117.0</ele><time>2026-04-04T13:25:25Z</time></trkpt><trkpt lat="36.877110001447406" lon="15.053321198848248"><ele>117.0</ele><time>2026-04-04T13:25:26Z</time></trkpt><trkpt lat="36.87707767822194" lon="15.053218624649448"><ele>117.0</ele><time>2026-04-04T13:25:27Z</time></trkpt><trkpt lat="36.87702221187392" lon="15.053082041608045"><ele>117.0</ele><time>2026-04-04T13:25:28Z</time></trkpt><trkpt lat="36.87696147701255" lon="15.052927772095096"><ele>118.0</ele><time>2026-04-04T13:25:29Z</time></trkpt><trkpt lat="36.876923012083104" lon="15.05282249512005"><ele>118.99999999999999</ele><time>2026-04-04T13:25:30Z</time></trkpt><trkpt lat="36.8768828220739" lon="15.05270962349071"><ele>119.99999999999999</ele><time>2026-04-04T13:25:31Z</time></trkpt><trkpt lat="36.87683977724361" lon="15.052607412268014"><ele>121.0</ele><time>2026-04-04T13:25:32Z</time></trkpt><trkpt lat="36.87680118413176" lon="15.052511499524895"><ele>122.0</ele><time>2026-04-04T13:25:32.999Z</time></trkpt><trkpt lat="36.87676304658327" lon="15.052416318932748"><ele>122.33333333333333</ele><time>2026-04-04T13:25:33.999Z</time></trkpt><trkpt lat="36.87672537585485" lon="15.052321327345407"><ele>122.66666666666666</ele><time>2026-04-04T13:25:34.999Z</time></trkpt><trkpt lat="36.87669518329728" lon="15.052228357740749"><ele>123.0</ele><time>2026-04-04T13:25:35.999Z</time></trkpt><trkpt lat="36.87667436209701" lon="15.052144489816948"><ele>123.33333333333334</ele><time>2026-04-04T13:25:36.999Z</time></trkpt><trkpt lat="36.87664541753274" lon="15.052056727734126"><ele>123.66666666666667</ele><time>2026-04-04T13:25:37.999Z</time></trkpt><trkpt lat="36.87665014617851" lon="15.051968686782683"><ele>124.0</ele><time>2026-04-04T13:25:38.999Z</time></trkpt><trkpt lat="36.876630894244045" lon="15.051851064512023"><ele>124.0</ele><time>2026-04-04T13:26:18.999Z</time></trkpt><trkpt lat="36.876616338085384" lon="15.051674101335369"><ele>124.0</ele><time>2026-04-04T13:26:20.999Z</time></trkpt><trkpt lat="36.87661512208714" lon="15.051541906373657"><ele>124.0</ele><time>2026-04-04T13:26:21.999Z</time></trkpt><trkpt lat="36.87662359815799" lon="15.051410251629608"><ele>124.0</ele><time>2026-04-04T13:26:22.999Z</time></trkpt><trkpt lat="36.87664028070644" lon="15.051253802415202"><ele>124.66666666666667</ele><time>2026-04-04T13:26:23.999Z</time></trkpt><trkpt lat="36.87664893130226" lon="15.051065384415438"><ele>125.33333333333334</ele><time>2026-04-04T13:26:24.999Z</time></trkpt><trkpt lat="36.87666518098169" lon="15.0508789842053"><ele>126.0</ele><time>2026-04-04T13:26:25.999Z</time></trkpt><trkpt lat="36.87668447931084" lon="15.050684094799294"><ele>127.0</ele><time>2026-04-04T13:26:26.999Z</time></trkpt><trkpt lat="36.87670442914212" lon="15.050481211131888"><ele>128.0</ele><time>2026-04-04T13:26:27.999Z</time></trkpt><trkpt lat="36.876723086654756" lon="15.050276373796136"><ele>129.0</ele><time>2026-04-04T13:26:28.999Z</time></trkpt><trkpt lat="36.87674297514892" lon="15.050063702449934"><ele>129.66666666666666</ele><time>2026-04-04T13:26:29.999Z</time></trkpt><trkpt lat="36.87676547685008" lon="15.049847691672769"><ele>130.33333333333331</ele><time>2026-04-04T13:26:30.999Z</time></trkpt><trkpt lat="36.87679806456016" lon="15.049631347401235"><ele>131.0</ele><time>2026-04-04T13:26:31.999Z</time></trkpt><trkpt lat="36.87683985452681" lon="15.049411331575397"><ele>131.0</ele><time>2026-04-04T13:26:32.999Z</time></trkpt><trkpt lat="36.87688988879563" lon="15.049188617401155"><ele>131.0</ele><time>2026-04-04T13:26:33.999Z</time></trkpt><trkpt lat="36.87695096892765" lon="15.048965328487375"><ele>131.0</ele><time>2026-04-04T13:26:34.999Z</time></trkpt><trkpt lat="36.87701712566245" lon="15.048739468746682"><ele>132.33333333333331</ele><time>2026-04-04T13:26:36Z</time></trkpt><trkpt lat="36.87707925442945" lon="15.048521270164702"><ele>133.66666666666666</ele><time>2026-04-04T13:26:37Z</time></trkpt><trkpt lat="36.87714002206858" lon="15.048301555886097"><ele>135.0</ele><time>2026-04-04T13:26:38Z</time></trkpt><trkpt lat="36.87720097622093" lon="15.048083656639847"><ele>136.0</ele><time>2026-04-04T13:26:39Z</time></trkpt><trkpt lat="36.87725955995534" lon="15.047871950662124"><ele>137.0</ele><time>2026-04-04T13:26:40Z</time></trkpt><trkpt lat="36.87732027848842" lon="15.047658515619451"><ele>138.0</ele><time>2026-04-04T13:26:41Z</time></trkpt><trkpt lat="36.8773763482239" lon="15.04744871565937"><ele>138.33333333333334</ele><time>2026-04-04T13:26:42Z</time></trkpt><trkpt lat="36.87743490571385" lon="15.047241505191636"><ele>138.66666666666669</ele><time>2026-04-04T13:26:43Z</time></trkpt><trkpt lat="36.877491134601456" lon="15.047031641542215"><ele>139.0</ele><time>2026-04-04T13:26:44Z</time></trkpt><trkpt lat="36.87754889671511" lon="15.046824211857153"><ele>139.33333333333334</ele><time>2026-04-04T13:26:45Z</time></trkpt><trkpt lat="36.877606486953155" lon="15.04661398283061"><ele>139.66666666666666</ele><time>2026-04-04T13:26:46Z</time></trkpt><trkpt lat="36.8776625786964" lon="15.046402832581702"><ele>140.0</ele><time>2026-04-04T13:26:47Z</time></trkpt><trkpt lat="36.877722827422005" lon="15.046193538186092"><ele>140.0</ele><time>2026-04-04T13:26:48Z</time></trkpt><trkpt lat="36.87778378423772" lon="15.045979598539788"><ele>140.0</ele><time>2026-04-04T13:26:49Z</time></trkpt><trkpt lat="36.87784294089422" lon="15.045760174008972"><ele>140.0</ele><time>2026-04-04T13:26:50Z</time></trkpt><trkpt lat="36.877902156046694" lon="15.045536444424577"><ele>140.0</ele><time>2026-04-04T13:26:51Z</time></trkpt><trkpt lat="36.877963873451804" lon="15.04531828619733"><ele>140.0</ele><time>2026-04-04T13:26:52Z</time></trkpt><trkpt lat="36.8780215331935" lon="15.04510775043118"><ele>140.0</ele><time>2026-04-04T13:26:53Z</time></trkpt><trkpt lat="36.87807371951798" lon="15.044895242294405"><ele>140.33333333333331</ele><time>2026-04-04T13:26:54Z</time></trkpt><trkpt lat="36.87810030640648" lon="15.044673555356914"><ele>140.66666666666666</ele><time>2026-04-04T13:26:55Z</time></trkpt><trkpt lat="36.87808999106055" lon="15.0444447634564"><ele>141.0</ele><time>2026-04-04T13:26:56Z</time></trkpt><trkpt lat="36.87805011386353" lon="15.044203209657738"><ele>141.33333333333334</ele><time>2026-04-04T13:26:57Z</time></trkpt><trkpt lat="36.87799474431666" lon="15.043940086881696"><ele>141.66666666666669</ele><time>2026-04-04T13:26:58Z</time></trkpt><trkpt lat="36.87795195734589" lon="15.04368881018028"><ele>142.0</ele><time>2026-04-04T13:26:59Z</time></trkpt><trkpt lat="36.877915284006406" lon="15.04347719439607"><ele>142.25</ele><time>2026-04-04T13:27:00Z</time></trkpt><trkpt lat="36.87788564976266" lon="15.043291156257636"><ele>142.5</ele><time>2026-04-04T13:27:01Z</time></trkpt><trkpt lat="36.877853995613464" lon="15.043121505826777"><ele>142.75</ele><time>2026-04-04T13:27:02Z</time></trkpt><trkpt lat="36.877826925389144" lon="15.042958185557431"><ele>143.0</ele><time>2026-04-04T13:27:03Z</time></trkpt><trkpt lat="36.877798406021824" lon="15.042802340170843"><ele>143.0</ele><time>2026-04-04T13:27:04Z</time></trkpt><trkpt lat="36.87777462082049" lon="15.042657099878847"><ele>143.0</ele><time>2026-04-04T13:27:05Z</time></trkpt><trkpt lat="36.877752393257374" lon="15.042509642410483"><ele>143.0</ele><time>2026-04-04T13:27:06Z</time></trkpt><trkpt lat="36.87773393533022" lon="15.042369389478036"><ele>143.0</ele><time>2026-04-04T13:27:07Z</time></trkpt><trkpt lat="36.8777151710647" lon="15.042244145001474"><ele>143.0</ele><time>2026-04-04T13:27:08Z</time></trkpt><trkpt lat="36.87769834837491" lon="15.042125322758974"><ele>143.0</ele><time>2026-04-04T13:27:09Z</time></trkpt><trkpt lat="36.87768173488312" lon="15.04201559135869"><ele>143.0</ele><time>2026-04-04T13:27:10Z</time></trkpt><trkpt lat="36.877668207289034" lon="15.04191508584835"><ele>143.0</ele><time>2026-04-04T13:27:11Z</time></trkpt><trkpt lat="36.87765371664364" lon="15.041820497885043"><ele>143.0</ele><time>2026-04-04T13:27:12Z</time></trkpt><trkpt lat="36.8776373926233" lon="15.041734295642899"><ele>143.0</ele><time>2026-04-04T13:27:13Z</time></trkpt><trkpt lat="36.87762189714086" lon="15.041651208617987"><ele>143.0</ele><time>2026-04-04T13:27:14Z</time></trkpt><trkpt lat="36.87760602403434" lon="15.041574951216184"><ele>143.0</ele><time>2026-04-04T13:27:15Z</time></trkpt><trkpt lat="36.87758869406415" lon="15.04149821530481"><ele>143.0</ele><time>2026-04-04T13:27:16Z</time></trkpt><trkpt lat="36.87757452744686" lon="15.04140872557745"><ele>143.0</ele><time>2026-04-04T13:27:17Z</time></trkpt><trkpt lat="36.877555462105974" lon="15.041299564185232"><ele>143.0</ele><time>2026-04-04T13:27:18Z</time></trkpt><trkpt lat="36.87753576349733" lon="15.041189011231626"><ele>143.0</ele><time>2026-04-04T13:27:19Z</time></trkpt><trkpt lat="36.877510934934726" lon="15.041079773915593"><ele>143.0</ele><time>2026-04-04T13:27:20Z</time></trkpt><trkpt lat="36.87747690073064" lon="15.040959106075242"><ele>143.0</ele><time>2026-04-04T13:27:21Z</time></trkpt><trkpt lat="36.8774334599523" lon="15.04085407365829"><ele>143.0</ele><time>2026-04-04T13:27:22Z</time></trkpt><trkpt lat="36.87737451611962" lon="15.040759581291132"><ele>143.0</ele><time>2026-04-04T13:27:23Z</time></trkpt><trkpt lat="36.87730715768802" lon="15.040647569908716"><ele>143.0</ele><time>2026-04-04T13:27:24Z</time></trkpt><trkpt lat="36.87723884342514" lon="15.040527318480208"><ele>143.5</ele><time>2026-04-04T13:27:25Z</time></trkpt><trkpt lat="36.87716189761977" lon="15.040406430956752"><ele>144.0</ele><time>2026-04-04T13:27:26Z</time></trkpt><trkpt lat="36.87707441687673" lon="15.040283477553523"><ele>144.5</ele><time>2026-04-04T13:27:27Z</time></trkpt><trkpt lat="36.87697973254866" lon="15.040162733383841"><ele>145.0</ele><time>2026-04-04T13:27:28Z</time></trkpt><trkpt lat="36.876877780179875" lon="15.040043057652843"><ele>144.75</ele><time>2026-04-04T13:27:29Z</time></trkpt><trkpt lat="36.87678595730001" lon="15.039933615768685"><ele>144.5</ele><time>2026-04-04T13:27:30Z</time></trkpt><trkpt lat="36.8766983465204" lon="15.039831287090545"><ele>144.25</ele><time>2026-04-04T13:27:31Z</time></trkpt><trkpt lat="36.876602239100194" lon="15.039736073330857"><ele>144.0</ele><time>2026-04-04T13:27:32Z</time></trkpt><trkpt lat="36.87648206382291" lon="15.039659536654561"><ele>141.5</ele><time>2026-04-04T13:27:33Z</time></trkpt><trkpt lat="36.876354597751316" lon="15.039612676371586"><ele>139.0</ele><time>2026-04-04T13:27:34Z</time></trkpt><trkpt lat="36.876224552084025" lon="15.039583903053506"><ele>136.5</ele><time>2026-04-04T13:27:34.999Z</time></trkpt><trkpt lat="36.87608850476469" lon="15.039578785854507"><ele>134.0</ele><time>2026-04-04T13:27:35.999Z</time></trkpt><trkpt lat="36.87594559327854" lon="15.039608716269926"><ele>132.66666666666666</ele><time>2026-04-04T13:27:36.999Z</time></trkpt><trkpt lat="36.87579032465379" lon="15.03967254164081"><ele>131.33333333333334</ele><time>2026-04-04T13:27:37.999Z</time></trkpt><trkpt lat="36.87564928508053" lon="15.039727308106892"><ele>130.0</ele><time>2026-04-04T13:27:38.999Z</time></trkpt><trkpt lat="36.87550437566868" lon="15.039783629084146"><ele>130.0</ele><time>2026-04-04T13:27:39.999Z</time></trkpt><trkpt lat="36.8753515028245" lon="15.039827277120189"><ele>130.0</ele><time>2026-04-04T13:27:40.999Z</time></trkpt><trkpt lat="36.87520552432032" lon="15.039874494795779"><ele>130.0</ele><time>2026-04-04T13:27:41.999Z</time></trkpt><trkpt lat="36.87507161273754" lon="15.039914299759465"><ele>130.0</ele><time>2026-04-04T13:27:42.999Z</time></trkpt><trkpt lat="36.8749467820132" lon="15.039951783439603"><ele>129.5</ele><time>2026-04-04T13:27:43.999Z</time></trkpt><trkpt lat="36.874823602435086" lon="15.039982306070806"><ele>129.0</ele><time>2026-04-04T13:27:44.999Z</time></trkpt><trkpt lat="36.87471060775785" lon="15.039996541035396"><ele>128.5</ele><time>2026-04-04T13:27:45.999Z</time></trkpt><trkpt lat="36.87459301461176" lon="15.04001532967058"><ele>128.0</ele><time>2026-04-04T13:27:46.999Z</time></trkpt><trkpt lat="36.87446412930501" lon="15.040015170522238"><ele>128.0</ele><time>2026-04-04T13:27:47.999Z</time></trkpt><trkpt lat="36.87432059755004" lon="15.040004665786531"><ele>128.0</ele><time>2026-04-04T13:27:48.999Z</time></trkpt><trkpt lat="36.87416524350856" lon="15.039974034459215"><ele>128.0</ele><time>2026-04-04T13:27:49.999Z</time></trkpt><trkpt lat="36.87400570419637" lon="15.039920830406956"><ele>123.66666666666666</ele><time>2026-04-04T13:27:50.999Z</time></trkpt><trkpt lat="36.87383899877154" lon="15.039846108097716"><ele>119.33333333333334</ele><time>2026-04-04T13:27:51.999Z</time></trkpt><trkpt lat="36.87366931301157" lon="15.039742043480135"><ele>115.0</ele><time>2026-04-04T13:27:52.999Z</time></trkpt><trkpt lat="36.8735114837711" lon="15.039599123910978"><ele>114.0</ele><time>2026-04-04T13:27:53.999Z</time></trkpt><trkpt lat="36.873336815072086" lon="15.039477443813047"><ele>113.0</ele><time>2026-04-04T13:27:54.999Z</time></trkpt><trkpt lat="36.87316955637459" lon="15.0393425613417"><ele>112.0</ele><time>2026-04-04T13:27:55.999Z</time></trkpt><trkpt lat="36.87300628387614" lon="15.039215066796059"><ele>111.0</ele><time>2026-04-04T13:27:56.999Z</time></trkpt><trkpt lat="36.87285738133608" lon="15.039085450705493"><ele>110.0</ele><time>2026-04-04T13:27:57.999Z</time></trkpt><trkpt lat="36.87271014563607" lon="15.038964843764584"><ele>109.0</ele><time>2026-04-04T13:27:58.999Z</time></trkpt><trkpt lat="36.87257629853653" lon="15.038845789215866"><ele>108.66666666666667</ele><time>2026-04-04T13:27:59.999Z</time></trkpt><trkpt lat="36.87245525636375" lon="15.03872035788561"><ele>108.33333333333334</ele><time>2026-04-04T13:28:00.999Z</time></trkpt><trkpt lat="36.87232975847403" lon="15.03857908038029"><ele>108.0</ele><time>2026-04-04T13:28:01.999Z</time></trkpt><trkpt lat="36.872209963584154" lon="15.038413287310156"><ele>107.66666666666666</ele><time>2026-04-04T13:28:02.999Z</time></trkpt><trkpt lat="36.87208200142395" lon="15.0382525496627"><ele>107.33333333333333</ele><time>2026-04-04T13:28:03.999Z</time></trkpt><trkpt lat="36.87195639702617" lon="15.038099311683245"><ele>107.0</ele><time>2026-04-04T13:28:04.999Z</time></trkpt><trkpt lat="36.87184913970775" lon="15.03795704177861"><ele>107.25</ele><time>2026-04-04T13:28:05.999Z</time></trkpt><trkpt lat="36.87175394198921" lon="15.037831299958071"><ele>107.5</ele><time>2026-04-04T13:28:06.999Z</time></trkpt><trkpt lat="36.871669470942855" lon="15.037714961103042"><ele>107.75</ele><time>2026-04-04T13:28:07.999Z</time></trkpt><trkpt lat="36.871585303777586" lon="15.037602589727873"><ele>108.0</ele><time>2026-04-04T13:28:08.999Z</time></trkpt><trkpt lat="36.87149465810135" lon="15.03748201564807"><ele>108.75</ele><time>2026-04-04T13:28:09.999Z</time></trkpt><trkpt lat="36.871407952512854" lon="15.037354102901512"><ele>109.5</ele><time>2026-04-04T13:28:10.999Z</time></trkpt><trkpt lat="36.87133664882231" lon="15.03720922012693"><ele>110.25</ele><time>2026-04-04T13:28:11.999Z</time></trkpt><trkpt lat="36.87128535902914" lon="15.037052641812364"><ele>111.0</ele><time>2026-04-04T13:28:12.999Z</time></trkpt><trkpt lat="36.87124684404175" lon="15.036893255728096"><ele>111.0</ele><time>2026-04-04T13:28:13.999Z</time></trkpt><trkpt lat="36.871220670363705" lon="15.03672963978621"><ele>111.0</ele><time>2026-04-04T13:28:14.999Z</time></trkpt><trkpt lat="36.871202528807444" lon="15.03656255622646"><ele>111.0</ele><time>2026-04-04T13:28:15.999Z</time></trkpt><trkpt lat="36.8711760590989" lon="15.036391562177592"><ele>111.0</ele><time>2026-04-04T13:28:16.999Z</time></trkpt><trkpt lat="36.871132477948734" lon="15.036209233302703"><ele>111.66666666666666</ele><time>2026-04-04T13:28:17.999Z</time></trkpt><trkpt lat="36.871066343241004" lon="15.036027288686352"><ele>112.33333333333333</ele><time>2026-04-04T13:28:18.999Z</time></trkpt><trkpt lat="36.87096050033812" lon="15.035859349661003"><ele>113.0</ele><time>2026-04-04T13:28:19.999Z</time></trkpt><trkpt lat="36.870826466860194" lon="15.035706481487967"><ele>117.0</ele><time>2026-04-04T13:28:20.999Z</time></trkpt><trkpt lat="36.87069573144186" lon="15.035597655511783"><ele>121.0</ele><time>2026-04-04T13:28:21.999Z</time></trkpt><trkpt lat="36.87057267242303" lon="15.035529004239814"><ele>125.0</ele><time>2026-04-04T13:28:22.999Z</time></trkpt><trkpt lat="36.87044365294085" lon="15.035472795060574"><ele>129.0</ele><time>2026-04-04T13:28:23.999Z</time></trkpt><trkpt lat="36.87031301258929" lon="15.035440204920658"><ele>129.0</ele><time>2026-04-04T13:28:24.999Z</time></trkpt><trkpt lat="36.870181186463306" lon="15.03542614484042"><ele>129.0</ele><time>2026-04-04T13:28:25.999Z</time></trkpt><trkpt lat="36.870049122915105" lon="15.035435564895666"><ele>129.0</ele><time>2026-04-04T13:28:26.999Z</time></trkpt><trkpt lat="36.86991412645491" lon="15.035463352867257"><ele>129.0</ele><time>2026-04-04T13:28:27.999Z</time></trkpt><trkpt lat="36.86978222955061" lon="15.03551188416441"><ele>128.75</ele><time>2026-04-04T13:28:28.999Z</time></trkpt><trkpt lat="36.86965527639023" lon="15.0355770629484"><ele>128.5</ele><time>2026-04-04T13:28:29.999Z</time></trkpt><trkpt lat="36.86953222997631" lon="15.03564213312501"><ele>128.25</ele><time>2026-04-04T13:28:30.999Z</time></trkpt><trkpt lat="36.86941307175434" lon="15.035694726471105"><ele>128.0</ele><time>2026-04-04T13:28:31.999Z</time></trkpt><trkpt lat="36.86929348644986" lon="15.035730773768938"><ele>129.0</ele><time>2026-04-04T13:28:32.999Z</time></trkpt><trkpt lat="36.86916803300482" lon="15.035742598223807"><ele>130.0</ele><time>2026-04-04T13:28:33.999Z</time></trkpt><trkpt lat="36.86903464530156" lon="15.03573019961153"><ele>131.0</ele><time>2026-04-04T13:28:34.999Z</time></trkpt><trkpt lat="36.868900964377595" lon="15.035693495801814"><ele>132.0</ele><time>2026-04-04T13:28:35.999Z</time></trkpt><trkpt lat="36.868780069258264" lon="15.035638857895673"><ele>132.0</ele><time>2026-04-04T13:28:36.999Z</time></trkpt><trkpt lat="36.86867387819142" lon="15.035558913542518"><ele>132.0</ele><time>2026-04-04T13:28:37.999Z</time></trkpt><trkpt lat="36.868577717315596" lon="15.035451595823988"><ele>132.0</ele><time>2026-04-04T13:28:38.999Z</time></trkpt><trkpt lat="36.86848911721153" lon="15.03532642669932"><ele>132.0</ele><time>2026-04-04T13:28:39.999Z</time></trkpt><trkpt lat="36.86840868849803" lon="15.035193009696659"><ele>132.75</ele><time>2026-04-04T13:28:40.999Z</time></trkpt><trkpt lat="36.86834700768964" lon="15.035054968602395"><ele>133.5</ele><time>2026-04-04T13:28:42Z</time></trkpt><trkpt lat="36.86829343654568" lon="15.034911415443204"><ele>134.25</ele><time>2026-04-04T13:28:43Z</time></trkpt><trkpt lat="36.86824185660612" lon="15.034761949327953"><ele>135.0</ele><time>2026-04-04T13:28:44Z</time></trkpt><trkpt lat="36.86818191584047" lon="15.03460267946031"><ele>135.0</ele><time>2026-04-04T13:28:45Z</time></trkpt><trkpt lat="36.86812172968167" lon="15.03443808669274"><ele>135.0</ele><time>2026-04-04T13:28:46Z</time></trkpt><trkpt lat="36.868063083582655" lon="15.034264726115955"><ele>135.0</ele><time>2026-04-04T13:28:47Z</time></trkpt><trkpt lat="36.86801262155984" lon="15.03408466960714"><ele>135.0</ele><time>2026-04-04T13:28:48Z</time></trkpt><trkpt lat="36.867966152227375" lon="15.033898799680316"><ele>136.33333333333334</ele><time>2026-04-04T13:28:49Z</time></trkpt><trkpt lat="36.86792191678138" lon="15.033715448888481"><ele>137.66666666666669</ele><time>2026-04-04T13:28:50Z</time></trkpt><trkpt lat="36.867874207624176" lon="15.033534014475755"><ele>139.0</ele><time>2026-04-04T13:28:51Z</time></trkpt><trkpt lat="36.86782383069414" lon="15.033349549152298"><ele>138.33333333333334</ele><time>2026-04-04T13:28:52Z</time></trkpt><trkpt lat="36.86777211256728" lon="15.033165892865982"><ele>137.66666666666666</ele><time>2026-04-04T13:28:53Z</time></trkpt><trkpt lat="36.86771887584744" lon="15.032981356446074"><ele>137.0</ele><time>2026-04-04T13:28:54Z</time></trkpt><trkpt lat="36.86766962995761" lon="15.032801551942653"><ele>137.0</ele><time>2026-04-04T13:28:55Z</time></trkpt><trkpt lat="36.86762324110173" lon="15.032625384044318"><ele>137.0</ele><time>2026-04-04T13:28:56Z</time></trkpt><trkpt lat="36.86757752502963" lon="15.032452695644182"><ele>137.0</ele><time>2026-04-04T13:28:57Z</time></trkpt><trkpt lat="36.867528589561545" lon="15.032276443503118"><ele>137.0</ele><time>2026-04-04T13:28:58Z</time></trkpt><trkpt lat="36.86748267147428" lon="15.032094952574974"><ele>132.25</ele><time>2026-04-04T13:28:59Z</time></trkpt><trkpt lat="36.8674450463219" lon="15.031928814583145"><ele>127.5</ele><time>2026-04-04T13:29:00Z</time></trkpt><trkpt lat="36.86741730403135" lon="15.031753976768853"><ele>122.75</ele><time>2026-04-04T13:29:01Z</time></trkpt><trkpt lat="36.86740521481264" lon="15.031569072350964"><ele>118.0</ele><time>2026-04-04T13:29:02Z</time></trkpt><trkpt lat="36.8674022406423" lon="15.03138086249359"><ele>117.66666666666667</ele><time>2026-04-04T13:29:03Z</time></trkpt><trkpt lat="36.86740832602186" lon="15.031187523806539"><ele>117.33333333333334</ele><time>2026-04-04T13:29:04Z</time></trkpt><trkpt lat="36.86742202560889" lon="15.030990569160315"><ele>117.0</ele><time>2026-04-04T13:29:05Z</time></trkpt><trkpt lat="36.867437408507186" lon="15.030793537000228"><ele>115.66666666666666</ele><time>2026-04-04T13:29:06Z</time></trkpt><trkpt lat="36.86745044209488" lon="15.030597706547317"><ele>114.33333333333333</ele><time>2026-04-04T13:29:07Z</time></trkpt><trkpt lat="36.86746125510379" lon="15.030395654051294"><ele>113.0</ele><time>2026-04-04T13:29:08Z</time></trkpt><trkpt lat="36.86747473610688" lon="15.030192062501687"><ele>113.0</ele><time>2026-04-04T13:29:09Z</time></trkpt><trkpt lat="36.867486226347125" lon="15.029987085370022"><ele>113.0</ele><time>2026-04-04T13:29:10Z</time></trkpt><trkpt lat="36.86750060140466" lon="15.029789140041094"><ele>113.0</ele><time>2026-04-04T13:29:11Z</time></trkpt><trkpt lat="36.867517758645604" lon="15.029594770221436"><ele>113.0</ele><time>2026-04-04T13:29:12Z</time></trkpt><trkpt lat="36.86754326620492" lon="15.029405282269801"><ele>113.0</ele><time>2026-04-04T13:29:13Z</time></trkpt><trkpt lat="36.86760020681206" lon="15.029231394453305"><ele>113.0</ele><time>2026-04-04T13:29:14Z</time></trkpt><trkpt lat="36.86767560167443" lon="15.029023970351558"><ele>114.66666666666666</ele><time>2026-04-04T13:29:15Z</time></trkpt><trkpt lat="36.86775717378533" lon="15.028818028541243"><ele>116.33333333333334</ele><time>2026-04-04T13:29:16Z</time></trkpt><trkpt lat="36.86783195569021" lon="15.028609459184159"><ele>118.0</ele><time>2026-04-04T13:29:17Z</time></trkpt><trkpt lat="36.86790541590199" lon="15.028407143676331"><ele>117.33333333333334</ele><time>2026-04-04T13:29:18Z</time></trkpt><trkpt lat="36.867978809829665" lon="15.028212309405172"><ele>116.66666666666666</ele><time>2026-04-04T13:29:19Z</time></trkpt><trkpt lat="36.868054505795556" lon="15.028012391767904"><ele>116.0</ele><time>2026-04-04T13:29:20Z</time></trkpt><trkpt lat="36.86812923049966" lon="15.027813587164726"><ele>116.0</ele><time>2026-04-04T13:29:21Z</time></trkpt><trkpt lat="36.86820297739794" lon="15.027611657415752"><ele>116.0</ele><time>2026-04-04T13:29:22Z</time></trkpt><trkpt lat="36.86827866214411" lon="15.02741089283806"><ele>116.0</ele><time>2026-04-04T13:29:23Z</time></trkpt><trkpt lat="36.86835497690887" lon="15.027211795906835"><ele>116.0</ele><time>2026-04-04T13:29:24Z</time></trkpt><trkpt lat="36.868430021361114" lon="15.02701133118832"><ele>116.0</ele><time>2026-04-04T13:29:25Z</time></trkpt><trkpt lat="36.86850364427158" lon="15.026808907308023"><ele>116.0</ele><time>2026-04-04T13:29:26Z</time></trkpt><trkpt lat="36.868574667345214" lon="15.026606663279198"><ele>118.0</ele><time>2026-04-04T13:29:27Z</time></trkpt><trkpt lat="36.868647756219254" lon="15.026405300485845"><ele>120.0</ele><time>2026-04-04T13:29:28Z</time></trkpt><trkpt lat="36.868724256721976" lon="15.02620805552494"><ele>122.0</ele><time>2026-04-04T13:29:29Z</time></trkpt><trkpt lat="36.86880064341539" lon="15.02601078544801"><ele>122.0</ele><time>2026-04-04T13:29:30Z</time></trkpt><trkpt lat="36.86887526032195" lon="15.025814784545764"><ele>122.0</ele><time>2026-04-04T13:29:31Z</time></trkpt><trkpt lat="36.86894783156946" lon="15.025619088096729"><ele>122.0</ele><time>2026-04-04T13:29:32Z</time></trkpt><trkpt lat="36.86901991547364" lon="15.025425550956903"><ele>122.33333333333333</ele><time>2026-04-04T13:29:33Z</time></trkpt><trkpt lat="36.86909047631084" lon="15.02523373359189"><ele>122.66666666666666</ele><time>2026-04-04T13:29:34Z</time></trkpt><trkpt lat="36.86916158584372" lon="15.025045477310107"><ele>123.0</ele><time>2026-04-04T13:29:34.999Z</time></trkpt><trkpt lat="36.8692310245925" lon="15.024867361988552"><ele>125.75</ele><time>2026-04-04T13:29:35.999Z</time></trkpt><trkpt lat="36.86929796978181" lon="15.024715928157093"><ele>128.5</ele><time>2026-04-04T13:29:36.999Z</time></trkpt><trkpt lat="36.86934847000586" lon="15.02457671499127"><ele>131.25</ele><time>2026-04-04T13:29:37.999Z</time></trkpt><trkpt lat="36.869374739486354" lon="15.024441979889826"><ele>134.0</ele><time>2026-04-04T13:29:38.999Z</time></trkpt><trkpt lat="36.86936805078585" lon="15.02431475685099"><ele>134.0</ele><time>2026-04-04T13:29:39.999Z</time></trkpt><trkpt lat="36.869332575385194" lon="15.024189000333347"><ele>134.0</ele><time>2026-04-04T13:29:40.999Z</time></trkpt><trkpt lat="36.869262404737995" lon="15.024088490619771"><ele>134.0</ele><time>2026-04-04T13:29:41.999Z</time></trkpt><trkpt lat="36.869171773410365" lon="15.024010929309599"><ele>134.0</ele><time>2026-04-04T13:29:42.999Z</time></trkpt><trkpt lat="36.8690594557774" lon="15.023955977309608"><ele>134.0</ele><time>2026-04-04T13:29:43.999Z</time></trkpt><trkpt lat="36.86893929360663" lon="15.023918536608152"><ele>134.75</ele><time>2026-04-04T13:29:44.999Z</time></trkpt><trkpt lat="36.86880658488153" lon="15.023910702298053"><ele>135.5</ele><time>2026-04-04T13:29:45.999Z</time></trkpt><trkpt lat="36.868664082096515" lon="15.023932443210693"><ele>136.25</ele><time>2026-04-04T13:29:46.999Z</time></trkpt><trkpt lat="36.868519374980124" lon="15.023972235263967"><ele>137.0</ele><time>2026-04-04T13:29:47.999Z</time></trkpt><trkpt lat="36.8683745111449" lon="15.02400873117241"><ele>137.0</ele><time>2026-04-04T13:29:48.999Z</time></trkpt><trkpt lat="36.86823373934233" lon="15.024042540562984"><ele>137.0</ele><time>2026-04-04T13:29:49.999Z</time></trkpt><trkpt lat="36.86809414090682" lon="15.02407566543471"><ele>137.0</ele><time>2026-04-04T13:29:50.999Z</time></trkpt><trkpt lat="36.86797147882811" lon="15.02410821333153"><ele>137.0</ele><time>2026-04-04T13:29:51.999Z</time></trkpt><trkpt lat="36.86784575923777" lon="15.024121345144916"><ele>136.79999999999998</ele><time>2026-04-04T13:29:52.999Z</time></trkpt><trkpt lat="36.86771814769014" lon="15.024149029858547"><ele>136.6</ele><time>2026-04-04T13:29:53.999Z</time></trkpt><trkpt lat="36.86759703006237" lon="15.024191722084653"><ele>136.39999999999998</ele><time>2026-04-04T13:29:54.999Z</time></trkpt><trkpt lat="36.86750137616869" lon="15.024196431260663"><ele>136.2</ele><time>2026-04-04T13:29:55.999Z</time></trkpt><trkpt lat="36.867423674499584" lon="15.024214398509946"><ele>136.0</ele><time>2026-04-04T13:29:57.999Z</time></trkpt><trkpt lat="36.867403857819866" lon="15.024134321349619"><ele>138.8</ele><time>2026-04-04T13:30:01.999Z</time></trkpt><trkpt lat="36.867314381922604" lon="15.024065409109674"><ele>141.6</ele><time>2026-04-04T13:30:04.999Z</time></trkpt><trkpt lat="36.867237010763226" lon="15.023983644580442"><ele>144.4</ele><time>2026-04-04T13:30:06.999Z</time></trkpt><trkpt lat="36.86715469360269" lon="15.023970425236616"><ele>147.2</ele><time>2026-04-04T13:30:08.999Z</time></trkpt><trkpt lat="36.867077085744796" lon="15.023983015897022"><ele>150.0</ele><time>2026-04-04T13:30:09.999Z</time></trkpt><trkpt lat="36.86697944370585" lon="15.023960025071384"><ele>150.0</ele><time>2026-04-04T13:30:11.999Z</time></trkpt><trkpt lat="36.86685286464938" lon="15.023966421972181"><ele>150.0</ele><time>2026-04-04T13:30:13.999Z</time></trkpt><trkpt lat="36.866791105652844" lon="15.023880111976876"><ele>150.0</ele><time>2026-04-04T13:30:15.999Z</time></trkpt><trkpt lat="36.866726860505175" lon="15.023833039675754"><ele>150.0</ele><time>2026-04-04T13:30:16.999Z</time></trkpt><trkpt lat="36.866663945095134" lon="15.023786569921453"><ele>150.0</ele><time>2026-04-04T13:30:17.999Z</time></trkpt><trkpt lat="36.86660677053465" lon="15.023720076459078"><ele>150.0</ele><time>2026-04-04T13:30:18.999Z</time></trkpt><trkpt lat="36.86655381063713" lon="15.023648062419971"><ele>150.66666666666666</ele><time>2026-04-04T13:30:19.999Z</time></trkpt><trkpt lat="36.86649714041553" lon="15.023565454933582"><ele>151.33333333333334</ele><time>2026-04-04T13:30:20.999Z</time></trkpt><trkpt lat="36.86645476301115" lon="15.023503546738631"><ele>152.0</ele><time>2026-04-04T13:30:21.999Z</time></trkpt><trkpt lat="36.86633536328096" lon="15.023476315709742"><ele>152.66666666666669</ele><time>2026-04-04T13:30:23.999Z</time></trkpt><trkpt lat="36.86624420250736" lon="15.023488781373832"><ele>153.33333333333334</ele><time>2026-04-04T13:30:24.999Z</time></trkpt><trkpt lat="36.86617525290263" lon="15.02347190092552"><ele>154.0</ele><time>2026-04-04T13:30:25.999Z</time></trkpt><trkpt lat="36.866074226152634" lon="15.023415264718281"><ele>154.0</ele><time>2026-04-04T13:30:27.999Z</time></trkpt><trkpt lat="36.86599203195222" lon="15.023388409738443"><ele>154.0</ele><time>2026-04-04T13:30:29.999Z</time></trkpt><trkpt lat="36.86594629705513" lon="15.023331643359027"><ele>154.0</ele><time>2026-04-04T13:30:33.999Z</time></trkpt><trkpt lat="36.86601573567219" lon="15.023286346641905"><ele>154.0</ele><time>2026-04-04T13:30:36.999Z</time></trkpt><trkpt lat="36.866109322568555" lon="15.023161283597517"><ele>154.0</ele><time>2026-04-04T13:30:38.999Z</time></trkpt><trkpt lat="36.86619346996229" lon="15.023098310177316"><ele>154.25</ele><time>2026-04-04T13:30:39.999Z</time></trkpt><trkpt lat="36.86627510915184" lon="15.022982085681896"><ele>154.5</ele><time>2026-04-04T13:30:40.999Z</time></trkpt><trkpt lat="36.86636444449629" lon="15.022909010917028"><ele>154.75</ele><time>2026-04-04T13:30:41.999Z</time></trkpt><trkpt lat="36.866447719086764" lon="15.022815923973068"><ele>155.0</ele><time>2026-04-04T13:30:42.999Z</time></trkpt><trkpt lat="36.866548175742224" lon="15.022702621896544"><ele>155.0</ele><time>2026-04-04T13:30:43.999Z</time></trkpt><trkpt lat="36.86666803233727" lon="15.022567041320443"><ele>155.0</ele><time>2026-04-04T13:30:44.999Z</time></trkpt><trkpt lat="36.86680116883048" lon="15.022413486174528"><ele>155.0</ele><time>2026-04-04T13:30:45.999Z</time></trkpt><trkpt lat="36.86692290480821" lon="15.02224450802997"><ele>157.0</ele><time>2026-04-04T13:30:47Z</time></trkpt><trkpt lat="36.8670310307203" lon="15.022134563803634"><ele>159.0</ele><time>2026-04-04T13:30:48Z</time></trkpt><trkpt lat="36.8670962642584" lon="15.022024081693896"><ele>161.0</ele><time>2026-04-04T13:30:49Z</time></trkpt><trkpt lat="36.86716990614328" lon="15.021930332252513"><ele>163.0</ele><time>2026-04-04T13:30:50Z</time></trkpt><trkpt lat="36.86724848213404" lon="15.021859791073048"><ele>163.0</ele><time>2026-04-04T13:30:51Z</time></trkpt><trkpt lat="36.86729941487411" lon="15.021794971448195"><ele>163.0</ele><time>2026-04-04T13:30:52Z</time></trkpt><trkpt lat="36.867343976054606" lon="15.021737875255777"><ele>163.0</ele><time>2026-04-04T13:30:54Z</time></trkpt><trkpt lat="36.867243195933774" lon="15.021643580662923"><ele>163.0</ele><time>2026-04-04T13:30:56Z</time></trkpt><trkpt lat="36.867165817485436" lon="15.021542886735245"><ele>163.0</ele><time>2026-04-04T13:30:58Z</time></trkpt><trkpt lat="36.86711281925221" lon="15.021404414247817"><ele>163.0</ele><time>2026-04-04T13:31:00Z</time></trkpt><trkpt lat="36.86708656879204" lon="15.021324734012605"><ele>163.0</ele><time>2026-04-04T13:31:01Z</time></trkpt><trkpt lat="36.867058948811824" lon="15.021222538812815"><ele>163.0</ele><time>2026-04-04T13:31:02Z</time></trkpt><trkpt lat="36.86701235600492" lon="15.021117648970574"><ele>163.0</ele><time>2026-04-04T13:31:03Z</time></trkpt><trkpt lat="36.866982262215856" lon="15.021012022928184"><ele>163.0</ele><time>2026-04-04T13:31:04Z</time></trkpt><trkpt lat="36.86694407679827" lon="15.020919596496917"><ele>163.0</ele><time>2026-04-04T13:31:05Z</time></trkpt><trkpt lat="36.86690306420367" lon="15.0208241603471"><ele>162.0</ele><time>2026-04-04T13:31:06Z</time></trkpt><trkpt lat="36.86685683552866" lon="15.020724881911311"><ele>161.0</ele><time>2026-04-04T13:31:07Z</time></trkpt><trkpt lat="36.866824485416466" lon="15.020643328473053"><ele>160.0</ele><time>2026-04-04T13:31:08Z</time></trkpt><trkpt lat="36.86679808297353" lon="15.020547002942676"><ele>159.0</ele><time>2026-04-04T13:31:09Z</time></trkpt><trkpt lat="36.86677048664422" lon="15.020448196429856"><ele>158.0</ele><time>2026-04-04T13:31:10Z</time></trkpt><trkpt lat="36.86674046551617" lon="15.020376248127866"><ele>157.0</ele><time>2026-04-04T13:31:11Z</time></trkpt><trkpt lat="36.86671455439979" lon="15.020291928862779"><ele>153.83333333333334</ele><time>2026-04-04T13:31:12Z</time></trkpt><trkpt lat="36.866663770863205" lon="15.020145406317312"><ele>150.66666666666669</ele><time>2026-04-04T13:31:14Z</time></trkpt><trkpt lat="36.866645574540414" lon="15.020066482871984"><ele>147.5</ele><time>2026-04-04T13:31:15Z</time></trkpt><trkpt lat="36.8666042604343" lon="15.020002784370762"><ele>144.33333333333334</ele><time>2026-04-04T13:31:16Z</time></trkpt><trkpt lat="36.86655185339451" lon="15.019910837146735"><ele>141.16666666666666</ele><time>2026-04-04T13:31:18Z</time></trkpt><trkpt lat="36.866594995765986" lon="15.019802539175034"><ele>138.0</ele><time>2026-04-04T13:31:20Z</time></trkpt><trkpt lat="36.86663063567217" lon="15.019702368991819"><ele>139.8</ele><time>2026-04-04T13:31:22Z</time></trkpt><trkpt lat="36.86672677504643" lon="15.019560367593222"><ele>141.60000000000002</ele><time>2026-04-04T13:31:25Z</time></trkpt><trkpt lat="36.866794827206455" lon="15.019515998156887"><ele>143.39999999999998</ele><time>2026-04-04T13:31:26Z</time></trkpt><trkpt lat="36.86686405523171" lon="15.019439120140536"><ele>145.2</ele><time>2026-04-04T13:31:28Z</time></trkpt><trkpt lat="36.86679052543261" lon="15.019411423034802"><ele>147.0</ele><time>2026-04-04T13:31:30Z</time></trkpt><trkpt lat="36.86663554013336" lon="15.01937569717184"><ele>143.5</ele><time>2026-04-04T13:31:32Z</time></trkpt><trkpt lat="36.86655629599861" lon="15.019379715954914"><ele>140.0</ele><time>2026-04-04T13:31:33Z</time></trkpt><trkpt lat="36.8664878844114" lon="15.019381381760448"><ele>136.5</ele><time>2026-04-04T13:31:34Z</time></trkpt><trkpt lat="36.866424585257946" lon="15.01938915758379"><ele>133.0</ele><time>2026-04-04T13:31:35Z</time></trkpt><trkpt lat="36.866359586635106" lon="15.019406633072952"><ele>129.5</ele><time>2026-04-04T13:31:35.999Z</time></trkpt><trkpt lat="36.86629294759901" lon="15.019432565764786"><ele>126.0</ele><time>2026-04-04T13:31:36.999Z</time></trkpt><trkpt lat="36.86619234703073" lon="15.019397259413958"><ele>126.0</ele><time>2026-04-04T13:31:38.999Z</time></trkpt><trkpt lat="36.866153704417634" lon="15.019295927316218"><ele>126.0</ele><time>2026-04-04T13:31:40.999Z</time></trkpt><trkpt lat="36.8661303180502" lon="15.01917906607878"><ele>126.0</ele><time>2026-04-04T13:31:42.999Z</time></trkpt><trkpt lat="36.86609179088357" lon="15.019035836208449"><ele>126.0</ele><time>2026-04-04T13:31:44.999Z</time></trkpt><trkpt lat="36.866123257635635" lon="15.018966283961502"><ele>126.0</ele><time>2026-04-04T13:31:46.999Z</time></trkpt><trkpt lat="36.86609423060941" lon="15.018878366519406"><ele>126.0</ele><time>2026-04-04T13:31:48.999Z</time></trkpt><trkpt lat="36.86606516429064" lon="15.018790074983068"><ele>125.42857142857143</ele><time>2026-04-04T13:31:51.999Z</time></trkpt><trkpt lat="36.86601340023893" lon="15.01873519892034"><ele>124.85714285714286</ele><time>2026-04-04T13:32:03.999Z</time></trkpt><trkpt lat="36.86598199692823" lon="15.018657136008908"><ele>124.28571428571428</ele><time>2026-04-04T13:32:06.999Z</time></trkpt><trkpt lat="36.86590367160098" lon="15.018613747651765"><ele>123.71428571428571</ele><time>2026-04-04T13:32:09.999Z</time></trkpt><trkpt lat="36.865832743752506" lon="15.018617735890649"><ele>123.14285714285714</ele><time>2026-04-04T13:32:11.999Z</time></trkpt><trkpt lat="36.86576879742458" lon="15.0185824000588"><ele>122.57142857142856</ele><time>2026-04-04T13:32:13.999Z</time></trkpt><trkpt lat="36.86570510516803" lon="15.018523644279453"><ele>121.99999999999999</ele><time>2026-04-04T13:32:15.999Z</time></trkpt><trkpt lat="36.8656122017611" lon="15.018463382647097"><ele>120.99999999999999</ele><time>2026-04-04T13:32:17.999Z</time></trkpt><trkpt lat="36.86555559258118" lon="15.018395409113886"><ele>120.0</ele><time>2026-04-04T13:32:19.999Z</time></trkpt><trkpt lat="36.865493441530774" lon="15.018340747691676"><ele>119.0</ele><time>2026-04-04T13:32:22.999Z</time></trkpt><trkpt lat="36.86541945428745" lon="15.018288743135077"><ele>118.0</ele><time>2026-04-04T13:32:24.999Z</time></trkpt><trkpt lat="36.86534726530977" lon="15.018234879802163"><ele>116.99999999999999</ele><time>2026-04-04T13:32:26.999Z</time></trkpt><trkpt lat="36.8652573938675" lon="15.018189467887614"><ele>116.0</ele><time>2026-04-04T13:32:28.999Z</time></trkpt><trkpt lat="36.8651896482519" lon="15.018118361626541"><ele>113.33333333333333</ele><time>2026-04-04T13:32:30.999Z</time></trkpt><trkpt lat="36.86510504766146" lon="15.0180619433004"><ele>110.66666666666666</ele><time>2026-04-04T13:32:32.999Z</time></trkpt><trkpt lat="36.86502839925903" lon="15.018004104207725"><ele>108.0</ele><time>2026-04-04T13:32:34.999Z</time></trkpt><trkpt lat="36.864984627255645" lon="15.017941054678925"><ele>105.33333333333334</ele><time>2026-04-04T13:32:35.999Z</time></trkpt><trkpt lat="36.86493474106048" lon="15.017849694747742"><ele>102.66666666666667</ele><time>2026-04-04T13:32:37.999Z</time></trkpt><trkpt lat="36.864954937477094" lon="15.017768460768758"><ele>100.0</ele><time>2026-04-04T13:32:40.999Z</time></trkpt><trkpt lat="36.86496706668989" lon="15.01756146106113"><ele>100.6</ele><time>2026-04-04T13:32:42.999Z</time></trkpt><trkpt lat="36.86498860923694" lon="15.017469900690802"><ele>101.2</ele><time>2026-04-04T13:32:43.999Z</time></trkpt><trkpt lat="36.865043110357846" lon="15.017387979154085"><ele>101.80000000000001</ele><time>2026-04-04T13:32:44.999Z</time></trkpt><trkpt lat="36.865062041494575" lon="15.017265024776005"><ele>102.4</ele><time>2026-04-04T13:32:45.999Z</time></trkpt><trkpt lat="36.86507234638648" lon="15.017177470343936"><ele>103.0</ele><time>2026-04-04T13:32:46.999Z</time></trkpt><trkpt lat="36.86506715189401" lon="15.01701223892425"><ele>103.00000000000001</ele><time>2026-04-04T13:32:48.999Z</time></trkpt><trkpt lat="36.865038092194716" lon="15.016931684336953"><ele>103.0</ele><time>2026-04-04T13:32:49.999Z</time></trkpt><trkpt lat="36.864980419167665" lon="15.01686023910922"><ele>103.0</ele><time>2026-04-04T13:32:50.999Z</time></trkpt><trkpt lat="36.86495752181653" lon="15.016771434837837"><ele>103.0</ele><time>2026-04-04T13:32:51.999Z</time></trkpt><trkpt lat="36.86483342414621" lon="15.01674332001148"><ele>103.00000000000001</ele><time>2026-04-04T13:32:53Z</time></trkpt><trkpt lat="36.86478717810281" lon="15.016663538723483"><ele>103.0</ele><time>2026-04-04T13:32:54Z</time></trkpt><trkpt lat="36.864753178551666" lon="15.016573896074465"><ele>104.66666666666667</ele><time>2026-04-04T13:32:55Z</time></trkpt><trkpt lat="36.86472986222682" lon="15.01648243630784"><ele>106.33333333333334</ele><time>2026-04-04T13:32:56Z</time></trkpt><trkpt lat="36.86470513811259" lon="15.016367528129498"><ele>108.0</ele><time>2026-04-04T13:32:58Z</time></trkpt><trkpt lat="36.86468216137023" lon="15.01625977915278"><ele>109.66666666666666</ele><time>2026-04-04T13:33:00Z</time></trkpt><trkpt lat="36.864659219352085" lon="15.016162823736554"><ele>111.33333333333333</ele><time>2026-04-04T13:33:01Z</time></trkpt><trkpt lat="36.86461003972" lon="15.016050469927904"><ele>113.0</ele><time>2026-04-04T13:33:03Z</time></trkpt><trkpt lat="36.864574223330024" lon="15.015973145980277"><ele>113.0</ele><time>2026-04-04T13:33:04Z</time></trkpt><trkpt lat="36.86454118834632" lon="15.015900566639203"><ele>113.00000000000001</ele><time>2026-04-04T13:33:05Z</time></trkpt><trkpt lat="36.864499487705366" lon="15.015745477603614"><ele>113.00000000000001</ele><time>2026-04-04T13:33:07Z</time></trkpt><trkpt lat="36.86441865712905" lon="15.01561757875574"><ele>113.0</ele><time>2026-04-04T13:33:09Z</time></trkpt><trkpt lat="36.86435257709693" lon="15.015560062521583"><ele>113.0</ele><time>2026-04-04T13:33:10Z</time></trkpt><trkpt lat="36.86427666457908" lon="15.015471999951592"><ele>110.4</ele><time>2026-04-04T13:33:11Z</time></trkpt><trkpt lat="36.86419983250723" lon="15.015395798246356"><ele>107.80000000000001</ele><time>2026-04-04T13:33:12Z</time></trkpt><trkpt lat="36.864094266985056" lon="15.01533105943448"><ele>105.2</ele><time>2026-04-04T13:33:13Z</time></trkpt><trkpt lat="36.863978069000936" lon="15.015279611164823"><ele>102.6</ele><time>2026-04-04T13:33:14Z</time></trkpt><trkpt lat="36.863883381819186" lon="15.015224531116584"><ele>100.0</ele><time>2026-04-04T13:33:15Z</time></trkpt><trkpt lat="36.863804468372365" lon="15.015154154974747"><ele>100.0</ele><time>2026-04-04T13:33:16Z</time></trkpt><trkpt lat="36.86373655767704" lon="15.01507922021664"><ele>100.0</ele><time>2026-04-04T13:33:17Z</time></trkpt><trkpt lat="36.86367516129714" lon="15.014994398595025"><ele>100.0</ele><time>2026-04-04T13:33:18Z</time></trkpt><trkpt lat="36.86360833673718" lon="15.014888766673922"><ele>100.0</ele><time>2026-04-04T13:33:19Z</time></trkpt><trkpt lat="36.863538055389554" lon="15.014778552109721"><ele>100.0</ele><time>2026-04-04T13:33:20Z</time></trkpt><trkpt lat="36.863458542110024" lon="15.014663992656317"><ele>96.8</ele><time>2026-04-04T13:33:21Z</time></trkpt><trkpt lat="36.86337060179562" lon="15.014549573962931"><ele>93.6</ele><time>2026-04-04T13:33:22Z</time></trkpt><trkpt lat="36.86329658123468" lon="15.01445230752338"><ele>90.4</ele><time>2026-04-04T13:33:23Z</time></trkpt><trkpt lat="36.863231441514486" lon="15.014351822980911"><ele>87.2</ele><time>2026-04-04T13:33:24Z</time></trkpt><trkpt lat="36.86316986405912" lon="15.014248957589704"><ele>84.0</ele><time>2026-04-04T13:33:25Z</time></trkpt><trkpt lat="36.86311608314792" lon="15.014134505034574"><ele>83.0</ele><time>2026-04-04T13:33:26Z</time></trkpt><trkpt lat="36.8630648418024" lon="15.014017887516445"><ele>82.0</ele><time>2026-04-04T13:33:27Z</time></trkpt><trkpt lat="36.86301154749244" lon="15.013898587487162"><ele>81.0</ele><time>2026-04-04T13:33:28Z</time></trkpt><trkpt lat="36.862972249687814" lon="15.013769756120357"><ele>80.0</ele><time>2026-04-04T13:33:29Z</time></trkpt><trkpt lat="36.86293180794769" lon="15.013645515864642"><ele>79.0</ele><time>2026-04-04T13:33:30Z</time></trkpt><trkpt lat="36.86288506987894" lon="15.0135096938111"><ele>79.0</ele><time>2026-04-04T13:33:31Z</time></trkpt><trkpt lat="36.86282295828586" lon="15.013395052347311"><ele>79.0</ele><time>2026-04-04T13:33:32Z</time></trkpt><trkpt lat="36.86278455929491" lon="15.013282708577469"><ele>79.0</ele><time>2026-04-04T13:33:33Z</time></trkpt><trkpt lat="36.86275433776918" lon="15.0131684897653"><ele>79.0</ele><time>2026-04-04T13:33:34Z</time></trkpt><trkpt lat="36.862710622614046" lon="15.013077482164734"><ele>79.0</ele><time>2026-04-04T13:33:35Z</time></trkpt><trkpt lat="36.86266884703195" lon="15.013011442475655"><ele>78.2</ele><time>2026-04-04T13:33:36Z</time></trkpt><trkpt lat="36.86263023728423" lon="15.01294892438657"><ele>77.4</ele><time>2026-04-04T13:33:38Z</time></trkpt><trkpt lat="36.86263419257346" lon="15.012792350455996"><ele>76.6</ele><time>2026-04-04T13:33:39Z</time></trkpt><trkpt lat="36.86261079773738" lon="15.012659927576182"><ele>75.8</ele><time>2026-04-04T13:33:40Z</time></trkpt><trkpt lat="36.86259107999022" lon="15.012543406364468"><ele>75.0</ele><time>2026-04-04T13:33:40.999Z</time></trkpt><trkpt lat="36.862578731016626" lon="15.012441468707685"><ele>73.33333333333333</ele><time>2026-04-04T13:33:41.999Z</time></trkpt><trkpt lat="36.86259167023211" lon="15.01231764039037"><ele>71.66666666666667</ele><time>2026-04-04T13:33:42.999Z</time></trkpt><trkpt lat="36.86258877423389" lon="15.012197507437733"><ele>70.0</ele><time>2026-04-04T13:33:43.999Z</time></trkpt><trkpt lat="36.86256501040973" lon="15.01208882929548"><ele>68.33333333333334</ele><time>2026-04-04T13:33:44.999Z</time></trkpt><trkpt lat="36.862560103796966" lon="15.01199337732807"><ele>66.66666666666667</ele><time>2026-04-04T13:33:45.999Z</time></trkpt><trkpt lat="36.862554302819255" lon="15.011908513002448"><ele>65.0</ele><time>2026-04-04T13:33:46.999Z</time></trkpt><trkpt lat="36.86255354955798" lon="15.01182163573483"><ele>65.6</ele><time>2026-04-04T13:33:48.999Z</time></trkpt><trkpt lat="36.862664637718595" lon="15.011845150599783"><ele>66.2</ele><time>2026-04-04T13:35:13Z</time></trkpt><trkpt lat="36.86274782265518" lon="15.011821550305624"><ele>66.8</ele><time>2026-04-04T13:35:14Z</time></trkpt><trkpt lat="36.8628504755565" lon="15.011758079030939"><ele>67.4</ele><time>2026-04-04T13:35:15Z</time></trkpt><trkpt lat="36.86298369966892" lon="15.01173576647862"><ele>68.0</ele><time>2026-04-04T13:35:16Z</time></trkpt><trkpt lat="36.86313165288518" lon="15.011667413562252"><ele>68.33333333333334</ele><time>2026-04-04T13:35:17Z</time></trkpt><trkpt lat="36.863303389767836" lon="15.011589975847707"><ele>68.66666666666667</ele><time>2026-04-04T13:35:18Z</time></trkpt><trkpt lat="36.86346044294554" lon="15.011522483170104"><ele>69.0</ele><time>2026-04-04T13:35:19Z</time></trkpt><trkpt lat="36.863600881715705" lon="15.011462118578773"><ele>69.0</ele><time>2026-04-04T13:35:20Z</time></trkpt><trkpt lat="36.863727740250894" lon="15.011407591152295"><ele>69.0</ele><time>2026-04-04T13:35:21Z</time></trkpt><trkpt lat="36.86386609407743" lon="15.011342367630423"><ele>69.0</ele><time>2026-04-04T13:35:22Z</time></trkpt><trkpt lat="36.86400323843313" lon="15.011276020171275"><ele>69.0</ele><time>2026-04-04T13:35:23Z</time></trkpt><trkpt lat="36.8641525619167" lon="15.0112036606671"><ele>69.75</ele><time>2026-04-04T13:35:24Z</time></trkpt><trkpt lat="36.86429107242017" lon="15.01114523998973"><ele>70.5</ele><time>2026-04-04T13:35:25Z</time></trkpt><trkpt lat="36.864407230939115" lon="15.011102861237216"><ele>71.25</ele><time>2026-04-04T13:35:26Z</time></trkpt><trkpt lat="36.864515309602886" lon="15.011071926295672"><ele>72.0</ele><time>2026-04-04T13:35:27Z</time></trkpt><trkpt lat="36.864624735136694" lon="15.011055512567637"><ele>72.0</ele><time>2026-04-04T13:35:28Z</time></trkpt><trkpt lat="36.86474922144194" lon="15.011044942887741"><ele>72.0</ele><time>2026-04-04T13:35:29Z</time></trkpt><trkpt lat="36.86488710370833" lon="15.01103812133996"><ele>72.0</ele><time>2026-04-04T13:35:30Z</time></trkpt><trkpt lat="36.865036989713566" lon="15.011036557807456"><ele>72.0</ele><time>2026-04-04T13:35:30.999Z</time></trkpt><trkpt lat="36.865181236154385" lon="15.011034804164133"><ele>73.75</ele><time>2026-04-04T13:35:31.999Z</time></trkpt><trkpt lat="36.865319668772166" lon="15.011027815392533"><ele>75.5</ele><time>2026-04-04T13:35:32.999Z</time></trkpt><trkpt lat="36.865446907455755" lon="15.010993117686636"><ele>77.25</ele><time>2026-04-04T13:35:33.999Z</time></trkpt><trkpt lat="36.86556783296444" lon="15.010922985433075"><ele>79.0</ele><time>2026-04-04T13:35:34.999Z</time></trkpt><trkpt lat="36.86570078446932" lon="15.010826771147718"><ele>78.8</ele><time>2026-04-04T13:35:35.999Z</time></trkpt><trkpt lat="36.865843084189216" lon="15.010749950486392"><ele>78.60000000000001</ele><time>2026-04-04T13:35:36.999Z</time></trkpt><trkpt lat="36.86593892146502" lon="15.0106617880011"><ele>78.4</ele><time>2026-04-04T13:35:37.999Z</time></trkpt><trkpt lat="36.86602433344454" lon="15.010639693533681"><ele>78.2</ele><time>2026-04-04T13:35:38.999Z</time></trkpt><trkpt lat="36.86608813159084" lon="15.010630136153845"><ele>78.0</ele><time>2026-04-04T13:35:39.999Z</time></trkpt><trkpt lat="36.8661622040544" lon="15.010662408759615"><ele>78.0</ele><time>2026-04-04T13:35:40.999Z</time></trkpt><trkpt lat="36.8662762416205" lon="15.010677818422739"><ele>78.0</ele><time>2026-04-04T13:35:41.999Z</time></trkpt><trkpt lat="36.86638278577562" lon="15.01063646212563"><ele>78.0</ele><time>2026-04-04T13:35:42.999Z</time></trkpt><trkpt lat="36.86647272631341" lon="15.010628075945366"><ele>78.0</ele><time>2026-04-04T13:35:43.999Z</time></trkpt><trkpt lat="36.86656751994924" lon="15.01059391911622"><ele>78.0</ele><time>2026-04-04T13:35:44.999Z</time></trkpt><trkpt lat="36.866627958848056" lon="15.0105421076533"><ele>78.0</ele><time>2026-04-04T13:35:45.999Z</time></trkpt><trkpt lat="36.86662667326436" lon="15.010460506530514"><ele>78.0</ele><time>2026-04-04T13:35:46.999Z</time></trkpt><trkpt lat="36.86660245332517" lon="15.010312630719582"><ele>78.0</ele><time>2026-04-04T13:35:48.999Z</time></trkpt><trkpt lat="36.86655374276879" lon="15.010233960485005"><ele>78.0</ele><time>2026-04-04T13:35:49.999Z</time></trkpt><trkpt lat="36.86654083606949" lon="15.010149308768044"><ele>78.0</ele><time>2026-04-04T13:35:50.999Z</time></trkpt><trkpt lat="36.86650883588009" lon="15.01005508645002"><ele>78.0</ele><time>2026-04-04T13:35:51.999Z</time></trkpt><trkpt lat="36.86649710900747" lon="15.009942974196269"><ele>77.5</ele><time>2026-04-04T13:35:52.999Z</time></trkpt><trkpt lat="36.86649811506659" lon="15.00982209191203"><ele>77.0</ele><time>2026-04-04T13:35:53.999Z</time></trkpt><trkpt lat="36.86652447964805" lon="15.009734182482008"><ele>76.5</ele><time>2026-04-04T13:35:54.999Z</time></trkpt><trkpt lat="36.86657604653162" lon="15.009670307619027"><ele>76.0</ele><time>2026-04-04T13:35:55.999Z</time></trkpt><trkpt lat="36.866661856276195" lon="15.009625672807719"><ele>75.5</ele><time>2026-04-04T13:35:56.999Z</time></trkpt><trkpt lat="36.86672225823217" lon="15.009530678520495"><ele>75.0</ele><time>2026-04-04T13:35:57.999Z</time></trkpt><trkpt lat="36.86679996778174" lon="15.009437530552765"><ele>75.75</ele><time>2026-04-04T13:35:58.999Z</time></trkpt><trkpt lat="36.86688185269271" lon="15.009345972649298"><ele>76.5</ele><time>2026-04-04T13:35:59.999Z</time></trkpt><trkpt lat="36.86697155190955" lon="15.009231550630421"><ele>77.25</ele><time>2026-04-04T13:36:00.999Z</time></trkpt><trkpt lat="36.86703321267922" lon="15.009084476464409"><ele>78.0</ele><time>2026-04-04T13:36:01.999Z</time></trkpt><trkpt lat="36.86708315818142" lon="15.008940270807056"><ele>78.0</ele><time>2026-04-04T13:36:02.999Z</time></trkpt><trkpt lat="36.86714549807094" lon="15.008830459109419"><ele>78.0</ele><time>2026-04-04T13:36:03.999Z</time></trkpt><trkpt lat="36.867201465100514" lon="15.008740490356722"><ele>78.0</ele><time>2026-04-04T13:36:04.999Z</time></trkpt><trkpt lat="36.86728230780978" lon="15.008681486204987"><ele>78.0</ele><time>2026-04-04T13:36:05.999Z</time></trkpt><trkpt lat="36.86738106383865" lon="15.008611494821528"><ele>78.0</ele><time>2026-04-04T13:36:06.999Z</time></trkpt><trkpt lat="36.86748499455826" lon="15.008576290667053"><ele>78.0</ele><time>2026-04-04T13:36:07.999Z</time></trkpt><trkpt lat="36.86759816162076" lon="15.008551788187873"><ele>78.0</ele><time>2026-04-04T13:36:08.999Z</time></trkpt><trkpt lat="36.86774415169923" lon="15.008517740288474"><ele>78.0</ele><time>2026-04-04T13:36:09.999Z</time></trkpt><trkpt lat="36.86789016110258" lon="15.008471306519246"><ele>78.0</ele><time>2026-04-04T13:36:10.999Z</time></trkpt><trkpt lat="36.868044933803475" lon="15.008393016155146"><ele>81.0</ele><time>2026-04-04T13:36:11.999Z</time></trkpt><trkpt lat="36.86819385630061" lon="15.008317572786792"><ele>84.0</ele><time>2026-04-04T13:36:12.999Z</time></trkpt><trkpt lat="36.868350910376144" lon="15.008241323401041"><ele>87.0</ele><time>2026-04-04T13:36:13.999Z</time></trkpt><trkpt lat="36.86849760161509" lon="15.008175310495021"><ele>88.25</ele><time>2026-04-04T13:36:14.999Z</time></trkpt><trkpt lat="36.868625506632746" lon="15.008127553345561"><ele>89.5</ele><time>2026-04-04T13:36:15.999Z</time></trkpt><trkpt lat="36.868749161364484" lon="15.008088535352218"><ele>90.75</ele><time>2026-04-04T13:36:16.999Z</time></trkpt><trkpt lat="36.86887924428605" lon="15.008061961508503"><ele>92.0</ele><time>2026-04-04T13:36:17.999Z</time></trkpt><trkpt lat="36.86902631482121" lon="15.00806422448696"><ele>92.0</ele><time>2026-04-04T13:36:18.999Z</time></trkpt><trkpt lat="36.86916087546646" lon="15.008071480252752"><ele>92.0</ele><time>2026-04-04T13:36:19.999Z</time></trkpt><trkpt lat="36.869276792618486" lon="15.008064056872627"><ele>92.0</ele><time>2026-04-04T13:36:20.999Z</time></trkpt><trkpt lat="36.86937808159322" lon="15.008050653518406"><ele>92.0</ele><time>2026-04-04T13:36:21.999Z</time></trkpt><trkpt lat="36.86946948030302" lon="15.008037143076491"><ele>92.0</ele><time>2026-04-04T13:36:22.999Z</time></trkpt><trkpt lat="36.869552794677276" lon="15.008024827651385"><ele>91.66666666666667</ele><time>2026-04-04T13:36:23.999Z</time></trkpt><trkpt lat="36.86963850490272" lon="15.008001126570031"><ele>91.33333333333334</ele><time>2026-04-04T13:36:24.999Z</time></trkpt><trkpt lat="36.86969843982472" lon="15.007958004544262"><ele>91.0</ele><time>2026-04-04T13:36:25.999Z</time></trkpt><trkpt lat="36.869789733618084" lon="15.007884419049907"><ele>90.66666666666667</ele><time>2026-04-04T13:36:27.999Z</time></trkpt><trkpt lat="36.86986780573036" lon="15.007850569337796"><ele>90.33333333333333</ele><time>2026-04-04T13:36:29.999Z</time></trkpt><trkpt lat="36.86993057453163" lon="15.007809308967369"><ele>90.0</ele><time>2026-04-04T13:36:31.999Z</time></trkpt><trkpt lat="36.8699269758239" lon="15.007620696335898"><ele>90.0</ele><time>2026-04-04T13:36:33.999Z</time></trkpt><trkpt lat="36.869904570179784" lon="15.007545417889391"><ele>90.0</ele><time>2026-04-04T13:36:34.999Z</time></trkpt><trkpt lat="36.869884507906974" lon="15.007393629704794"><ele>90.0</ele><time>2026-04-04T13:36:36.999Z</time></trkpt><trkpt lat="36.869869543417025" lon="15.007294432449788"><ele>90.0</ele><time>2026-04-04T13:36:37.999Z</time></trkpt><trkpt lat="36.86984758431462" lon="15.007191154798878"><ele>90.0</ele><time>2026-04-04T13:36:38.999Z</time></trkpt><trkpt lat="36.86982406759019" lon="15.007078498289019"><ele>90.0</ele><time>2026-04-04T13:36:39.999Z</time></trkpt><trkpt lat="36.86979383349352" lon="15.00698122272532"><ele>91.66666666666667</ele><time>2026-04-04T13:36:40.999Z</time></trkpt><trkpt lat="36.86976390664613" lon="15.006896654597133"><ele>93.33333333333334</ele><time>2026-04-04T13:36:41.998Z</time></trkpt><trkpt lat="36.86974514338579" lon="15.006808025706816"><ele>95.0</ele><time>2026-04-04T13:36:42.998Z</time></trkpt><trkpt lat="36.86972205235124" lon="15.006723931842433"><ele>96.66666666666667</ele><time>2026-04-04T13:36:43.998Z</time></trkpt><trkpt lat="36.86970825762295" lon="15.0066111961864"><ele>98.33333333333334</ele><time>2026-04-04T13:36:44.998Z</time></trkpt><trkpt lat="36.86968954491917" lon="15.006505453428284"><ele>100.0</ele><time>2026-04-04T13:36:45.998Z</time></trkpt><trkpt lat="36.86967651459186" lon="15.006391926750293"><ele>101.50000000000001</ele><time>2026-04-04T13:36:46.998Z</time></trkpt><trkpt lat="36.86967259674586" lon="15.006245909502196"><ele>103.0</ele><time>2026-04-04T13:36:48.998Z</time></trkpt><trkpt lat="36.869662205474235" lon="15.006109266214168"><ele>104.5</ele><time>2026-04-04T13:36:50.998Z</time></trkpt><trkpt lat="36.86966344093302" lon="15.00602882820534"><ele>106.0</ele><time>2026-04-04T13:36:51.998Z</time></trkpt><trkpt lat="36.86966255903929" lon="15.005933541981257"><ele>107.50000000000001</ele><time>2026-04-04T13:36:52.998Z</time></trkpt><trkpt lat="36.869659394634354" lon="15.005845525030383"><ele>109.0</ele><time>2026-04-04T13:36:53.998Z</time></trkpt><trkpt lat="36.86966187955587" lon="15.005765114914482"><ele>109.0</ele><time>2026-04-04T13:36:54.998Z</time></trkpt><trkpt lat="36.869666184241154" lon="15.005669471594192"><ele>109.0</ele><time>2026-04-04T13:36:56.998Z</time></trkpt><trkpt lat="36.8695452891584" lon="15.005678737679194"><ele>109.0</ele><time>2026-04-04T13:36:57.998Z</time></trkpt><trkpt lat="36.869503435680166" lon="15.005806251987728"><ele>109.0</ele><time>2026-04-04T13:36:59.998Z</time></trkpt><trkpt lat="36.8694674981986" lon="15.00588656415812"><ele>109.0</ele><time>2026-04-04T13:37:00.998Z</time></trkpt><trkpt lat="36.86942007554232" lon="15.00598594565586"><ele>109.00000000000001</ele><time>2026-04-04T13:37:01.998Z</time></trkpt><trkpt lat="36.8693797820806" lon="15.006089729991334"><ele>109.0</ele><time>2026-04-04T13:37:02.998Z</time></trkpt><trkpt lat="36.86934461177707" lon="15.006178487760646"><ele>109.0</ele><time>2026-04-04T13:37:04Z</time></trkpt><trkpt lat="36.86930846058989" lon="15.0062736242003"><ele>109.0</ele><time>2026-04-04T13:37:05Z</time></trkpt><trkpt lat="36.86924417719151" lon="15.006390502962681"><ele>109.00000000000001</ele><time>2026-04-04T13:37:07Z</time></trkpt><trkpt lat="36.86918003355398" lon="15.006368651773819"><ele>109.0</ele><time>2026-04-04T13:37:09Z</time></trkpt><trkpt lat="36.869664994878" lon="15.006180776616668"><ele>109.00000000000001</ele><time>2026-04-04T13:37:12Z</time></trkpt><trkpt lat="36.86966219963426" lon="15.006099185636469"><ele>109.0</ele><time>2026-04-04T13:37:14Z</time></trkpt><trkpt lat="36.869664329785415" lon="15.005978444828754"><ele>109.0</ele><time>2026-04-04T13:37:15Z</time></trkpt><trkpt lat="36.869656492945474" lon="15.00588479713084"><ele>109.0</ele><time>2026-04-04T13:37:16Z</time></trkpt><trkpt lat="36.86966117047603" lon="15.005780869093096"><ele>109.00000000000001</ele><time>2026-04-04T13:37:17Z</time></trkpt><trkpt lat="36.869666199338965" lon="15.00566913577281"><ele>109.0</ele><time>2026-04-04T13:37:18Z</time></trkpt><trkpt lat="36.86967161699867" lon="15.005548764303327"><ele>115.5</ele><time>2026-04-04T13:37:19Z</time></trkpt><trkpt lat="36.8696770769966" lon="15.005427452098587"><ele>122.0</ele><time>2026-04-04T13:37:20Z</time></trkpt><trkpt lat="36.86931859631316" lon="15.005292814349112"><ele>121.99999999999999</ele><time>2026-04-04T13:37:21Z</time></trkpt><trkpt lat="36.869341176318486" lon="15.005195736984772"><ele>122.0</ele><time>2026-04-04T13:37:22Z</time></trkpt><trkpt lat="36.869351487775226" lon="15.005116317755913"><ele>122.0</ele><time>2026-04-04T13:37:23Z</time></trkpt><trkpt lat="36.86935960319301" lon="15.004964439969227"><ele>122.0</ele><time>2026-04-04T13:37:25Z</time></trkpt><trkpt lat="36.8693607586947" lon="15.004885533600884"><ele>121.99999999999999</ele><time>2026-04-04T13:37:26Z</time></trkpt><trkpt lat="36.86936460640671" lon="15.004806856000695"><ele>122.0</ele><time>2026-04-04T13:37:27Z</time></trkpt><trkpt lat="36.86938638734746" lon="15.004652438314416"><ele>125.6</ele><time>2026-04-04T13:37:29Z</time></trkpt><trkpt lat="36.86929900074998" lon="15.00463757765336"><ele>129.2</ele><time>2026-04-04T13:37:31Z</time></trkpt><trkpt lat="36.86919026249915" lon="15.00477137399449"><ele>132.8</ele><time>2026-04-04T13:37:33Z</time></trkpt><trkpt lat="36.86913157221905" lon="15.004835802261692"><ele>136.4</ele><time>2026-04-04T13:37:34Z</time></trkpt><trkpt lat="36.86905634970805" lon="15.004888552692517"><ele>140.0</ele><time>2026-04-04T13:37:35Z</time></trkpt><trkpt lat="36.86896516083931" lon="15.004928690727462"><ele>137.8</ele><time>2026-04-04T13:37:36Z</time></trkpt><trkpt lat="36.868873474236004" lon="15.00497752858392"><ele>135.6</ele><time>2026-04-04T13:37:37Z</time></trkpt><trkpt lat="36.86879358787309" lon="15.005034846521138"><ele>133.4</ele><time>2026-04-04T13:37:38Z</time></trkpt><trkpt lat="36.86871403698068" lon="15.005049024768217"><ele>131.2</ele><time>2026-04-04T13:37:39Z</time></trkpt><trkpt lat="36.868627216489855" lon="15.005052525539332"><ele>129.0</ele><time>2026-04-04T13:37:40Z</time></trkpt><trkpt lat="36.86852775454311" lon="15.005061951123258"><ele>131.4</ele><time>2026-04-04T13:37:41Z</time></trkpt><trkpt lat="36.86843312507269" lon="15.005073219744798"><ele>133.8</ele><time>2026-04-04T13:37:42Z</time></trkpt><trkpt lat="36.86835538045692" lon="15.005086130530007"><ele>136.2</ele><time>2026-04-04T13:37:43Z</time></trkpt><trkpt lat="36.86824193580904" lon="15.0051213079534"><ele>138.6</ele><time>2026-04-04T13:37:44.999Z</time></trkpt><trkpt lat="36.868147236608" lon="15.00507880699635"><ele>141.0</ele><time>2026-04-04T13:37:46.999Z</time></trkpt><trkpt lat="36.86810720520766" lon="15.005011223699878"><ele>144.8</ele><time>2026-04-04T13:37:49.999Z</time></trkpt><trkpt lat="36.86815619196797" lon="15.004947545051937"><ele>148.6</ele><time>2026-04-04T13:37:51.999Z</time></trkpt><trkpt lat="36.86827544443645" lon="15.00487571619169"><ele>152.4</ele><time>2026-04-04T13:37:54.999Z</time></trkpt><trkpt lat="36.86830620260764" lon="15.004761603556638"><ele>156.2</ele><time>2026-04-04T13:37:56.999Z</time></trkpt><trkpt lat="36.86820747334708" lon="15.004783958780877"><ele>160.0</ele><time>2026-04-04T13:37:58.999Z</time></trkpt><trkpt lat="36.86811436477787" lon="15.00479035830942"><ele>160.0</ele><time>2026-04-04T13:37:59.999Z</time></trkpt><trkpt lat="36.86802712707263" lon="15.004779598124484"><ele>160.0</ele><time>2026-04-04T13:38:00.999Z</time></trkpt><trkpt lat="36.86793722396413" lon="15.004770579596295"><ele>160.0</ele><time>2026-04-04T13:38:01.999Z</time></trkpt><trkpt lat="36.86779777905965" lon="15.004764404149551"><ele>160.0</ele><time>2026-04-04T13:38:02.999Z</time></trkpt><trkpt lat="36.86765041140419" lon="15.004757478844263"><ele>159.8</ele><time>2026-04-04T13:38:03.999Z</time></trkpt><trkpt lat="36.86754624840291" lon="15.00476155103889"><ele>159.6</ele><time>2026-04-04T13:38:04.999Z</time></trkpt><trkpt lat="36.86744072444384" lon="15.004768842113107"><ele>159.4</ele><time>2026-04-04T13:38:05.999Z</time></trkpt><trkpt lat="36.86734311437046" lon="15.004773499111836"><ele>159.2</ele><time>2026-04-04T13:38:06.999Z</time></trkpt><trkpt lat="36.86724899921527" lon="15.00478370511597"><ele>159.0</ele><time>2026-04-04T13:38:07.999Z</time></trkpt><trkpt lat="36.867178889343506" lon="15.004779606265247"><ele>159.0</ele><time>2026-04-04T13:38:08.999Z</time></trkpt><trkpt lat="36.867224179477056" lon="15.004703953162927"><ele>159.0</ele><time>2026-04-04T13:38:10.999Z</time></trkpt><trkpt lat="36.867290386879986" lon="15.00460588683705"><ele>159.0</ele><time>2026-04-04T13:38:12.999Z</time></trkpt><trkpt lat="36.86740673528736" lon="15.00456185213085"><ele>159.0</ele><time>2026-04-04T13:38:13.999Z</time></trkpt><trkpt lat="36.867476365925235" lon="15.004504928801092"><ele>159.0</ele><time>2026-04-04T13:38:14.999Z</time></trkpt><trkpt lat="36.86757825635013" lon="15.004431319392017"><ele>159.2</ele><time>2026-04-04T13:38:15.999Z</time></trkpt><trkpt lat="36.86768680884314" lon="15.004377869642799"><ele>159.4</ele><time>2026-04-04T13:38:16.999Z</time></trkpt><trkpt lat="36.867799485322436" lon="15.004319624752565"><ele>159.6</ele><time>2026-04-04T13:38:17.999Z</time></trkpt><trkpt lat="36.867892474018625" lon="15.004269596901137"><ele>159.8</ele><time>2026-04-04T13:38:18.999Z</time></trkpt><trkpt lat="36.867975478711735" lon="15.004209362882268"><ele>160.0</ele><time>2026-04-04T13:38:19.999Z</time></trkpt><trkpt lat="36.868055971151016" lon="15.00413354682125"><ele>160.2</ele><time>2026-04-04T13:38:20.999Z</time></trkpt><trkpt lat="36.868163516416104" lon="15.004066687146395"><ele>160.4</ele><time>2026-04-04T13:38:21.999Z</time></trkpt><trkpt lat="36.86826557360915" lon="15.004009832223103"><ele>160.60000000000002</ele><time>2026-04-04T13:38:22.999Z</time></trkpt><trkpt lat="36.868346325276036" lon="15.003993839319179"><ele>160.8</ele><time>2026-04-04T13:38:23.999Z</time></trkpt><trkpt lat="36.86841293091275" lon="15.00394896079585"><ele>161.0</ele><time>2026-04-04T13:38:24.999Z</time></trkpt><trkpt lat="36.86847755297336" lon="15.003871136374183"><ele>161.0</ele><time>2026-04-04T13:38:25.999Z</time></trkpt><trkpt lat="36.86856021466715" lon="15.003798244429902"><ele>161.0</ele><time>2026-04-04T13:38:26.999Z</time></trkpt><trkpt lat="36.86865135364707" lon="15.003737565275022"><ele>161.0</ele><time>2026-04-04T13:38:27.999Z</time></trkpt><trkpt lat="36.8687365504771" lon="15.003684351884607"><ele>161.0</ele><time>2026-04-04T13:38:28.999Z</time></trkpt><trkpt lat="36.86882084646607" lon="15.00364270494286"><ele>161.0</ele><time>2026-04-04T13:38:29.999Z</time></trkpt><trkpt lat="36.86888907963501" lon="15.003591809469645"><ele>161.0</ele><time>2026-04-04T13:38:30.999Z</time></trkpt><trkpt lat="36.868957009088035" lon="15.003549267109447"><ele>161.0</ele><time>2026-04-04T13:38:31.999Z</time></trkpt><trkpt lat="36.8690204987927" lon="15.003475781425148"><ele>161.0</ele><time>2026-04-04T13:38:32.999Z</time></trkpt><trkpt lat="36.86909654299842" lon="15.003417462687425"><ele>161.0</ele><time>2026-04-04T13:38:33.999Z</time></trkpt><trkpt lat="36.86916586104138" lon="15.003372938927253"><ele>161.0</ele><time>2026-04-04T13:38:34.999Z</time></trkpt><trkpt lat="36.86925951652546" lon="15.003310359890097"><ele>161.0</ele><time>2026-04-04T13:38:35.999Z</time></trkpt><trkpt lat="36.86934348621152" lon="15.003247017215218"><ele>160.28571428571428</ele><time>2026-04-04T13:38:36.999Z</time></trkpt><trkpt lat="36.869420623164146" lon="15.003207476918641"><ele>159.57142857142856</ele><time>2026-04-04T13:38:37.999Z</time></trkpt><trkpt lat="36.869489155293586" lon="15.003199411270657"><ele>158.85714285714286</ele><time>2026-04-04T13:38:38.999Z</time></trkpt><trkpt lat="36.86956263487921" lon="15.003180762512212"><ele>158.14285714285714</ele><time>2026-04-04T13:38:39.999Z</time></trkpt><trkpt lat="36.8696258888923" lon="15.003147789551994"><ele>157.42857142857142</ele><time>2026-04-04T13:38:40.999Z</time></trkpt><trkpt lat="36.86967717282876" lon="15.003089285041762"><ele>156.71428571428572</ele><time>2026-04-04T13:38:41.999Z</time></trkpt><trkpt lat="36.869728045753526" lon="15.003017129400712"><ele>156.0</ele><time>2026-04-04T13:38:42.999Z</time></trkpt><trkpt lat="36.869803689404456" lon="15.002952462699762"><ele>156.0</ele><time>2026-04-04T13:38:43.999Z</time></trkpt><trkpt lat="36.86990954126491" lon="15.002892414671072"><ele>156.0</ele><time>2026-04-04T13:38:44.999Z</time></trkpt><trkpt lat="36.87003442610275" lon="15.002842064917502"><ele>156.0</ele><time>2026-04-04T13:38:45.999Z</time></trkpt><trkpt lat="36.870142274599395" lon="15.002798297134623"><ele>156.0</ele><time>2026-04-04T13:38:46.999Z</time></trkpt><trkpt lat="36.87024264315507" lon="15.002763697524946"><ele>158.0</ele><time>2026-04-04T13:38:47.999Z</time></trkpt><trkpt lat="36.87033538738904" lon="15.002739110065281"><ele>160.0</ele><time>2026-04-04T13:38:48.999Z</time></trkpt><trkpt lat="36.87041953848964" lon="15.002733869878293"><ele>162.0</ele><time>2026-04-04T13:38:49.999Z</time></trkpt><trkpt lat="36.87051144017984" lon="15.002740300105362"><ele>164.0</ele><time>2026-04-04T13:38:50.999Z</time></trkpt><trkpt lat="36.87062350573379" lon="15.002762692755573"><ele>166.0</ele><time>2026-04-04T13:38:51.999Z</time></trkpt><trkpt lat="36.870752982716446" lon="15.002780344554195"><ele>166.0</ele><time>2026-04-04T13:38:52.999Z</time></trkpt><trkpt lat="36.870878290506894" lon="15.002795389517345"><ele>166.0</ele><time>2026-04-04T13:38:53.999Z</time></trkpt><trkpt lat="36.87097047955174" lon="15.00280055752364"><ele>166.0</ele><time>2026-04-04T13:38:54.999Z</time></trkpt><trkpt lat="36.87109637135312" lon="15.002828868112555"><ele>166.0</ele><time>2026-04-04T13:38:56.999Z</time></trkpt><trkpt lat="36.871170005141586" lon="15.002836021250916"><ele>166.0</ele><time>2026-04-04T13:38:57.999Z</time></trkpt><trkpt lat="36.871246700246424" lon="15.002819522406362"><ele>167.0</ele><time>2026-04-04T13:38:58.999Z</time></trkpt><trkpt lat="36.871355104475235" lon="15.002802755198509"><ele>168.0</ele><time>2026-04-04T13:39:00.999Z</time></trkpt><trkpt lat="36.871437898870155" lon="15.002783602656452"><ele>169.0</ele><time>2026-04-04T13:39:02.998Z</time></trkpt><trkpt lat="36.871494131176675" lon="15.002695109202033"><ele>170.0</ele><time>2026-04-04T13:39:05.998Z</time></trkpt><trkpt lat="36.87157549178925" lon="15.002665906071893"><ele>171.0</ele><time>2026-04-04T13:39:08.998Z</time></trkpt><trkpt lat="36.8716476699775" lon="15.002645246788079"><ele>172.0</ele><time>2026-04-04T13:39:13Z</time></trkpt><trkpt lat="36.871748862014535" lon="15.002617960079549"><ele>170.6</ele><time>2026-04-04T13:39:15Z</time></trkpt><trkpt lat="36.87181586210117" lon="15.00260994668538"><ele>169.2</ele><time>2026-04-04T13:39:16Z</time></trkpt><trkpt lat="36.871894845667654" lon="15.002582357872669"><ele>167.8</ele><time>2026-04-04T13:39:19Z</time></trkpt><trkpt lat="36.87201257325891" lon="15.002573632523907"><ele>166.4</ele><time>2026-04-04T13:39:21Z</time></trkpt><trkpt lat="36.872098756411305" lon="15.002570399598968"><ele>165.0</ele><time>2026-04-04T13:39:22Z</time></trkpt><trkpt lat="36.872206213958904" lon="15.002559422628295"><ele>165.0</ele><time>2026-04-04T13:39:23Z</time></trkpt><trkpt lat="36.87232074182108" lon="15.002537351975427"><ele>165.0</ele><time>2026-04-04T13:39:24Z</time></trkpt><trkpt lat="36.87241749416729" lon="15.002516228485739"><ele>165.0</ele><time>2026-04-04T13:39:25Z</time></trkpt><trkpt lat="36.87251261336357" lon="15.002500633597162"><ele>165.0</ele><time>2026-04-04T13:39:26Z</time></trkpt><trkpt lat="36.872592597927195" lon="15.002487462202895"><ele>165.0</ele><time>2026-04-04T13:39:27Z</time></trkpt><trkpt lat="36.87267186211264" lon="15.002492586382614"><ele>166.0</ele><time>2026-04-04T13:39:28Z</time></trkpt><trkpt lat="36.8727465089851" lon="15.002516024152326"><ele>167.0</ele><time>2026-04-04T13:39:29Z</time></trkpt><trkpt lat="36.87280262651792" lon="15.002587552796328"><ele>168.0</ele><time>2026-04-04T13:39:30Z</time></trkpt><trkpt lat="36.8728371432113" lon="15.00271190769482"><ele>169.0</ele><time>2026-04-04T13:39:31Z</time></trkpt><trkpt lat="36.87287276666452" lon="15.002869544401488"><ele>170.0</ele><time>2026-04-04T13:39:32Z</time></trkpt><trkpt lat="36.872917039100486" lon="15.003022787674846"><ele>170.0</ele><time>2026-04-04T13:39:33Z</time></trkpt><trkpt lat="36.87294865752756" lon="15.003168858281278"><ele>170.0</ele><time>2026-04-04T13:39:34Z</time></trkpt><trkpt lat="36.87296983379025" lon="15.003311802819882"><ele>170.0</ele><time>2026-04-04T13:39:35Z</time></trkpt><trkpt lat="36.872966568050565" lon="15.003461219666098"><ele>170.0</ele><time>2026-04-04T13:39:36Z</time></trkpt><trkpt lat="36.8729601024914" lon="15.003602686516553"><ele>167.0</ele><time>2026-04-04T13:39:37Z</time></trkpt><trkpt lat="36.872957528176045" lon="15.003740452493195"><ele>164.0</ele><time>2026-04-04T13:39:38Z</time></trkpt><trkpt lat="36.872953893471774" lon="15.003869683640028"><ele>161.0</ele><time>2026-04-04T13:39:39Z</time></trkpt><trkpt lat="36.872949000557135" lon="15.003993020049395"><ele>158.0</ele><time>2026-04-04T13:39:40Z</time></trkpt><trkpt lat="36.87295265720902" lon="15.004101613719508"><ele>155.0</ele><time>2026-04-04T13:39:41Z</time></trkpt><trkpt lat="36.87295185529893" lon="15.00421313774725"><ele>153.33333333333331</ele><time>2026-04-04T13:39:42Z</time></trkpt><trkpt lat="36.87294160059348" lon="15.004347339922182"><ele>151.66666666666666</ele><time>2026-04-04T13:39:43Z</time></trkpt><trkpt lat="36.87293044179452" lon="15.004469142819657"><ele>150.0</ele><time>2026-04-04T13:39:44Z</time></trkpt><trkpt lat="36.87291315503732" lon="15.004577046990251"><ele>148.33333333333334</ele><time>2026-04-04T13:39:45Z</time></trkpt><trkpt lat="36.872886672246835" lon="15.00466897629774"><ele>146.66666666666669</ele><time>2026-04-04T13:39:46Z</time></trkpt><trkpt lat="36.872855233145586" lon="15.004749387416988"><ele>145.0</ele><time>2026-04-04T13:39:47Z</time></trkpt><trkpt lat="36.872833717234535" lon="15.004858718385675"><ele>145.0</ele><time>2026-04-04T13:39:48.999Z</time></trkpt><trkpt lat="36.87287994099055" lon="15.004969161233818"><ele>145.0</ele><time>2026-04-04T13:39:50.999Z</time></trkpt><trkpt lat="36.872943899331496" lon="15.00499283106578"><ele>145.0</ele><time>2026-04-04T13:39:52.999Z</time></trkpt><trkpt lat="36.87300562256976" lon="15.00500920870669"><ele>145.0</ele><time>2026-04-04T13:39:54.999Z</time></trkpt><trkpt lat="36.87312339299512" lon="15.005038574741986"><ele>145.0</ele><time>2026-04-04T13:39:55.999Z</time></trkpt><trkpt lat="36.87324510524565" lon="15.005079950094066"><ele>141.8</ele><time>2026-04-04T13:39:56.999Z</time></trkpt><trkpt lat="36.873350401144755" lon="15.005137905829748"><ele>138.6</ele><time>2026-04-04T13:39:57.999Z</time></trkpt><trkpt lat="36.87344220787172" lon="15.005187636493666"><ele>135.4</ele><time>2026-04-04T13:39:58.999Z</time></trkpt><trkpt lat="36.873534486975686" lon="15.005231831794012"><ele>132.2</ele><time>2026-04-04T13:39:59.999Z</time></trkpt><trkpt lat="36.87362702940977" lon="15.00527691250099"><ele>129.0</ele><time>2026-04-04T13:40:00.999Z</time></trkpt><trkpt lat="36.873713989069365" lon="15.005323133164417"><ele>126.83333333333333</ele><time>2026-04-04T13:40:01.999Z</time></trkpt><trkpt lat="36.87380821056807" lon="15.005350251768524"><ele>124.66666666666666</ele><time>2026-04-04T13:40:02.999Z</time></trkpt><trkpt lat="36.87389782722864" lon="15.005354881759317"><ele>122.5</ele><time>2026-04-04T13:40:03.999Z</time></trkpt><trkpt lat="36.87396360613877" lon="15.005336756227994"><ele>120.33333333333333</ele><time>2026-04-04T13:40:04.999Z</time></trkpt><trkpt lat="36.874048135348" lon="15.00533212867033"><ele>118.16666666666666</ele><time>2026-04-04T13:40:06.999Z</time></trkpt><trkpt lat="36.874095563963145" lon="15.005401731156772"><ele>116.0</ele><time>2026-04-04T13:40:08.999Z</time></trkpt><trkpt lat="36.87404085314367" lon="15.005509056820223"><ele>116.0</ele><time>2026-04-04T13:40:10.999Z</time></trkpt><trkpt lat="36.87398702388854" lon="15.005593634246564"><ele>116.0</ele><time>2026-04-04T13:40:11.999Z</time></trkpt><trkpt lat="36.87388867025677" lon="15.005683845551742"><ele>116.0</ele><time>2026-04-04T13:40:12.999Z</time></trkpt><trkpt lat="36.873776836638235" lon="15.005744677879477"><ele>116.0</ele><time>2026-04-04T13:40:13.999Z</time></trkpt><trkpt lat="36.87365806658315" lon="15.00578699109369"><ele>116.0</ele><time>2026-04-04T13:40:14.999Z</time></trkpt><trkpt lat="36.87354527068806" lon="15.005797732378978"><ele>116.0</ele><time>2026-04-04T13:40:15.999Z</time></trkpt><trkpt lat="36.8734537339493" lon="15.005828066073052"><ele>116.0</ele><time>2026-04-04T13:40:16.999Z</time></trkpt><trkpt lat="36.873379680181614" lon="15.005913408660195"><ele>116.0</ele><time>2026-04-04T13:40:18.999Z</time></trkpt><trkpt lat="36.8733659887659" lon="15.006072295584465"><ele>116.0</ele><time>2026-04-04T13:40:20.999Z</time></trkpt><trkpt lat="36.8734006245359" lon="15.006193832868062"><ele>113.8</ele><time>2026-04-04T13:40:21.999Z</time></trkpt><trkpt lat="36.87346682828198" lon="15.006320353895031"><ele>111.6</ele><time>2026-04-04T13:40:22.999Z</time></trkpt><trkpt lat="36.87351903963381" lon="15.006430762529936"><ele>109.4</ele><time>2026-04-04T13:40:23.999Z</time></trkpt><trkpt lat="36.87353369121477" lon="15.006516060278003"><ele>107.2</ele><time>2026-04-04T13:40:24.999Z</time></trkpt><trkpt lat="36.873645407027276" lon="15.006541218509161"><ele>105.0</ele><time>2026-04-04T13:40:29.999Z</time></trkpt><trkpt lat="36.8737094006306" lon="15.006452648545002"><ele>105.0</ele><time>2026-04-04T13:41:33Z</time></trkpt><trkpt lat="36.87379970694481" lon="15.00639026480459"><ele>105.0</ele><time>2026-04-04T13:41:35Z</time></trkpt><trkpt lat="36.87388643689771" lon="15.006334349752844"><ele>105.0</ele><time>2026-04-04T13:41:37Z</time></trkpt><trkpt lat="36.873950558664234" lon="15.0062893761418"><ele>105.0</ele><time>2026-04-04T13:41:38Z</time></trkpt><trkpt lat="36.874042341230485" lon="15.006227932968665"><ele>105.0</ele><time>2026-04-04T13:41:39Z</time></trkpt><trkpt lat="36.874170535135164" lon="15.006203898580734"><ele>104.75</ele><time>2026-04-04T13:41:40Z</time></trkpt><trkpt lat="36.87430048449433" lon="15.006158952706814"><ele>104.5</ele><time>2026-04-04T13:41:41Z</time></trkpt><trkpt lat="36.87443985534491" lon="15.006119489283753"><ele>104.25</ele><time>2026-04-04T13:41:42Z</time></trkpt><trkpt lat="36.87454015102031" lon="15.006095344132524"><ele>104.0</ele><time>2026-04-04T13:41:43Z</time></trkpt><trkpt lat="36.87462919101644" lon="15.006092248268677"><ele>104.0</ele><time>2026-04-04T13:41:44Z</time></trkpt><trkpt lat="36.874711894897985" lon="15.00611644954426"><ele>104.0</ele><time>2026-04-04T13:41:45Z</time></trkpt><trkpt lat="36.87478804419374" lon="15.006141606843496"><ele>104.0</ele><time>2026-04-04T13:41:46Z</time></trkpt><trkpt lat="36.8749134786376" lon="15.006179443724964"><ele>104.0</ele><time>2026-04-04T13:41:47Z</time></trkpt><trkpt lat="36.875060875279544" lon="15.006163078397838"><ele>104.0</ele><time>2026-04-04T13:41:48Z</time></trkpt><trkpt lat="36.875215709771204" lon="15.006101554057636"><ele>104.75</ele><time>2026-04-04T13:41:49Z</time></trkpt><trkpt lat="36.875373252547114" lon="15.006036644609873"><ele>105.5</ele><time>2026-04-04T13:41:50Z</time></trkpt><trkpt lat="36.87550493110347" lon="15.006013854868883"><ele>106.25</ele><time>2026-04-04T13:41:51Z</time></trkpt><trkpt lat="36.87562073336804" lon="15.006013049565265"><ele>107.0</ele><time>2026-04-04T13:41:52Z</time></trkpt><trkpt lat="36.87574332642232" lon="15.006012480498407"><ele>107.0</ele><time>2026-04-04T13:41:52.999Z</time></trkpt><trkpt lat="36.87584476482774" lon="15.006009413119887"><ele>107.0</ele><time>2026-04-04T13:41:53.999Z</time></trkpt><trkpt lat="36.875925128670204" lon="15.006002137289626"><ele>107.0</ele><time>2026-04-04T13:41:54.999Z</time></trkpt><trkpt lat="36.87597885952134" lon="15.006227361740835"><ele>107.0</ele><time>2026-04-04T13:41:59.999Z</time></trkpt><trkpt lat="36.87601641576662" lon="15.006419727881706"><ele>107.0</ele><time>2026-04-04T13:42:01.999Z</time></trkpt><trkpt lat="36.876004630665946" lon="15.006522540349653"><ele>107.0</ele><time>2026-04-04T13:42:02.999Z</time></trkpt><trkpt lat="36.875913152040184" lon="15.006585201459622"><ele>107.0</ele><time>2026-04-04T13:42:04.999Z</time></trkpt><trkpt lat="36.87579662296989" lon="15.006588167866804"><ele>107.0</ele><time>2026-04-04T13:42:05.999Z</time></trkpt><trkpt lat="36.87563137970771" lon="15.00656718479971"><ele>107.0</ele><time>2026-04-04T13:42:06.999Z</time></trkpt><trkpt lat="36.875490419736444" lon="15.006556393329593"><ele>106.99999999999999</ele><time>2026-04-04T13:42:07.999Z</time></trkpt><trkpt lat="36.87539013629898" lon="15.00653103397456"><ele>106.99999999999999</ele><time>2026-04-04T13:42:08.999Z</time></trkpt><trkpt lat="36.875328123583934" lon="15.006592699300173"><ele>107.0</ele><time>2026-04-04T13:42:10.999Z</time></trkpt><trkpt lat="36.875265483223714" lon="15.006616551562727"><ele>107.0</ele><time>2026-04-04T13:42:11.999Z</time></trkpt><trkpt lat="36.87519995813577" lon="15.006623690299348"><ele>107.0</ele><time>2026-04-04T13:42:12.999Z</time></trkpt><trkpt lat="36.8751163059591" lon="15.006640010849408"><ele>106.99999999999999</ele><time>2026-04-04T13:42:13.999Z</time></trkpt><trkpt lat="36.87502577775683" lon="15.00664953431454"><ele>106.99999999999999</ele><time>2026-04-04T13:42:14.999Z</time></trkpt><trkpt lat="36.874949579820004" lon="15.006649491898914"><ele>107.0</ele><time>2026-04-04T13:42:15.999Z</time></trkpt><trkpt lat="36.87484422053219" lon="15.006712272552798"><ele>107.0</ele><time>2026-04-04T13:42:17.999Z</time></trkpt><trkpt lat="36.87480275796243" lon="15.006841863249896"><ele>109.75</ele><time>2026-04-04T13:42:19.999Z</time></trkpt><trkpt lat="36.874759120705484" lon="15.006972957635076"><ele>112.5</ele><time>2026-04-04T13:42:21.999Z</time></trkpt><trkpt lat="36.874751963796946" lon="15.007121671725667"><ele>115.25</ele><time>2026-04-04T13:42:23.999Z</time></trkpt><trkpt lat="36.874776414826826" lon="15.00723257073848"><ele>118.0</ele><time>2026-04-04T13:42:25.999Z</time></trkpt><trkpt lat="36.87479290752662" lon="15.007388472317361"><ele>118.00000000000001</ele><time>2026-04-04T13:42:27.999Z</time></trkpt><trkpt lat="36.874798565370824" lon="15.00748925066127"><ele>118.0</ele><time>2026-04-04T13:42:28.999Z</time></trkpt><trkpt lat="36.87479646705633" lon="15.00758931247765"><ele>118.0</ele><time>2026-04-04T13:42:30.999Z</time></trkpt><trkpt lat="36.8748363989039" lon="15.007654033371637"><ele>118.0</ele><time>2026-04-04T13:42:42.999Z</time></trkpt><trkpt lat="36.874876175762104" lon="15.007723487173978"><ele>118.00000000000001</ele><time>2026-04-04T13:42:43.999Z</time></trkpt><trkpt lat="36.87492781164974" lon="15.007792286681635"><ele>118.0</ele><time>2026-04-04T13:42:44.999Z</time></trkpt><trkpt lat="36.87499354229322" lon="15.007870041526049"><ele>119.80000000000001</ele><time>2026-04-04T13:42:45.999Z</time></trkpt><trkpt lat="36.875077961758336" lon="15.007945967860971"><ele>121.60000000000001</ele><time>2026-04-04T13:42:47.999Z</time></trkpt><trkpt lat="36.875175512383386" lon="15.007998646025621"><ele>123.39999999999999</ele><time>2026-04-04T13:42:48.999Z</time></trkpt><trkpt lat="36.87525899540724" lon="15.008072746319463"><ele>125.19999999999999</ele><time>2026-04-04T13:42:49.999Z</time></trkpt><trkpt lat="36.875314983588765" lon="15.00812331998305"><ele>127.0</ele><time>2026-04-04T13:42:50.999Z</time></trkpt><trkpt lat="36.87534983469829" lon="15.008257267704911"><ele>129.6</ele><time>2026-04-04T13:42:52.999Z</time></trkpt><trkpt lat="36.87535322647952" lon="15.008383099613917"><ele>132.2</ele><time>2026-04-04T13:42:53.999Z</time></trkpt><trkpt lat="36.87537145555328" lon="15.008494474452506"><ele>134.8</ele><time>2026-04-04T13:42:54.999Z</time></trkpt><trkpt lat="36.87540316466413" lon="15.008589687883802"><ele>137.4</ele><time>2026-04-04T13:42:55.999Z</time></trkpt><trkpt lat="36.87546315906041" lon="15.008706003142782"><ele>140.0</ele><time>2026-04-04T13:42:57.999Z</time></trkpt><trkpt lat="36.875521064340916" lon="15.008809989150754"><ele>140.0</ele><time>2026-04-04T13:42:58.999Z</time></trkpt><trkpt lat="36.87557288400321" lon="15.00893526976132"><ele>140.0</ele><time>2026-04-04T13:42:59.999Z</time></trkpt><trkpt lat="36.87561134668187" lon="15.00907396583442"><ele>140.0</ele><time>2026-04-04T13:43:00.999Z</time></trkpt><trkpt lat="36.875634685293065" lon="15.009218527345592"><ele>140.0</ele><time>2026-04-04T13:43:01.999Z</time></trkpt><trkpt lat="36.87566366813307" lon="15.009343769626012"><ele>137.6</ele><time>2026-04-04T13:43:02.999Z</time></trkpt><trkpt lat="36.875712065131275" lon="15.009457439091351"><ele>135.2</ele><time>2026-04-04T13:43:03.999Z</time></trkpt><trkpt lat="36.87574194114187" lon="15.009580030208253"><ele>132.8</ele><time>2026-04-04T13:43:04.999Z</time></trkpt><trkpt lat="36.875758538393065" lon="15.009701463007726"><ele>130.4</ele><time>2026-04-04T13:43:05.999Z</time></trkpt><trkpt lat="36.87573955151462" lon="15.00978524412697"><ele>128.0</ele><time>2026-04-04T13:43:06.999Z</time></trkpt><trkpt lat="36.875788520094176" lon="15.009867075834128"><ele>128.0</ele><time>2026-04-04T13:43:08.999Z</time></trkpt><trkpt lat="36.87587961445129" lon="15.009913680373785"><ele>128.0</ele><time>2026-04-04T13:43:09.998Z</time></trkpt><trkpt lat="36.875977576254094" lon="15.009973067265944"><ele>128.0</ele><time>2026-04-04T13:43:10.998Z</time></trkpt><trkpt lat="36.87605240000083" lon="15.010046942917889"><ele>128.0</ele><time>2026-04-04T13:43:11.998Z</time></trkpt><trkpt lat="36.87611381029179" lon="15.010114628007608"><ele>128.0</ele><time>2026-04-04T13:43:12.998Z</time></trkpt><trkpt lat="36.87616655850464" lon="15.010188082987227"><ele>129.83333333333331</ele><time>2026-04-04T13:43:13.998Z</time></trkpt><trkpt lat="36.87622879280636" lon="15.01027552093927"><ele>131.66666666666666</ele><time>2026-04-04T13:43:14.998Z</time></trkpt><trkpt lat="36.87629775821287" lon="15.010355777398518"><ele>133.5</ele><time>2026-04-04T13:43:15.998Z</time></trkpt><trkpt lat="36.87640250073345" lon="15.010423713418842"><ele>135.33333333333334</ele><time>2026-04-04T13:43:17.998Z</time></trkpt><trkpt lat="36.876442687290094" lon="15.010487593217997"><ele>137.16666666666669</ele><time>2026-04-04T13:43:19.998Z</time></trkpt><trkpt lat="36.87637384244018" lon="15.010527455578107"><ele>139.0</ele><time>2026-04-04T13:43:20.998Z</time></trkpt><trkpt lat="36.87630498996812" lon="15.010547800026854"><ele>139.0</ele><time>2026-04-04T13:43:22Z</time></trkpt><trkpt lat="36.87623485048936" lon="15.010559355028454"><ele>139.0</ele><time>2026-04-04T13:43:23Z</time></trkpt><trkpt lat="36.876159574301255" lon="15.010601446228058"><ele>139.0</ele><time>2026-04-04T13:43:24Z</time></trkpt><trkpt lat="36.87608394095839" lon="15.010662448111932"><ele>139.0</ele><time>2026-04-04T13:43:25Z</time></trkpt><trkpt lat="36.87600789621572" lon="15.010684997847436"><ele>139.0</ele><time>2026-04-04T13:43:26Z</time></trkpt><trkpt lat="36.87591615741524" lon="15.01068275028108"><ele>139.0</ele><time>2026-04-04T13:43:27Z</time></trkpt><trkpt lat="36.87582228364338" lon="15.010686352200537"><ele>137.6</ele><time>2026-04-04T13:43:28Z</time></trkpt><trkpt lat="36.875740509688264" lon="15.01068162894697"><ele>136.2</ele><time>2026-04-04T13:43:29Z</time></trkpt><trkpt lat="36.87567027908601" lon="15.010632036570943"><ele>134.79999999999998</ele><time>2026-04-04T13:43:30Z</time></trkpt><trkpt lat="36.87560090477656" lon="15.010564443646828"><ele>133.4</ele><time>2026-04-04T13:43:31Z</time></trkpt><trkpt lat="36.8755324529603" lon="15.010478311176433"><ele>132.0</ele><time>2026-04-04T13:43:32Z</time></trkpt><trkpt lat="36.8754564985043" lon="15.010391104880863"><ele>132.0</ele><time>2026-04-04T13:43:33Z</time></trkpt><trkpt lat="36.87537416452759" lon="15.01029195168716"><ele>132.0</ele><time>2026-04-04T13:43:34Z</time></trkpt><trkpt lat="36.875307066099396" lon="15.010196127513392"><ele>132.0</ele><time>2026-04-04T13:43:35Z</time></trkpt><trkpt lat="36.875257746650476" lon="15.010115644870103"><ele>132.0</ele><time>2026-04-04T13:43:36Z</time></trkpt><trkpt lat="36.87519490773535" lon="15.010025497489808"><ele>132.0</ele><time>2026-04-04T13:43:38Z</time></trkpt><trkpt lat="36.87511405652765" lon="15.010065181794273"><ele>132.0</ele><time>2026-04-04T13:43:40Z</time></trkpt><trkpt lat="36.8751563253942" lon="15.010189239431462"><ele>132.0</ele><time>2026-04-04T13:43:42Z</time></trkpt><trkpt lat="36.87520020925479" lon="15.010255876100533"><ele>132.0</ele><time>2026-04-04T13:43:43Z</time></trkpt><trkpt lat="36.87525023897459" lon="15.010316265029548"><ele>132.0</ele><time>2026-04-04T13:43:45Z</time></trkpt><trkpt lat="36.87529258541389" lon="15.010398931545327"><ele>132.0</ele><time>2026-04-04T13:43:46Z</time></trkpt><trkpt lat="36.875308522493086" lon="15.010527846944825"><ele>132.0</ele><time>2026-04-04T13:43:48Z</time></trkpt><trkpt lat="36.875340430747706" lon="15.010609397123554"><ele>132.0</ele><time>2026-04-04T13:43:49Z</time></trkpt><trkpt lat="36.875371349183176" lon="15.01069707123204"><ele>132.0</ele><time>2026-04-04T13:43:50Z</time></trkpt><trkpt lat="36.87540337382166" lon="15.010774642091498"><ele>132.0</ele><time>2026-04-04T13:43:51Z</time></trkpt><trkpt lat="36.87543548370925" lon="15.010891199756385"><ele>132.0</ele><time>2026-04-04T13:43:58.999Z</time></trkpt><trkpt lat="36.8754797359668" lon="15.010998958104851"><ele>132.0</ele><time>2026-04-04T13:44:01.999Z</time></trkpt><trkpt lat="36.875503017978446" lon="15.01109469036914"><ele>132.0</ele><time>2026-04-04T13:44:02.999Z</time></trkpt><trkpt lat="36.87556988531217" lon="15.01121176426766"><ele>135.79999999999998</ele><time>2026-04-04T13:44:04.999Z</time></trkpt><trkpt lat="36.87564187173639" lon="15.011243678608302"><ele>139.6</ele><time>2026-04-04T13:44:05.999Z</time></trkpt><trkpt lat="36.87572822875316" lon="15.011265551039555"><ele>143.39999999999998</ele><time>2026-04-04T13:44:06.999Z</time></trkpt><trkpt lat="36.875792434441" lon="15.011276910201774"><ele>147.2</ele><time>2026-04-04T13:44:07.999Z</time></trkpt><trkpt lat="36.875897611892384" lon="15.011293477221972"><ele>151.0</ele><time>2026-04-04T13:44:09.999Z</time></trkpt><trkpt lat="36.875990702356916" lon="15.011379340360017"><ele>151.2</ele><time>2026-04-04T13:44:11.999Z</time></trkpt><trkpt lat="36.87606802807705" lon="15.011441364549395"><ele>151.39999999999998</ele><time>2026-04-04T13:44:12.999Z</time></trkpt><trkpt lat="36.8761572027939" lon="15.011492635343815"><ele>151.6</ele><time>2026-04-04T13:44:13.999Z</time></trkpt><trkpt lat="36.87623704822207" lon="15.011539279556816"><ele>151.79999999999998</ele><time>2026-04-04T13:44:14.999Z</time></trkpt><trkpt lat="36.8763150132874" lon="15.011593322404694"><ele>152.0</ele><time>2026-04-04T13:44:15.999Z</time></trkpt><trkpt lat="36.87639116384337" lon="15.011642744031812"><ele>155.5</ele><time>2026-04-04T13:44:16.999Z</time></trkpt><trkpt lat="36.876465029926635" lon="15.011692488067846"><ele>159.0</ele><time>2026-04-04T13:44:17.999Z</time></trkpt><trkpt lat="36.87652917379223" lon="15.011735437119823"><ele>162.5</ele><time>2026-04-04T13:44:18.999Z</time></trkpt><trkpt lat="36.87660905518416" lon="15.011882352541654"><ele>166.0</ele><time>2026-04-04T13:44:20.999Z</time></trkpt><trkpt lat="36.876634763088305" lon="15.011961490511966"><ele>169.5</ele><time>2026-04-04T13:44:21.999Z</time></trkpt><trkpt lat="36.876657145661525" lon="15.012049614365063"><ele>173.0</ele><time>2026-04-04T13:44:22.999Z</time></trkpt><trkpt lat="36.876662710001376" lon="15.012143081910773"><ele>173.0</ele><time>2026-04-04T13:44:23.999Z</time></trkpt><trkpt lat="36.87665644288472" lon="15.012241394022341"><ele>173.0</ele><time>2026-04-04T13:44:24.999Z</time></trkpt><trkpt lat="36.876659500331726" lon="15.012339455506698"><ele>173.0</ele><time>2026-04-04T13:44:25.999Z</time></trkpt><trkpt lat="36.876638154543144" lon="15.012454308755657"><ele>173.0</ele><time>2026-04-04T13:44:26.999Z</time></trkpt><trkpt lat="36.876595184895365" lon="15.01256073585372"><ele>173.0</ele><time>2026-04-04T13:44:27.999Z</time></trkpt><trkpt lat="36.87654504281817" lon="15.012648437619866"><ele>173.0</ele><time>2026-04-04T13:44:28.999Z</time></trkpt><trkpt lat="36.876497426034526" lon="15.012701698208074"><ele>174.83333333333331</ele><time>2026-04-04T13:44:29.999Z</time></trkpt><trkpt lat="36.876392928163526" lon="15.012723197566014"><ele>176.66666666666666</ele><time>2026-04-04T13:44:31.999Z</time></trkpt><trkpt lat="36.876327334814434" lon="15.012813738889179"><ele>178.5</ele><time>2026-04-04T13:44:33.999Z</time></trkpt><trkpt lat="36.87630102181268" lon="15.012891150915978"><ele>180.33333333333334</ele><time>2026-04-04T13:44:35.999Z</time></trkpt><trkpt lat="36.87635639719762" lon="15.012945158161356"><ele>182.16666666666669</ele><time>2026-04-04T13:44:39.999Z</time></trkpt><trkpt lat="36.876449221231" lon="15.012963531444136"><ele>184.0</ele><time>2026-04-04T13:44:56.999Z</time></trkpt><trkpt lat="36.876517307741786" lon="15.012991848267752"><ele>184.0</ele><time>2026-04-04T13:44:57.999Z</time></trkpt><trkpt lat="36.87659816802473" lon="15.01303151195557"><ele>184.0</ele><time>2026-04-04T13:44:58.999Z</time></trkpt><trkpt lat="36.87666760143852" lon="15.013121271379912"><ele>184.0</ele><time>2026-04-04T13:44:59.999Z</time></trkpt><trkpt lat="36.87673701822843" lon="15.013177159414571"><ele>184.0</ele><time>2026-04-04T13:45:00.999Z</time></trkpt><trkpt lat="36.87681284556416" lon="15.013223688577089"><ele>184.0</ele><time>2026-04-04T13:45:02.999Z</time></trkpt><trkpt lat="36.87688025916297" lon="15.013259150728562"><ele>184.0</ele><time>2026-04-04T13:45:06.999Z</time></trkpt><trkpt lat="36.87694860385277" lon="15.013289108634352"><ele>184.14285714285714</ele><time>2026-04-04T13:45:08.999Z</time></trkpt><trkpt lat="36.877014581131874" lon="15.013300378306356"><ele>184.28571428571428</ele><time>2026-04-04T13:45:11.998Z</time></trkpt><trkpt lat="36.87696514460424" lon="15.013240892699486"><ele>184.42857142857142</ele><time>2026-04-04T13:45:28Z</time></trkpt><trkpt lat="36.87699120849336" lon="15.013165326074883"><ele>184.57142857142856</ele><time>2026-04-04T13:49:07.999Z</time></trkpt><trkpt lat="36.87703414661966" lon="15.013094984811223"><ele>184.71428571428572</ele><time>2026-04-04T13:49:09.999Z</time></trkpt><trkpt lat="36.87701531696926" lon="15.013017651561626"><ele>184.85714285714283</ele><time>2026-04-04T13:49:11.999Z</time></trkpt><trkpt lat="36.87697220644483" lon="15.01291146788551"><ele>185.0</ele><time>2026-04-04T13:49:13.998Z</time></trkpt><trkpt lat="36.876982744601484" lon="15.012811308551523"><ele>185.0</ele><time>2026-04-04T13:49:14.998Z</time></trkpt><trkpt lat="36.87699032285724" lon="15.012683055426123"><ele>185.0</ele><time>2026-04-04T13:49:15.998Z</time></trkpt><trkpt lat="36.876988448225205" lon="15.01253329393172"><ele>185.0</ele><time>2026-04-04T13:49:16.998Z</time></trkpt><trkpt lat="36.87698481036235" lon="15.01236859760493"><ele>185.0</ele><time>2026-04-04T13:49:17.998Z</time></trkpt><trkpt lat="36.8770195097604" lon="15.012196274532569"><ele>184.0</ele><time>2026-04-04T13:49:18.998Z</time></trkpt><trkpt lat="36.87708349293444" lon="15.012010595749304"><ele>183.0</ele><time>2026-04-04T13:49:19.998Z</time></trkpt><trkpt lat="36.87714651947466" lon="15.01187178415206"><ele>182.0</ele><time>2026-04-04T13:49:20.998Z</time></trkpt><trkpt lat="36.877226908064785" lon="15.01174568369154"><ele>181.0</ele><time>2026-04-04T13:49:21.998Z</time></trkpt><trkpt lat="36.877317995251346" lon="15.011644367335807"><ele>181.20000000000002</ele><time>2026-04-04T13:49:22.998Z</time></trkpt><trkpt lat="36.87738396968508" lon="15.01158564573195"><ele>181.4</ele><time>2026-04-04T13:49:23.998Z</time></trkpt><trkpt lat="36.87744785959997" lon="15.011575135361566"><ele>181.6</ele><time>2026-04-04T13:49:24.998Z</time></trkpt><trkpt lat="36.87753793329387" lon="15.011542863238903"><ele>181.8</ele><time>2026-04-04T13:49:25.998Z</time></trkpt><trkpt lat="36.877674058683226" lon="15.011502381405734"><ele>182.0</ele><time>2026-04-04T13:49:26.998Z</time></trkpt><trkpt lat="36.87779902674182" lon="15.011476843901995"><ele>182.0</ele><time>2026-04-04T13:49:27.998Z</time></trkpt><trkpt lat="36.8779043502167" lon="15.011465215723188"><ele>182.0</ele><time>2026-04-04T13:49:28.998Z</time></trkpt><trkpt lat="36.878026502975565" lon="15.011411670588233"><ele>182.0</ele><time>2026-04-04T13:49:29.998Z</time></trkpt><trkpt lat="36.87813673991729" lon="15.011336387627988"><ele>182.0</ele><time>2026-04-04T13:49:30.998Z</time></trkpt><trkpt lat="36.87822342511469" lon="15.01124074080209"><ele>182.0</ele><time>2026-04-04T13:49:31.998Z</time></trkpt><trkpt lat="36.87831043907287" lon="15.011172482736537"><ele>182.0</ele><time>2026-04-04T13:49:32.998Z</time></trkpt><trkpt lat="36.87838029920322" lon="15.011101741922687"><ele>182.0</ele><time>2026-04-04T13:49:33.998Z</time></trkpt><trkpt lat="36.8784329069413" lon="15.010994633394631"><ele>182.0</ele><time>2026-04-04T13:49:34.998Z</time></trkpt><trkpt lat="36.878462806831216" lon="15.010872388406604"><ele>182.0</ele><time>2026-04-04T13:49:35.998Z</time></trkpt><trkpt lat="36.87846821738252" lon="15.010719822735604"><ele>182.25</ele><time>2026-04-04T13:49:36.998Z</time></trkpt><trkpt lat="36.87845220810402" lon="15.010571378513559"><ele>182.5</ele><time>2026-04-04T13:49:37.998Z</time></trkpt><trkpt lat="36.87840615169669" lon="15.01040462527706"><ele>182.75</ele><time>2026-04-04T13:49:39Z</time></trkpt><trkpt lat="36.87837284398714" lon="15.010262289696762"><ele>183.0</ele><time>2026-04-04T13:49:40Z</time></trkpt><trkpt lat="36.878309017330025" lon="15.010162098063388"><ele>183.0</ele><time>2026-04-04T13:49:41Z</time></trkpt><trkpt lat="36.87825561422265" lon="15.010022227072911"><ele>183.0</ele><time>2026-04-04T13:49:42Z</time></trkpt><trkpt lat="36.87818783460764" lon="15.009929289599402"><ele>183.0</ele><time>2026-04-04T13:49:43Z</time></trkpt><trkpt lat="36.87812761439708" lon="15.009839910190816"><ele>183.0</ele><time>2026-04-04T13:49:44Z</time></trkpt><trkpt lat="36.878060548309" lon="15.009758627947322"><ele>183.0</ele><time>2026-04-04T13:49:45Z</time></trkpt><trkpt lat="36.87799561120871" lon="15.009650961404324"><ele>182.4</ele><time>2026-04-04T13:49:47Z</time></trkpt><trkpt lat="36.87796890978692" lon="15.009528061468053"><ele>181.8</ele><time>2026-04-04T13:49:48Z</time></trkpt><trkpt lat="36.877939240884345" lon="15.009392856252408"><ele>181.2</ele><time>2026-04-04T13:49:49Z</time></trkpt><trkpt lat="36.877888147231694" lon="15.009272916474142"><ele>180.6</ele><time>2026-04-04T13:49:50Z</time></trkpt><trkpt lat="36.87785051140358" lon="15.009199913831232"><ele>180.0</ele><time>2026-04-04T13:49:51Z</time></trkpt><trkpt lat="36.8778727274064" lon="15.00906228844225"><ele>175.8</ele><time>2026-04-04T13:49:53Z</time></trkpt><trkpt lat="36.8779495129693" lon="15.009045343572783"><ele>171.6</ele><time>2026-04-04T13:49:54Z</time></trkpt><trkpt lat="36.87803406226736" lon="15.009032319571048"><ele>167.4</ele><time>2026-04-04T13:49:55Z</time></trkpt><trkpt lat="36.87814917886392" lon="15.008969885275889"><ele>163.2</ele><time>2026-04-04T13:49:56Z</time></trkpt><trkpt lat="36.878264527139635" lon="15.008893492000402"><ele>159.0</ele><time>2026-04-04T13:49:57Z</time></trkpt><trkpt lat="36.87838971872325" lon="15.00885319184781"><ele>160.4</ele><time>2026-04-04T13:49:58Z</time></trkpt><trkpt lat="36.87848464512399" lon="15.00879248427232"><ele>161.8</ele><time>2026-04-04T13:49:59Z</time></trkpt><trkpt lat="36.87857962816039" lon="15.008771133493253"><ele>163.20000000000002</ele><time>2026-04-04T13:50:00Z</time></trkpt><trkpt lat="36.87865966516542" lon="15.008717312476598"><ele>164.60000000000002</ele><time>2026-04-04T13:50:01Z</time></trkpt><trkpt lat="36.87872492176187" lon="15.008613531006906"><ele>166.0</ele><time>2026-04-04T13:50:01.999Z</time></trkpt><trkpt lat="36.87878941952279" lon="15.008503622240774"><ele>166.0</ele><time>2026-04-04T13:50:02.999Z</time></trkpt><trkpt lat="36.87884880032942" lon="15.008415423435848"><ele>166.0</ele><time>2026-04-04T13:50:03.999Z</time></trkpt><trkpt lat="36.87892093033665" lon="15.008371879649982"><ele>166.0</ele><time>2026-04-04T13:50:04.999Z</time></trkpt><trkpt lat="36.87901766981205" lon="15.008386059612615"><ele>166.0</ele><time>2026-04-04T13:50:05.999Z</time></trkpt><trkpt lat="36.8791231789645" lon="15.00834299997974"><ele>166.0</ele><time>2026-04-04T13:50:06.999Z</time></trkpt><trkpt lat="36.879209815521044" lon="15.00831145663753"><ele>162.75</ele><time>2026-04-04T13:50:07.999Z</time></trkpt><trkpt lat="36.87928502623128" lon="15.008200602587475"><ele>159.5</ele><time>2026-04-04T13:50:08.999Z</time></trkpt><trkpt lat="36.879386478396086" lon="15.008097509926538"><ele>156.25</ele><time>2026-04-04T13:50:09.999Z</time></trkpt><trkpt lat="36.87947356714615" lon="15.007977795482805"><ele>153.0</ele><time>2026-04-04T13:50:10.999Z</time></trkpt><trkpt lat="36.879545071821575" lon="15.00788921411035"><ele>153.0</ele><time>2026-04-04T13:50:11.999Z</time></trkpt><trkpt lat="36.87961221934967" lon="15.007804032753677"><ele>153.0</ele><time>2026-04-04T13:50:12.999Z</time></trkpt><trkpt lat="36.879680239940186" lon="15.007709536176357"><ele>153.0</ele><time>2026-04-04T13:50:13.999Z</time></trkpt><trkpt lat="36.87974349782151" lon="15.00761918349959"><ele>153.0</ele><time>2026-04-04T13:50:14.999Z</time></trkpt><trkpt lat="36.879798113148105" lon="15.007551538878447"><ele>153.0</ele><time>2026-04-04T13:50:15.999Z</time></trkpt><trkpt lat="36.87986856433624" lon="15.007473163932646"><ele>153.0</ele><time>2026-04-04T13:50:17.999Z</time></trkpt><trkpt lat="36.879984413718816" lon="15.007547453752188"><ele>153.0</ele><time>2026-04-04T13:50:21.999Z</time></trkpt><trkpt lat="36.88004399691345" lon="15.007585342460787"><ele>153.0</ele><time>2026-04-04T13:50:27.999Z</time></trkpt><trkpt lat="36.88015147860892" lon="15.00756178549746"><ele>153.0</ele><time>2026-04-04T13:50:29.999Z</time></trkpt><trkpt lat="36.88023418337872" lon="15.007498303139274"><ele>153.0</ele><time>2026-04-04T13:50:30.999Z</time></trkpt><trkpt lat="36.88032894565137" lon="15.007385948726284"><ele>155.4</ele><time>2026-04-04T13:50:31.999Z</time></trkpt><trkpt lat="36.880409093769195" lon="15.007289094856265"><ele>157.8</ele><time>2026-04-04T13:50:32.999Z</time></trkpt><trkpt lat="36.880503014566685" lon="15.007210159717596"><ele>160.2</ele><time>2026-04-04T13:50:33.999Z</time></trkpt><trkpt lat="36.88058404057831" lon="15.007148130652988"><ele>162.6</ele><time>2026-04-04T13:50:34.999Z</time></trkpt><trkpt lat="36.880673821900885" lon="15.007085843061327"><ele>165.0</ele><time>2026-04-04T13:50:35.999Z</time></trkpt><trkpt lat="36.8807604299982" lon="15.007029784309406"><ele>165.0</ele><time>2026-04-04T13:50:36.999Z</time></trkpt><trkpt lat="36.880845859846104" lon="15.006974728936505"><ele>165.0</ele><time>2026-04-04T13:50:37.999Z</time></trkpt><trkpt lat="36.88093459070357" lon="15.006944978855254"><ele>165.0</ele><time>2026-04-04T13:50:38.999Z</time></trkpt><trkpt lat="36.881001501517744" lon="15.006955560032761"><ele>165.0</ele><time>2026-04-04T13:50:39.999Z</time></trkpt><trkpt lat="36.88108055592095" lon="15.007083629383201"><ele>165.0</ele><time>2026-04-04T13:50:41.999Z</time></trkpt><trkpt lat="36.8811381424984" lon="15.007173280841346"><ele>169.4</ele><time>2026-04-04T13:50:42.999Z</time></trkpt><trkpt lat="36.881191774160705" lon="15.007244274681131"><ele>173.8</ele><time>2026-04-04T13:50:43.999Z</time></trkpt><trkpt lat="36.881259637014594" lon="15.00729525103321"><ele>178.2</ele><time>2026-04-04T13:50:44.999Z</time></trkpt><trkpt lat="36.881321003967756" lon="15.007212988877834"><ele>182.6</ele><time>2026-04-04T13:50:46.999Z</time></trkpt><trkpt lat="36.88135058986959" lon="15.007068081481789"><ele>187.0</ele><time>2026-04-04T13:50:47.999Z</time></trkpt><trkpt lat="36.88138114755021" lon="15.006928765066622"><ele>187.0</ele><time>2026-04-04T13:50:48.999Z</time></trkpt><trkpt lat="36.881419556657214" lon="15.006788896779327"><ele>187.0</ele><time>2026-04-04T13:50:49.999Z</time></trkpt><trkpt lat="36.881514588675856" lon="15.006626977435097"><ele>187.0</ele><time>2026-04-04T13:50:50.999Z</time></trkpt><trkpt lat="36.88153733794799" lon="15.006487171779355"><ele>187.0</ele><time>2026-04-04T13:50:51.999Z</time></trkpt><trkpt lat="36.88155492200016" lon="15.006350568828983"><ele>187.16666666666669</ele><time>2026-04-04T13:50:52.999Z</time></trkpt><trkpt lat="36.88156965858994" lon="15.00625716800874"><ele>187.33333333333334</ele><time>2026-04-04T13:50:53.999Z</time></trkpt><trkpt lat="36.88161299555947" lon="15.006180528812871"><ele>187.5</ele><time>2026-04-04T13:50:55.999Z</time></trkpt><trkpt lat="36.88168848835102" lon="15.006182162077874"><ele>187.66666666666666</ele><time>2026-04-04T13:50:57.999Z</time></trkpt><trkpt lat="36.881739486682726" lon="15.00609254061914"><ele>187.83333333333331</ele><time>2026-04-04T13:51:01.999Z</time></trkpt><trkpt lat="36.88171017608757" lon="15.005968486769813"><ele>188.0</ele><time>2026-04-04T13:51:02.999Z</time></trkpt><trkpt lat="36.88178534597299" lon="15.005885414497453"><ele>188.0</ele><time>2026-04-04T13:51:04.999Z</time></trkpt><trkpt lat="36.88189150673187" lon="15.005836759634727"><ele>188.0</ele><time>2026-04-04T13:51:06.999Z</time></trkpt><trkpt lat="36.88195984806312" lon="15.005820952488682"><ele>188.0</ele><time>2026-04-04T13:51:07.999Z</time></trkpt><trkpt lat="36.88202214395953" lon="15.005789649998947"><ele>188.0</ele><time>2026-04-04T13:51:08.999Z</time></trkpt><trkpt lat="36.882117577750954" lon="15.005766631028294"><ele>188.0</ele><time>2026-04-04T13:51:09.999Z</time></trkpt><trkpt lat="36.88219004275268" lon="15.005693249455344"><ele>188.0</ele><time>2026-04-04T13:51:10.999Z</time></trkpt><trkpt lat="36.882258927314695" lon="15.005612627541073"><ele>182.4</ele><time>2026-04-04T13:51:11.999Z</time></trkpt><trkpt lat="36.88232603820359" lon="15.005515798148162"><ele>176.8</ele><time>2026-04-04T13:51:12.999Z</time></trkpt><trkpt lat="36.882382566301956" lon="15.005430786248425"><ele>171.2</ele><time>2026-04-04T13:51:13.999Z</time></trkpt><trkpt lat="36.88244411653503" lon="15.005365617601699"><ele>165.6</ele><time>2026-04-04T13:51:14.999Z</time></trkpt><trkpt lat="36.88250907217051" lon="15.005318809029173"><ele>160.0</ele><time>2026-04-04T13:51:15.999Z</time></trkpt><trkpt lat="36.882636358784566" lon="15.005288957431516"><ele>159.8</ele><time>2026-04-04T13:51:17.998Z</time></trkpt><trkpt lat="36.8827066706267" lon="15.005305017451025"><ele>159.6</ele><time>2026-04-04T13:51:18.998Z</time></trkpt><trkpt lat="36.88278290860658" lon="15.005312352974455"><ele>159.4</ele><time>2026-04-04T13:51:19.998Z</time></trkpt><trkpt lat="36.88285784204495" lon="15.005323167284136"><ele>159.2</ele><time>2026-04-04T13:51:20.998Z</time></trkpt><trkpt lat="36.882982880899334" lon="15.00542473691048"><ele>159.0</ele><time>2026-04-04T13:51:21.998Z</time></trkpt><trkpt lat="36.88307135324763" lon="15.005461855358973"><ele>159.0</ele><time>2026-04-04T13:51:22.998Z</time></trkpt><trkpt lat="36.88318036374624" lon="15.00550238541685"><ele>159.0</ele><time>2026-04-04T13:51:24.998Z</time></trkpt><trkpt lat="36.88322831896059" lon="15.00543001439124"><ele>159.0</ele><time>2026-04-04T13:51:26.998Z</time></trkpt><trkpt lat="36.88316755206242" lon="15.00538372945894"><ele>159.0</ele><time>2026-04-04T13:51:28.998Z</time></trkpt><trkpt lat="36.88309687732099" lon="15.005272120065811"><ele>159.0</ele><time>2026-04-04T13:51:30.998Z</time></trkpt><trkpt lat="36.88305534692256" lon="15.00520786030459"><ele>159.0</ele><time>2026-04-04T13:51:31.998Z</time></trkpt><trkpt lat="36.882985791311356" lon="15.005128898874315"><ele>159.0</ele><time>2026-04-04T13:51:32.998Z</time></trkpt><trkpt lat="36.882916978352874" lon="15.005053719240959"><ele>159.0</ele><time>2026-04-04T13:51:33.998Z</time></trkpt><trkpt lat="36.88285048025765" lon="15.004988082894693"><ele>159.0</ele><time>2026-04-04T13:51:34.998Z</time></trkpt><trkpt lat="36.88278702007408" lon="15.004904190056225"><ele>159.0</ele><time>2026-04-04T13:51:35.998Z</time></trkpt><trkpt lat="36.882733088475014" lon="15.004840924316714"><ele>159.0</ele><time>2026-04-04T13:51:36.998Z</time></trkpt><trkpt lat="36.88267256558774" lon="15.004783559414163"><ele>159.0</ele><time>2026-04-04T13:51:37.998Z</time></trkpt><trkpt lat="36.88261449121506" lon="15.00472622854547"><ele>156.57142857142856</ele><time>2026-04-04T13:51:38.998Z</time></trkpt><trkpt lat="36.88255930427937" lon="15.004669632425227"><ele>154.14285714285717</ele><time>2026-04-04T13:51:39.998Z</time></trkpt><trkpt lat="36.88249554294821" lon="15.004613886015026"><ele>151.71428571428572</ele><time>2026-04-04T13:51:40.998Z</time></trkpt><trkpt lat="36.88244125835737" lon="15.004562965458652"><ele>149.28571428571428</ele><time>2026-04-04T13:51:41.998Z</time></trkpt><trkpt lat="36.88238081950812" lon="15.004524288504383"><ele>146.85714285714283</ele><time>2026-04-04T13:51:42.998Z</time></trkpt><trkpt lat="36.88230871277244" lon="15.004491840446915"><ele>144.42857142857142</ele><time>2026-04-04T13:51:44Z</time></trkpt><trkpt lat="36.88224788542552" lon="15.004468491096056"><ele>142.0</ele><time>2026-04-04T13:51:45Z</time></trkpt><trkpt lat="36.882162673033605" lon="15.004431219042505"><ele>142.0</ele><time>2026-04-04T13:51:46Z</time></trkpt><trkpt lat="36.88208327424275" lon="15.004415787321225"><ele>142.0</ele><time>2026-04-04T13:51:47Z</time></trkpt><trkpt lat="36.882008879998914" lon="15.00440244004675"><ele>142.0</ele><time>2026-04-04T13:51:48Z</time></trkpt><trkpt lat="36.88192587912732" lon="15.004318668231386"><ele>142.0</ele><time>2026-04-04T13:51:50Z</time></trkpt><trkpt lat="36.881896746565964" lon="15.004216658387168"><ele>142.0</ele><time>2026-04-04T13:51:51Z</time></trkpt><trkpt lat="36.88184883378921" lon="15.00416206722011"><ele>142.0</ele><time>2026-04-04T13:51:52Z</time></trkpt><trkpt lat="36.88173170980051" lon="15.0041047236062"><ele>140.2</ele><time>2026-04-04T13:51:54Z</time></trkpt><trkpt lat="36.88168598704601" lon="15.00399096556768"><ele>138.39999999999998</ele><time>2026-04-04T13:51:56Z</time></trkpt><trkpt lat="36.88167151001333" lon="15.003904382019275"><ele>136.60000000000002</ele><time>2026-04-04T13:51:57Z</time></trkpt><trkpt lat="36.881610697077726" lon="15.003752829482055"><ele>134.8</ele><time>2026-04-04T13:51:59Z</time></trkpt><trkpt lat="36.88155912297558" lon="15.003632288837837"><ele>133.0</ele><time>2026-04-04T13:52:00Z</time></trkpt><trkpt lat="36.88153562822759" lon="15.003518312690547"><ele>133.0</ele><time>2026-04-04T13:52:02Z</time></trkpt><trkpt lat="36.88145685753154" lon="15.003408985932946"><ele>133.0</ele><time>2026-04-04T13:52:03.999Z</time></trkpt><trkpt lat="36.88148233538209" lon="15.003313143394166"><ele>133.0</ele><time>2026-04-04T13:52:05.999Z</time></trkpt><trkpt lat="36.88156947652837" lon="15.003277611548773"><ele>133.0</ele><time>2026-04-04T13:52:07.999Z</time></trkpt><trkpt lat="36.881632260521286" lon="15.003253689230396"><ele>133.0</ele><time>2026-04-04T13:52:08.999Z</time></trkpt><trkpt lat="36.88171871309219" lon="15.003216312652121"><ele>133.0</ele><time>2026-04-04T13:52:09.999Z</time></trkpt><trkpt lat="36.881795172798384" lon="15.003151812077512"><ele>134.8</ele><time>2026-04-04T13:52:10.999Z</time></trkpt><trkpt lat="36.881857459562156" lon="15.003132593312287"><ele>136.60000000000002</ele><time>2026-04-04T13:52:11.999Z</time></trkpt><trkpt lat="36.88194131944888" lon="15.00309885045352"><ele>138.39999999999998</ele><time>2026-04-04T13:52:12.999Z</time></trkpt><trkpt lat="36.882069338820024" lon="15.003109240749536"><ele>140.2</ele><time>2026-04-04T13:52:13.999Z</time></trkpt><trkpt lat="36.88220450889351" lon="15.003059839033861"><ele>142.0</ele><time>2026-04-04T13:52:14.999Z</time></trkpt><trkpt lat="36.882336307297756" lon="15.003076161084602"><ele>142.0</ele><time>2026-04-04T13:52:15.999Z</time></trkpt><trkpt lat="36.88248585513673" lon="15.003186436778646"><ele>142.0</ele><time>2026-04-04T13:52:17.999Z</time></trkpt><trkpt lat="36.88253682454417" lon="15.003283934520846"><ele>142.0</ele><time>2026-04-04T13:52:18.999Z</time></trkpt><trkpt lat="36.882645794820114" lon="15.003311825130117"><ele>142.0</ele><time>2026-04-04T13:52:19.999Z</time></trkpt><trkpt lat="36.88276725576889" lon="15.003323371763722"><ele>143.4</ele><time>2026-04-04T13:52:20.999Z</time></trkpt><trkpt lat="36.882874951605096" lon="15.003313491924409"><ele>144.79999999999998</ele><time>2026-04-04T13:52:21.999Z</time></trkpt><trkpt lat="36.882972543095974" lon="15.003292629535725"><ele>146.2</ele><time>2026-04-04T13:52:22.999Z</time></trkpt><trkpt lat="36.88305900145348" lon="15.003290677448028"><ele>147.6</ele><time>2026-04-04T13:52:23.999Z</time></trkpt><trkpt lat="36.88317449746684" lon="15.003324453992976"><ele>149.0</ele><time>2026-04-04T13:52:24.999Z</time></trkpt><trkpt lat="36.88325783210782" lon="15.003391239466753"><ele>150.0</ele><time>2026-04-04T13:52:25.999Z</time></trkpt><trkpt lat="36.883327423075556" lon="15.003469812105585"><ele>151.0</ele><time>2026-04-04T13:52:26.999Z</time></trkpt><trkpt lat="36.883399562349496" lon="15.003534184746972"><ele>152.0</ele><time>2026-04-04T13:52:27.999Z</time></trkpt><trkpt lat="36.88345519862318" lon="15.003586484158484"><ele>153.0</ele><time>2026-04-04T13:52:28.999Z</time></trkpt><trkpt lat="36.88352908588005" lon="15.003690991183962"><ele>154.0</ele><time>2026-04-04T13:52:30.999Z</time></trkpt><trkpt lat="36.88360118172996" lon="15.003839353885654"><ele>157.0</ele><time>2026-04-04T13:52:32.999Z</time></trkpt><trkpt lat="36.88365190849929" lon="15.003930657786546"><ele>160.0</ele><time>2026-04-04T13:52:33.999Z</time></trkpt><trkpt lat="36.88370553177603" lon="15.004001687507138"><ele>163.0</ele><time>2026-04-04T13:52:34.999Z</time></trkpt><trkpt lat="36.88382274545406" lon="15.004012613097823"><ele>166.0</ele><time>2026-04-04T13:52:36.999Z</time></trkpt><trkpt lat="36.88384204615637" lon="15.003845926331541"><ele>169.0</ele><time>2026-04-04T13:52:38.999Z</time></trkpt><trkpt lat="36.88390432314655" lon="15.003716269521677"><ele>169.0</ele><time>2026-04-04T13:52:40.999Z</time></trkpt><trkpt lat="36.88392755902455" lon="15.003638252695007"><ele>169.0</ele><time>2026-04-04T13:52:41.999Z</time></trkpt><trkpt lat="36.88395467321127" lon="15.00356654814075"><ele>169.0</ele><time>2026-04-04T13:52:42.999Z</time></trkpt><trkpt lat="36.88404607370854" lon="15.003469793185785"><ele>169.0</ele><time>2026-04-04T13:52:44.999Z</time></trkpt><trkpt lat="36.884105883638746" lon="15.003401145435124"><ele>169.0</ele><time>2026-04-04T13:52:45.999Z</time></trkpt><trkpt lat="36.884158912548976" lon="15.003331776121634"><ele>169.0</ele><time>2026-04-04T13:52:46.999Z</time></trkpt><trkpt lat="36.884215362735894" lon="15.003277922001885"><ele>170.85714285714286</ele><time>2026-04-04T13:52:47.999Z</time></trkpt><trkpt lat="36.88428268312132" lon="15.003241211592455"><ele>172.71428571428572</ele><time>2026-04-04T13:52:48.999Z</time></trkpt><trkpt lat="36.88436446580733" lon="15.003234061358361"><ele>174.57142857142856</ele><time>2026-04-04T13:52:49.999Z</time></trkpt><trkpt lat="36.88443430359479" lon="15.003219667136742"><ele>176.42857142857144</ele><time>2026-04-04T13:52:50.999Z</time></trkpt><trkpt lat="36.88450457045041" lon="15.003217532487838"><ele>178.28571428571428</ele><time>2026-04-04T13:52:51.999Z</time></trkpt><trkpt lat="36.88457416423502" lon="15.003227933131713"><ele>180.14285714285714</ele><time>2026-04-04T13:52:52.999Z</time></trkpt><trkpt lat="36.88464151882108" lon="15.003247951098913"><ele>182.0</ele><time>2026-04-04T13:52:53.999Z</time></trkpt><trkpt lat="36.88472950509017" lon="15.003268757348996"><ele>182.0</ele><time>2026-04-04T13:52:54.999Z</time></trkpt><trkpt lat="36.88481280565308" lon="15.003279518785783"><ele>182.0</ele><time>2026-04-04T13:52:55.999Z</time></trkpt><trkpt lat="36.88487589611243" lon="15.003283069051138"><ele>182.0</ele><time>2026-04-04T13:52:56.999Z</time></trkpt><trkpt lat="36.88494560770133" lon="15.003340959027538"><ele>182.0</ele><time>2026-04-04T13:52:57.999Z</time></trkpt><trkpt lat="36.88501207589355" lon="15.003351393391657"><ele>182.0</ele><time>2026-04-04T13:52:58.999Z</time></trkpt><trkpt lat="36.88512007129162" lon="15.003368346845477"><ele>182.0</ele><time>2026-04-04T13:53:00.999Z</time></trkpt><trkpt lat="36.88511414427713" lon="15.003460847944188"><ele>182.5</ele><time>2026-04-04T13:53:02.999Z</time></trkpt><trkpt lat="36.88508524602384" lon="15.003544214121215"><ele>183.0</ele><time>2026-04-04T13:53:04.999Z</time></trkpt><trkpt lat="36.88505288631278" lon="15.003661196006574"><ele>183.5</ele><time>2026-04-04T13:53:06.999Z</time></trkpt><trkpt lat="36.88506314049532" lon="15.003755852683918"><ele>184.0</ele><time>2026-04-04T13:53:08.999Z</time></trkpt><trkpt lat="36.885127465211085" lon="15.00379733320007"><ele>184.5</ele><time>2026-04-04T13:53:10.999Z</time></trkpt><trkpt lat="36.88522692991136" lon="15.003804886005009"><ele>185.0</ele><time>2026-04-04T13:53:12.999Z</time></trkpt><trkpt lat="36.88530166654914" lon="15.003810984462994"><ele>188.0</ele><time>2026-04-04T13:53:13.999Z</time></trkpt><trkpt lat="36.88538883391059" lon="15.003844029842003"><ele>191.0</ele><time>2026-04-04T13:53:14.999Z</time></trkpt><trkpt lat="36.8854607140175" lon="15.00385329943953"><ele>194.0</ele><time>2026-04-04T13:53:15.999Z</time></trkpt><trkpt lat="36.88553860516698" lon="15.00384529255808"><ele>197.0</ele><time>2026-04-04T13:53:16.999Z</time></trkpt><trkpt lat="36.88561673153025" lon="15.003835521783632"><ele>200.00000000000003</ele><time>2026-04-04T13:53:17.999Z</time></trkpt><trkpt lat="36.885690781012606" lon="15.003809824139445"><ele>203.0</ele><time>2026-04-04T13:53:18.999Z</time></trkpt><trkpt lat="36.88575367186679" lon="15.003766845642948"><ele>203.00000000000003</ele><time>2026-04-04T13:53:19.999Z</time></trkpt><trkpt lat="36.88581379446714" lon="15.003718848765004"><ele>203.0</ele><time>2026-04-04T13:53:20.998Z</time></trkpt><trkpt lat="36.88586668119661" lon="15.003673498152057"><ele>203.0</ele><time>2026-04-04T13:53:21.998Z</time></trkpt><trkpt lat="36.88592343522974" lon="15.003631899397073"><ele>203.0</ele><time>2026-04-04T13:53:22.998Z</time></trkpt><trkpt lat="36.885994732955766" lon="15.003583855141535"><ele>203.00000000000003</ele><time>2026-04-04T13:53:23.998Z</time></trkpt><trkpt lat="36.886061551638065" lon="15.003514450841397"><ele>203.0</ele><time>2026-04-04T13:53:24.998Z</time></trkpt><trkpt lat="36.88612008500395" lon="15.003439205752898"><ele>206.83333333333334</ele><time>2026-04-04T13:53:25.998Z</time></trkpt><trkpt lat="36.886185810538066" lon="15.00339192123463"><ele>210.66666666666669</ele><time>2026-04-04T13:53:26.998Z</time></trkpt><trkpt lat="36.88625282980353" lon="15.00334282791548"><ele>214.5</ele><time>2026-04-04T13:53:27.998Z</time></trkpt><trkpt lat="36.88631829504874" lon="15.003273886001335"><ele>218.33333333333331</ele><time>2026-04-04T13:53:28.998Z</time></trkpt><trkpt lat="36.88636837793687" lon="15.003198204146756"><ele>222.16666666666666</ele><time>2026-04-04T13:53:29.998Z</time></trkpt><trkpt lat="36.88640315735654" lon="15.003124820586914"><ele>226.0</ele><time>2026-04-04T13:53:30.998Z</time></trkpt><trkpt lat="36.88645444911296" lon="15.003060369229294"><ele>226.0</ele><time>2026-04-04T13:53:31.998Z</time></trkpt><trkpt lat="36.8865153782323" lon="15.002988427813497"><ele>226.00000000000003</ele><time>2026-04-04T13:53:32.998Z</time></trkpt><trkpt lat="36.886586864379495" lon="15.002906466570103"><ele>226.00000000000003</ele><time>2026-04-04T13:53:33.998Z</time></trkpt><trkpt lat="36.88665720399257" lon="15.002804047670361"><ele>226.0</ele><time>2026-04-04T13:53:34.998Z</time></trkpt><trkpt lat="36.886714414851824" lon="15.002719109048144"><ele>226.0</ele><time>2026-04-04T13:53:35.998Z</time></trkpt><trkpt lat="36.88677498175353" lon="15.00264413500365"><ele>229.49999999999997</ele><time>2026-04-04T13:53:36.998Z</time></trkpt><trkpt lat="36.886832955867455" lon="15.002584093546284"><ele>233.0</ele><time>2026-04-04T13:53:37.998Z</time></trkpt><trkpt lat="36.886902187663694" lon="15.00253943032166"><ele>236.5</ele><time>2026-04-04T13:53:38.998Z</time></trkpt><trkpt lat="36.88698941741936" lon="15.002537733553925"><ele>240.0</ele><time>2026-04-04T13:53:39.998Z</time></trkpt><trkpt lat="36.88707064132681" lon="15.002504230648016"><ele>243.49999999999997</ele><time>2026-04-04T13:53:40.998Z</time></trkpt><trkpt lat="36.88715464675651" lon="15.002481781589813"><ele>247.0</ele><time>2026-04-04T13:53:41.998Z</time></trkpt><trkpt lat="36.88721677809535" lon="15.002401444954888"><ele>247.0</ele><time>2026-04-04T13:53:42.998Z</time></trkpt><trkpt lat="36.88725425894224" lon="15.0023371595373"><ele>247.0</ele><time>2026-04-04T13:53:43.998Z</time></trkpt><trkpt lat="36.88726995730914" lon="15.002247996026366"><ele>247.0</ele><time>2026-04-04T13:53:44.998Z</time></trkpt><trkpt lat="36.88730994604307" lon="15.002154178218156"><ele>247.0</ele><time>2026-04-04T13:53:45.998Z</time></trkpt><trkpt lat="36.88734636625926" lon="15.002080334738768"><ele>247.0</ele><time>2026-04-04T13:53:46.998Z</time></trkpt><trkpt lat="36.88737638384381" lon="15.002008446840666"><ele>247.0</ele><time>2026-04-04T13:53:47.998Z</time></trkpt><trkpt lat="36.887418659079856" lon="15.001914125427378"><ele>247.0</ele><time>2026-04-04T13:53:48.998Z</time></trkpt><trkpt lat="36.88742916780462" lon="15.001805886427462"><ele>246.99999999999997</ele><time>2026-04-04T13:53:50Z</time></trkpt><trkpt lat="36.88742123155875" lon="15.001714568037357"><ele>247.0</ele><time>2026-04-04T13:53:51Z</time></trkpt><trkpt lat="36.887429789138466" lon="15.001600953824052"><ele>247.0</ele><time>2026-04-04T13:53:53Z</time></trkpt><trkpt lat="36.88749692813162" lon="15.001555200558997"><ele>247.0</ele><time>2026-04-04T13:56:20.999Z</time></trkpt><trkpt lat="36.887557458625025" lon="15.001434493501776"><ele>246.99999999999997</ele><time>2026-04-04T13:56:22.999Z</time></trkpt><trkpt lat="36.88760875629001" lon="15.001377751196834"><ele>247.0</ele><time>2026-04-04T13:56:23.999Z</time></trkpt><trkpt lat="36.88768414519219" lon="15.001304300128043"><ele>246.6</ele><time>2026-04-04T13:56:24.999Z</time></trkpt><trkpt lat="36.8877575721666" lon="15.001218993701077"><ele>246.2</ele><time>2026-04-04T13:56:25.999Z</time></trkpt><trkpt lat="36.88781866725997" lon="15.00117011489817"><ele>245.8</ele><time>2026-04-04T13:56:27.999Z</time></trkpt><trkpt lat="36.887886640546505" lon="15.001111012248284"><ele>245.4</ele><time>2026-04-04T13:56:30.999Z</time></trkpt><trkpt lat="36.88800675720671" lon="15.001049165471848"><ele>245.0</ele><time>2026-04-04T13:56:32.999Z</time></trkpt><trkpt lat="36.88808441381882" lon="15.001020839658745"><ele>245.0</ele><time>2026-04-04T13:56:33.999Z</time></trkpt><trkpt lat="36.888164020782526" lon="15.000961639705276"><ele>245.0</ele><time>2026-04-04T13:56:34.999Z</time></trkpt><trkpt lat="36.888255092075255" lon="15.000898859211762"><ele>245.0</ele><time>2026-04-04T13:56:35.999Z</time></trkpt><trkpt lat="36.88835282508713" lon="15.000818810607857"><ele>245.0</ele><time>2026-04-04T13:56:36.999Z</time></trkpt><trkpt lat="36.88844066980642" lon="15.000760689245869"><ele>245.0</ele><time>2026-04-04T13:56:37.999Z</time></trkpt><trkpt lat="36.88852755823568" lon="15.000715235618813"><ele>245.8</ele><time>2026-04-04T13:56:38.999Z</time></trkpt><trkpt lat="36.888610768761374" lon="15.000671928968243"><ele>246.6</ele><time>2026-04-04T13:56:39.999Z</time></trkpt><trkpt lat="36.88868988204434" lon="15.000627187945614"><ele>247.39999999999998</ele><time>2026-04-04T13:56:40.999Z</time></trkpt><trkpt lat="36.8887842415081" lon="15.00057099471281"><ele>248.2</ele><time>2026-04-04T13:56:41.999Z</time></trkpt><trkpt lat="36.88888065223918" lon="15.00051488736547"><ele>249.0</ele><time>2026-04-04T13:56:42.999Z</time></trkpt><trkpt lat="36.888983430343636" lon="15.000447008928225"><ele>249.0</ele><time>2026-04-04T13:56:43.999Z</time></trkpt><trkpt lat="36.88908688326441" lon="15.000380148504767"><ele>248.99999999999997</ele><time>2026-04-04T13:56:44.999Z</time></trkpt><trkpt lat="36.8891883624341" lon="15.000321552541916"><ele>248.99999999999997</ele><time>2026-04-04T13:56:45.999Z</time></trkpt><trkpt lat="36.88927133608768" lon="15.000283305096856"><ele>249.0</ele><time>2026-04-04T13:56:46.999Z</time></trkpt><trkpt lat="36.88934398389344" lon="15.000243713325997"><ele>249.0</ele><time>2026-04-04T13:56:47.999Z</time></trkpt><trkpt lat="36.88942110702638" lon="15.000190884421967"><ele>251.0</ele><time>2026-04-04T13:56:48.999Z</time></trkpt><trkpt lat="36.88951092304847" lon="15.000131706167533"><ele>252.99999999999997</ele><time>2026-04-04T13:56:50.999Z</time></trkpt><trkpt lat="36.889586050382796" lon="15.000069341522126"><ele>254.99999999999997</ele><time>2026-04-04T13:56:52.999Z</time></trkpt><trkpt lat="36.889701633712974" lon="15.000002934862724"><ele>257.0</ele><time>2026-04-04T13:56:54.999Z</time></trkpt><trkpt lat="36.889759498799286" lon="14.99994078505761"><ele>259.0</ele><time>2026-04-04T13:56:55.999Z</time></trkpt><trkpt lat="36.88983846774873" lon="14.99990912149315"><ele>259.0</ele><time>2026-04-04T13:56:56.999Z</time></trkpt><trkpt lat="36.889920270452286" lon="14.999853802838052"><ele>259.0</ele><time>2026-04-04T13:56:57.999Z</time></trkpt><trkpt lat="36.89000276203238" lon="14.999805883144834"><ele>259.0</ele><time>2026-04-04T13:56:58.999Z</time></trkpt><trkpt lat="36.89006814647928" lon="14.99976328817748"><ele>259.0</ele><time>2026-04-04T13:56:59.999Z</time></trkpt><trkpt lat="36.890140395151114" lon="14.999700859519823"><ele>259.0</ele><time>2026-04-04T13:57:00.999Z</time></trkpt><trkpt lat="36.89019811241921" lon="14.999614281155948"><ele>259.0</ele><time>2026-04-04T13:57:01.999Z</time></trkpt><trkpt lat="36.89025508702326" lon="14.999476258067997"><ele>256.75</ele><time>2026-04-04T13:57:02.999Z</time></trkpt><trkpt lat="36.89032118519865" lon="14.999337332827311"><ele>254.5</ele><time>2026-04-04T13:57:03.999Z</time></trkpt><trkpt lat="36.89038846111901" lon="14.999183847569936"><ele>252.25</ele><time>2026-04-04T13:57:04.999Z</time></trkpt><trkpt lat="36.89045389529536" lon="14.999035315743297"><ele>250.0</ele><time>2026-04-04T13:57:05.999Z</time></trkpt><trkpt lat="36.89053053695282" lon="14.998879401976305"><ele>249.5</ele><time>2026-04-04T13:57:06.999Z</time></trkpt><trkpt lat="36.89062592804386" lon="14.99873291088341"><ele>249.0</ele><time>2026-04-04T13:57:07.999Z</time></trkpt><trkpt lat="36.89069575520566" lon="14.998594176882124"><ele>248.5</ele><time>2026-04-04T13:57:08.999Z</time></trkpt><trkpt lat="36.8907651197663" lon="14.998475277977192"><ele>248.0</ele><time>2026-04-04T13:57:09.999Z</time></trkpt><trkpt lat="36.89083741951243" lon="14.998345486106755"><ele>247.2</ele><time>2026-04-04T13:57:10.999Z</time></trkpt><trkpt lat="36.89090838062145" lon="14.998222803802063"><ele>246.4</ele><time>2026-04-04T13:57:11.999Z</time></trkpt><trkpt lat="36.8909800258762" lon="14.998114810621413"><ele>245.59999999999997</ele><time>2026-04-04T13:57:12.999Z</time></trkpt><trkpt lat="36.891044534522344" lon="14.99803050541917"><ele>244.79999999999998</ele><time>2026-04-04T13:57:13.999Z</time></trkpt><trkpt lat="36.891101952003304" lon="14.99796326544232"><ele>244.0</ele><time>2026-04-04T13:57:14.999Z</time></trkpt><trkpt lat="36.891146729370575" lon="14.997887152363965"><ele>244.0</ele><time>2026-04-04T13:57:15.999Z</time></trkpt><trkpt lat="36.89115429749299" lon="14.997787314039158"><ele>243.99999999999997</ele><time>2026-04-04T13:57:16.999Z</time></trkpt><trkpt lat="36.891168718031864" lon="14.99767231400462"><ele>243.99999999999997</ele><time>2026-04-04T13:57:17.999Z</time></trkpt><trkpt lat="36.891190556597664" lon="14.99753336860879"><ele>244.0</ele><time>2026-04-04T13:57:18.999Z</time></trkpt><trkpt lat="36.8912091210944" lon="14.997417448938402"><ele>244.0</ele><time>2026-04-04T13:57:19.999Z</time></trkpt><trkpt lat="36.89121656718179" lon="14.997323603031887"><ele>244.39999999999998</ele><time>2026-04-04T13:57:20.999Z</time></trkpt><trkpt lat="36.89129595805605" lon="14.997257232291123"><ele>244.79999999999998</ele><time>2026-04-04T13:57:21.999Z</time></trkpt><trkpt lat="36.891326274795865" lon="14.997150766614341"><ele>245.20000000000002</ele><time>2026-04-04T13:57:22.999Z</time></trkpt><trkpt lat="36.89135924953211" lon="14.997017499624443"><ele>245.60000000000002</ele><time>2026-04-04T13:57:23.999Z</time></trkpt><trkpt lat="36.89141722814133" lon="14.996871244196948"><ele>246.0</ele><time>2026-04-04T13:57:24.999Z</time></trkpt><trkpt lat="36.891445570550836" lon="14.996710493462565"><ele>247.0</ele><time>2026-04-04T13:57:25.999Z</time></trkpt><trkpt lat="36.89148929810564" lon="14.996549700273846"><ele>248.0</ele><time>2026-04-04T13:57:26.999Z</time></trkpt><trkpt lat="36.891534674238805" lon="14.996375096510878"><ele>249.0</ele><time>2026-04-04T13:57:27.998Z</time></trkpt><trkpt lat="36.8915806614303" lon="14.996205967899353"><ele>250.0</ele><time>2026-04-04T13:57:28.998Z</time></trkpt><trkpt lat="36.89162640809605" lon="14.996083048545032"><ele>249.99999999999997</ele><time>2026-04-04T13:57:29.999Z</time></trkpt><trkpt lat="36.89164329592521" lon="14.996004932228566"><ele>250.0</ele><time>2026-04-04T13:57:30.999Z</time></trkpt><trkpt lat="36.891689167444625" lon="14.995948618551877"><ele>250.0</ele><time>2026-04-04T13:57:31.999Z</time></trkpt><trkpt lat="36.891769962812056" lon="14.995915166621094"><ele>250.0</ele><time>2026-04-04T13:57:32.999Z</time></trkpt><trkpt lat="36.89185431871483" lon="14.995849214482515"><ele>249.99999999999997</ele><time>2026-04-04T13:57:33.999Z</time></trkpt><trkpt lat="36.89192418127737" lon="14.995800305165568"><ele>250.0</ele><time>2026-04-04T13:57:34.999Z</time></trkpt><trkpt lat="36.89196889565128" lon="14.995739413650707"><ele>250.16666666666666</ele><time>2026-04-04T13:57:35.999Z</time></trkpt><trkpt lat="36.89199999393705" lon="14.995630235121299"><ele>250.33333333333331</ele><time>2026-04-04T13:57:37.999Z</time></trkpt><trkpt lat="36.89207272899285" lon="14.995627527330496"><ele>250.5</ele><time>2026-04-04T13:57:39.999Z</time></trkpt><trkpt lat="36.892083281972724" lon="14.995740250159901"><ele>250.66666666666669</ele><time>2026-04-04T13:57:40.999Z</time></trkpt><trkpt lat="36.89213378599303" lon="14.995791064508353"><ele>250.83333333333334</ele><time>2026-04-04T13:57:41.999Z</time></trkpt><trkpt lat="36.892234709892314" lon="14.995781062496242"><ele>251.0</ele><time>2026-04-04T13:57:42.999Z</time></trkpt><trkpt lat="36.89232237188376" lon="14.995820275723318"><ele>250.8</ele><time>2026-04-04T13:57:43.999Z</time></trkpt><trkpt lat="36.89242219783966" lon="14.99583842417651"><ele>250.60000000000002</ele><time>2026-04-04T13:57:44.999Z</time></trkpt><trkpt lat="36.89252405415092" lon="14.995856987577266"><ele>250.4</ele><time>2026-04-04T13:57:45.999Z</time></trkpt><trkpt lat="36.89263113430106" lon="14.99587589051023"><ele>250.2</ele><time>2026-04-04T13:57:46.999Z</time></trkpt><trkpt lat="36.89271730579854" lon="14.995849948589951"><ele>250.0</ele><time>2026-04-04T13:57:47.999Z</time></trkpt><trkpt lat="36.892788613542635" lon="14.995845077326187"><ele>249.99999999999997</ele><time>2026-04-04T13:57:48.999Z</time></trkpt><trkpt lat="36.89286853095905" lon="14.995880067988777"><ele>250.0</ele><time>2026-04-04T13:57:50.999Z</time></trkpt><trkpt lat="36.892809396876906" lon="14.995920134932637"><ele>250.0</ele><time>2026-04-04T13:57:53.999Z</time></trkpt><trkpt lat="36.89278419951849" lon="14.996027359593402"><ele>250.0</ele><time>2026-04-04T13:57:55.999Z</time></trkpt><trkpt lat="36.89272650243056" lon="14.99606540742178"><ele>249.99999999999997</ele><time>2026-04-04T13:57:56.999Z</time></trkpt><trkpt lat="36.89267578732499" lon="14.996139190400026"><ele>250.0</ele><time>2026-04-04T13:57:57.999Z</time></trkpt><trkpt lat="36.89262466819203" lon="14.996200862257732"><ele>249.49999999999997</ele><time>2026-04-04T13:57:58.999Z</time></trkpt><trkpt lat="36.89256434110389" lon="14.996265656892998"><ele>249.0</ele><time>2026-04-04T13:57:59.999Z</time></trkpt><trkpt lat="36.89250474680141" lon="14.996331540835595"><ele>248.5</ele><time>2026-04-04T13:58:01.001Z</time></trkpt><trkpt lat="36.8924669605026" lon="14.996411491993051"><ele>248.0</ele><time>2026-04-04T13:58:02.001Z</time></trkpt><trkpt lat="36.89245452532954" lon="14.99648997760059"><ele>247.49999999999997</ele><time>2026-04-04T13:58:03Z</time></trkpt><trkpt lat="36.89251949730925" lon="14.996588202890583"><ele>247.0</ele><time>2026-04-04T13:58:04.001Z</time></trkpt><trkpt lat="36.89256549661498" lon="14.996672447796156"><ele>248.5</ele><time>2026-04-04T13:58:05.001Z</time></trkpt><trkpt lat="36.89262230293714" lon="14.996774861018812"><ele>250.0</ele><time>2026-04-04T13:58:06Z</time></trkpt><trkpt lat="36.89269181640223" lon="14.996894657779155"><ele>251.5</ele><time>2026-04-04T13:58:07Z</time></trkpt><trkpt lat="36.89276366105195" lon="14.997018030088569"><ele>253.0</ele><time>2026-04-04T13:58:08.001Z</time></trkpt><trkpt lat="36.892841717685315" lon="14.997152070547218"><ele>253.0</ele><time>2026-04-04T13:58:09Z</time></trkpt><trkpt lat="36.89292338887116" lon="14.997292317568064"><ele>253.0</ele><time>2026-04-04T13:58:10Z</time></trkpt><trkpt lat="36.893015358483595" lon="14.997450249151457"><ele>253.0</ele><time>2026-04-04T13:58:11Z</time></trkpt><trkpt lat="36.89310891693408" lon="14.997610909181766"><ele>253.0</ele><time>2026-04-04T13:58:12Z</time></trkpt><trkpt lat="36.89319910212332" lon="14.997767158470031"><ele>253.0</ele><time>2026-04-04T13:58:13Z</time></trkpt><trkpt lat="36.89327251210842" lon="14.997894450326104"><ele>253.0</ele><time>2026-04-04T13:58:14Z</time></trkpt><trkpt lat="36.89333610880082" lon="14.998007014534018"><ele>253.0</ele><time>2026-04-04T13:58:15Z</time></trkpt><trkpt lat="36.893388026334335" lon="14.998115061972651"><ele>253.8</ele><time>2026-04-04T13:58:16Z</time></trkpt><trkpt lat="36.893441457331974" lon="14.998244881798492"><ele>254.60000000000002</ele><time>2026-04-04T13:58:17Z</time></trkpt><trkpt lat="36.89350100821425" lon="14.9983611171017"><ele>255.39999999999998</ele><time>2026-04-04T13:58:18Z</time></trkpt><trkpt lat="36.89355868934245" lon="14.998441890970298"><ele>256.2</ele><time>2026-04-04T13:58:19Z</time></trkpt><trkpt lat="36.89363399145254" lon="14.998499276086788"><ele>257.0</ele><time>2026-04-04T13:58:20Z</time></trkpt><trkpt lat="36.89371297167768" lon="14.998573258097398"><ele>257.0</ele><time>2026-04-04T13:58:21Z</time></trkpt><trkpt lat="36.893790227820794" lon="14.998650779095955"><ele>257.0</ele><time>2026-04-04T13:58:22Z</time></trkpt><trkpt lat="36.89390176125158" lon="14.998762695080265"><ele>257.0</ele><time>2026-04-04T13:58:23Z</time></trkpt><trkpt lat="36.89401876157352" lon="14.99888019851614"><ele>257.0</ele><time>2026-04-04T13:58:24Z</time></trkpt><trkpt lat="36.89413395154807" lon="14.998998398311581"><ele>257.0</ele><time>2026-04-04T13:58:25Z</time></trkpt><trkpt lat="36.89425190756353" lon="14.999119436335741"><ele>257.0</ele><time>2026-04-04T13:58:26Z</time></trkpt><trkpt lat="36.894366015234226" lon="14.999236525442365"><ele>257.0</ele><time>2026-04-04T13:58:27Z</time></trkpt><trkpt lat="36.89448257460995" lon="14.999335516683319"><ele>257.0</ele><time>2026-04-04T13:58:28Z</time></trkpt><trkpt lat="36.89458467038089" lon="14.999455060444225"><ele>257.4</ele><time>2026-04-04T13:58:29Z</time></trkpt><trkpt lat="36.894684418590565" lon="14.999565829937872"><ele>257.79999999999995</ele><time>2026-04-04T13:58:30Z</time></trkpt><trkpt lat="36.89478006310927" lon="14.999660828342522"><ele>258.2</ele><time>2026-04-04T13:58:31Z</time></trkpt><trkpt lat="36.89486399969977" lon="14.99974896680441"><ele>258.59999999999997</ele><time>2026-04-04T13:58:32Z</time></trkpt><trkpt lat="36.89490468226117" lon="14.999831302308566"><ele>259.0</ele><time>2026-04-04T13:58:33Z</time></trkpt><trkpt lat="36.894955286335055" lon="14.999948109093483"><ele>259.0</ele><time>2026-04-04T13:58:35Z</time></trkpt><trkpt lat="36.89498741470609" lon="15.000026286217855"><ele>259.0</ele><time>2026-04-04T13:58:36Z</time></trkpt><trkpt lat="36.895021157548854" lon="15.0001251394071"><ele>259.0</ele><time>2026-04-04T13:58:37Z</time></trkpt><trkpt lat="36.895057203375636" lon="15.000222358276037"><ele>259.0</ele><time>2026-04-04T13:58:38Z</time></trkpt><trkpt lat="36.895085443778754" lon="15.00029432407373"><ele>259.0</ele><time>2026-04-04T13:58:39Z</time></trkpt><trkpt lat="36.89511528240795" lon="15.000370363844185"><ele>259.0</ele><time>2026-04-04T13:58:40Z</time></trkpt><trkpt lat="36.8951376034904" lon="15.000451230386634"><ele>259.0</ele><time>2026-04-04T13:58:41Z</time></trkpt><trkpt lat="36.89515795756261" lon="15.0005411578332"><ele>259.8333333333333</ele><time>2026-04-04T13:58:42Z</time></trkpt><trkpt lat="36.89516628103698" lon="15.00063313448724"><ele>260.66666666666663</ele><time>2026-04-04T13:58:43Z</time></trkpt><trkpt lat="36.89517022412415" lon="15.000731672815272"><ele>261.5</ele><time>2026-04-04T13:58:44Z</time></trkpt><trkpt lat="36.89517167824225" lon="15.00083861133937"><ele>262.3333333333333</ele><time>2026-04-04T13:58:45Z</time></trkpt><trkpt lat="36.89517284643085" lon="15.000952760240587"><ele>263.1666666666667</ele><time>2026-04-04T13:58:46Z</time></trkpt><trkpt lat="36.89518164194122" lon="15.001093262800202"><ele>264.0</ele><time>2026-04-04T13:58:47Z</time></trkpt><trkpt lat="36.895214414322375" lon="15.001227347172213"><ele>264.0</ele><time>2026-04-04T13:58:48Z</time></trkpt><trkpt lat="36.89523720219082" lon="15.001372982365034"><ele>264.0</ele><time>2026-04-04T13:58:49Z</time></trkpt><trkpt lat="36.89528132763375" lon="15.0015407007726"><ele>264.0</ele><time>2026-04-04T13:58:50Z</time></trkpt><trkpt lat="36.895338436008274" lon="15.001703756087002"><ele>264.0</ele><time>2026-04-04T13:58:51Z</time></trkpt><trkpt lat="36.89540972450719" lon="15.001824197486712"><ele>263.25</ele><time>2026-04-04T13:58:52Z</time></trkpt><trkpt lat="36.895473526000245" lon="15.001959384353643"><ele>262.5</ele><time>2026-04-04T13:58:53Z</time></trkpt><trkpt lat="36.89554556820652" lon="15.002084964077147"><ele>261.75</ele><time>2026-04-04T13:58:54Z</time></trkpt><trkpt lat="36.895621961356966" lon="15.002202256947067"><ele>261.0</ele><time>2026-04-04T13:58:55Z</time></trkpt><trkpt lat="36.895672083360786" lon="15.002329163709488"><ele>261.0</ele><time>2026-04-04T13:58:56Z</time></trkpt><trkpt lat="36.89577964633364" lon="15.002395215953424"><ele>261.0</ele><time>2026-04-04T13:58:57Z</time></trkpt><trkpt lat="36.89586809571042" lon="15.00245560796738"><ele>261.0</ele><time>2026-04-04T13:58:58Z</time></trkpt><trkpt lat="36.895951018057914" lon="15.002545878047094"><ele>261.0</ele><time>2026-04-04T13:58:59Z</time></trkpt><trkpt lat="36.896037859893056" lon="15.002641181999602"><ele>261.0</ele><time>2026-04-04T13:59:00Z</time></trkpt><trkpt lat="36.89611539906285" lon="15.002727086760878"><ele>261.5</ele><time>2026-04-04T13:59:01Z</time></trkpt><trkpt lat="36.89616586854859" lon="15.002837269239683"><ele>262.0</ele><time>2026-04-04T13:59:02Z</time></trkpt><trkpt lat="36.89624367781772" lon="15.002886989473419"><ele>262.5</ele><time>2026-04-04T13:59:03Z</time></trkpt><trkpt lat="36.89631108587932" lon="15.002975528925395"><ele>263.0</ele><time>2026-04-04T13:59:04Z</time></trkpt><trkpt lat="36.896368642793924" lon="15.003045863361372"><ele>263.5</ele><time>2026-04-04T13:59:05Z</time></trkpt><trkpt lat="36.896417281588846" lon="15.003099932876955"><ele>264.0</ele><time>2026-04-04T13:59:06Z</time></trkpt><trkpt lat="36.89648288141551" lon="15.003161477504083"><ele>264.0</ele><time>2026-04-04T13:59:08Z</time></trkpt><trkpt lat="36.8965503088768" lon="15.003219385317983"><ele>264.0</ele><time>2026-04-04T13:59:09Z</time></trkpt><trkpt lat="36.89663154261458" lon="15.00328074764436"><ele>264.0</ele><time>2026-04-04T13:59:10Z</time></trkpt><trkpt lat="36.8967038288877" lon="15.0033138629834"><ele>264.0</ele><time>2026-04-04T13:59:11Z</time></trkpt><trkpt lat="36.896788977821124" lon="15.003332150201583"><ele>264.0</ele><time>2026-04-04T13:59:12Z</time></trkpt><trkpt lat="36.89686317173638" lon="15.003361197500432"><ele>264.0</ele><time>2026-04-04T13:59:13Z</time></trkpt><trkpt lat="36.896938319450356" lon="15.003425090189928"><ele>261.3333333333333</ele><time>2026-04-04T13:59:14Z</time></trkpt><trkpt lat="36.89699903091897" lon="15.003510983657875"><ele>258.6666666666667</ele><time>2026-04-04T13:59:15Z</time></trkpt><trkpt lat="36.89705856132261" lon="15.003595229196195"><ele>256.0</ele><time>2026-04-04T13:59:16Z</time></trkpt><trkpt lat="36.8971368148877" lon="15.00367077364439"><ele>253.33333333333334</ele><time>2026-04-04T13:59:17Z</time></trkpt><trkpt lat="36.897206756696846" lon="15.003732808316848"><ele>250.66666666666669</ele><time>2026-04-04T13:59:18Z</time></trkpt><trkpt lat="36.89727116696756" lon="15.003793047521304"><ele>248.0</ele><time>2026-04-04T13:59:19Z</time></trkpt><trkpt lat="36.89732285924973" lon="15.003852576151376"><ele>248.0</ele><time>2026-04-04T13:59:20Z</time></trkpt><trkpt lat="36.89743319952212" lon="15.00397205937896"><ele>248.0</ele><time>2026-04-04T13:59:22Z</time></trkpt><trkpt lat="36.897473943444986" lon="15.004055838517685"><ele>248.0</ele><time>2026-04-04T13:59:23Z</time></trkpt><trkpt lat="36.89752710595077" lon="15.004128831369753"><ele>248.0</ele><time>2026-04-04T13:59:24Z</time></trkpt><trkpt lat="36.89756408211695" lon="15.00420622247495"><ele>248.0</ele><time>2026-04-04T13:59:25Z</time></trkpt><trkpt lat="36.89754616559694" lon="15.004349078436823"><ele>245.50000000000003</ele><time>2026-04-04T13:59:27Z</time></trkpt><trkpt lat="36.89759453501065" lon="15.004442049288716"><ele>243.0</ele><time>2026-04-04T13:59:29Z</time></trkpt><trkpt lat="36.897646660705455" lon="15.004534462355135"><ele>240.5</ele><time>2026-04-04T13:59:30.999Z</time></trkpt><trkpt lat="36.897690699591216" lon="15.004610990642304"><ele>238.0</ele><time>2026-04-04T13:59:34.999Z</time></trkpt><trkpt lat="36.8977352804362" lon="15.00468744800495"><ele>235.50000000000003</ele><time>2026-04-04T13:59:37.999Z</time></trkpt><trkpt lat="36.8978015634486" lon="15.004666218204013"><ele>233.0</ele><time>2026-04-04T14:00:52Z</time></trkpt><trkpt lat="36.89774363110398" lon="15.00461734592014"><ele>233.00000000000003</ele><time>2026-04-04T14:00:58Z</time></trkpt><trkpt lat="36.897704121402725" lon="15.004517441647122"><ele>233.0</ele><time>2026-04-04T14:01:00Z</time></trkpt><trkpt lat="36.89766564117371" lon="15.004440436191452"><ele>233.0</ele><time>2026-04-04T14:01:02Z</time></trkpt><trkpt lat="36.897614542784474" lon="15.004369142022593"><ele>233.0</ele><time>2026-04-04T14:01:04Z</time></trkpt><trkpt lat="36.897553118815914" lon="15.0042579992319"><ele>233.00000000000003</ele><time>2026-04-04T14:01:06Z</time></trkpt><trkpt lat="36.897619528728896" lon="15.004273496009807"><ele>233.0</ele><time>2026-04-04T14:03:28Z</time></trkpt><trkpt lat="36.89756259215123" lon="15.004214365874441"><ele>233.00000000000003</ele><time>2026-04-04T14:03:35.999Z</time></trkpt><trkpt lat="36.897496499877775" lon="15.004218492004942"><ele>233.0</ele><time>2026-04-04T14:04:13.999Z</time></trkpt><trkpt lat="36.8975464186302" lon="15.00429130369117"><ele>233.0</ele><time>2026-04-04T14:04:17.999Z</time></trkpt><trkpt lat="36.89760855398774" lon="15.004375284580295"><ele>233.0</ele><time>2026-04-04T14:04:20Z</time></trkpt><trkpt lat="36.89765481548337" lon="15.004466676719323"><ele>233.00000000000003</ele><time>2026-04-04T14:04:22Z</time></trkpt><trkpt lat="36.89769926419006" lon="15.004573775844325"><ele>233.0</ele><time>2026-04-04T14:04:24Z</time></trkpt><trkpt lat="36.89774661130707" lon="15.004683664677955"><ele>233.0</ele><time>2026-04-04T14:04:26Z</time></trkpt><trkpt lat="36.89782020346917" lon="15.004795696553723"><ele>233.0</ele><time>2026-04-04T14:04:28Z</time></trkpt><trkpt lat="36.897901873976835" lon="15.004892994742399"><ele>233.0</ele><time>2026-04-04T14:04:30Z</time></trkpt><trkpt lat="36.89793321238499" lon="15.004996023051824"><ele>233.0</ele><time>2026-04-04T14:04:32Z</time></trkpt><trkpt lat="36.897987304469815" lon="15.00509576621204"><ele>233.0</ele><time>2026-04-04T14:04:34Z</time></trkpt><trkpt lat="36.897992200375526" lon="15.00522188290238"><ele>232.66666666666669</ele><time>2026-04-04T14:04:36Z</time></trkpt><trkpt lat="36.89798959088113" lon="15.005355506418788"><ele>232.33333333333334</ele><time>2026-04-04T14:04:38Z</time></trkpt><trkpt lat="36.89798887402744" lon="15.005436629017051"><ele>232.0</ele><time>2026-04-04T14:04:39Z</time></trkpt><trkpt lat="36.89800087630251" lon="15.0055185378449"><ele>231.66666666666669</ele><time>2026-04-04T14:04:40Z</time></trkpt><trkpt lat="36.89802001371713" lon="15.005610584148366"><ele>231.33333333333334</ele><time>2026-04-04T14:04:41Z</time></trkpt><trkpt lat="36.89803621584104" lon="15.00570892308289"><ele>231.0</ele><time>2026-04-04T14:04:42Z</time></trkpt><trkpt lat="36.898061091735144" lon="15.00580927680278"><ele>230.83333333333334</ele><time>2026-04-04T14:04:43Z</time></trkpt><trkpt lat="36.89807211673521" lon="15.005892904852905"><ele>230.66666666666669</ele><time>2026-04-04T14:04:44Z</time></trkpt><trkpt lat="36.89808930769973" lon="15.006007488642684"><ele>230.5</ele><time>2026-04-04T14:04:46Z</time></trkpt><trkpt lat="36.89812600768181" lon="15.006132327832223"><ele>230.33333333333334</ele><time>2026-04-04T14:04:47.999Z</time></trkpt><trkpt lat="36.89815066894972" lon="15.006215971993086"><ele>230.16666666666669</ele><time>2026-04-04T14:04:49.999Z</time></trkpt><trkpt lat="36.8981891018309" lon="15.006297398652043"><ele>230.0</ele><time>2026-04-04T14:04:51.999Z</time></trkpt><trkpt lat="36.89820106752635" lon="15.006390386065592"><ele>229.99999999999997</ele><time>2026-04-04T14:04:55.999Z</time></trkpt><trkpt lat="36.898234971876235" lon="15.006468654220804"><ele>230.0</ele><time>2026-04-04T14:05:01.999Z</time></trkpt><trkpt lat="36.8982690493014" lon="15.006534883055924"><ele>229.99999999999997</ele><time>2026-04-04T14:05:02.999Z</time></trkpt><trkpt lat="36.89831211665529" lon="15.006610762721735"><ele>229.99999999999997</ele><time>2026-04-04T14:05:03.999Z</time></trkpt><trkpt lat="36.898362267886796" lon="15.006689459853327"><ele>230.0</ele><time>2026-04-04T14:05:04.999Z</time></trkpt><trkpt lat="36.89840442168766" lon="15.006778999252555"><ele>229.99999999999997</ele><time>2026-04-04T14:05:05.999Z</time></trkpt><trkpt lat="36.89844402362686" lon="15.006859932526316"><ele>229.99999999999997</ele><time>2026-04-04T14:05:06.999Z</time></trkpt><trkpt lat="36.89848883759689" lon="15.006925466738782"><ele>231.16666666666669</ele><time>2026-04-04T14:05:07.999Z</time></trkpt><trkpt lat="36.89853943939121" lon="15.006996414519593"><ele>232.33333333333334</ele><time>2026-04-04T14:05:08.999Z</time></trkpt><trkpt lat="36.89858767877951" lon="15.007073421096257"><ele>233.5</ele><time>2026-04-04T14:05:09.999Z</time></trkpt><trkpt lat="36.89863374935501" lon="15.007151611594832"><ele>234.66666666666669</ele><time>2026-04-04T14:05:10.999Z</time></trkpt><trkpt lat="36.89867872823979" lon="15.00723633332827"><ele>235.83333333333334</ele><time>2026-04-04T14:05:11.999Z</time></trkpt><trkpt lat="36.898729874364676" lon="15.007312999722068"><ele>237.0</ele><time>2026-04-04T14:05:12.999Z</time></trkpt><trkpt lat="36.89878991755068" lon="15.007387505258645"><ele>237.0</ele><time>2026-04-04T14:05:13.999Z</time></trkpt><trkpt lat="36.898847007229676" lon="15.007459083250524"><ele>237.0</ele><time>2026-04-04T14:05:14.999Z</time></trkpt><trkpt lat="36.898908953111146" lon="15.007519207161439"><ele>237.0</ele><time>2026-04-04T14:05:15.999Z</time></trkpt><trkpt lat="36.898978476190436" lon="15.007577859106718"><ele>237.0</ele><time>2026-04-04T14:05:16.999Z</time></trkpt><trkpt lat="36.89903875921709" lon="15.007617045248638"><ele>237.0</ele><time>2026-04-04T14:05:17.999Z</time></trkpt><trkpt lat="36.89912379457504" lon="15.007662663998472"><ele>237.0</ele><time>2026-04-04T14:05:19.999Z</time></trkpt><trkpt lat="36.89921345872801" lon="15.007720370892269"><ele>236.83333333333334</ele><time>2026-04-04T14:05:21.999Z</time></trkpt><trkpt lat="36.899286304472916" lon="15.007767974432666"><ele>236.66666666666669</ele><time>2026-04-04T14:05:28.999Z</time></trkpt><trkpt lat="36.89936471022016" lon="15.007783518939751"><ele>236.5</ele><time>2026-04-04T14:05:32.999Z</time></trkpt><trkpt lat="36.89941508741089" lon="15.007840380971016"><ele>236.33333333333334</ele><time>2026-04-04T14:05:34.998Z</time></trkpt><trkpt lat="36.899498537825046" lon="15.007925845819091"><ele>236.16666666666669</ele><time>2026-04-04T14:05:36.998Z</time></trkpt><trkpt lat="36.89953542124427" lon="15.00803398670257"><ele>236.0</ele><time>2026-04-04T14:05:38.998Z</time></trkpt><trkpt lat="36.89961512612739" lon="15.008170762740658"><ele>236.00000000000003</ele><time>2026-04-04T14:05:40.998Z</time></trkpt><trkpt lat="36.8996496361209" lon="15.008247660154852"><ele>236.0</ele><time>2026-04-04T14:05:41.998Z</time></trkpt><trkpt lat="36.899676127424186" lon="15.008321688935325"><ele>236.0</ele><time>2026-04-04T14:05:42.998Z</time></trkpt><trkpt lat="36.89970976284228" lon="15.008473584362697"><ele>236.0</ele><time>2026-04-04T14:05:44.998Z</time></trkpt><trkpt lat="36.89972700410046" lon="15.008555979810318"><ele>236.00000000000003</ele><time>2026-04-04T14:05:45.998Z</time></trkpt><trkpt lat="36.8997442080873" lon="15.008700151870848"><ele>236.0</ele><time>2026-04-04T14:05:47.998Z</time></trkpt><trkpt lat="36.899753211509555" lon="15.008779254476579"><ele>235.20000000000002</ele><time>2026-04-04T14:05:48.998Z</time></trkpt><trkpt lat="36.899770764225075" lon="15.008917189661748"><ele>234.40000000000003</ele><time>2026-04-04T14:05:50.998Z</time></trkpt><trkpt lat="36.89980925100081" lon="15.009037985913961"><ele>233.6</ele><time>2026-04-04T14:05:52.998Z</time></trkpt><trkpt lat="36.89987607654646" lon="15.00914176907969"><ele>232.8</ele><time>2026-04-04T14:05:54.998Z</time></trkpt><trkpt lat="36.899924121540316" lon="15.009274208875956"><ele>232.0</ele><time>2026-04-04T14:05:56.998Z</time></trkpt><trkpt lat="36.899948150586376" lon="15.009352883822597"><ele>231.66666666666666</ele><time>2026-04-04T14:05:57.998Z</time></trkpt><trkpt lat="36.89998375802046" lon="15.009439226236143"><ele>231.33333333333331</ele><time>2026-04-04T14:05:58.998Z</time></trkpt><trkpt lat="36.90001095353536" lon="15.009530577403552"><ele>231.0</ele><time>2026-04-04T14:05:59.998Z</time></trkpt><trkpt lat="36.90003460286067" lon="15.00962733908602"><ele>230.66666666666669</ele><time>2026-04-04T14:06:00.998Z</time></trkpt><trkpt lat="36.90007299672702" lon="15.009716659963004"><ele>230.33333333333334</ele><time>2026-04-04T14:06:01.998Z</time></trkpt><trkpt lat="36.90010733569874" lon="15.009807500378292"><ele>230.0</ele><time>2026-04-04T14:06:02.998Z</time></trkpt><trkpt lat="36.90016576325161" lon="15.00990996914226"><ele>229.66666666666669</ele><time>2026-04-04T14:06:04.998Z</time></trkpt><trkpt lat="36.900190932389826" lon="15.009994026203229"><ele>229.33333333333334</ele><time>2026-04-04T14:06:15.998Z</time></trkpt><trkpt lat="36.90019379248785" lon="15.0100927816194"><ele>229.0</ele><time>2026-04-04T14:06:18.998Z</time></trkpt><trkpt lat="36.900210327956316" lon="15.01025445326929"><ele>228.66666666666669</ele><time>2026-04-04T14:06:20.998Z</time></trkpt><trkpt lat="36.90023388640811" lon="15.010344115229737"><ele>228.33333333333334</ele><time>2026-04-04T14:06:21.998Z</time></trkpt><trkpt lat="36.900199961490294" lon="15.010435391254427"><ele>228.0</ele><time>2026-04-04T14:06:22.998Z</time></trkpt><trkpt lat="36.90022021067036" lon="15.010526311813845"><ele>228.0</ele><time>2026-04-04T14:06:23.998Z</time></trkpt><trkpt lat="36.90027374805439" lon="15.010588706789227"><ele>228.0</ele><time>2026-04-04T14:06:24.999Z</time></trkpt><trkpt lat="36.90030186229085" lon="15.010673503500778"><ele>228.0</ele><time>2026-04-04T14:06:25.999Z</time></trkpt><trkpt lat="36.900326777136605" lon="15.01076861903589"><ele>228.0</ele><time>2026-04-04T14:06:26.999Z</time></trkpt><trkpt lat="36.90033426735747" lon="15.010855470059402"><ele>228.0</ele><time>2026-04-04T14:06:27.999Z</time></trkpt><trkpt lat="36.90034356074449" lon="15.010970011867338"><ele>228.0</ele><time>2026-04-04T14:06:29.999Z</time></trkpt><trkpt lat="36.90031640674153" lon="15.011094544423521"><ele>228.0</ele><time>2026-04-04T14:06:32Z</time></trkpt><trkpt lat="36.90033252244997" lon="15.011223364434956"><ele>228.0</ele><time>2026-04-04T14:06:34Z</time></trkpt><trkpt lat="36.900379342428245" lon="15.011328483786194"><ele>228.0</ele><time>2026-04-04T14:06:36Z</time></trkpt><trkpt lat="36.90043870988391" lon="15.011415804546873"><ele>228.0</ele><time>2026-04-04T14:06:38Z</time></trkpt><trkpt lat="36.900453395326444" lon="15.011562795471477"><ele>228.0</ele><time>2026-04-04T14:06:40Z</time></trkpt><trkpt lat="36.90046287316329" lon="15.011673777467847"><ele>228.0</ele><time>2026-04-04T14:06:43Z</time></trkpt><trkpt lat="36.900457804646095" lon="15.011793359188104"><ele>228.0</ele><time>2026-04-04T14:06:45Z</time></trkpt><trkpt lat="36.90045889066009" lon="15.01188596752677"><ele>228.0</ele><time>2026-04-04T14:06:46Z</time></trkpt><trkpt lat="36.900465170058496" lon="15.011988281249662"><ele>228.0</ele><time>2026-04-04T14:06:47Z</time></trkpt><trkpt lat="36.90047529071773" lon="15.012091208315542"><ele>228.0</ele><time>2026-04-04T14:06:48Z</time></trkpt><trkpt lat="36.900490331894666" lon="15.012192620218164"><ele>228.0</ele><time>2026-04-04T14:06:49Z</time></trkpt><trkpt lat="36.90050823519394" lon="15.012295983536681"><ele>228.0</ele><time>2026-04-04T14:06:50Z</time></trkpt><trkpt lat="36.90053427665332" lon="15.012405814608824"><ele>228.0</ele><time>2026-04-04T14:06:51Z</time></trkpt><trkpt lat="36.90056603384725" lon="15.01251734378142"><ele>228.0</ele><time>2026-04-04T14:06:52Z</time></trkpt><trkpt lat="36.900599595357626" lon="15.012628114687763"><ele>228.0</ele><time>2026-04-04T14:06:53Z</time></trkpt><trkpt lat="36.90064158834613" lon="15.012737350004816"><ele>228.0</ele><time>2026-04-04T14:06:54Z</time></trkpt><trkpt lat="36.900692082267746" lon="15.012851787319951"><ele>228.2</ele><time>2026-04-04T14:06:55Z</time></trkpt><trkpt lat="36.90074002059456" lon="15.01295649753171"><ele>228.4</ele><time>2026-04-04T14:06:56Z</time></trkpt><trkpt lat="36.900776896524405" lon="15.0130421629677"><ele>228.59999999999997</ele><time>2026-04-04T14:06:57Z</time></trkpt><trkpt lat="36.90081366479967" lon="15.013127868517211"><ele>228.79999999999998</ele><time>2026-04-04T14:06:58Z</time></trkpt><trkpt lat="36.900861451911304" lon="15.013239258500834"><ele>229.0</ele><time>2026-04-04T14:06:59Z</time></trkpt><trkpt lat="36.90091555548132" lon="15.01336402075557"><ele>231.16666666666666</ele><time>2026-04-04T14:07:00Z</time></trkpt><trkpt lat="36.90096194750815" lon="15.013464070034436"><ele>233.33333333333331</ele><time>2026-04-04T14:07:01Z</time></trkpt><trkpt lat="36.901010382690956" lon="15.013560084922384"><ele>235.5</ele><time>2026-04-04T14:07:02Z</time></trkpt><trkpt lat="36.901056545140825" lon="15.013646373570163"><ele>237.66666666666669</ele><time>2026-04-04T14:07:03Z</time></trkpt><trkpt lat="36.90110363869497" lon="15.013734084274866"><ele>239.83333333333334</ele><time>2026-04-04T14:07:04Z</time></trkpt><trkpt lat="36.90114764848732" lon="15.01381544431541"><ele>242.0</ele><time>2026-04-04T14:07:05Z</time></trkpt><trkpt lat="36.901193790079994" lon="15.013900745328879"><ele>242.0</ele><time>2026-04-04T14:07:06Z</time></trkpt><trkpt lat="36.90124108137497" lon="15.013988171808853"><ele>242.0</ele><time>2026-04-04T14:07:07Z</time></trkpt><trkpt lat="36.901288065271636" lon="15.01407670908011"><ele>242.0</ele><time>2026-04-04T14:07:08Z</time></trkpt><trkpt lat="36.901339597144236" lon="15.014174912482765"><ele>242.0</ele><time>2026-04-04T14:07:09Z</time></trkpt><trkpt lat="36.901388795977326" lon="15.014270790880405"><ele>242.0</ele><time>2026-04-04T14:07:10Z</time></trkpt><trkpt lat="36.90145566684715" lon="15.014363683776951"><ele>240.6</ele><time>2026-04-04T14:07:11Z</time></trkpt><trkpt lat="36.90150920943373" lon="15.014472770057553"><ele>239.2</ele><time>2026-04-04T14:07:12Z</time></trkpt><trkpt lat="36.901543907600306" lon="15.014580359532271"><ele>237.8</ele><time>2026-04-04T14:07:13Z</time></trkpt><trkpt lat="36.90158813016509" lon="15.014677157342975"><ele>236.4</ele><time>2026-04-04T14:07:14Z</time></trkpt><trkpt lat="36.90163422363317" lon="15.014781497770501"><ele>235.0</ele><time>2026-04-04T14:07:15Z</time></trkpt><trkpt lat="36.90168891758922" lon="15.014892156866404"><ele>235.4</ele><time>2026-04-04T14:07:16Z</time></trkpt><trkpt lat="36.90175067872897" lon="15.01500366935482"><ele>235.8</ele><time>2026-04-04T14:07:17Z</time></trkpt><trkpt lat="36.90181299989049" lon="15.015117170307773"><ele>236.2</ele><time>2026-04-04T14:07:18Z</time></trkpt><trkpt lat="36.901873595471336" lon="15.015227528293108"><ele>236.6</ele><time>2026-04-04T14:07:19Z</time></trkpt><trkpt lat="36.90193089682487" lon="15.015334819836395"><ele>237.0</ele><time>2026-04-04T14:07:20Z</time></trkpt><trkpt lat="36.90198160488027" lon="15.015431163220534"><ele>237.0</ele><time>2026-04-04T14:07:21Z</time></trkpt><trkpt lat="36.9020300287589" lon="15.01552316654704"><ele>237.0</ele><time>2026-04-04T14:07:22Z</time></trkpt><trkpt lat="36.902081978101954" lon="15.015621868241224"><ele>237.0</ele><time>2026-04-04T14:07:23Z</time></trkpt><trkpt lat="36.90213499318657" lon="15.015722594813512"><ele>237.0</ele><time>2026-04-04T14:07:24Z</time></trkpt><trkpt lat="36.9021865370987" lon="15.015811060611668"><ele>237.0</ele><time>2026-04-04T14:07:25Z</time></trkpt><trkpt lat="36.90224544213032" lon="15.015875044901566"><ele>237.0</ele><time>2026-04-04T14:07:26Z</time></trkpt><trkpt lat="36.902305046398446" lon="15.015935723658197"><ele>234.6</ele><time>2026-04-04T14:07:27Z</time></trkpt><trkpt lat="36.90238399080706" lon="15.015986714994542"><ele>232.2</ele><time>2026-04-04T14:07:28Z</time></trkpt><trkpt lat="36.90246750626174" lon="15.016028998725035"><ele>229.8</ele><time>2026-04-04T14:07:29Z</time></trkpt><trkpt lat="36.90254619925599" lon="15.016060982387922"><ele>227.4</ele><time>2026-04-04T14:07:30Z</time></trkpt><trkpt lat="36.90263155821297" lon="15.016066867304742"><ele>225.0</ele><time>2026-04-04T14:07:31Z</time></trkpt><trkpt lat="36.902734603489094" lon="15.016063557139036"><ele>225.0</ele><time>2026-04-04T14:07:32Z</time></trkpt><trkpt lat="36.902835654602136" lon="15.016073037662558"><ele>225.0</ele><time>2026-04-04T14:07:33Z</time></trkpt><trkpt lat="36.90291179703407" lon="15.016135150451575"><ele>225.0</ele><time>2026-04-04T14:07:34Z</time></trkpt><trkpt lat="36.902985410271675" lon="15.016190637852649"><ele>225.0</ele><time>2026-04-04T14:07:35Z</time></trkpt><trkpt lat="36.90306781233673" lon="15.016267983160963"><ele>225.0</ele><time>2026-04-04T14:07:36Z</time></trkpt><trkpt lat="36.90314435206328" lon="15.016354408744998"><ele>225.0</ele><time>2026-04-04T14:07:37Z</time></trkpt><trkpt lat="36.903220796785085" lon="15.016450054896069"><ele>225.0</ele><time>2026-04-04T14:07:38Z</time></trkpt><trkpt lat="36.90330903095258" lon="15.016564775852386"><ele>225.0</ele><time>2026-04-04T14:07:39Z</time></trkpt><trkpt lat="36.90341326345452" lon="15.016698089985255"><ele>225.0</ele><time>2026-04-04T14:07:40Z</time></trkpt><trkpt lat="36.903502900970715" lon="15.016803227370028"><ele>224.0</ele><time>2026-04-04T14:07:41Z</time></trkpt><trkpt lat="36.90358678852314" lon="15.016896397793044"><ele>223.0</ele><time>2026-04-04T14:07:42Z</time></trkpt><trkpt lat="36.903681036297904" lon="15.016996015643656"><ele>222.0</ele><time>2026-04-04T14:07:43Z</time></trkpt><trkpt lat="36.90376868996423" lon="15.017069848689635"><ele>221.0</ele><time>2026-04-04T14:07:43.999Z</time></trkpt><trkpt lat="36.90382676438145" lon="15.017164164530902"><ele>220.0</ele><time>2026-04-04T14:07:44.999Z</time></trkpt><trkpt lat="36.90388486625493" lon="15.017213308885689"><ele>220.0</ele><time>2026-04-04T14:07:45.999Z</time></trkpt><trkpt lat="36.903848199569765" lon="15.017306921289087"><ele>220.0</ele><time>2026-04-04T14:07:47.999Z</time></trkpt><trkpt lat="36.903752078569006" lon="15.017351176766772"><ele>220.0</ele><time>2026-04-04T14:07:49.999Z</time></trkpt><trkpt lat="36.903662352925" lon="15.017357574234007"><ele>220.0</ele><time>2026-04-04T14:07:50.999Z</time></trkpt><trkpt lat="36.90355659246684" lon="15.01732498914266"><ele>220.0</ele><time>2026-04-04T14:07:51.999Z</time></trkpt><trkpt lat="36.90348680623624" lon="15.01732990362121"><ele>220.0</ele><time>2026-04-04T14:07:52.999Z</time></trkpt><trkpt lat="36.90342259232134" lon="15.017354609755992"><ele>220.0</ele><time>2026-04-04T14:07:53.999Z</time></trkpt><trkpt lat="36.90336138365107" lon="15.017490427559222"><ele>220.0</ele><time>2026-04-04T14:07:55.999Z</time></trkpt><trkpt lat="36.90340574223217" lon="15.017615787822196"><ele>220.0</ele><time>2026-04-04T14:07:57.999Z</time></trkpt><trkpt lat="36.90349310000024" lon="15.017624853706694"><ele>220.0</ele><time>2026-04-04T14:07:58.999Z</time></trkpt><trkpt lat="36.9035823007151" lon="15.017647363013316"><ele>220.8</ele><time>2026-04-04T14:07:59.999Z</time></trkpt><trkpt lat="36.90370538111429" lon="15.017689674049524"><ele>221.6</ele><time>2026-04-04T14:08:00.999Z</time></trkpt><trkpt lat="36.90381204337055" lon="15.017708936619718"><ele>222.39999999999998</ele><time>2026-04-04T14:08:01.999Z</time></trkpt><trkpt lat="36.90388453006376" lon="15.017748205740364"><ele>223.2</ele><time>2026-04-04T14:08:02.999Z</time></trkpt><trkpt lat="36.90393086340124" lon="15.01787641147039"><ele>224.0</ele><time>2026-04-04T14:08:03.999Z</time></trkpt><trkpt lat="36.90403370415816" lon="15.017983276051039"><ele>224.0</ele><time>2026-04-04T14:08:04.999Z</time></trkpt><trkpt lat="36.904156971020114" lon="15.018052638392422"><ele>224.0</ele><time>2026-04-04T14:08:05.999Z</time></trkpt><trkpt lat="36.90426483210175" lon="15.018179375927312"><ele>224.0</ele><time>2026-04-04T14:08:06.999Z</time></trkpt><trkpt lat="36.90434395728144" lon="15.018306931314577"><ele>224.0</ele><time>2026-04-04T14:08:07.999Z</time></trkpt><trkpt lat="36.904391235788" lon="15.018438247766047"><ele>226.79999999999998</ele><time>2026-04-04T14:08:08.999Z</time></trkpt><trkpt lat="36.9044420766901" lon="15.018607262715088"><ele>229.59999999999997</ele><time>2026-04-04T14:08:09.999Z</time></trkpt><trkpt lat="36.90447004111787" lon="15.018760165653458"><ele>232.4</ele><time>2026-04-04T14:08:10.999Z</time></trkpt><trkpt lat="36.90445334937961" lon="15.018854331486091"><ele>235.2</ele><time>2026-04-04T14:08:11.999Z</time></trkpt><trkpt lat="36.90440452105195" lon="15.018937924501467"><ele>238.0</ele><time>2026-04-04T14:08:12.999Z</time></trkpt><trkpt lat="36.90438600678032" lon="15.019080244581698"><ele>241.25</ele><time>2026-04-04T14:08:13.999Z</time></trkpt><trkpt lat="36.90441825447836" lon="15.019240281741778"><ele>244.5</ele><time>2026-04-04T14:08:14.999Z</time></trkpt><trkpt lat="36.9044088620999" lon="15.019422638000451"><ele>247.75</ele><time>2026-04-04T14:08:15.999Z</time></trkpt><trkpt lat="36.90439484834554" lon="15.019622307247046"><ele>251.0</ele><time>2026-04-04T14:08:16.999Z</time></trkpt><trkpt lat="36.90437689900566" lon="15.019818588476962"><ele>251.0</ele><time>2026-04-04T14:08:17.999Z</time></trkpt><trkpt lat="36.90435396932383" lon="15.019966020143098"><ele>251.00000000000003</ele><time>2026-04-04T14:08:18.999Z</time></trkpt><trkpt lat="36.9043215471615" lon="15.020084519235981"><ele>251.00000000000003</ele><time>2026-04-04T14:08:19.999Z</time></trkpt><trkpt lat="36.90426154414676" lon="15.020173741606879"><ele>251.0</ele><time>2026-04-04T14:08:20.999Z</time></trkpt><trkpt lat="36.90417793568816" lon="15.020273419174147"><ele>251.0</ele><time>2026-04-04T14:08:21.999Z</time></trkpt><trkpt lat="36.90408487188916" lon="15.020383054239435"><ele>251.5</ele><time>2026-04-04T14:08:22.999Z</time></trkpt><trkpt lat="36.903995855548985" lon="15.020490227507407"><ele>252.0</ele><time>2026-04-04T14:08:23.999Z</time></trkpt><trkpt lat="36.90392743071366" lon="15.020600370243569"><ele>252.5</ele><time>2026-04-04T14:08:24.999Z</time></trkpt><trkpt lat="36.90388027459875" lon="15.020724735981995"><ele>253.0</ele><time>2026-04-04T14:08:25.999Z</time></trkpt><trkpt lat="36.90379538983183" lon="15.020853607059516"><ele>257.5</ele><time>2026-04-04T14:08:26.999Z</time></trkpt><trkpt lat="36.90372254353073" lon="15.020986318715693"><ele>262.0</ele><time>2026-04-04T14:08:27.999Z</time></trkpt><trkpt lat="36.903684945772085" lon="15.02114564706019"><ele>266.5</ele><time>2026-04-04T14:08:28.999Z</time></trkpt><trkpt lat="36.90363200702301" lon="15.0213095058098"><ele>271.0</ele><time>2026-04-04T14:08:29.999Z</time></trkpt><trkpt lat="36.903620781198924" lon="15.021495456822064"><ele>274.0</ele><time>2026-04-04T14:08:31Z</time></trkpt><trkpt lat="36.90362219534038" lon="15.021675831465858"><ele>277.0</ele><time>2026-04-04T14:08:32Z</time></trkpt><trkpt lat="36.90362616278501" lon="15.021863277738523"><ele>280.0</ele><time>2026-04-04T14:08:33Z</time></trkpt><trkpt lat="36.90363961335752" lon="15.022055945581537"><ele>283.0</ele><time>2026-04-04T14:08:34Z</time></trkpt><trkpt lat="36.90366076136024" lon="15.022217152080103"><ele>283.0</ele><time>2026-04-04T14:08:35Z</time></trkpt><trkpt lat="36.90369670502501" lon="15.022369536326512"><ele>283.0</ele><time>2026-04-04T14:08:36Z</time></trkpt><trkpt lat="36.90375094578153" lon="15.022518337372276"><ele>283.0</ele><time>2026-04-04T14:08:37Z</time></trkpt><trkpt lat="36.90382005111136" lon="15.022652795921749"><ele>283.0</ele><time>2026-04-04T14:08:38Z</time></trkpt><trkpt lat="36.903915406643776" lon="15.022752867092853"><ele>283.25</ele><time>2026-04-04T14:08:39Z</time></trkpt><trkpt lat="36.90401189817415" lon="15.022832154114594"><ele>283.5</ele><time>2026-04-04T14:08:40Z</time></trkpt><trkpt lat="36.90409540218954" lon="15.02293043369914"><ele>283.75</ele><time>2026-04-04T14:08:41Z</time></trkpt><trkpt lat="36.904187792376" lon="15.02302746204901"><ele>284.0</ele><time>2026-04-04T14:08:42Z</time></trkpt><trkpt lat="36.90428569159704" lon="15.02313177928737"><ele>284.83333333333337</ele><time>2026-04-04T14:08:43Z</time></trkpt><trkpt lat="36.90437528735701" lon="15.02321415948825"><ele>285.6666666666667</ele><time>2026-04-04T14:08:44Z</time></trkpt><trkpt lat="36.90445005344255" lon="15.023281659856364"><ele>286.5</ele><time>2026-04-04T14:08:45Z</time></trkpt><trkpt lat="36.90452302818396" lon="15.023348570469382"><ele>287.3333333333333</ele><time>2026-04-04T14:08:46Z</time></trkpt><trkpt lat="36.90457851097428" lon="15.023413579106103"><ele>288.16666666666663</ele><time>2026-04-04T14:08:47Z</time></trkpt><trkpt lat="36.904600295104636" lon="15.023489758410001"><ele>289.0</ele><time>2026-04-04T14:08:48Z</time></trkpt><trkpt lat="36.9046015176042" lon="15.023575276001285"><ele>289.0</ele><time>2026-04-04T14:08:49Z</time></trkpt><trkpt lat="36.90460029235987" lon="15.02367527764766"><ele>289.0</ele><time>2026-04-04T14:08:50Z</time></trkpt><trkpt lat="36.90460071794611" lon="15.023785814182897"><ele>289.0</ele><time>2026-04-04T14:08:51Z</time></trkpt><trkpt lat="36.90460106245103" lon="15.023875291562806"><ele>289.0</ele><time>2026-04-04T14:08:52Z</time></trkpt><trkpt lat="36.90460617270509" lon="15.023967640428502"><ele>289.0</ele><time>2026-04-04T14:08:53Z</time></trkpt><trkpt lat="36.9046202439583" lon="15.024068802257604"><ele>289.0</ele><time>2026-04-04T14:08:54Z</time></trkpt><trkpt lat="36.90466247952062" lon="15.024162756603198"><ele>288.59999999999997</ele><time>2026-04-04T14:08:55Z</time></trkpt><trkpt lat="36.904684311665854" lon="15.024269785960644"><ele>288.2</ele><time>2026-04-04T14:08:56Z</time></trkpt><trkpt lat="36.90475677964468" lon="15.024349578144061"><ele>287.79999999999995</ele><time>2026-04-04T14:08:57Z</time></trkpt><trkpt lat="36.90482694543547" lon="15.024426168688034"><ele>287.4</ele><time>2026-04-04T14:08:58Z</time></trkpt><trkpt lat="36.90491212354623" lon="15.024477957759524"><ele>287.0</ele><time>2026-04-04T14:08:59Z</time></trkpt><trkpt lat="36.90500797622713" lon="15.024526788047858"><ele>292.75</ele><time>2026-04-04T14:09:00Z</time></trkpt><trkpt lat="36.905108368201546" lon="15.024592642366015"><ele>298.5</ele><time>2026-04-04T14:09:01Z</time></trkpt><trkpt lat="36.90523061876804" lon="15.024688601728991"><ele>304.25</ele><time>2026-04-04T14:09:02Z</time></trkpt><trkpt lat="36.90533010331296" lon="15.02481573350791"><ele>310.0</ele><time>2026-04-04T14:09:03Z</time></trkpt><trkpt lat="36.90541335449" lon="15.024953389294216"><ele>306.0</ele><time>2026-04-04T14:09:04Z</time></trkpt><trkpt lat="36.905497340591985" lon="15.025114806923119"><ele>302.0</ele><time>2026-04-04T14:09:05Z</time></trkpt><trkpt lat="36.905596002021426" lon="15.025257404081351"><ele>298.0</ele><time>2026-04-04T14:09:06Z</time></trkpt><trkpt lat="36.90569136496487" lon="15.025377899484091"><ele>294.0</ele><time>2026-04-04T14:09:07Z</time></trkpt><trkpt lat="36.90579091048672" lon="15.02546234095624"><ele>294.0</ele><time>2026-04-04T14:09:08Z</time></trkpt><trkpt lat="36.90589838184856" lon="15.025527832304277"><ele>294.0</ele><time>2026-04-04T14:09:09Z</time></trkpt><trkpt lat="36.90602011889437" lon="15.025578849048724"><ele>294.0</ele><time>2026-04-04T14:09:10Z</time></trkpt><trkpt lat="36.90615235964394" lon="15.025619659878938"><ele>294.0</ele><time>2026-04-04T14:09:11Z</time></trkpt><trkpt lat="36.9062818985895" lon="15.025645751188923"><ele>296.4</ele><time>2026-04-04T14:09:12Z</time></trkpt><trkpt lat="36.906394169615254" lon="15.025640928912939"><ele>298.79999999999995</ele><time>2026-04-04T14:09:13Z</time></trkpt><trkpt lat="36.90648368477065" lon="15.025625266109454"><ele>301.20000000000005</ele><time>2026-04-04T14:09:14Z</time></trkpt><trkpt lat="36.90655874664441" lon="15.025657037583901"><ele>303.6</ele><time>2026-04-04T14:09:15Z</time></trkpt><trkpt lat="36.90662198184719" lon="15.025716360769644"><ele>306.0</ele><time>2026-04-04T14:09:16Z</time></trkpt><trkpt lat="36.906671771813464" lon="15.025809672155061"><ele>304.40000000000003</ele><time>2026-04-04T14:09:17Z</time></trkpt><trkpt lat="36.90670461931345" lon="15.025935092417138"><ele>302.8</ele><time>2026-04-04T14:09:18Z</time></trkpt><trkpt lat="36.90674747792071" lon="15.026066193351149"><ele>301.20000000000005</ele><time>2026-04-04T14:09:19Z</time></trkpt><trkpt lat="36.90681779897857" lon="15.026162110451557"><ele>299.6</ele><time>2026-04-04T14:09:20Z</time></trkpt><trkpt lat="36.906908015855436" lon="15.0262185735871"><ele>298.0</ele><time>2026-04-04T14:09:21Z</time></trkpt><trkpt lat="36.90702162255406" lon="15.02625803497978"><ele>298.0</ele><time>2026-04-04T14:09:22Z</time></trkpt><trkpt lat="36.90715761156966" lon="15.026285922673706"><ele>298.0</ele><time>2026-04-04T14:09:23Z</time></trkpt><trkpt lat="36.907302269367825" lon="15.026301283706218"><ele>298.0</ele><time>2026-04-04T14:09:24Z</time></trkpt><trkpt lat="36.90744371442084" lon="15.02632128743854"><ele>298.0</ele><time>2026-04-04T14:09:25Z</time></trkpt><trkpt lat="36.90757413573858" lon="15.026360407392948"><ele>299.8</ele><time>2026-04-04T14:09:26Z</time></trkpt><trkpt lat="36.907690254804194" lon="15.026358395284614"><ele>301.6</ele><time>2026-04-04T14:09:27Z</time></trkpt><trkpt lat="36.90779013472405" lon="15.02632839198855"><ele>303.4</ele><time>2026-04-04T14:09:28Z</time></trkpt><trkpt lat="36.907861653779214" lon="15.02628661615808"><ele>305.2</ele><time>2026-04-04T14:09:29Z</time></trkpt><trkpt lat="36.90792059364055" lon="15.026379009879173"><ele>307.0</ele><time>2026-04-04T14:09:31Z</time></trkpt><trkpt lat="36.90790179869198" lon="15.02645955201993"><ele>307.0</ele><time>2026-04-04T14:09:32Z</time></trkpt><trkpt lat="36.90789517523725" lon="15.026543575253497"><ele>307.0</ele><time>2026-04-04T14:09:33Z</time></trkpt><trkpt lat="36.90788648674188" lon="15.02662748577352"><ele>307.0</ele><time>2026-04-04T14:09:34Z</time></trkpt><trkpt lat="36.90785261242716" lon="15.026758932135479"><ele>307.0</ele><time>2026-04-04T14:09:36Z</time></trkpt><trkpt lat="36.90786462948375" lon="15.02684411929147"><ele>307.0</ele><time>2026-04-04T14:09:37Z</time></trkpt><trkpt lat="36.90781734667609" lon="15.026933949591387"><ele>307.0</ele><time>2026-04-04T14:09:38Z</time></trkpt><trkpt lat="36.90777413219477" lon="15.027053129668007"><ele>305.0</ele><time>2026-04-04T14:09:39Z</time></trkpt><trkpt lat="36.907734066106016" lon="15.027151634809137"><ele>303.0</ele><time>2026-04-04T14:09:40Z</time></trkpt><trkpt lat="36.90749716497217" lon="15.027086653565839"><ele>301.0</ele><time>2026-04-04T14:09:41Z</time></trkpt><trkpt lat="36.907448866958305" lon="15.027220172224524"><ele>299.0</ele><time>2026-04-04T14:09:42Z</time></trkpt><trkpt lat="36.90743065460913" lon="15.027368238897411"><ele>298.2</ele><time>2026-04-04T14:09:43Z</time></trkpt><trkpt lat="36.90742694349804" lon="15.027478231653049"><ele>297.4</ele><time>2026-04-04T14:09:44Z</time></trkpt><trkpt lat="36.9074216147979" lon="15.027579545095069"><ele>296.6</ele><time>2026-04-04T14:09:45Z</time></trkpt><trkpt lat="36.90740250376213" lon="15.027687685449356"><ele>295.8</ele><time>2026-04-04T14:09:45.999Z</time></trkpt><trkpt lat="36.90736884204372" lon="15.0277798884789"><ele>295.0</ele><time>2026-04-04T14:09:46.999Z</time></trkpt><trkpt lat="36.90759950594535" lon="15.028031135748448"><ele>291.6</ele><time>2026-04-04T14:09:47.999Z</time></trkpt><trkpt lat="36.907540286785455" lon="15.028148009785987"><ele>288.2</ele><time>2026-04-04T14:09:48.999Z</time></trkpt><trkpt lat="36.907513270295816" lon="15.028280414826687"><ele>284.8</ele><time>2026-04-04T14:09:49.999Z</time></trkpt><trkpt lat="36.907510665784244" lon="15.028384842303122"><ele>281.4</ele><time>2026-04-04T14:09:50.999Z</time></trkpt><trkpt lat="36.90750296396073" lon="15.0285306246573"><ele>278.0</ele><time>2026-04-04T14:09:52.999Z</time></trkpt><trkpt lat="36.907551516483935" lon="15.028647297715906"><ele>278.8</ele><time>2026-04-04T14:09:53.999Z</time></trkpt><trkpt lat="36.9076101876128" lon="15.028770204156695"><ele>279.6</ele><time>2026-04-04T14:09:54.999Z</time></trkpt><trkpt lat="36.90764675468191" lon="15.02883958392802"><ele>280.4</ele><time>2026-04-04T14:09:55.999Z</time></trkpt><trkpt lat="36.90769232373092" lon="15.028910473343592"><ele>281.2</ele><time>2026-04-04T14:09:57.999Z</time></trkpt><trkpt lat="36.90776298592107" lon="15.0289871286721"><ele>282.0</ele><time>2026-04-04T14:09:59.999Z</time></trkpt><trkpt lat="36.90786643667908" lon="15.02890775140634"><ele>282.0</ele><time>2026-04-04T14:10:01.999Z</time></trkpt><trkpt lat="36.90794516800574" lon="15.028849489403278"><ele>282.0</ele><time>2026-04-04T14:10:02.999Z</time></trkpt><trkpt lat="36.90805031687345" lon="15.02882855897761"><ele>282.0</ele><time>2026-04-04T14:10:03.999Z</time></trkpt><trkpt lat="36.908177663900666" lon="15.02883847026681"><ele>282.0</ele><time>2026-04-04T14:10:04.999Z</time></trkpt><trkpt lat="36.90828963709289" lon="15.028839608930449"><ele>282.0</ele><time>2026-04-04T14:10:05.999Z</time></trkpt><trkpt lat="36.908360026860514" lon="15.028819048358892"><ele>281.0</ele><time>2026-04-04T14:10:06.999Z</time></trkpt><trkpt lat="36.90845660331231" lon="15.028770315407671"><ele>280.0</ele><time>2026-04-04T14:10:07.999Z</time></trkpt><trkpt lat="36.908556177742824" lon="15.028688774942221"><ele>279.0</ele><time>2026-04-04T14:10:08.999Z</time></trkpt><trkpt lat="36.90866273258265" lon="15.028605201643318"><ele>278.0</ele><time>2026-04-04T14:10:09.999Z</time></trkpt><trkpt lat="36.90876863798365" lon="15.028536228728623"><ele>278.0</ele><time>2026-04-04T14:10:10.999Z</time></trkpt><trkpt lat="36.90887701813941" lon="15.028429225850704"><ele>278.0</ele><time>2026-04-04T14:10:11.999Z</time></trkpt><trkpt lat="36.90899273937628" lon="15.028293148716944"><ele>278.0</ele><time>2026-04-04T14:10:12.999Z</time></trkpt><trkpt lat="36.9091156310007" lon="15.028171431437586"><ele>281.5</ele><time>2026-04-04T14:10:13.999Z</time></trkpt><trkpt lat="36.90917567072769" lon="15.028037777790967"><ele>285.0</ele><time>2026-04-04T14:10:14.999Z</time></trkpt><trkpt lat="36.90925516663053" lon="15.027921803990818"><ele>288.5</ele><time>2026-04-04T14:10:15.999Z</time></trkpt><trkpt lat="36.90936824906687" lon="15.027823855745071"><ele>292.0</ele><time>2026-04-04T14:10:16.999Z</time></trkpt><trkpt lat="36.90947414980467" lon="15.027736085509147"><ele>292.0</ele><time>2026-04-04T14:10:17.999Z</time></trkpt><trkpt lat="36.90957301794508" lon="15.027667706054538"><ele>292.0</ele><time>2026-04-04T14:10:18.999Z</time></trkpt><trkpt lat="36.909668341567574" lon="15.027624943033986"><ele>292.0</ele><time>2026-04-04T14:10:19.999Z</time></trkpt><trkpt lat="36.909771727622214" lon="15.02761192085801"><ele>292.0</ele><time>2026-04-04T14:10:20.999Z</time></trkpt><trkpt lat="36.90988592204632" lon="15.02761844890884"><ele>292.0</ele><time>2026-04-04T14:10:21.999Z</time></trkpt><trkpt lat="36.91002634277129" lon="15.027628189294258"><ele>290.75</ele><time>2026-04-04T14:10:22.999Z</time></trkpt><trkpt lat="36.91017989870211" lon="15.027622233215723"><ele>289.5</ele><time>2026-04-04T14:10:23.999Z</time></trkpt><trkpt lat="36.910321060852795" lon="15.027619102797061"><ele>288.25</ele><time>2026-04-04T14:10:24.999Z</time></trkpt><trkpt lat="36.91042757719142" lon="15.027596585727798"><ele>287.0</ele><time>2026-04-04T14:10:25.999Z</time></trkpt><trkpt lat="36.91052516835977" lon="15.027547896476696"><ele>289.0</ele><time>2026-04-04T14:10:26.999Z</time></trkpt><trkpt lat="36.91063148473943" lon="15.027462803639605"><ele>291.0</ele><time>2026-04-04T14:10:27.999Z</time></trkpt><trkpt lat="36.910757936071384" lon="15.027391009965283"><ele>293.0</ele><time>2026-04-04T14:10:28.999Z</time></trkpt><trkpt lat="36.9108623667202" lon="15.027325261276918"><ele>295.0</ele><time>2026-04-04T14:10:29.999Z</time></trkpt><trkpt lat="36.91091278960556" lon="15.027221814933903"><ele>295.0</ele><time>2026-04-04T14:10:30.999Z</time></trkpt><trkpt lat="36.91098634544184" lon="15.027113238203041"><ele>295.0</ele><time>2026-04-04T14:10:31.999Z</time></trkpt><trkpt lat="36.91107864834466" lon="15.027023812911565"><ele>295.0</ele><time>2026-04-04T14:10:32.999Z</time></trkpt><trkpt lat="36.911172212572545" lon="15.026939167321608"><ele>295.0</ele><time>2026-04-04T14:10:33.999Z</time></trkpt><trkpt lat="36.91126536058339" lon="15.026882076733417"><ele>295.0</ele><time>2026-04-04T14:10:34.999Z</time></trkpt><trkpt lat="36.91137135736376" lon="15.02683012835284"><ele>295.0</ele><time>2026-04-04T14:10:35.999Z</time></trkpt><trkpt lat="36.91149060098853" lon="15.026789231942567"><ele>295.0</ele><time>2026-04-04T14:10:37Z</time></trkpt><trkpt lat="36.91160213143889" lon="15.02675255328125"><ele>295.0</ele><time>2026-04-04T14:10:38Z</time></trkpt><trkpt lat="36.91173451724291" lon="15.026743021175195"><ele>294.66666666666663</ele><time>2026-04-04T14:10:39Z</time></trkpt><trkpt lat="36.91187641315485" lon="15.026736566405617"><ele>294.3333333333333</ele><time>2026-04-04T14:10:40Z</time></trkpt><trkpt lat="36.91204251903387" lon="15.026730191067449"><ele>294.0</ele><time>2026-04-04T14:10:41Z</time></trkpt><trkpt lat="36.91220308895504" lon="15.02670556217637"><ele>294.0</ele><time>2026-04-04T14:10:42Z</time></trkpt><trkpt lat="36.9123546496368" lon="15.026682081766753"><ele>294.0</ele><time>2026-04-04T14:10:43Z</time></trkpt><trkpt lat="36.91250173857572" lon="15.026647103828354"><ele>294.0</ele><time>2026-04-04T14:10:44Z</time></trkpt><trkpt lat="36.912652688567135" lon="15.026582131600751"><ele>300.0</ele><time>2026-04-04T14:10:45Z</time></trkpt><trkpt lat="36.91281685538799" lon="15.026494375194106"><ele>306.0</ele><time>2026-04-04T14:10:46Z</time></trkpt><trkpt lat="36.912984155643905" lon="15.026404522231562"><ele>312.0</ele><time>2026-04-04T14:10:47Z</time></trkpt><trkpt lat="36.91315522932199" lon="15.02632066611116"><ele>312.0</ele><time>2026-04-04T14:10:48Z</time></trkpt><trkpt lat="36.91332801330601" lon="15.026243719688805"><ele>312.0</ele><time>2026-04-04T14:10:49Z</time></trkpt><trkpt lat="36.9134735961389" lon="15.026186533023738"><ele>312.0</ele><time>2026-04-04T14:10:50Z</time></trkpt><trkpt lat="36.91360617596505" lon="15.02611739038717"><ele>310.5</ele><time>2026-04-04T14:10:51Z</time></trkpt><trkpt lat="36.91373511727838" lon="15.026050931230275"><ele>309.0</ele><time>2026-04-04T14:10:52Z</time></trkpt><trkpt lat="36.91386528323149" lon="15.026015452585712"><ele>307.5</ele><time>2026-04-04T14:10:53Z</time></trkpt><trkpt lat="36.9140034378467" lon="15.025989028722707"><ele>306.0</ele><time>2026-04-04T14:10:54Z</time></trkpt><trkpt lat="36.914151385682054" lon="15.025961414673754"><ele>304.75</ele><time>2026-04-04T14:10:55Z</time></trkpt><trkpt lat="36.91431916704288" lon="15.02594210692515"><ele>303.5</ele><time>2026-04-04T14:10:56Z</time></trkpt><trkpt lat="36.91446610501411" lon="15.025932004210173"><ele>302.25</ele><time>2026-04-04T14:10:57Z</time></trkpt><trkpt lat="36.91459135633036" lon="15.025928062815515"><ele>301.0</ele><time>2026-04-04T14:10:58Z</time></trkpt><trkpt lat="36.914721513052825" lon="15.025902281377824"><ele>301.0</ele><time>2026-04-04T14:10:59Z</time></trkpt><trkpt lat="36.91485065819144" lon="15.02586327190291"><ele>301.0</ele><time>2026-04-04T14:11:00Z</time></trkpt><trkpt lat="36.9149941955072" lon="15.025815637634395"><ele>301.0</ele><time>2026-04-04T14:11:01Z</time></trkpt><trkpt lat="36.915141502145715" lon="15.025773891817455"><ele>301.0</ele><time>2026-04-04T14:11:02Z</time></trkpt><trkpt lat="36.91529391997565" lon="15.025741434439052"><ele>307.0</ele><time>2026-04-04T14:11:03Z</time></trkpt><trkpt lat="36.915448932878384" lon="15.025745828519021"><ele>313.0</ele><time>2026-04-04T14:11:04Z</time></trkpt><trkpt lat="36.91560659547221" lon="15.02570401959856"><ele>319.0</ele><time>2026-04-04T14:11:05Z</time></trkpt><trkpt lat="36.915760753200324" lon="15.025698859491488"><ele>319.0</ele><time>2026-04-04T14:11:06Z</time></trkpt><trkpt lat="36.91588752248942" lon="15.025694386055722"><ele>319.0</ele><time>2026-04-04T14:11:07Z</time></trkpt><trkpt lat="36.91599149619621" lon="15.025693416429617"><ele>319.0</ele><time>2026-04-04T14:11:08Z</time></trkpt><trkpt lat="36.916091672895675" lon="15.025705602429962"><ele>319.0</ele><time>2026-04-04T14:11:09Z</time></trkpt><trkpt lat="36.91621463385738" lon="15.025750671565804"><ele>319.5</ele><time>2026-04-04T14:11:10Z</time></trkpt><trkpt lat="36.91633324257573" lon="15.025784356562337"><ele>320.0</ele><time>2026-04-04T14:11:11Z</time></trkpt><trkpt lat="36.91645543564274" lon="15.02580980392632"><ele>320.5</ele><time>2026-04-04T14:11:12Z</time></trkpt><trkpt lat="36.91661331656594" lon="15.025806374945258"><ele>321.0</ele><time>2026-04-04T14:11:13Z</time></trkpt><trkpt lat="36.91674281277351" lon="15.025866124294335"><ele>317.40000000000003</ele><time>2026-04-04T14:11:14Z</time></trkpt><trkpt lat="36.916845383166994" lon="15.025888103789324"><ele>313.8</ele><time>2026-04-04T14:11:15Z</time></trkpt><trkpt lat="36.916940591280124" lon="15.025899854501981"><ele>310.20000000000005</ele><time>2026-04-04T14:11:16Z</time></trkpt><trkpt lat="36.917042599165065" lon="15.02587811606246"><ele>306.6</ele><time>2026-04-04T14:11:17Z</time></trkpt><trkpt lat="36.91714482793083" lon="15.025890408153266"><ele>303.0</ele><time>2026-04-04T14:11:18Z</time></trkpt><trkpt lat="36.917248155846885" lon="15.025886684851708"><ele>303.0</ele><time>2026-04-04T14:11:19Z</time></trkpt><trkpt lat="36.91733704103171" lon="15.025895395292414"><ele>303.0</ele><time>2026-04-04T14:11:20Z</time></trkpt><trkpt lat="36.91741135806222" lon="15.025932467768369"><ele>303.0</ele><time>2026-04-04T14:11:21Z</time></trkpt><trkpt lat="36.91747759945332" lon="15.02597466488946"><ele>303.0</ele><time>2026-04-04T14:11:22Z</time></trkpt><trkpt lat="36.9175461957107" lon="15.026010614118631"><ele>303.0</ele><time>2026-04-04T14:11:23Z</time></trkpt><trkpt lat="36.91761585609862" lon="15.026015512845992"><ele>303.0</ele><time>2026-04-04T14:11:24Z</time></trkpt><trkpt lat="36.91768327016245" lon="15.026041661290291"><ele>302.6666666666667</ele><time>2026-04-04T14:11:25Z</time></trkpt><trkpt lat="36.91776276314831" lon="15.026054994020955"><ele>302.3333333333333</ele><time>2026-04-04T14:11:26Z</time></trkpt><trkpt lat="36.91785393993202" lon="15.026059536388733"><ele>302.0</ele><time>2026-04-04T14:11:27Z</time></trkpt><trkpt lat="36.917934525312006" lon="15.026081988363655"><ele>301.66666666666663</ele><time>2026-04-04T14:11:28Z</time></trkpt><trkpt lat="36.91799796465872" lon="15.026113475179567"><ele>301.3333333333333</ele><time>2026-04-04T14:11:29Z</time></trkpt><trkpt lat="36.91811284525428" lon="15.026156738628579"><ele>301.0</ele><time>2026-04-04T14:11:31Z</time></trkpt><trkpt lat="36.91820722873836" lon="15.026199226019836"><ele>301.0</ele><time>2026-04-04T14:11:32Z</time></trkpt><trkpt lat="36.91830573393029" lon="15.026229242535093"><ele>301.0</ele><time>2026-04-04T14:11:33Z</time></trkpt><trkpt lat="36.918408840964865" lon="15.026248304225051"><ele>301.0</ele><time>2026-04-04T14:11:34Z</time></trkpt><trkpt lat="36.918490631544586" lon="15.026235774761481"><ele>301.0</ele><time>2026-04-04T14:11:35Z</time></trkpt><trkpt lat="36.91860629022556" lon="15.026232179185062"><ele>301.0</ele><time>2026-04-04T14:11:36Z</time></trkpt><trkpt lat="36.91872788644108" lon="15.026204626463178"><ele>300.5</ele><time>2026-04-04T14:11:37Z</time></trkpt><trkpt lat="36.91882223579041" lon="15.026226029202052"><ele>300.0</ele><time>2026-04-04T14:11:38Z</time></trkpt><trkpt lat="36.918928875399466" lon="15.026221603339726"><ele>299.5</ele><time>2026-04-04T14:11:39Z</time></trkpt><trkpt lat="36.9190260239707" lon="15.026238697123222"><ele>299.0</ele><time>2026-04-04T14:11:40Z</time></trkpt><trkpt lat="36.919094903885316" lon="15.026244007999724"><ele>298.5</ele><time>2026-04-04T14:11:41Z</time></trkpt><trkpt lat="36.91916506043552" lon="15.02620770319411"><ele>298.0</ele><time>2026-04-04T14:11:42Z</time></trkpt><trkpt lat="36.91925310975972" lon="15.026168394953828"><ele>297.6</ele><time>2026-04-04T14:11:43Z</time></trkpt><trkpt lat="36.91935577762908" lon="15.026132350444323"><ele>297.20000000000005</ele><time>2026-04-04T14:11:44Z</time></trkpt><trkpt lat="36.919461742479626" lon="15.026108168953732"><ele>296.8</ele><time>2026-04-04T14:11:45Z</time></trkpt><trkpt lat="36.91956499565808" lon="15.026092363691037"><ele>296.40000000000003</ele><time>2026-04-04T14:11:46Z</time></trkpt><trkpt lat="36.91967372544676" lon="15.026097240607145"><ele>296.0</ele><time>2026-04-04T14:11:47Z</time></trkpt><trkpt lat="36.91979931075591" lon="15.026067187020427"><ele>296.0</ele><time>2026-04-04T14:11:48Z</time></trkpt><trkpt lat="36.919889328818044" lon="15.025918605018411"><ele>296.0</ele><time>2026-04-04T14:11:49Z</time></trkpt><trkpt lat="36.920001435167976" lon="15.0258696066345"><ele>296.0</ele><time>2026-04-04T14:11:49.999Z</time></trkpt><trkpt lat="36.920100712879204" lon="15.025826992943818"><ele>296.0</ele><time>2026-04-04T14:11:50.999Z</time></trkpt><trkpt lat="36.92019461369488" lon="15.025787332660473"><ele>299.40000000000003</ele><time>2026-04-04T14:11:51.999Z</time></trkpt><trkpt lat="36.92026487947302" lon="15.025757654968572"><ele>302.8</ele><time>2026-04-04T14:11:52.999Z</time></trkpt><trkpt lat="36.920336809993714" lon="15.02572727416494"><ele>306.20000000000005</ele><time>2026-04-04T14:11:53.999Z</time></trkpt><trkpt lat="36.92045075266539" lon="15.025679148961657"><ele>309.6</ele><time>2026-04-04T14:11:54.999Z</time></trkpt><trkpt lat="36.920540685770916" lon="15.025637830884465"><ele>313.0</ele><time>2026-04-04T14:11:55.999Z</time></trkpt><trkpt lat="36.920660193646825" lon="15.025557525025402"><ele>313.0</ele><time>2026-04-04T14:11:57.999Z</time></trkpt><trkpt lat="36.92077222060391" lon="15.025454474863245"><ele>313.0</ele><time>2026-04-04T14:11:59.999Z</time></trkpt><trkpt lat="36.92114388694267" lon="15.025860614308991"><ele>309.0</ele><time>2026-04-04T14:12:01.999Z</time></trkpt><trkpt lat="36.92120765093605" lon="15.025813431370702"><ele>305.0</ele><time>2026-04-04T14:12:02.999Z</time></trkpt><trkpt lat="36.92127541609137" lon="15.02575916098206"><ele>301.0</ele><time>2026-04-04T14:12:03.999Z</time></trkpt><trkpt lat="36.92134035328126" lon="15.02568294010397"><ele>297.0</ele><time>2026-04-04T14:12:04.999Z</time></trkpt><trkpt lat="36.92139646692212" lon="15.02559639535026"><ele>293.0</ele><time>2026-04-04T14:12:05.999Z</time></trkpt><trkpt lat="36.92145052323191" lon="15.025535382809924"><ele>289.0</ele><time>2026-04-04T14:12:06.999Z</time></trkpt><trkpt lat="36.92152967868441" lon="15.025490941598319"><ele>289.0</ele><time>2026-04-04T14:12:07.999Z</time></trkpt><trkpt lat="36.921607606035394" lon="15.02542600306128"><ele>289.0</ele><time>2026-04-04T14:12:08.999Z</time></trkpt><trkpt lat="36.921673762671624" lon="15.025331083458639"><ele>289.0</ele><time>2026-04-04T14:12:09.999Z</time></trkpt><trkpt lat="36.921757095354096" lon="15.025255197743252"><ele>289.0</ele><time>2026-04-04T14:12:10.999Z</time></trkpt><trkpt lat="36.92182669742731" lon="15.025189514427339"><ele>289.0</ele><time>2026-04-04T14:12:11.999Z</time></trkpt><trkpt lat="36.921870930815444" lon="15.025108224513632"><ele>289.8333333333333</ele><time>2026-04-04T14:12:12.999Z</time></trkpt><trkpt lat="36.92192806064194" lon="15.025029212715166"><ele>290.66666666666663</ele><time>2026-04-04T14:12:13.999Z</time></trkpt><trkpt lat="36.92198880971802" lon="15.024963670476385"><ele>291.5</ele><time>2026-04-04T14:12:14.999Z</time></trkpt><trkpt lat="36.922063957046255" lon="15.024903044262388"><ele>292.3333333333333</ele><time>2026-04-04T14:12:15.999Z</time></trkpt><trkpt lat="36.92214757775744" lon="15.024876309985522"><ele>293.1666666666667</ele><time>2026-04-04T14:12:16.999Z</time></trkpt><trkpt lat="36.92224570014979" lon="15.024867073515738"><ele>294.0</ele><time>2026-04-04T14:12:17.999Z</time></trkpt><trkpt lat="36.92233513884606" lon="15.024824381904411"><ele>294.0</ele><time>2026-04-04T14:12:18.999Z</time></trkpt><trkpt lat="36.92242653884109" lon="15.024796774196638"><ele>294.0</ele><time>2026-04-04T14:12:19.999Z</time></trkpt><trkpt lat="36.92252372546164" lon="15.024758133071536"><ele>294.0</ele><time>2026-04-04T14:12:20.999Z</time></trkpt><trkpt lat="36.9226323218221" lon="15.024707911224397"><ele>294.0</ele><time>2026-04-04T14:12:21.999Z</time></trkpt><trkpt lat="36.92271718362909" lon="15.024701233602853"><ele>294.0</ele><time>2026-04-04T14:12:22.999Z</time></trkpt><trkpt lat="36.92278898447457" lon="15.024722101959428"><ele>291.1666666666667</ele><time>2026-04-04T14:12:23.999Z</time></trkpt><trkpt lat="36.92285985044088" lon="15.024735936810146"><ele>288.3333333333333</ele><time>2026-04-04T14:12:24.999Z</time></trkpt><trkpt lat="36.922929064102824" lon="15.024724961552604"><ele>285.5</ele><time>2026-04-04T14:12:25.999Z</time></trkpt><trkpt lat="36.923028251205324" lon="15.024721167705687"><ele>282.66666666666663</ele><time>2026-04-04T14:12:27.999Z</time></trkpt><trkpt lat="36.92310861864214" lon="15.024755888481003"><ele>279.8333333333333</ele><time>2026-04-04T14:12:29.999Z</time></trkpt><trkpt lat="36.923193397491254" lon="15.024737256485855"><ele>277.0</ele><time>2026-04-04T14:12:31.999Z</time></trkpt><trkpt lat="36.923230138174674" lon="15.024670501581046"><ele>277.0</ele><time>2026-04-04T14:12:32.999Z</time></trkpt><trkpt lat="36.92321508713051" lon="15.0245883615366"><ele>277.0</ele><time>2026-04-04T14:12:33.999Z</time></trkpt><trkpt lat="36.92329508325652" lon="15.024508393508466"><ele>277.0</ele><time>2026-04-04T14:12:34.999Z</time></trkpt><trkpt lat="36.92335402403404" lon="15.024461026748599"><ele>277.0</ele><time>2026-04-04T14:12:35.999Z</time></trkpt><trkpt lat="36.923474523043176" lon="15.024499963702748"><ele>277.0</ele><time>2026-04-04T14:12:37.999Z</time></trkpt><trkpt lat="36.92355375385397" lon="15.024494197926675"><ele>277.0</ele><time>2026-04-04T14:12:38.999Z</time></trkpt><trkpt lat="36.92370172431424" lon="15.024451300833132"><ele>272.25</ele><time>2026-04-04T14:12:39.999Z</time></trkpt><trkpt lat="36.923827638835945" lon="15.024379494696134"><ele>267.5</ele><time>2026-04-04T14:12:40.999Z</time></trkpt><trkpt lat="36.92393169840835" lon="15.02429688016649"><ele>262.75</ele><time>2026-04-04T14:12:41.999Z</time></trkpt><trkpt lat="36.92403197356265" lon="15.024225453556676"><ele>258.0</ele><time>2026-04-04T14:12:43Z</time></trkpt><trkpt lat="36.924123396542285" lon="15.024193969978516"><ele>255.2</ele><time>2026-04-04T14:12:44Z</time></trkpt><trkpt lat="36.92423198288327" lon="15.024209893266873"><ele>252.4</ele><time>2026-04-04T14:12:45Z</time></trkpt><trkpt lat="36.924325625627915" lon="15.02420171604983"><ele>249.59999999999997</ele><time>2026-04-04T14:12:46Z</time></trkpt><trkpt lat="36.924414249932774" lon="15.024188066095116"><ele>246.79999999999998</ele><time>2026-04-04T14:12:47Z</time></trkpt><trkpt lat="36.92449771661545" lon="15.024192874479196"><ele>244.0</ele><time>2026-04-04T14:12:48Z</time></trkpt><trkpt lat="36.9245861586034" lon="15.024205642769589"><ele>243.99999999999997</ele><time>2026-04-04T14:12:49Z</time></trkpt><trkpt lat="36.92467587388198" lon="15.024225700454803"><ele>244.0</ele><time>2026-04-04T14:12:50Z</time></trkpt><trkpt lat="36.92476141650627" lon="15.024247755645682"><ele>244.0</ele><time>2026-04-04T14:12:51Z</time></trkpt><trkpt lat="36.924836102103484" lon="15.024265050437887"><ele>244.0</ele><time>2026-04-04T14:12:52Z</time></trkpt><trkpt lat="36.92491744174902" lon="15.024271790126313"><ele>243.99999999999997</ele><time>2026-04-04T14:12:53Z</time></trkpt><trkpt lat="36.925007239595516" lon="15.024275968902293"><ele>244.0</ele><time>2026-04-04T14:12:54Z</time></trkpt><trkpt lat="36.925171728503265" lon="15.02435799265132"><ele>241.99999999999997</ele><time>2026-04-04T14:12:55Z</time></trkpt><trkpt lat="36.92525656742783" lon="15.024362358643767"><ele>240.0</ele><time>2026-04-04T14:12:56Z</time></trkpt><trkpt lat="36.925331332058775" lon="15.024381287707712"><ele>238.0</ele><time>2026-04-04T14:12:57Z</time></trkpt><trkpt lat="36.92539752360562" lon="15.024358083803964"><ele>236.0</ele><time>2026-04-04T14:12:58Z</time></trkpt><trkpt lat="36.92544878478817" lon="15.024408828408395"><ele>233.99999999999997</ele><time>2026-04-04T14:12:59Z</time></trkpt><trkpt lat="36.92557480532976" lon="15.024411531103537"><ele>232.0</ele><time>2026-04-04T14:13:01Z</time></trkpt><trkpt lat="36.925663827795056" lon="15.024388003330456"><ele>231.99999999999997</ele><time>2026-04-04T14:13:02Z</time></trkpt><trkpt lat="36.92575072553857" lon="15.02437087822597"><ele>232.0</ele><time>2026-04-04T14:13:03Z</time></trkpt><trkpt lat="36.92581901514321" lon="15.024358969868377"><ele>232.0</ele><time>2026-04-04T14:13:04Z</time></trkpt><trkpt lat="36.9258812694364" lon="15.024372215037927"><ele>232.0</ele><time>2026-04-04T14:13:05Z</time></trkpt><trkpt lat="36.92595980101554" lon="15.02433307551223"><ele>231.99999999999997</ele><time>2026-04-04T14:13:06Z</time></trkpt><trkpt lat="36.92609513967879" lon="15.02431994438317"><ele>232.0</ele><time>2026-04-04T14:13:07Z</time></trkpt><trkpt lat="36.92615463314029" lon="15.024265154879831"><ele>231.99999999999997</ele><time>2026-04-04T14:13:10Z</time></trkpt><trkpt lat="36.92609288477714" lon="15.024288869023817"><ele>232.0</ele><time>2026-04-04T14:13:13Z</time></trkpt><trkpt lat="36.92603322552443" lon="15.024361499172434"><ele>232.0</ele><time>2026-04-04T14:13:34Z</time></trkpt><trkpt lat="36.92597779360414" lon="15.024407139183252"><ele>232.0</ele><time>2026-04-04T14:13:35Z</time></trkpt><trkpt lat="36.92591051434863" lon="15.024457943883283"><ele>231.99999999999997</ele><time>2026-04-04T14:13:36Z</time></trkpt><trkpt lat="36.92582897959208" lon="15.024488350924189"><ele>232.0</ele><time>2026-04-04T14:13:37Z</time></trkpt><trkpt lat="36.925750967903376" lon="15.024589157212926"><ele>231.99999999999997</ele><time>2026-04-04T14:13:39Z</time></trkpt><trkpt lat="36.92568028450383" lon="15.024648024519216"><ele>232.0</ele><time>2026-04-04T14:13:41Z</time></trkpt><trkpt lat="36.925587928754844" lon="15.02472299790379"><ele>232.0</ele><time>2026-04-04T14:13:43Z</time></trkpt><trkpt lat="36.9254902016068" lon="15.02479995448659"><ele>232.0</ele><time>2026-04-04T14:13:45Z</time></trkpt><trkpt lat="36.925430923193645" lon="15.024846264698478"><ele>231.99999999999997</ele><time>2026-04-04T14:13:46Z</time></trkpt><trkpt lat="36.92538720034125" lon="15.024904736992154"><ele>232.0</ele><time>2026-04-04T14:13:47Z</time></trkpt><trkpt lat="36.92531342837695" lon="15.024948117040546"><ele>230.0</ele><time>2026-04-04T14:13:48Z</time></trkpt><trkpt lat="36.92523303158156" lon="15.024998674612034"><ele>228.0</ele><time>2026-04-04T14:13:49Z</time></trkpt><trkpt lat="36.92513711096821" lon="15.025066387984124"><ele>226.0</ele><time>2026-04-04T14:13:50Z</time></trkpt><trkpt lat="36.92500754036028" lon="15.025150868855388"><ele>224.0</ele><time>2026-04-04T14:13:51Z</time></trkpt><trkpt lat="36.92488555255778" lon="15.025205772219003"><ele>224.0</ele><time>2026-04-04T14:13:52Z</time></trkpt><trkpt lat="36.924783468117035" lon="15.025233685161835"><ele>224.0</ele><time>2026-04-04T14:13:52.999Z</time></trkpt><trkpt lat="36.92465519416144" lon="15.025229785870383"><ele>224.0</ele><time>2026-04-04T14:13:53.999Z</time></trkpt><trkpt lat="36.92450941144714" lon="15.025281026583096"><ele>224.0</ele><time>2026-04-04T14:13:54.999Z</time></trkpt><trkpt lat="36.92433565272937" lon="15.025357410158282"><ele>225.5</ele><time>2026-04-04T14:13:55.999Z</time></trkpt><trkpt lat="36.92416887280829" lon="15.025407134283258"><ele>227.0</ele><time>2026-04-04T14:13:56.999Z</time></trkpt><trkpt lat="36.92404409225008" lon="15.025430858939153"><ele>228.5</ele><time>2026-04-04T14:13:57.999Z</time></trkpt><trkpt lat="36.92392097065449" lon="15.025377989543461"><ele>230.0</ele><time>2026-04-04T14:13:58.999Z</time></trkpt><trkpt lat="36.923726019387644" lon="15.025328737738105"><ele>230.0</ele><time>2026-04-04T14:13:59.999Z</time></trkpt><trkpt lat="36.92362285740408" lon="15.025328737732115"><ele>230.0</ele><time>2026-04-04T14:14:00.999Z</time></trkpt><trkpt lat="36.92352012244085" lon="15.025360022398317"><ele>230.0</ele><time>2026-04-04T14:14:01.999Z</time></trkpt><trkpt lat="36.923428510323276" lon="15.025504755095566"><ele>230.0</ele><time>2026-04-04T14:14:02.999Z</time></trkpt><trkpt lat="36.92332075159378" lon="15.025610903924582"><ele>229.0</ele><time>2026-04-04T14:14:03.999Z</time></trkpt><trkpt lat="36.923166864920894" lon="15.025716358781617"><ele>228.0</ele><time>2026-04-04T14:14:04.999Z</time></trkpt><trkpt lat="36.92304256447242" lon="15.025781866935551"><ele>227.0</ele><time>2026-04-04T14:14:05.999Z</time></trkpt><trkpt lat="36.92292130108132" lon="15.025827976206179"><ele>226.0</ele><time>2026-04-04T14:14:06.999Z</time></trkpt><trkpt lat="36.922794149854084" lon="15.025885875100775"><ele>226.0</ele><time>2026-04-04T14:14:07.999Z</time></trkpt><trkpt lat="36.92266805968604" lon="15.025966499386518"><ele>226.0</ele><time>2026-04-04T14:14:08.999Z</time></trkpt><trkpt lat="36.922551044890696" lon="15.02607350928549"><ele>226.0</ele><time>2026-04-04T14:14:09.999Z</time></trkpt><trkpt lat="36.92243602755486" lon="15.026234211001508"><ele>230.33333333333331</ele><time>2026-04-04T14:14:10.999Z</time></trkpt><trkpt lat="36.92228984570466" lon="15.026433306154127"><ele>234.66666666666669</ele><time>2026-04-04T14:14:11.999Z</time></trkpt><trkpt lat="36.9221262080547" lon="15.026598371617277"><ele>239.0</ele><time>2026-04-04T14:14:12.999Z</time></trkpt><trkpt lat="36.92198329724955" lon="15.026784461828896"><ele>239.0</ele><time>2026-04-04T14:14:13.999Z</time></trkpt><trkpt lat="36.92185748814983" lon="15.02699265698416"><ele>239.0</ele><time>2026-04-04T14:14:14.999Z</time></trkpt><trkpt lat="36.92170389020804" lon="15.02716148860898"><ele>239.0</ele><time>2026-04-04T14:14:15.999Z</time></trkpt><trkpt lat="36.92158345583581" lon="15.027283769340814"><ele>237.33333333333334</ele><time>2026-04-04T14:14:16.999Z</time></trkpt><trkpt lat="36.92143706245444" lon="15.027401695631053"><ele>235.66666666666669</ele><time>2026-04-04T14:14:17.999Z</time></trkpt><trkpt lat="36.92130181880028" lon="15.027508287886587"><ele>234.0</ele><time>2026-04-04T14:14:18.999Z</time></trkpt><trkpt lat="36.92115638481305" lon="15.027600088733204"><ele>232.25</ele><time>2026-04-04T14:14:19.999Z</time></trkpt><trkpt lat="36.921024372037834" lon="15.027670186697042"><ele>230.5</ele><time>2026-04-04T14:14:20.999Z</time></trkpt><trkpt lat="36.92088538290307" lon="15.027741096478268"><ele>228.75</ele><time>2026-04-04T14:14:21.999Z</time></trkpt><trkpt lat="36.920752879441295" lon="15.027826981243944"><ele>227.0</ele><time>2026-04-04T14:14:22.999Z</time></trkpt><trkpt lat="36.92063225184905" lon="15.027888857282754"><ele>226.39999999999998</ele><time>2026-04-04T14:14:23.999Z</time></trkpt><trkpt lat="36.920516255075896" lon="15.027942423577677"><ele>225.79999999999998</ele><time>2026-04-04T14:14:24.999Z</time></trkpt><trkpt lat="36.92040833145839" lon="15.027961880003527"><ele>225.2</ele><time>2026-04-04T14:14:25.999Z</time></trkpt><trkpt lat="36.92031693429228" lon="15.02798018916499"><ele>224.6</ele><time>2026-04-04T14:14:26.999Z</time></trkpt><trkpt lat="36.920198986689" lon="15.027976718502389"><ele>224.0</ele><time>2026-04-04T14:14:27.999Z</time></trkpt><trkpt lat="36.92008313825868" lon="15.027953694424504"><ele>224.16666666666669</ele><time>2026-04-04T14:14:28.999Z</time></trkpt><trkpt lat="36.9200043034757" lon="15.02793672057124"><ele>224.33333333333334</ele><time>2026-04-04T14:14:29.999Z</time></trkpt><trkpt lat="36.919937882323424" lon="15.027921189265337"><ele>224.5</ele><time>2026-04-04T14:14:30.999Z</time></trkpt><trkpt lat="36.919872662061195" lon="15.027898420089198"><ele>224.66666666666669</ele><time>2026-04-04T14:14:31.999Z</time></trkpt><trkpt lat="36.91980749151155" lon="15.027872741584346"><ele>224.83333333333334</ele><time>2026-04-04T14:14:32.999Z</time></trkpt><trkpt lat="36.919716049926" lon="15.027857797101671"><ele>225.0</ele><time>2026-04-04T14:14:33.999Z</time></trkpt><trkpt lat="36.91960815070787" lon="15.027811230625733"><ele>225.0</ele><time>2026-04-04T14:14:34.999Z</time></trkpt><trkpt lat="36.91947977071853" lon="15.027768072256837"><ele>225.0</ele><time>2026-04-04T14:14:35.999Z</time></trkpt><trkpt lat="36.91933438172559" lon="15.027765278110918"><ele>225.0</ele><time>2026-04-04T14:14:36.999Z</time></trkpt><trkpt lat="36.91914843496325" lon="15.027821943498001"><ele>225.5</ele><time>2026-04-04T14:14:37.999Z</time></trkpt><trkpt lat="36.91893815244471" lon="15.027935564588848"><ele>226.0</ele><time>2026-04-04T14:14:38.999Z</time></trkpt><trkpt lat="36.9187095704203" lon="15.028019852758936"><ele>226.0</ele><time>2026-04-04T14:14:39.999Z</time></trkpt><trkpt lat="36.91851222913065" lon="15.028089222604011"><ele>226.0</ele><time>2026-04-04T14:14:40.999Z</time></trkpt><trkpt lat="36.918363671278385" lon="15.028145815147921"><ele>226.0</ele><time>2026-04-04T14:14:41.999Z</time></trkpt><trkpt lat="36.91826259971041" lon="15.02820089469968"><ele>225.20000000000002</ele><time>2026-04-04T14:14:42.999Z</time></trkpt><trkpt lat="36.91815775915781" lon="15.028215103701031"><ele>224.40000000000003</ele><time>2026-04-04T14:14:43.999Z</time></trkpt><trkpt lat="36.91805057375111" lon="15.028218890565004"><ele>223.6</ele><time>2026-04-04T14:14:44.999Z</time></trkpt><trkpt lat="36.917953718855664" lon="15.028221221877391"><ele>222.8</ele><time>2026-04-04T14:14:45.999Z</time></trkpt><trkpt lat="36.917866949078466" lon="15.028250661043316"><ele>222.0</ele><time>2026-04-04T14:14:46.999Z</time></trkpt><trkpt lat="36.917797357573555" lon="15.028309944154728"><ele>218.16666666666666</ele><time>2026-04-04T14:14:47.999Z</time></trkpt><trkpt lat="36.91772915450811" lon="15.028369407974022"><ele>214.33333333333331</ele><time>2026-04-04T14:14:49Z</time></trkpt><trkpt lat="36.91766941740926" lon="15.028443407174764"><ele>210.5</ele><time>2026-04-04T14:14:50Z</time></trkpt><trkpt lat="36.91760380401683" lon="15.028505249725859"><ele>206.66666666666666</ele><time>2026-04-04T14:14:51Z</time></trkpt><trkpt lat="36.91753485112717" lon="15.028562123796902"><ele>202.83333333333331</ele><time>2026-04-04T14:14:52Z</time></trkpt><trkpt lat="36.91746986068856" lon="15.028643268786514"><ele>199.0</ele><time>2026-04-04T14:14:53Z</time></trkpt><trkpt lat="36.91739555106005" lon="15.028709060248355"><ele>199.0</ele><time>2026-04-04T14:14:54Z</time></trkpt><trkpt lat="36.917312025896386" lon="15.028743423626565"><ele>199.0</ele><time>2026-04-04T14:14:55Z</time></trkpt><trkpt lat="36.91725310392467" lon="15.028783322246671"><ele>199.0</ele><time>2026-04-04T14:14:56Z</time></trkpt><trkpt lat="36.91715870312292" lon="15.028841321788073"><ele>199.0</ele><time>2026-04-04T14:14:58Z</time></trkpt><trkpt lat="36.91708153314183" lon="15.028888575440416"><ele>199.0</ele><time>2026-04-04T14:14:59Z</time></trkpt><trkpt lat="36.91698870353293" lon="15.028948211912727"><ele>199.0</ele><time>2026-04-04T14:15:00Z</time></trkpt><trkpt lat="36.91685274315805" lon="15.029034721097526"><ele>199.0</ele><time>2026-04-04T14:15:01Z</time></trkpt><trkpt lat="36.9167360341519" lon="15.029127181661515"><ele>199.0</ele><time>2026-04-04T14:15:02Z</time></trkpt><trkpt lat="36.91663615176365" lon="15.029158958882707"><ele>199.0</ele><time>2026-04-04T14:15:03Z</time></trkpt><trkpt lat="36.91655683879222" lon="15.02919807996663"><ele>196.2</ele><time>2026-04-04T14:15:04Z</time></trkpt><trkpt lat="36.91647616878765" lon="15.029247312451703"><ele>193.39999999999998</ele><time>2026-04-04T14:15:05Z</time></trkpt><trkpt lat="36.91636502743263" lon="15.029282134531858"><ele>190.6</ele><time>2026-04-04T14:15:06Z</time></trkpt><trkpt lat="36.916256183739556" lon="15.029304607310777"><ele>187.8</ele><time>2026-04-04T14:15:07Z</time></trkpt><trkpt lat="36.91616869357281" lon="15.029334918785304"><ele>185.0</ele><time>2026-04-04T14:15:08Z</time></trkpt><trkpt lat="36.91608261180671" lon="15.029386436932596"><ele>185.0</ele><time>2026-04-04T14:15:09Z</time></trkpt><trkpt lat="36.91599340055165" lon="15.02942280222193"><ele>185.0</ele><time>2026-04-04T14:15:10Z</time></trkpt><trkpt lat="36.91591656880216" lon="15.02948134740277"><ele>185.0</ele><time>2026-04-04T14:15:11Z</time></trkpt><trkpt lat="36.91583665732125" lon="15.029545762087164"><ele>185.0</ele><time>2026-04-04T14:15:12Z</time></trkpt><trkpt lat="36.915744241334544" lon="15.029636725230619"><ele>185.0</ele><time>2026-04-04T14:15:13Z</time></trkpt><trkpt lat="36.915658859792444" lon="15.02973682190881"><ele>185.0</ele><time>2026-04-04T14:15:14Z</time></trkpt><trkpt lat="36.915564936305216" lon="15.029850885620105"><ele>185.0</ele><time>2026-04-04T14:15:15Z</time></trkpt><trkpt lat="36.91547248978716" lon="15.029965593854918"><ele>185.0</ele><time>2026-04-04T14:15:16Z</time></trkpt><trkpt lat="36.915391867838736" lon="15.03007594886229"><ele>185.0</ele><time>2026-04-04T14:15:17Z</time></trkpt><trkpt lat="36.91530538147582" lon="15.030206572394722"><ele>182.5</ele><time>2026-04-04T14:15:18Z</time></trkpt><trkpt lat="36.915220044030924" lon="15.030342612156351"><ele>180.0</ele><time>2026-04-04T14:15:19Z</time></trkpt><trkpt lat="36.9151438506656" lon="15.03047123780642"><ele>177.5</ele><time>2026-04-04T14:15:20Z</time></trkpt><trkpt lat="36.91507229418611" lon="15.03058721243611"><ele>175.0</ele><time>2026-04-04T14:15:21Z</time></trkpt><trkpt lat="36.914999168549535" lon="15.030701330669798"><ele>175.0</ele><time>2026-04-04T14:15:22Z</time></trkpt><trkpt lat="36.91492992956702" lon="15.030803854111232"><ele>175.0</ele><time>2026-04-04T14:15:23Z</time></trkpt><trkpt lat="36.91485259424578" lon="15.030892519735328"><ele>175.0</ele><time>2026-04-04T14:15:24Z</time></trkpt><trkpt lat="36.91476313950938" lon="15.03096687702878"><ele>175.0</ele><time>2026-04-04T14:15:25Z</time></trkpt><trkpt lat="36.914665973834126" lon="15.031047895069314"><ele>175.0</ele><time>2026-04-04T14:15:26Z</time></trkpt><trkpt lat="36.91460340999896" lon="15.031161101823846"><ele>173.0</ele><time>2026-04-04T14:15:27Z</time></trkpt><trkpt lat="36.91453091367113" lon="15.031215297544406"><ele>171.0</ele><time>2026-04-04T14:15:28Z</time></trkpt><trkpt lat="36.91445151205719" lon="15.031284111857419"><ele>169.0</ele><time>2026-04-04T14:15:30Z</time></trkpt><trkpt lat="36.91442340379711" lon="15.031379994305468"><ele>167.0</ele><time>2026-04-04T14:15:32Z</time></trkpt><trkpt lat="36.914413274033464" lon="15.031476988014708"><ele>165.0</ele><time>2026-04-04T14:15:34Z</time></trkpt><trkpt lat="36.91441373829588" lon="15.031571502246473"><ele>163.0</ele><time>2026-04-04T14:15:36Z</time></trkpt><trkpt lat="36.91442478571285" lon="15.031701043087702"><ele>163.0</ele><time>2026-04-04T14:15:38Z</time></trkpt><trkpt lat="36.91444140233827" lon="15.031793418039182"><ele>163.0</ele><time>2026-04-04T14:15:39Z</time></trkpt><trkpt lat="36.91443811728478" lon="15.031912025645463"><ele>163.0</ele><time>2026-04-04T14:15:40Z</time></trkpt><trkpt lat="36.9144618723166" lon="15.032043873861799"><ele>163.0</ele><time>2026-04-04T14:15:41Z</time></trkpt><trkpt lat="36.91448262396156" lon="15.032174819942528"><ele>163.0</ele><time>2026-04-04T14:15:42Z</time></trkpt><trkpt lat="36.9144932876243" lon="15.032308610012372"><ele>163.0</ele><time>2026-04-04T14:15:43Z</time></trkpt><trkpt lat="36.914474201187566" lon="15.032411269608897"><ele>163.0</ele><time>2026-04-04T14:15:44Z</time></trkpt><trkpt lat="36.91441506108096" lon="15.03246467313185"><ele>163.0</ele><time>2026-04-04T14:15:45Z</time></trkpt><trkpt lat="36.91429497088679" lon="15.032541737973867"><ele>163.0</ele><time>2026-04-04T14:15:47Z</time></trkpt><trkpt lat="36.91421711561908" lon="15.03265181737606"><ele>163.0</ele><time>2026-04-04T14:15:48Z</time></trkpt><trkpt lat="36.914116573140845" lon="15.032771288813668"><ele>162.5</ele><time>2026-04-04T14:15:49Z</time></trkpt><trkpt lat="36.91400117330011" lon="15.032889545932914"><ele>162.0</ele><time>2026-04-04T14:15:50Z</time></trkpt><trkpt lat="36.913886351297506" lon="15.032986920112478"><ele>161.5</ele><time>2026-04-04T14:15:51Z</time></trkpt><trkpt lat="36.913760806900804" lon="15.0331107007185"><ele>161.0</ele><time>2026-04-04T14:15:52Z</time></trkpt><trkpt lat="36.913629104394204" lon="15.03330130711651"><ele>163.0</ele><time>2026-04-04T14:15:53Z</time></trkpt><trkpt lat="36.91349394494521" lon="15.033483673882774"><ele>165.0</ele><time>2026-04-04T14:15:54Z</time></trkpt><trkpt lat="36.91334773914229" lon="15.033648663737642"><ele>167.0</ele><time>2026-04-04T14:15:55Z</time></trkpt><trkpt lat="36.91319207787894" lon="15.033810322570101"><ele>167.0</ele><time>2026-04-04T14:15:56Z</time></trkpt><trkpt lat="36.91304290768136" lon="15.033969290764158"><ele>167.0</ele><time>2026-04-04T14:15:57Z</time></trkpt><trkpt lat="36.912923370219296" lon="15.034125731218037"><ele>167.0</ele><time>2026-04-04T14:15:57.999Z</time></trkpt><trkpt lat="36.91280165582393" lon="15.034273750237803"><ele>166.66666666666666</ele><time>2026-04-04T14:15:58.999Z</time></trkpt><trkpt lat="36.91269238393184" lon="15.034441290380348"><ele>166.33333333333334</ele><time>2026-04-04T14:15:59.999Z</time></trkpt><trkpt lat="36.912584852509866" lon="15.034607282002101"><ele>166.0</ele><time>2026-04-04T14:16:00.999Z</time></trkpt><trkpt lat="36.912479278551324" lon="15.034763292755903"><ele>166.0</ele><time>2026-04-04T14:16:01.999Z</time></trkpt><trkpt lat="36.91235561579861" lon="15.034875857795209"><ele>166.0</ele><time>2026-04-04T14:16:02.999Z</time></trkpt><trkpt lat="36.91222944244239" lon="15.034990775925596"><ele>166.0</ele><time>2026-04-04T14:16:03.999Z</time></trkpt><trkpt lat="36.91210914282329" lon="15.035136121825044"><ele>171.0</ele><time>2026-04-04T14:16:04.999Z</time></trkpt><trkpt lat="36.91196916039628" lon="15.035267459145189"><ele>176.0</ele><time>2026-04-04T14:16:05.999Z</time></trkpt><trkpt lat="36.91185629109517" lon="15.035375567791455"><ele>181.0</ele><time>2026-04-04T14:16:06.999Z</time></trkpt><trkpt lat="36.91174738051167" lon="15.035475321695216"><ele>180.25</ele><time>2026-04-04T14:16:07.999Z</time></trkpt><trkpt lat="36.911656169371334" lon="15.0355817054446"><ele>179.5</ele><time>2026-04-04T14:16:08.999Z</time></trkpt><trkpt lat="36.91157043653259" lon="15.035681833498181"><ele>178.75</ele><time>2026-04-04T14:16:09.999Z</time></trkpt><trkpt lat="36.91148786837478" lon="15.03577025463026"><ele>178.0</ele><time>2026-04-04T14:16:10.999Z</time></trkpt><trkpt lat="36.911401361707206" lon="15.035866099235646"><ele>178.0</ele><time>2026-04-04T14:16:11.999Z</time></trkpt><trkpt lat="36.911309831421505" lon="15.035969234593969"><ele>178.0</ele><time>2026-04-04T14:16:12.999Z</time></trkpt><trkpt lat="36.91121544441668" lon="15.036072838319871"><ele>178.0</ele><time>2026-04-04T14:16:13.999Z</time></trkpt><trkpt lat="36.91111819640574" lon="15.036173799859727"><ele>178.0</ele><time>2026-04-04T14:16:14.999Z</time></trkpt><trkpt lat="36.911023239478645" lon="15.036270601735303"><ele>178.0</ele><time>2026-04-04T14:16:15.999Z</time></trkpt><trkpt lat="36.91093967941932" lon="15.036365620381869"><ele>178.0</ele><time>2026-04-04T14:16:16.999Z</time></trkpt><trkpt lat="36.91086002901017" lon="15.03643925517113"><ele>178.0</ele><time>2026-04-04T14:16:17.999Z</time></trkpt><trkpt lat="36.9108026003303" lon="15.03649261698813"><ele>178.0</ele><time>2026-04-04T14:16:18.999Z</time></trkpt><trkpt lat="36.910766550069965" lon="15.036558821966162"><ele>178.0</ele><time>2026-04-04T14:16:26.999Z</time></trkpt><trkpt lat="36.91081603980418" lon="15.036650975036391"><ele>178.0</ele><time>2026-04-04T14:16:28.999Z</time></trkpt><trkpt lat="36.910863594367726" lon="15.036723507890173"><ele>178.0</ele><time>2026-04-04T14:16:30.999Z</time></trkpt><trkpt lat="36.91086513566377" lon="15.036828116966493"><ele>178.0</ele><time>2026-04-04T14:16:32.999Z</time></trkpt><trkpt lat="36.91094734154286" lon="15.036763411360626"><ele>178.0</ele><time>2026-04-04T14:16:36.999Z</time></trkpt><trkpt lat="36.91100728238248" lon="15.036686789947266"><ele>178.0</ele><time>2026-04-04T14:16:38.999Z</time></trkpt><trkpt lat="36.91105221049324" lon="15.036568683324795"><ele>178.0</ele><time>2026-04-04T14:17:10Z</time></trkpt><trkpt lat="36.91112350360231" lon="15.036481782319683"><ele>178.0</ele><time>2026-04-04T14:17:11Z</time></trkpt><trkpt lat="36.911210610309645" lon="15.036389016295518"><ele>178.0</ele><time>2026-04-04T14:17:12Z</time></trkpt><trkpt lat="36.91134121391707" lon="15.036324899919796"><ele>178.0</ele><time>2026-04-04T14:17:13Z</time></trkpt><trkpt lat="36.91148189305144" lon="15.036283324585238"><ele>178.0</ele><time>2026-04-04T14:17:14Z</time></trkpt><trkpt lat="36.91158465184416" lon="15.036195702719095"><ele>178.0</ele><time>2026-04-04T14:17:15Z</time></trkpt><trkpt lat="36.911712528006305" lon="15.036105748952817"><ele>178.0</ele><time>2026-04-04T14:17:16Z</time></trkpt><trkpt lat="36.91184205132436" lon="15.035985477739931"><ele>178.0</ele><time>2026-04-04T14:17:17Z</time></trkpt><trkpt lat="36.91197010801283" lon="15.035857907427134"><ele>178.60000000000002</ele><time>2026-04-04T14:17:18Z</time></trkpt><trkpt lat="36.91207766060311" lon="15.035798452680094"><ele>179.20000000000002</ele><time>2026-04-04T14:17:19Z</time></trkpt><trkpt lat="36.91217259275966" lon="15.035736266348083"><ele>179.8</ele><time>2026-04-04T14:17:20Z</time></trkpt><trkpt lat="36.912243090487955" lon="15.035700548477935"><ele>180.4</ele><time>2026-04-04T14:17:21Z</time></trkpt><trkpt lat="36.91232215758224" lon="15.035678601808572"><ele>181.0</ele><time>2026-04-04T14:17:23Z</time></trkpt><trkpt lat="36.91223793874288" lon="15.035801809531272"><ele>187.5</ele><time>2026-04-04T14:17:26Z</time></trkpt><trkpt lat="36.91216448493404" lon="15.035884976972376"><ele>194.0</ele><time>2026-04-04T14:17:27Z</time></trkpt><trkpt lat="36.912079957113825" lon="15.035992455925292"><ele>200.5</ele><time>2026-04-04T14:17:28Z</time></trkpt><trkpt lat="36.91198633663157" lon="15.036132678050562"><ele>207.0</ele><time>2026-04-04T14:17:29Z</time></trkpt><trkpt lat="36.91188797763519" lon="15.036309781643252"><ele>207.0</ele><time>2026-04-04T14:17:30Z</time></trkpt><trkpt lat="36.91178519774523" lon="15.036493994855359"><ele>207.0</ele><time>2026-04-04T14:17:31Z</time></trkpt><trkpt lat="36.91171123675735" lon="15.036684023955237"><ele>207.0</ele><time>2026-04-04T14:17:32Z</time></trkpt><trkpt lat="36.91166386449734" lon="15.036835479560155"><ele>207.25</ele><time>2026-04-04T14:17:33Z</time></trkpt><trkpt lat="36.91164573068485" lon="15.036992065827235"><ele>207.5</ele><time>2026-04-04T14:17:34Z</time></trkpt><trkpt lat="36.91164381175606" lon="15.037180141962898"><ele>207.75</ele><time>2026-04-04T14:17:35Z</time></trkpt><trkpt lat="36.91166282236165" lon="15.037350733208415"><ele>208.0</ele><time>2026-04-04T14:17:36Z</time></trkpt><trkpt lat="36.91169999441464" lon="15.03749303837307"><ele>215.5</ele><time>2026-04-04T14:17:37Z</time></trkpt><trkpt lat="36.91179662691142" lon="15.037590735433533"><ele>223.0</ele><time>2026-04-04T14:17:38Z</time></trkpt><trkpt lat="36.911908333998845" lon="15.037660702017845"><ele>230.5</ele><time>2026-04-04T14:17:39Z</time></trkpt><trkpt lat="36.91204189255978" lon="15.03771704250586"><ele>238.0</ele><time>2026-04-04T14:17:40Z</time></trkpt><trkpt lat="36.912203673685916" lon="15.037773005934639"><ele>238.0</ele><time>2026-04-04T14:17:41Z</time></trkpt><trkpt lat="36.91238937610063" lon="15.037836621650298"><ele>238.0</ele><time>2026-04-04T14:17:42Z</time></trkpt><trkpt lat="36.912586053569974" lon="15.037900409829213"><ele>238.0</ele><time>2026-04-04T14:17:43Z</time></trkpt><trkpt lat="36.91278096787317" lon="15.037971049538282"><ele>244.0</ele><time>2026-04-04T14:17:44Z</time></trkpt><trkpt lat="36.912971283956146" lon="15.038048600514703"><ele>250.0</ele><time>2026-04-04T14:17:45Z</time></trkpt><trkpt lat="36.913151414084716" lon="15.038172203692334"><ele>256.0</ele><time>2026-04-04T14:17:46Z</time></trkpt><trkpt lat="36.91332219590146" lon="15.038289215676507"><ele>256.66666666666663</ele><time>2026-04-04T14:17:47Z</time></trkpt><trkpt lat="36.91349456521576" lon="15.038371473266901"><ele>257.3333333333333</ele><time>2026-04-04T14:17:48Z</time></trkpt><trkpt lat="36.91367949392221" lon="15.038443100287756"><ele>258.0</ele><time>2026-04-04T14:17:49Z</time></trkpt><trkpt lat="36.913871466412786" lon="15.038498167999709"><ele>258.0</ele><time>2026-04-04T14:17:50Z</time></trkpt><trkpt lat="36.91406231411438" lon="15.038523668620572"><ele>258.0</ele><time>2026-04-04T14:17:51Z</time></trkpt><trkpt lat="36.9142475546574" lon="15.038525698556954"><ele>258.0</ele><time>2026-04-04T14:17:52Z</time></trkpt><trkpt lat="36.91443236602499" lon="15.03854715538218"><ele>263.0</ele><time>2026-04-04T14:17:53Z</time></trkpt><trkpt lat="36.91462455335934" lon="15.0385541574431"><ele>268.0</ele><time>2026-04-04T14:17:54Z</time></trkpt><trkpt lat="36.914800804333424" lon="15.0385888443699"><ele>273.0</ele><time>2026-04-04T14:17:55Z</time></trkpt><trkpt lat="36.91493878536446" lon="15.038633914453694"><ele>273.0</ele><time>2026-04-04T14:17:56Z</time></trkpt><trkpt lat="36.9150743699857" lon="15.038651348914653"><ele>273.0</ele><time>2026-04-04T14:17:57Z</time></trkpt><trkpt lat="36.91518670830659" lon="15.038630458778352"><ele>273.0</ele><time>2026-04-04T14:17:58Z</time></trkpt><trkpt lat="36.91529694321637" lon="15.038621135183755"><ele>273.0</ele><time>2026-04-04T14:17:59Z</time></trkpt><trkpt lat="36.91541870981051" lon="15.038584911444898"><ele>273.0</ele><time>2026-04-04T14:18:00Z</time></trkpt><trkpt lat="36.915530879056504" lon="15.03862688159762"><ele>273.0</ele><time>2026-04-04T14:18:00.999Z</time></trkpt><trkpt lat="36.91597281691982" lon="15.038926828558052"><ele>308.0</ele><time>2026-04-04T14:18:01.999Z</time></trkpt><trkpt lat="36.91670339020416" lon="15.038062474944073"><ele>312.75</ele><time>2026-04-04T14:18:06.999Z</time></trkpt><trkpt lat="36.91685116047245" lon="15.038047980262935"><ele>317.5</ele><time>2026-04-04T14:18:07.999Z</time></trkpt><trkpt lat="36.916971709782764" lon="15.038061059314051"><ele>322.25</ele><time>2026-04-04T14:18:08.999Z</time></trkpt><trkpt lat="36.91708159731116" lon="15.038083867807563"><ele>327.0</ele><time>2026-04-04T14:18:09.999Z</time></trkpt><trkpt lat="36.917162497687656" lon="15.038143575084128"><ele>327.0</ele><time>2026-04-04T14:18:10.999Z</time></trkpt><trkpt lat="36.917253243076914" lon="15.038262326642597"><ele>327.0</ele><time>2026-04-04T14:18:11.999Z</time></trkpt><trkpt lat="36.91736995522618" lon="15.038408825598918"><ele>327.0</ele><time>2026-04-04T14:18:12.999Z</time></trkpt><trkpt lat="36.917497864264426" lon="15.038534315966881"><ele>329.5</ele><time>2026-04-04T14:18:13.999Z</time></trkpt><trkpt lat="36.91762590738391" lon="15.03865268846501"><ele>332.0</ele><time>2026-04-04T14:18:14.999Z</time></trkpt><trkpt lat="36.91773207481927" lon="15.038776535095703"><ele>334.5</ele><time>2026-04-04T14:18:15.999Z</time></trkpt><trkpt lat="36.91782282688827" lon="15.038878219556224"><ele>337.0</ele><time>2026-04-04T14:18:16.999Z</time></trkpt><trkpt lat="36.9179077053903" lon="15.038955709080229"><ele>337.0</ele><time>2026-04-04T14:18:17.999Z</time></trkpt><trkpt lat="36.91797123334825" lon="15.039007447509338"><ele>337.0</ele><time>2026-04-04T14:18:18.999Z</time></trkpt><trkpt lat="36.91806157746006" lon="15.039085475759912"><ele>337.0</ele><time>2026-04-04T14:18:20.999Z</time></trkpt><trkpt lat="36.91814867878177" lon="15.039153092724991"><ele>337.0</ele><time>2026-04-04T14:18:22.999Z</time></trkpt><trkpt lat="36.918241430681626" lon="15.039203564844941"><ele>337.0</ele><time>2026-04-04T14:18:24.999Z</time></trkpt><trkpt lat="36.91829438366234" lon="15.039272096551278"><ele>333.5</ele><time>2026-04-04T14:18:27.999Z</time></trkpt><trkpt lat="36.91832021166379" lon="15.039386994810336"><ele>330.0</ele><time>2026-04-04T14:18:28.999Z</time></trkpt><trkpt lat="36.91832794971553" lon="15.039471305237019"><ele>326.5</ele><time>2026-04-04T14:18:30.999Z</time></trkpt><trkpt lat="36.9183797117578" lon="15.039418780382364"><ele>323.0</ele><time>2026-04-04T14:18:57.999Z</time></trkpt><trkpt lat="36.91842937891203" lon="15.039468662456898"><ele>319.5</ele><time>2026-04-04T14:19:21Z</time></trkpt><trkpt lat="36.91851990929927" lon="15.039529796749584"><ele>316.0</ele><time>2026-04-04T14:20:17.999Z</time></trkpt><trkpt lat="36.9185913542221" lon="15.039566811784477"><ele>316.0</ele><time>2026-04-04T14:20:18.999Z</time></trkpt><trkpt lat="36.918651062879604" lon="15.039598364316006"><ele>316.0</ele><time>2026-04-04T14:20:19.999Z</time></trkpt><trkpt lat="36.918746382611396" lon="15.039680175076816"><ele>316.0</ele><time>2026-04-04T14:20:21.999Z</time></trkpt><trkpt lat="36.918805594962144" lon="15.039724561503743"><ele>316.0</ele><time>2026-04-04T14:20:22.999Z</time></trkpt><trkpt lat="36.91890904271562" lon="15.039809652120791"><ele>316.0</ele><time>2026-04-04T14:20:24.999Z</time></trkpt><trkpt lat="36.91895975217897" lon="15.039892630524902"><ele>313.8</ele><time>2026-04-04T14:20:25.999Z</time></trkpt><trkpt lat="36.91903253821514" lon="15.03998110987175"><ele>311.6</ele><time>2026-04-04T14:20:26.999Z</time></trkpt><trkpt lat="36.919098647644525" lon="15.040055559281134"><ele>309.4</ele><time>2026-04-04T14:20:27.999Z</time></trkpt><trkpt lat="36.919161535910476" lon="15.040106910791408"><ele>307.2</ele><time>2026-04-04T14:20:28.999Z</time></trkpt><trkpt lat="36.91924283678819" lon="15.040154598536704"><ele>305.0</ele><time>2026-04-04T14:20:29.999Z</time></trkpt><trkpt lat="36.919337750571884" lon="15.040198737133634"><ele>305.0</ele><time>2026-04-04T14:20:30.999Z</time></trkpt><trkpt lat="36.91943231677779" lon="15.04024133145896"><ele>305.0</ele><time>2026-04-04T14:20:31.999Z</time></trkpt><trkpt lat="36.91949727383811" lon="15.040285038860176"><ele>305.0</ele><time>2026-04-04T14:20:32.999Z</time></trkpt><trkpt lat="36.91957307269755" lon="15.040318984803575"><ele>305.0</ele><time>2026-04-04T14:20:33.999Z</time></trkpt><trkpt lat="36.919646381744435" lon="15.040378528475669"><ele>305.0</ele><time>2026-04-04T14:20:34.999Z</time></trkpt><trkpt lat="36.91970511856275" lon="15.040441043525204"><ele>305.0</ele><time>2026-04-04T14:20:35.999Z</time></trkpt><trkpt lat="36.91975942207959" lon="15.040494957510797"><ele>305.0</ele><time>2026-04-04T14:20:36.999Z</time></trkpt><trkpt lat="36.919808255765176" lon="15.040559837158147"><ele>305.0</ele><time>2026-04-04T14:20:37.999Z</time></trkpt><trkpt lat="36.919863094400625" lon="15.040642375436647"><ele>305.0</ele><time>2026-04-04T14:20:38.999Z</time></trkpt><trkpt lat="36.919914153872256" lon="15.040701644761295"><ele>305.0</ele><time>2026-04-04T14:20:39.999Z</time></trkpt><trkpt lat="36.92000832350115" lon="15.040778696224148"><ele>305.0</ele><time>2026-04-04T14:20:41.999Z</time></trkpt><trkpt lat="36.920014560617275" lon="15.04086690533534"><ele>305.0</ele><time>2026-04-04T14:20:44.999Z</time></trkpt><trkpt lat="36.919926752749674" lon="15.040929100536935"><ele>299.0</ele><time>2026-04-04T14:20:46.999Z</time></trkpt><trkpt lat="36.91986343044464" lon="15.040938236595608"><ele>293.0</ele><time>2026-04-04T14:20:47.999Z</time></trkpt><trkpt lat="36.919804075081444" lon="15.040967317475399"><ele>287.0</ele><time>2026-04-04T14:20:48.999Z</time></trkpt><trkpt lat="36.91975012061162" lon="15.041025961648842"><ele>281.0</ele><time>2026-04-04T14:20:49.999Z</time></trkpt><trkpt lat="36.91971462001996" lon="15.041102235187333"><ele>275.0</ele><time>2026-04-04T14:20:50.999Z</time></trkpt><trkpt lat="36.91971148116447" lon="15.041228013547062"><ele>269.0</ele><time>2026-04-04T14:20:52.999Z</time></trkpt><trkpt lat="36.91962825496059" lon="15.041232606855802"><ele>269.0</ele><time>2026-04-04T14:20:54.999Z</time></trkpt><trkpt lat="36.9195551732013" lon="15.041219690586628"><ele>269.0</ele><time>2026-04-04T14:20:55.999Z</time></trkpt><trkpt lat="36.919483269741484" lon="15.041204526291146"><ele>269.0</ele><time>2026-04-04T14:20:56.999Z</time></trkpt><trkpt lat="36.919448173975574" lon="15.041296769276943"><ele>269.0</ele><time>2026-04-04T14:20:58.999Z</time></trkpt><trkpt lat="36.91945425053" lon="15.041391465976782"><ele>269.0</ele><time>2026-04-04T14:21:00.999Z</time></trkpt><trkpt lat="36.91947513531844" lon="15.041473516066272"><ele>269.0</ele><time>2026-04-04T14:21:02.999Z</time></trkpt><trkpt lat="36.9193902207563" lon="15.041516526998937"><ele>269.0</ele><time>2026-04-04T14:21:04.999Z</time></trkpt><trkpt lat="36.91931630524257" lon="15.041530875787041"><ele>269.0</ele><time>2026-04-04T14:21:07Z</time></trkpt><trkpt lat="36.91923040652382" lon="15.041602935129639"><ele>269.0</ele><time>2026-04-04T14:21:09Z</time></trkpt><trkpt lat="36.9192036106221" lon="15.04172533953462"><ele>269.0</ele><time>2026-04-04T14:21:11Z</time></trkpt><trkpt lat="36.919240887272245" lon="15.04183265335393"><ele>269.0</ele><time>2026-04-04T14:21:14Z</time></trkpt><trkpt lat="36.91930806664627" lon="15.041931377264348"><ele>264.4</ele><time>2026-04-04T14:21:16Z</time></trkpt><trkpt lat="36.91934813422929" lon="15.04199801318189"><ele>259.79999999999995</ele><time>2026-04-04T14:21:18Z</time></trkpt><trkpt lat="36.91941286078825" lon="15.042023812324405"><ele>255.20000000000002</ele><time>2026-04-04T14:21:22Z</time></trkpt><trkpt lat="36.91953726046556" lon="15.042028669924438"><ele>250.60000000000002</ele><time>2026-04-04T14:21:25Z</time></trkpt><trkpt lat="36.91964788831612" lon="15.042051529971609"><ele>246.0</ele><time>2026-04-04T14:21:26Z</time></trkpt><trkpt lat="36.91973179936551" lon="15.042068789193163"><ele>246.0</ele><time>2026-04-04T14:21:27Z</time></trkpt><trkpt lat="36.919811835391194" lon="15.042109251754388"><ele>246.0</ele><time>2026-04-04T14:21:29Z</time></trkpt><trkpt lat="36.91979143615475" lon="15.042193702993163"><ele>246.0</ele><time>2026-04-04T14:21:31Z</time></trkpt><trkpt lat="36.91969067889492" lon="15.04223070049078"><ele>246.0</ele><time>2026-04-04T14:21:33Z</time></trkpt><trkpt lat="36.919591647278594" lon="15.042289192644882"><ele>246.0</ele><time>2026-04-04T14:21:35Z</time></trkpt><trkpt lat="36.9195489771503" lon="15.042368088966427"><ele>246.0</ele><time>2026-04-04T14:21:37Z</time></trkpt><trkpt lat="36.91961092756847" lon="15.042405146714266"><ele>246.0</ele><time>2026-04-04T14:21:40Z</time></trkpt><trkpt lat="36.91972165939508" lon="15.042450390034094"><ele>246.00000000000003</ele><time>2026-04-04T14:21:42Z</time></trkpt><trkpt lat="36.91978451305509" lon="15.042475644017173"><ele>246.00000000000003</ele><time>2026-04-04T14:21:43Z</time></trkpt><trkpt lat="36.919906088387705" lon="15.042493782102111"><ele>246.0</ele><time>2026-04-04T14:21:45Z</time></trkpt><trkpt lat="36.92001856650925" lon="15.042498020343253"><ele>246.0</ele><time>2026-04-04T14:21:47Z</time></trkpt><trkpt lat="36.92010127973249" lon="15.042522311566657"><ele>241.33333333333334</ele><time>2026-04-04T14:21:49Z</time></trkpt><trkpt lat="36.92018042850642" lon="15.042544134314218"><ele>236.66666666666669</ele><time>2026-04-04T14:21:51Z</time></trkpt><trkpt lat="36.920299590538946" lon="15.042552287245087"><ele>232.0</ele><time>2026-04-04T14:21:53Z</time></trkpt><trkpt lat="36.92037331660953" lon="15.042528743138105"><ele>227.33333333333334</ele><time>2026-04-04T14:21:55Z</time></trkpt><trkpt lat="36.9204276396264" lon="15.042468334351724"><ele>222.66666666666669</ele><time>2026-04-04T14:21:57Z</time></trkpt><trkpt lat="36.920463339470004" lon="15.0425357240331"><ele>218.0</ele><time>2026-04-04T14:22:04Z</time></trkpt><trkpt lat="36.92040500838638" lon="15.04258295039596"><ele>218.00000000000003</ele><time>2026-04-04T14:22:07Z</time></trkpt><trkpt lat="36.92040219060375" lon="15.04267769400558"><ele>218.0</ele><time>2026-04-04T14:22:14.999Z</time></trkpt><trkpt lat="36.92048858820761" lon="15.042691709954603"><ele>218.0</ele><time>2026-04-04T14:22:18.999Z</time></trkpt><trkpt lat="36.92055711389242" lon="15.042696313817734"><ele>218.0</ele><time>2026-04-04T14:22:21.999Z</time></trkpt><trkpt lat="36.92059976444105" lon="15.04279635760812"><ele>218.00000000000003</ele><time>2026-04-04T14:22:25.999Z</time></trkpt><trkpt lat="36.92060787255817" lon="15.042885176588758"><ele>218.0</ele><time>2026-04-04T14:22:28.999Z</time></trkpt><trkpt lat="36.92062661023176" lon="15.04296640326374"><ele>218.00000000000003</ele><time>2026-04-04T14:22:30.999Z</time></trkpt><trkpt lat="36.92070083762048" lon="15.043015637201718"><ele>218.0</ele><time>2026-04-04T14:22:34.999Z</time></trkpt><trkpt lat="36.92075342266465" lon="15.043077942786654"><ele>218.0</ele><time>2026-04-04T14:22:37.999Z</time></trkpt><trkpt lat="36.92077554813427" lon="15.043184879433316"><ele>218.0</ele><time>2026-04-04T14:22:40.999Z</time></trkpt><trkpt lat="36.92071896213" lon="15.043287072610896"><ele>218.00000000000003</ele><time>2026-04-04T14:22:42.999Z</time></trkpt><trkpt lat="36.92066175260877" lon="15.04333794141275"><ele>218.0</ele><time>2026-04-04T14:22:43.999Z</time></trkpt><trkpt lat="36.92059918783522" lon="15.043392455074974"><ele>215.33333333333334</ele><time>2026-04-04T14:22:44.999Z</time></trkpt><trkpt lat="36.92053679897487" lon="15.043503529594448"><ele>212.66666666666669</ele><time>2026-04-04T14:22:46.999Z</time></trkpt><trkpt lat="36.92052958264551" lon="15.043592443443638"><ele>210.0</ele><time>2026-04-04T14:22:48.999Z</time></trkpt><trkpt lat="36.92047173008051" lon="15.043649674288213"><ele>207.33333333333331</ele><time>2026-04-04T14:22:51.999Z</time></trkpt><trkpt lat="36.92052410056162" lon="15.043695789203426"><ele>204.66666666666666</ele><time>2026-04-04T14:22:55.999Z</time></trkpt><trkpt lat="36.9205933358447" lon="15.043714212872375"><ele>202.0</ele><time>2026-04-04T14:22:59.999Z</time></trkpt><trkpt lat="36.920686166016196" lon="15.04367154080646"><ele>201.99999999999997</ele><time>2026-04-04T14:23:02.999Z</time></trkpt><trkpt lat="36.920760616308925" lon="15.043616537171552"><ele>202.0</ele><time>2026-04-04T14:23:05.999Z</time></trkpt><trkpt lat="36.9208226764597" lon="15.043546775060493"><ele>202.0</ele><time>2026-04-04T14:23:25Z</time></trkpt><trkpt lat="36.92087217328059" lon="15.043472697801398"><ele>202.0</ele><time>2026-04-04T14:23:28Z</time></trkpt><trkpt lat="36.92092473067605" lon="15.04341791491651"><ele>201.99999999999997</ele><time>2026-04-04T14:23:32Z</time></trkpt><trkpt lat="36.92097584281802" lon="15.043366476383166"><ele>202.0</ele><time>2026-04-04T14:23:35Z</time></trkpt><trkpt lat="36.92103812930297" lon="15.043309105300951"><ele>203.8</ele><time>2026-04-04T14:23:39Z</time></trkpt><trkpt lat="36.92105917004503" lon="15.043233814646955"><ele>205.6</ele><time>2026-04-04T14:23:41Z</time></trkpt><trkpt lat="36.92114054727459" lon="15.04316593167957"><ele>207.4</ele><time>2026-04-04T14:23:45Z</time></trkpt><trkpt lat="36.9211573450231" lon="15.043045583652109"><ele>209.20000000000002</ele><time>2026-04-04T14:23:47Z</time></trkpt><trkpt lat="36.92124736805016" lon="15.042902277596967"><ele>211.0</ele><time>2026-04-04T14:23:49Z</time></trkpt><trkpt lat="36.92130950738147" lon="15.04281037846711"><ele>210.99999999999997</ele><time>2026-04-04T14:23:51Z</time></trkpt><trkpt lat="36.9213482201641" lon="15.042746827129074"><ele>211.0</ele><time>2026-04-04T14:23:54Z</time></trkpt><trkpt lat="36.92144429636748" lon="15.04277624993549"><ele>211.0</ele><time>2026-04-04T14:24:35.999Z</time></trkpt><trkpt lat="36.92152366342778" lon="15.042749300956533"><ele>211.0</ele><time>2026-04-04T14:24:38.999Z</time></trkpt><trkpt lat="36.921620625651734" lon="15.042714377868979"><ele>210.99999999999997</ele><time>2026-04-04T14:24:40.999Z</time></trkpt><trkpt lat="36.92168923817184" lon="15.042685057143206"><ele>211.0</ele><time>2026-04-04T14:24:42.999Z</time></trkpt><trkpt lat="36.921758716699955" lon="15.04266303609378"><ele>212.33333333333331</ele><time>2026-04-04T14:24:44.999Z</time></trkpt><trkpt lat="36.92184081902953" lon="15.042665099585673"><ele>213.66666666666666</ele><time>2026-04-04T14:24:47.999Z</time></trkpt><trkpt lat="36.92189550317909" lon="15.04260702052528"><ele>215.0</ele><time>2026-04-04T14:25:04.999Z</time></trkpt><trkpt lat="36.9219864784117" lon="15.042576843490176"><ele>216.33333333333331</ele><time>2026-04-04T14:25:07.999Z</time></trkpt><trkpt lat="36.922052847374566" lon="15.042620451275727"><ele>217.66666666666666</ele><time>2026-04-04T14:25:10.999Z</time></trkpt><trkpt lat="36.92212270963739" lon="15.04268951167929"><ele>219.0</ele><time>2026-04-04T14:25:14.999Z</time></trkpt><trkpt lat="36.92220621435839" lon="15.04265443017492"><ele>219.0</ele><time>2026-04-04T14:25:17.999Z</time></trkpt><trkpt lat="36.922310645011855" lon="15.042666870647736"><ele>219.0</ele><time>2026-04-04T14:25:20Z</time></trkpt><trkpt lat="36.92237596051061" lon="15.042699883197344"><ele>219.0</ele><time>2026-04-04T14:25:22Z</time></trkpt><trkpt lat="36.92247178463105" lon="15.04273921885255"><ele>219.0</ele><time>2026-04-04T14:25:24Z</time></trkpt><trkpt lat="36.92255771901976" lon="15.042753218924096"><ele>219.0</ele><time>2026-04-04T14:25:27Z</time></trkpt><trkpt lat="36.922637676195336" lon="15.04275752038733"><ele>219.0</ele><time>2026-04-04T14:25:30Z</time></trkpt><trkpt lat="36.92270287201029" lon="15.042806667615158"><ele>219.71428571428572</ele><time>2026-04-04T14:25:33Z</time></trkpt><trkpt lat="36.92272046900647" lon="15.042890563220634"><ele>220.42857142857142</ele><time>2026-04-04T14:25:39Z</time></trkpt><trkpt lat="36.92265243780788" lon="15.042937267686229"><ele>221.14285714285714</ele><time>2026-04-04T14:25:42Z</time></trkpt><trkpt lat="36.922617951141724" lon="15.043004263382768"><ele>221.85714285714286</ele><time>2026-04-04T14:25:45Z</time></trkpt><trkpt lat="36.92256724926016" lon="15.04305678422316"><ele>222.57142857142856</ele><time>2026-04-04T14:25:49Z</time></trkpt><trkpt lat="36.922617321148216" lon="15.04312269553757"><ele>223.28571428571428</ele><time>2026-04-04T14:25:53Z</time></trkpt><trkpt lat="36.92266401370313" lon="15.043187840558724"><ele>224.0</ele><time>2026-04-04T14:25:57Z</time></trkpt><trkpt lat="36.922637956631085" lon="15.043259960769893"><ele>224.0</ele><time>2026-04-04T14:26:00Z</time></trkpt><trkpt lat="36.92257422980682" lon="15.043285619793108"><ele>224.0</ele><time>2026-04-04T14:26:02Z</time></trkpt><trkpt lat="36.92254796577327" lon="15.04338615520919"><ele>224.0</ele><time>2026-04-04T14:26:08Z</time></trkpt><trkpt lat="36.92249877429231" lon="15.043443600987553"><ele>224.0</ele><time>2026-04-04T14:26:11Z</time></trkpt><trkpt lat="36.92249654588566" lon="15.043531512259245"><ele>224.0</ele><time>2026-04-04T14:26:14Z</time></trkpt><trkpt lat="36.92256478502541" lon="15.043573408404406"><ele>224.0</ele><time>2026-04-04T14:26:16.999Z</time></trkpt><trkpt lat="36.92263190742499" lon="15.043586440043324"><ele>224.0</ele><time>2026-04-04T14:30:04Z</time></trkpt><trkpt lat="36.92273391899591" lon="15.043613007960339"><ele>230.00000000000003</ele><time>2026-04-04T14:30:06Z</time></trkpt><trkpt lat="36.92282279747674" lon="15.04363027598522"><ele>236.0</ele><time>2026-04-04T14:30:09Z</time></trkpt><trkpt lat="36.922894537987354" lon="15.043638317723131"><ele>242.0</ele><time>2026-04-04T14:30:11Z</time></trkpt><trkpt lat="36.92297800323726" lon="15.04364580928173"><ele>248.0</ele><time>2026-04-04T14:30:13Z</time></trkpt><trkpt lat="36.923069859602535" lon="15.043642316522627"><ele>254.00000000000003</ele><time>2026-04-04T14:30:15Z</time></trkpt><trkpt lat="36.923146661574336" lon="15.043619380707659"><ele>260.0</ele><time>2026-04-04T14:30:17Z</time></trkpt><trkpt lat="36.92324514878339" lon="15.043565173959248"><ele>260.0</ele><time>2026-04-04T14:30:19Z</time></trkpt><trkpt lat="36.92332567279747" lon="15.04355398297451"><ele>260.0</ele><time>2026-04-04T14:30:20.999Z</time></trkpt><trkpt lat="36.923446450460595" lon="15.043523034849542"><ele>260.0</ele><time>2026-04-04T14:30:22.999Z</time></trkpt><trkpt lat="36.92356187063544" lon="15.043511771356497"><ele>260.0</ele><time>2026-04-04T14:30:24.999Z</time></trkpt><trkpt lat="36.923675538044115" lon="15.043487889996003"><ele>260.0</ele><time>2026-04-04T14:30:26.999Z</time></trkpt><trkpt lat="36.923769373134014" lon="15.04344465989668"><ele>261.1666666666667</ele><time>2026-04-04T14:30:28.999Z</time></trkpt><trkpt lat="36.92386735395879" lon="15.043447140128608"><ele>262.33333333333337</ele><time>2026-04-04T14:30:30.999Z</time></trkpt><trkpt lat="36.923939899941765" lon="15.04346618794858"><ele>263.5</ele><time>2026-04-04T14:30:34.999Z</time></trkpt><trkpt lat="36.9240293072689" lon="15.043460587402583"><ele>264.6666666666667</ele><time>2026-04-04T14:30:35.999Z</time></trkpt><trkpt lat="36.92410747768897" lon="15.043484860328766"><ele>265.8333333333333</ele><time>2026-04-04T14:30:37.999Z</time></trkpt><trkpt lat="36.92420090729605" lon="15.043480656357305"><ele>267.0</ele><time>2026-04-04T14:30:39.999Z</time></trkpt><trkpt lat="36.92426587848773" lon="15.043499847394111"><ele>269.6666666666667</ele><time>2026-04-04T14:30:42.999Z</time></trkpt><trkpt lat="36.924335733902595" lon="15.04355594455539"><ele>272.3333333333333</ele><time>2026-04-04T14:30:45.999Z</time></trkpt><trkpt lat="36.92441407190068" lon="15.043536435918277"><ele>275.0</ele><time>2026-04-04T14:30:47.999Z</time></trkpt><trkpt lat="36.92450379466278" lon="15.043532524989368"><ele>277.66666666666663</ele><time>2026-04-04T14:30:49.999Z</time></trkpt><trkpt lat="36.92456728074725" lon="15.043585959433834"><ele>280.3333333333333</ele><time>2026-04-04T14:30:52.999Z</time></trkpt><trkpt lat="36.92462839964939" lon="15.043616451690669"><ele>283.0</ele><time>2026-04-04T14:30:54.999Z</time></trkpt><trkpt lat="36.924692161709274" lon="15.043616825652718"><ele>283.0</ele><time>2026-04-04T14:30:56.999Z</time></trkpt><trkpt lat="36.92476804859858" lon="15.043640501152451"><ele>283.0</ele><time>2026-04-04T14:30:58.999Z</time></trkpt><trkpt lat="36.924830974215894" lon="15.04362908182387"><ele>283.0</ele><time>2026-04-04T14:31:00.999Z</time></trkpt><trkpt lat="36.924890514426" lon="15.04367299832215"><ele>283.0</ele><time>2026-04-04T14:31:04.999Z</time></trkpt><trkpt lat="36.92497963491871" lon="15.043673357005094"><ele>283.0</ele><time>2026-04-04T14:31:07.999Z</time></trkpt><trkpt lat="36.92503157463304" lon="15.043729381026331"><ele>283.0</ele><time>2026-04-04T14:31:10.999Z</time></trkpt><trkpt lat="36.92496351021048" lon="15.043808712898635"><ele>283.0</ele><time>2026-04-04T14:31:13.999Z</time></trkpt><trkpt lat="36.924934335341995" lon="15.043883216589709"><ele>283.0</ele><time>2026-04-04T14:31:16.999Z</time></trkpt><trkpt lat="36.92488156778538" lon="15.04398681816844"><ele>283.0</ele><time>2026-04-04T14:31:19.999Z</time></trkpt><trkpt lat="36.9248225450302" lon="15.044078585893816"><ele>283.0</ele><time>2026-04-04T14:31:21.999Z</time></trkpt><trkpt lat="36.92471248620874" lon="15.044143300202421"><ele>283.0</ele><time>2026-04-04T14:31:22.999Z</time></trkpt><trkpt lat="36.924633917232285" lon="15.044199381957618"><ele>289.8333333333333</ele><time>2026-04-04T14:31:24.999Z</time></trkpt><trkpt lat="36.92458529225798" lon="15.04426350253616"><ele>296.66666666666663</ele><time>2026-04-04T14:31:26.999Z</time></trkpt><trkpt lat="36.92452385312723" lon="15.044339799276152"><ele>303.5</ele><time>2026-04-04T14:31:28.999Z</time></trkpt><trkpt lat="36.92444173829843" lon="15.044389646900077"><ele>310.3333333333333</ele><time>2026-04-04T14:31:30.999Z</time></trkpt><trkpt lat="36.92438014280531" lon="15.044475853475896"><ele>317.1666666666667</ele><time>2026-04-04T14:31:32.999Z</time></trkpt><trkpt lat="36.92435098664082" lon="15.044572172290973"><ele>324.0</ele><time>2026-04-04T14:31:34.999Z</time></trkpt><trkpt lat="36.92431794942186" lon="15.044656762495677"><ele>324.0</ele><time>2026-04-04T14:31:37Z</time></trkpt><trkpt lat="36.92431440429913" lon="15.044760464588808"><ele>324.0</ele><time>2026-04-04T14:31:40Z</time></trkpt><trkpt lat="36.924263521283386" lon="15.044835193494523"><ele>324.0</ele><time>2026-04-04T14:31:42Z</time></trkpt><trkpt lat="36.9242555869254" lon="15.044944772154128"><ele>324.0</ele><time>2026-04-04T14:31:45Z</time></trkpt><trkpt lat="36.92425247175357" lon="15.045060380245342"><ele>324.0</ele><time>2026-04-04T14:31:49Z</time></trkpt><trkpt lat="36.924212149204934" lon="15.04513820501492"><ele>324.0</ele><time>2026-04-04T14:33:31.999Z</time></trkpt><trkpt lat="36.924200978175605" lon="15.04526215580086"><ele>326.0</ele><time>2026-04-04T14:33:33.999Z</time></trkpt><trkpt lat="36.92413489343449" lon="15.045386018103986"><ele>328.0</ele><time>2026-04-04T14:33:35.999Z</time></trkpt><trkpt lat="36.924072333199774" lon="15.04551387225088"><ele>330.0</ele><time>2026-04-04T14:33:37.999Z</time></trkpt><trkpt lat="36.92402104358501" lon="15.045575046755692"><ele>332.0</ele><time>2026-04-04T14:33:38.999Z</time></trkpt><trkpt lat="36.92395490744435" lon="15.045638171045358"><ele>334.0</ele><time>2026-04-04T14:33:39.999Z</time></trkpt><trkpt lat="36.92385845745141" lon="15.045713644240744"><ele>334.0</ele><time>2026-04-04T14:33:40.999Z</time></trkpt><trkpt lat="36.92375787864435" lon="15.045793138952272"><ele>334.0</ele><time>2026-04-04T14:33:41.999Z</time></trkpt><trkpt lat="36.92367044826757" lon="15.045860857693183"><ele>334.0</ele><time>2026-04-04T14:33:43Z</time></trkpt><trkpt lat="36.92359184723828" lon="15.045896424174387"><ele>334.0</ele><time>2026-04-04T14:33:44Z</time></trkpt><trkpt lat="36.92351051385323" lon="15.045916357010519"><ele>334.0</ele><time>2026-04-04T14:33:45Z</time></trkpt><trkpt lat="36.92344368296422" lon="15.04591187919396"><ele>335.0</ele><time>2026-04-04T14:33:46Z</time></trkpt><trkpt lat="36.92335729246043" lon="15.045865859718043"><ele>336.0</ele><time>2026-04-04T14:33:48Z</time></trkpt><trkpt lat="36.92326413440227" lon="15.045847221391496"><ele>337.0</ele><time>2026-04-04T14:33:50Z</time></trkpt><trkpt lat="36.92319104759655" lon="15.045871891056663"><ele>338.0</ele><time>2026-04-04T14:33:52Z</time></trkpt><trkpt lat="36.92318140456477" lon="15.045953537620832"><ele>339.0</ele><time>2026-04-04T14:33:56Z</time></trkpt><trkpt lat="36.92325024581006" lon="15.046050756029464"><ele>340.0</ele><time>2026-04-04T14:36:05Z</time></trkpt><trkpt lat="36.92331372622658" lon="15.046107405044966"><ele>340.75</ele><time>2026-04-04T14:36:06Z</time></trkpt><trkpt lat="36.92341079761278" lon="15.046149219547017"><ele>341.5</ele><time>2026-04-04T14:36:07Z</time></trkpt><trkpt lat="36.92350818211712" lon="15.046215499516308"><ele>342.25</ele><time>2026-04-04T14:36:08Z</time></trkpt><trkpt lat="36.92362747243118" lon="15.04625113114375"><ele>343.0</ele><time>2026-04-04T14:36:09Z</time></trkpt><trkpt lat="36.92377149545638" lon="15.046275360837233"><ele>343.0</ele><time>2026-04-04T14:36:10Z</time></trkpt><trkpt lat="36.92393779388187" lon="15.046304173845687"><ele>343.0</ele><time>2026-04-04T14:36:11Z</time></trkpt><trkpt lat="36.924084516746326" lon="15.046337434646098"><ele>343.0</ele><time>2026-04-04T14:36:12Z</time></trkpt><trkpt lat="36.92420625871687" lon="15.046362103732227"><ele>343.0</ele><time>2026-04-04T14:36:13Z</time></trkpt><trkpt lat="36.92433080877743" lon="15.04638495930783"><ele>343.25</ele><time>2026-04-04T14:36:14Z</time></trkpt><trkpt lat="36.9244568814232" lon="15.046412717902596"><ele>343.5</ele><time>2026-04-04T14:36:15Z</time></trkpt><trkpt lat="36.92459086408473" lon="15.046458486200466"><ele>343.75</ele><time>2026-04-04T14:36:16Z</time></trkpt><trkpt lat="36.924752371542574" lon="15.046516090792586"><ele>344.0</ele><time>2026-04-04T14:36:17Z</time></trkpt><trkpt lat="36.92491139636761" lon="15.046575714035734"><ele>337.25</ele><time>2026-04-04T14:36:18Z</time></trkpt><trkpt lat="36.925049129715646" lon="15.046636697004702"><ele>330.5</ele><time>2026-04-04T14:36:19Z</time></trkpt><trkpt lat="36.92517478733077" lon="15.046702653902484"><ele>323.75</ele><time>2026-04-04T14:36:20Z</time></trkpt><trkpt lat="36.925291983727945" lon="15.046772696792734"><ele>317.0</ele><time>2026-04-04T14:36:21Z</time></trkpt><trkpt lat="36.925407763517114" lon="15.046830056494217"><ele>316.75</ele><time>2026-04-04T14:36:22Z</time></trkpt><trkpt lat="36.92552419983089" lon="15.046872094685765"><ele>316.5</ele><time>2026-04-04T14:36:23Z</time></trkpt><trkpt lat="36.92563686934798" lon="15.046910180119342"><ele>316.25</ele><time>2026-04-04T14:36:24Z</time></trkpt><trkpt lat="36.92574927552586" lon="15.046935575717134"><ele>316.0</ele><time>2026-04-04T14:36:25Z</time></trkpt><trkpt lat="36.925871823475966" lon="15.046962559714846"><ele>312.75</ele><time>2026-04-04T14:36:26Z</time></trkpt><trkpt lat="36.92600250600034" lon="15.046988957981512"><ele>309.5</ele><time>2026-04-04T14:36:27Z</time></trkpt><trkpt lat="36.92612886782807" lon="15.047002226535072"><ele>306.25</ele><time>2026-04-04T14:36:27.999Z</time></trkpt><trkpt lat="36.92624746140152" lon="15.04699880207351"><ele>303.0</ele><time>2026-04-04T14:36:28.999Z</time></trkpt><trkpt lat="36.926359065123165" lon="15.046979495749719"><ele>303.0</ele><time>2026-04-04T14:36:29.999Z</time></trkpt><trkpt lat="36.926471118548186" lon="15.04694488441912"><ele>303.0</ele><time>2026-04-04T14:36:30.999Z</time></trkpt><trkpt lat="36.92658895549873" lon="15.046902922729325"><ele>303.0</ele><time>2026-04-04T14:36:31.999Z</time></trkpt><trkpt lat="36.92672125549496" lon="15.046861223061862"><ele>303.0</ele><time>2026-04-04T14:36:32.999Z</time></trkpt><trkpt lat="36.92684877339103" lon="15.046827959545839"><ele>301.0</ele><time>2026-04-04T14:36:33.999Z</time></trkpt><trkpt lat="36.92697298932086" lon="15.04680833805777"><ele>299.0</ele><time>2026-04-04T14:36:34.999Z</time></trkpt><trkpt lat="36.92709087924737" lon="15.046795931027154"><ele>297.0</ele><time>2026-04-04T14:36:35.999Z</time></trkpt><trkpt lat="36.92720525642169" lon="15.046789414442447"><ele>295.0</ele><time>2026-04-04T14:36:36.999Z</time></trkpt><trkpt lat="36.9273135063659" lon="15.04678230004921"><ele>295.0</ele><time>2026-04-04T14:36:37.999Z</time></trkpt><trkpt lat="36.9274113812296" lon="15.046779164638803"><ele>295.0</ele><time>2026-04-04T14:36:38.999Z</time></trkpt><trkpt lat="36.92749690879726" lon="15.046795640642836"><ele>295.0</ele><time>2026-04-04T14:36:39.999Z</time></trkpt><trkpt lat="36.9275710508661" lon="15.046822134013095"><ele>295.0</ele><time>2026-04-04T14:36:40.999Z</time></trkpt><trkpt lat="36.92762694419127" lon="15.046865008693032"><ele>295.0</ele><time>2026-04-04T14:36:41.999Z</time></trkpt><trkpt lat="36.927630621460246" lon="15.046995667821784"><ele>295.0</ele><time>2026-04-04T14:36:44.999Z</time></trkpt><trkpt lat="36.927621661884345" lon="15.047075351693715"><ele>296.0</ele><time>2026-04-04T14:36:45.999Z</time></trkpt><trkpt lat="36.927611939351465" lon="15.047153950271571"><ele>297.0</ele><time>2026-04-04T14:36:46.999Z</time></trkpt><trkpt lat="36.92761583878841" lon="15.047310142369218"><ele>298.0</ele><time>2026-04-04T14:36:48.999Z</time></trkpt><trkpt lat="36.927633284866026" lon="15.047435085711763"><ele>299.0</ele><time>2026-04-04T14:36:50.999Z</time></trkpt><trkpt lat="36.92769542153181" lon="15.04741958252864"><ele>300.0</ele><time>2026-04-04T14:36:54.999Z</time></trkpt><trkpt lat="36.92779086283336" lon="15.047403718815014"><ele>300.0</ele><time>2026-04-04T14:37:01.999Z</time></trkpt><trkpt lat="36.92789226739455" lon="15.047432052437532"><ele>300.0</ele><time>2026-04-04T14:37:03.999Z</time></trkpt><trkpt lat="36.927997555192626" lon="15.047474999508628"><ele>300.0</ele><time>2026-04-04T14:37:05.999Z</time></trkpt><trkpt lat="36.92808325764994" lon="15.047512149727105"><ele>300.0</ele><time>2026-04-04T14:37:07.999Z</time></trkpt><trkpt lat="36.928159179912974" lon="15.047515148184152"><ele>300.0</ele><time>2026-04-04T14:37:08.999Z</time></trkpt><trkpt lat="36.928232490240326" lon="15.047515715566016"><ele>299.8</ele><time>2026-04-04T14:37:09.999Z</time></trkpt><trkpt lat="36.92830865850817" lon="15.047513842601235"><ele>299.6</ele><time>2026-04-04T14:37:10.999Z</time></trkpt><trkpt lat="36.92843137060518" lon="15.047477305387908"><ele>299.4</ele><time>2026-04-04T14:37:12.999Z</time></trkpt><trkpt lat="36.928550956611616" lon="15.047461691153684"><ele>299.2</ele><time>2026-04-04T14:37:14.999Z</time></trkpt><trkpt lat="36.92861400989792" lon="15.047475486988908"><ele>299.0</ele><time>2026-04-04T14:37:17.999Z</time></trkpt><trkpt lat="36.92869937384649" lon="15.04752520960463"><ele>299.0</ele><time>2026-04-04T14:37:19.999Z</time></trkpt><trkpt lat="36.92879239289671" lon="15.047591637865768"><ele>299.0</ele><time>2026-04-04T14:37:21.999Z</time></trkpt><trkpt lat="36.92889097779868" lon="15.04764890214882"><ele>299.0</ele><time>2026-04-04T14:37:23.999Z</time></trkpt><trkpt lat="36.929023544805716" lon="15.047688790069806"><ele>299.0</ele><time>2026-04-04T14:37:25.999Z</time></trkpt><trkpt lat="36.929084805397665" lon="15.047710431638079"><ele>299.0</ele><time>2026-04-04T14:37:26.999Z</time></trkpt><trkpt lat="36.92915174058712" lon="15.04774388540681"><ele>299.0</ele><time>2026-04-04T14:37:27.999Z</time></trkpt><trkpt lat="36.9292125460956" lon="15.04777323206624"><ele>299.0</ele><time>2026-04-04T14:37:28.999Z</time></trkpt><trkpt lat="36.92932348774177" lon="15.047814585407421"><ele>299.0</ele><time>2026-04-04T14:37:30.999Z</time></trkpt><trkpt lat="36.929391821492004" lon="15.04782364804835"><ele>299.0</ele><time>2026-04-04T14:37:31.999Z</time></trkpt><trkpt lat="36.92946077615765" lon="15.047836959308466"><ele>299.0</ele><time>2026-04-04T14:37:32.999Z</time></trkpt><trkpt lat="36.929531916539275" lon="15.047854341431005"><ele>299.0</ele><time>2026-04-04T14:37:33.999Z</time></trkpt><trkpt lat="36.92960095116244" lon="15.047874800492787"><ele>300.4</ele><time>2026-04-04T14:37:34.999Z</time></trkpt><trkpt lat="36.92966884431944" lon="15.04789942828007"><ele>301.79999999999995</ele><time>2026-04-04T14:37:35.999Z</time></trkpt><trkpt lat="36.929786128689415" lon="15.047936920740419"><ele>303.20000000000005</ele><time>2026-04-04T14:37:37.999Z</time></trkpt><trkpt lat="36.929851320555976" lon="15.047952953347664"><ele>304.6</ele><time>2026-04-04T14:37:38.999Z</time></trkpt><trkpt lat="36.92994964970991" lon="15.048001603557703"><ele>306.0</ele><time>2026-04-04T14:37:40.999Z</time></trkpt><trkpt lat="36.93006831058214" lon="15.048019382422646"><ele>306.0</ele><time>2026-04-04T14:37:42.999Z</time></trkpt><trkpt lat="36.930168767784544" lon="15.04803938603532"><ele>306.0</ele><time>2026-04-04T14:37:44.999Z</time></trkpt><trkpt lat="36.930234839506625" lon="15.048069309162486"><ele>306.0</ele><time>2026-04-04T14:37:46.998Z</time></trkpt><trkpt lat="36.930329126520405" lon="15.048018370486586"><ele>306.0</ele><time>2026-04-04T14:37:48.998Z</time></trkpt><trkpt lat="36.930420045930454" lon="15.048007708312186"><ele>306.0</ele><time>2026-04-04T14:37:50.998Z</time></trkpt><trkpt lat="36.93050752171641" lon="15.048022071269836"><ele>306.0</ele><time>2026-04-04T14:37:52.998Z</time></trkpt><trkpt lat="36.930598723488544" lon="15.047994222723744"><ele>306.0</ele><time>2026-04-04T14:37:55Z</time></trkpt><trkpt lat="36.93068532622957" lon="15.047922682759182"><ele>306.0</ele><time>2026-04-04T14:37:57Z</time></trkpt><trkpt lat="36.9307648441932" lon="15.047871638092246"><ele>306.0</ele><time>2026-04-04T14:37:59Z</time></trkpt><trkpt lat="36.93085479391625" lon="15.047827869134059"><ele>306.0</ele><time>2026-04-04T14:38:02Z</time></trkpt><trkpt lat="36.93093780909926" lon="15.047767072597063"><ele>306.6666666666667</ele><time>2026-04-04T14:38:04Z</time></trkpt><trkpt lat="36.931024310097165" lon="15.047662207462386"><ele>307.3333333333333</ele><time>2026-04-04T14:38:06Z</time></trkpt><trkpt lat="36.93107226442322" lon="15.047596849582282"><ele>308.0</ele><time>2026-04-04T14:38:07Z</time></trkpt><trkpt lat="36.93113932532457" lon="15.047505358184472"><ele>308.66666666666663</ele><time>2026-04-04T14:38:09Z</time></trkpt><trkpt lat="36.93119615577039" lon="15.047458029749341"><ele>309.3333333333333</ele><time>2026-04-04T14:38:11Z</time></trkpt><trkpt lat="36.931256181326546" lon="15.047392783383023"><ele>310.0</ele><time>2026-04-04T14:38:13Z</time></trkpt><trkpt lat="36.93132843848227" lon="15.047357478072943"><ele>310.0</ele><time>2026-04-04T14:38:15Z</time></trkpt><trkpt lat="36.93141938208239" lon="15.047337471364518"><ele>310.0</ele><time>2026-04-04T14:38:17Z</time></trkpt><trkpt lat="36.93150100809079" lon="15.047314557690822"><ele>310.0</ele><time>2026-04-04T14:38:21Z</time></trkpt><trkpt lat="36.931567361710194" lon="15.047319402685813"><ele>310.0</ele><time>2026-04-04T14:38:29.999Z</time></trkpt><trkpt lat="36.93163320576851" lon="15.047300775774582"><ele>310.0</ele><time>2026-04-04T14:38:40.999Z</time></trkpt><trkpt lat="36.93169599458542" lon="15.0472855786543"><ele>310.0</ele><time>2026-04-04T14:38:53.999Z</time></trkpt><trkpt lat="36.93178874438954" lon="15.047268616486965"><ele>310.8333333333333</ele><time>2026-04-04T14:38:58.999Z</time></trkpt><trkpt lat="36.931860398458426" lon="15.047279204113785"><ele>311.66666666666663</ele><time>2026-04-04T14:39:00.999Z</time></trkpt><trkpt lat="36.9319388969217" lon="15.047263584109707"><ele>312.5</ele><time>2026-04-04T14:39:02.999Z</time></trkpt><trkpt lat="36.932019177059246" lon="15.047272794582014"><ele>313.3333333333333</ele><time>2026-04-04T14:39:05.999Z</time></trkpt><trkpt lat="36.93209660031243" lon="15.04727700906847"><ele>314.1666666666667</ele><time>2026-04-04T14:39:07.999Z</time></trkpt><trkpt lat="36.93216549651097" lon="15.0472845648009"><ele>315.0</ele><time>2026-04-04T14:39:09.999Z</time></trkpt><trkpt lat="36.93225145010844" lon="15.047272229558704"><ele>315.0</ele><time>2026-04-04T14:39:12.999Z</time></trkpt><trkpt lat="36.93234842368382" lon="15.04724009881878"><ele>315.0</ele><time>2026-04-04T14:39:14.999Z</time></trkpt><trkpt lat="36.93241958063398" lon="15.047212903594989"><ele>315.0</ele><time>2026-04-04T14:39:16.999Z</time></trkpt><trkpt lat="36.93248217894326" lon="15.047200319452227"><ele>315.0</ele><time>2026-04-04T14:39:18.999Z</time></trkpt><trkpt lat="36.93255086205953" lon="15.0472078980379"><ele>315.0</ele><time>2026-04-04T14:39:20.999Z</time></trkpt><trkpt lat="36.93264598104445" lon="15.047198678822987"><ele>315.0</ele><time>2026-04-04T14:39:23.999Z</time></trkpt><trkpt lat="36.9327275526351" lon="15.04718958264687"><ele>315.8333333333333</ele><time>2026-04-04T14:39:26.999Z</time></trkpt><trkpt lat="36.932797407953345" lon="15.047209166609493"><ele>316.6666666666667</ele><time>2026-04-04T14:39:29.999Z</time></trkpt><trkpt lat="36.932875301290636" lon="15.047234827092966"><ele>317.5</ele><time>2026-04-04T14:39:31.999Z</time></trkpt><trkpt lat="36.93293953115542" lon="15.047284067446945"><ele>318.33333333333337</ele><time>2026-04-04T14:39:33.999Z</time></trkpt><trkpt lat="36.9329928048972" lon="15.047330826043014"><ele>319.1666666666667</ele><time>2026-04-04T14:39:36.999Z</time></trkpt><trkpt lat="36.933048497852475" lon="15.047418060365608"><ele>320.0</ele><time>2026-04-04T14:39:40.999Z</time></trkpt><trkpt lat="36.933091552877954" lon="15.047485426309098"><ele>320.83333333333337</ele><time>2026-04-04T14:39:43.999Z</time></trkpt><trkpt lat="36.93315249369556" lon="15.047536977418503"><ele>321.6666666666667</ele><time>2026-04-04T14:39:46.999Z</time></trkpt><trkpt lat="36.93320134418996" lon="15.047604800510433"><ele>322.5</ele><time>2026-04-04T14:39:49.998Z</time></trkpt><trkpt lat="36.93324671803323" lon="15.047666407234045"><ele>323.3333333333333</ele><time>2026-04-04T14:39:51.998Z</time></trkpt><trkpt lat="36.93332821261944" lon="15.047753359693557"><ele>324.16666666666663</ele><time>2026-04-04T14:39:53.998Z</time></trkpt><trkpt lat="36.93341127784303" lon="15.047810112770295"><ele>325.0</ele><time>2026-04-04T14:39:54.998Z</time></trkpt><trkpt lat="36.933493332745584" lon="15.04786777292631"><ele>325.0</ele><time>2026-04-04T14:39:55.998Z</time></trkpt><trkpt lat="36.93356319287234" lon="15.047917197114682"><ele>325.0</ele><time>2026-04-04T14:39:56.998Z</time></trkpt><trkpt lat="36.933638297792655" lon="15.047980159878325"><ele>325.0</ele><time>2026-04-04T14:39:57.998Z</time></trkpt><trkpt lat="36.93370920222927" lon="15.048035770459293"><ele>325.0</ele><time>2026-04-04T14:39:58.998Z</time></trkpt><trkpt lat="36.93377835233563" lon="15.04808043487104"><ele>325.0</ele><time>2026-04-04T14:39:59.998Z</time></trkpt><trkpt lat="36.93385219252246" lon="15.048120728890272"><ele>325.0</ele><time>2026-04-04T14:40:01Z</time></trkpt><trkpt lat="36.93393114611369" lon="15.048162700917462"><ele>325.0</ele><time>2026-04-04T14:40:02Z</time></trkpt><trkpt lat="36.93400127338079" lon="15.048194332336207"><ele>325.0</ele><time>2026-04-04T14:40:03Z</time></trkpt><trkpt lat="36.934102093601034" lon="15.048203249948157"><ele>325.0</ele><time>2026-04-04T14:40:05Z</time></trkpt><trkpt lat="36.934171034616796" lon="15.04818234106316"><ele>325.0</ele><time>2026-04-04T14:40:26Z</time></trkpt><trkpt lat="36.93428969033801" lon="15.048190657932867"><ele>325.0</ele><time>2026-04-04T14:40:27Z</time></trkpt><trkpt lat="36.93446201986496" lon="15.048201982278867"><ele>325.3333333333333</ele><time>2026-04-04T14:40:28Z</time></trkpt><trkpt lat="36.93466463579592" lon="15.048218772504908"><ele>325.6666666666667</ele><time>2026-04-04T14:40:29Z</time></trkpt><trkpt lat="36.93484856789935" lon="15.048239995156113"><ele>326.0</ele><time>2026-04-04T14:40:30Z</time></trkpt><trkpt lat="36.934976757251654" lon="15.048294580082754"><ele>326.4</ele><time>2026-04-04T14:40:31Z</time></trkpt><trkpt lat="36.93507888420892" lon="15.048331500341082"><ele>326.8</ele><time>2026-04-04T14:40:32Z</time></trkpt><trkpt lat="36.935171473039176" lon="15.048370000104692"><ele>327.2</ele><time>2026-04-04T14:40:33Z</time></trkpt><trkpt lat="36.93525392273303" lon="15.048417982833607"><ele>327.59999999999997</ele><time>2026-04-04T14:40:33.999Z</time></trkpt><trkpt lat="36.935326132329266" lon="15.048471638738992"><ele>328.0</ele><time>2026-04-04T14:40:34.999Z</time></trkpt><trkpt lat="36.93539447424021" lon="15.048522836330026"><ele>328.0</ele><time>2026-04-04T14:40:35.999Z</time></trkpt><trkpt lat="36.935464878904725" lon="15.048568936236562"><ele>328.0</ele><time>2026-04-04T14:40:36.999Z</time></trkpt><trkpt lat="36.935573762416624" lon="15.048615069720281"><ele>328.0</ele><time>2026-04-04T14:40:37.999Z</time></trkpt><trkpt lat="36.93571394235382" lon="15.048670219089084"><ele>328.0</ele><time>2026-04-04T14:40:38.999Z</time></trkpt><trkpt lat="36.935841912646275" lon="15.048715061758335"><ele>327.59999999999997</ele><time>2026-04-04T14:40:39.999Z</time></trkpt><trkpt lat="36.93592944875472" lon="15.048726096350352"><ele>327.2</ele><time>2026-04-04T14:40:40.999Z</time></trkpt><trkpt lat="36.936015312998414" lon="15.04875365656427"><ele>326.8</ele><time>2026-04-04T14:40:42.999Z</time></trkpt><trkpt lat="36.93601912817177" lon="15.048647527581235"><ele>326.4</ele><time>2026-04-04T14:40:43.999Z</time></trkpt><trkpt lat="36.936085393388396" lon="15.048587879350265"><ele>326.0</ele><time>2026-04-04T14:40:44.999Z</time></trkpt><trkpt lat="36.93614008774679" lon="15.04846214177109"><ele>326.0</ele><time>2026-04-04T14:40:45.999Z</time></trkpt><trkpt lat="36.93622130933429" lon="15.048320361716161"><ele>326.0</ele><time>2026-04-04T14:40:46.999Z</time></trkpt><trkpt lat="36.93628651516376" lon="15.048140459113839"><ele>326.0</ele><time>2026-04-04T14:40:47.999Z</time></trkpt><trkpt lat="36.93637179115634" lon="15.047993350812376"><ele>326.0</ele><time>2026-04-04T14:40:48.999Z</time></trkpt><trkpt lat="36.93644404056562" lon="15.047868714471813"><ele>326.4</ele><time>2026-04-04T14:40:49.999Z</time></trkpt><trkpt lat="36.93651790562654" lon="15.047762087638906"><ele>326.8</ele><time>2026-04-04T14:40:50.999Z</time></trkpt><trkpt lat="36.93657467518108" lon="15.047655471548861"><ele>327.2</ele><time>2026-04-04T14:40:51.999Z</time></trkpt><trkpt lat="36.93662701131338" lon="15.047564887691333"><ele>327.59999999999997</ele><time>2026-04-04T14:40:52.999Z</time></trkpt><trkpt lat="36.936675390603014" lon="15.047487693354622"><ele>328.0</ele><time>2026-04-04T14:40:53.999Z</time></trkpt><trkpt lat="36.93672079741406" lon="15.047422882394477"><ele>329.3333333333333</ele><time>2026-04-04T14:40:54.999Z</time></trkpt><trkpt lat="36.93675914640087" lon="15.04735319279044"><ele>330.66666666666663</ele><time>2026-04-04T14:40:55.999Z</time></trkpt><trkpt lat="36.93685625300368" lon="15.047264611171904"><ele>332.0</ele><time>2026-04-04T14:40:57.999Z</time></trkpt><trkpt lat="36.93690279931286" lon="15.047205905725137"><ele>333.3333333333333</ele><time>2026-04-04T14:40:58.999Z</time></trkpt><trkpt lat="36.936962957619954" lon="15.04715468856568"><ele>334.6666666666667</ele><time>2026-04-04T14:40:59.999Z</time></trkpt><trkpt lat="36.9370221749366" lon="15.0470880745175"><ele>336.0</ele><time>2026-04-04T14:41:00.999Z</time></trkpt><trkpt lat="36.937089520148874" lon="15.047018685988224"><ele>336.0</ele><time>2026-04-04T14:41:01.999Z</time></trkpt><trkpt lat="36.93716381766906" lon="15.046946774116849"><ele>336.0</ele><time>2026-04-04T14:41:02.999Z</time></trkpt><trkpt lat="36.93724596701095" lon="15.04687555344577"><ele>336.0</ele><time>2026-04-04T14:41:03.999Z</time></trkpt><trkpt lat="36.93733641942333" lon="15.046807600753773"><ele>336.0</ele><time>2026-04-04T14:41:04.999Z</time></trkpt><trkpt lat="36.93745112744021" lon="15.046748829194806"><ele>336.0</ele><time>2026-04-04T14:41:05.999Z</time></trkpt><trkpt lat="36.937526649953476" lon="15.046651311713015"><ele>337.4</ele><time>2026-04-04T14:41:06.999Z</time></trkpt><trkpt lat="36.93761519166433" lon="15.04656382808738"><ele>338.8</ele><time>2026-04-04T14:41:07.999Z</time></trkpt><trkpt lat="36.93767733826422" lon="15.046470420815131"><ele>340.2</ele><time>2026-04-04T14:41:08.999Z</time></trkpt><trkpt lat="36.93774451312668" lon="15.04641473685036"><ele>341.59999999999997</ele><time>2026-04-04T14:41:09.999Z</time></trkpt><trkpt lat="36.937813787045265" lon="15.04638036167246"><ele>343.0</ele><time>2026-04-04T14:41:10.999Z</time></trkpt><trkpt lat="36.93792511137086" lon="15.046374664017847"><ele>343.0</ele><time>2026-04-04T14:41:12.999Z</time></trkpt><trkpt lat="36.93799344013717" lon="15.046467719954405"><ele>343.0</ele><time>2026-04-04T14:41:14.999Z</time></trkpt><trkpt lat="36.93793364763252" lon="15.046608865307878"><ele>343.0</ele><time>2026-04-04T14:41:16.999Z</time></trkpt><trkpt lat="36.93793429695714" lon="15.046706647797562"><ele>343.0</ele><time>2026-04-04T14:41:17.999Z</time></trkpt><trkpt lat="36.93793332251207" lon="15.046797421015254"><ele>343.0</ele><time>2026-04-04T14:41:18.999Z</time></trkpt><trkpt lat="36.93793193635917" lon="15.046886134686313"><ele>342.4</ele><time>2026-04-04T14:41:19.999Z</time></trkpt><trkpt lat="36.937928039361985" lon="15.046972004466639"><ele>341.79999999999995</ele><time>2026-04-04T14:41:20.999Z</time></trkpt><trkpt lat="36.937918670517845" lon="15.047111423443534"><ele>341.2</ele><time>2026-04-04T14:41:22.999Z</time></trkpt><trkpt lat="36.93790933560624" lon="15.047242840419193"><ele>340.6</ele><time>2026-04-04T14:41:24.999Z</time></trkpt><trkpt lat="36.937902324669786" lon="15.047371407806162"><ele>340.0</ele><time>2026-04-04T14:41:26.999Z</time></trkpt><trkpt lat="36.937895144788804" lon="15.047499646237739"><ele>338.8333333333333</ele><time>2026-04-04T14:41:28.999Z</time></trkpt><trkpt lat="36.93788487833221" lon="15.047640184943191"><ele>337.66666666666663</ele><time>2026-04-04T14:41:30.999Z</time></trkpt><trkpt lat="36.93787910762354" lon="15.047719180823165"><ele>336.5</ele><time>2026-04-04T14:41:31.999Z</time></trkpt><trkpt lat="36.937872925453554" lon="15.047803808812768"><ele>335.3333333333333</ele><time>2026-04-04T14:41:32.999Z</time></trkpt><trkpt lat="36.93786500164922" lon="15.047912277756085"><ele>334.1666666666667</ele><time>2026-04-04T14:41:33.999Z</time></trkpt><trkpt lat="36.93785715892703" lon="15.048019636759813"><ele>333.0</ele><time>2026-04-04T14:41:34.999Z</time></trkpt><trkpt lat="36.93786062835739" lon="15.048118398424977"><ele>333.0</ele><time>2026-04-04T14:41:35.999Z</time></trkpt><trkpt lat="36.93784924515949" lon="15.048210697492465"><ele>333.0</ele><time>2026-04-04T14:41:36.999Z</time></trkpt><trkpt lat="36.93783660978401" lon="15.048307952988406"><ele>333.0</ele><time>2026-04-04T14:41:37.999Z</time></trkpt><trkpt lat="36.93781525408077" lon="15.048415161201026"><ele>333.0</ele><time>2026-04-04T14:41:38.999Z</time></trkpt><trkpt lat="36.937776792471944" lon="15.048525588650795"><ele>333.0</ele><time>2026-04-04T14:41:39.999Z</time></trkpt><trkpt lat="36.93773272026916" lon="15.0486193328354"><ele>333.0</ele><time>2026-04-04T14:41:40.999Z</time></trkpt><trkpt lat="36.937700411278406" lon="15.048709718089741"><ele>331.5</ele><time>2026-04-04T14:41:41.999Z</time></trkpt><trkpt lat="36.93767422164334" lon="15.048800385575941"><ele>330.0</ele><time>2026-04-04T14:41:42.999Z</time></trkpt><trkpt lat="36.93764295951128" lon="15.048893725586156"><ele>328.5</ele><time>2026-04-04T14:41:43.999Z</time></trkpt><trkpt lat="36.93762011917181" lon="15.048991246999934"><ele>327.0</ele><time>2026-04-04T14:41:44.999Z</time></trkpt><trkpt lat="36.93760074236609" lon="15.049112280270544"><ele>325.5</ele><time>2026-04-04T14:41:45.999Z</time></trkpt><trkpt lat="36.937591936393844" lon="15.049241412354547"><ele>324.0</ele><time>2026-04-04T14:41:46.999Z</time></trkpt><trkpt lat="36.93760069150878" lon="15.049356996724491"><ele>322.1666666666667</ele><time>2026-04-04T14:41:47.999Z</time></trkpt><trkpt lat="36.93760773191733" lon="15.049468000384612"><ele>320.3333333333333</ele><time>2026-04-04T14:41:48.999Z</time></trkpt><trkpt lat="36.937615494686085" lon="15.04957220402924"><ele>318.5</ele><time>2026-04-04T14:41:49.999Z</time></trkpt><trkpt lat="36.937616217283704" lon="15.049659698544104"><ele>316.66666666666663</ele><time>2026-04-04T14:41:50.999Z</time></trkpt><trkpt lat="36.937624691665484" lon="15.049740617104938"><ele>314.8333333333333</ele><time>2026-04-04T14:41:51.999Z</time></trkpt><trkpt lat="36.93764491157468" lon="15.04983267304861"><ele>313.0</ele><time>2026-04-04T14:41:52.999Z</time></trkpt><trkpt lat="36.93766509565356" lon="15.049912988383195"><ele>309.8333333333333</ele><time>2026-04-04T14:41:53.998Z</time></trkpt><trkpt lat="36.937693942142076" lon="15.049997495597363"><ele>306.66666666666663</ele><time>2026-04-04T14:41:54.998Z</time></trkpt><trkpt lat="36.93772136927868" lon="15.050071183942787"><ele>303.5</ele><time>2026-04-04T14:41:55.998Z</time></trkpt><trkpt lat="36.937746051675774" lon="15.050189218349798"><ele>300.3333333333333</ele><time>2026-04-04T14:41:57.998Z</time></trkpt><trkpt lat="36.93771206976692" lon="15.050321598630376"><ele>297.1666666666667</ele><time>2026-04-04T14:41:59.998Z</time></trkpt><trkpt lat="36.9377194109576" lon="15.05041903618104"><ele>294.0</ele><time>2026-04-04T14:42:01.998Z</time></trkpt><trkpt lat="36.93772664135938" lon="15.050545602941972"><ele>294.0</ele><time>2026-04-04T14:42:03.998Z</time></trkpt><trkpt lat="36.937654101548404" lon="15.050600086218761"><ele>294.0</ele><time>2026-04-04T14:42:07Z</time></trkpt><trkpt lat="36.937634260773805" lon="15.050684166157266"><ele>294.0</ele><time>2026-04-04T14:42:10Z</time></trkpt><trkpt lat="36.937504671701475" lon="15.050852787863123"><ele>294.0</ele><time>2026-04-04T14:42:11Z</time></trkpt><trkpt lat="36.93746859335222" lon="15.050953264576275"><ele>294.0</ele><time>2026-04-04T14:42:12Z</time></trkpt><trkpt lat="36.93743252071615" lon="15.051041357881916"><ele>295.3333333333333</ele><time>2026-04-04T14:42:13Z</time></trkpt><trkpt lat="36.937379891923456" lon="15.051119628212868"><ele>296.6666666666667</ele><time>2026-04-04T14:42:14Z</time></trkpt><trkpt lat="36.93731206872694" lon="15.051217207373663"><ele>298.0</ele><time>2026-04-04T14:42:15Z</time></trkpt><trkpt lat="36.93725661285152" lon="15.051315420846548"><ele>299.33333333333337</ele><time>2026-04-04T14:42:16Z</time></trkpt><trkpt lat="36.93721906841359" lon="15.051399631899045"><ele>300.6666666666667</ele><time>2026-04-04T14:42:17Z</time></trkpt><trkpt lat="36.93716830784645" lon="15.051469311389514"><ele>302.0</ele><time>2026-04-04T14:42:18Z</time></trkpt><trkpt lat="36.9371154032403" lon="15.051554051244409"><ele>298.5</ele><time>2026-04-04T14:42:19Z</time></trkpt><trkpt lat="36.937059912027976" lon="15.051676636650098"><ele>295.0</ele><time>2026-04-04T14:42:20Z</time></trkpt><trkpt lat="36.93700550305894" lon="15.051845287650483"><ele>291.5</ele><time>2026-04-04T14:42:21Z</time></trkpt><trkpt lat="36.936981099893934" lon="15.051988571063623"><ele>288.0</ele><time>2026-04-04T14:42:22Z</time></trkpt><trkpt lat="36.93697382680065" lon="15.052094507143053"><ele>288.0</ele><time>2026-04-04T14:42:23Z</time></trkpt><trkpt lat="36.93692272619813" lon="15.052251634039205"><ele>288.0</ele><time>2026-04-04T14:42:25Z</time></trkpt><trkpt lat="36.93690837291603" lon="15.052391024233524"><ele>288.0</ele><time>2026-04-04T14:42:26Z</time></trkpt><trkpt lat="36.9368513977542" lon="15.052524251165902"><ele>288.0</ele><time>2026-04-04T14:42:27Z</time></trkpt><trkpt lat="36.936816044585655" lon="15.052658414142353"><ele>289.5</ele><time>2026-04-04T14:42:28Z</time></trkpt><trkpt lat="36.93680207162333" lon="15.052771286562084"><ele>291.0</ele><time>2026-04-04T14:42:29Z</time></trkpt><trkpt lat="36.93679937075232" lon="15.052860813472906"><ele>292.5</ele><time>2026-04-04T14:42:30Z</time></trkpt><trkpt lat="36.936787400573174" lon="15.052947787422617"><ele>294.0</ele><time>2026-04-04T14:42:31Z</time></trkpt><trkpt lat="36.93676439698983" lon="15.053023126638154"><ele>295.5</ele><time>2026-04-04T14:42:32Z</time></trkpt><trkpt lat="36.936626262201344" lon="15.05307633423522"><ele>297.0</ele><time>2026-04-04T14:42:34Z</time></trkpt><trkpt lat="36.9365227559151" lon="15.05309290446277"><ele>297.0</ele><time>2026-04-04T14:42:35Z</time></trkpt><trkpt lat="36.93641943696175" lon="15.053082930732106"><ele>297.0</ele><time>2026-04-04T14:42:35.999Z</time></trkpt><trkpt lat="36.93633360594311" lon="15.053057620118736"><ele>297.0</ele><time>2026-04-04T14:42:36.999Z</time></trkpt><trkpt lat="36.93625635394927" lon="15.053003069750382"><ele>297.0</ele><time>2026-04-04T14:42:37.999Z</time></trkpt><trkpt lat="36.936174298990466" lon="15.052946505629139"><ele>297.0</ele><time>2026-04-04T14:42:38.999Z</time></trkpt><trkpt lat="36.936111731582166" lon="15.05291124930038"><ele>297.0</ele><time>2026-04-04T14:42:39.999Z</time></trkpt><trkpt lat="36.93599547213385" lon="15.052927220021914"><ele>297.0</ele><time>2026-04-04T14:42:41.999Z</time></trkpt><trkpt lat="36.93598279988223" lon="15.053023260345006"><ele>297.0</ele><time>2026-04-04T14:42:43.999Z</time></trkpt><trkpt lat="36.93613610387998" lon="15.053076877369579"><ele>297.0</ele><time>2026-04-04T14:42:45.999Z</time></trkpt><trkpt lat="36.93626718370999" lon="15.053133978459064"><ele>297.0</ele><time>2026-04-04T14:42:46.999Z</time></trkpt><trkpt lat="36.93637319825738" lon="15.053184350852591"><ele>297.0</ele><time>2026-04-04T14:42:47.999Z</time></trkpt><trkpt lat="36.93641032199554" lon="15.053262888099184"><ele>297.0</ele><time>2026-04-04T14:42:50.999Z</time></trkpt><trkpt lat="36.936325133644765" lon="15.053261758467821"><ele>297.0</ele><time>2026-04-04T14:42:52.999Z</time></trkpt><trkpt lat="36.936231019777274" lon="15.05323434861593"><ele>297.0</ele><time>2026-04-04T14:42:53.999Z</time></trkpt><trkpt lat="36.936111875638794" lon="15.053179391690474"><ele>297.0</ele><time>2026-04-04T14:42:54.999Z</time></trkpt><trkpt lat="36.93603665119212" lon="15.053144044800247"><ele>297.0</ele><time>2026-04-04T14:42:55.999Z</time></trkpt><trkpt lat="36.93597217832981" lon="15.05314527125909"><ele>297.0</ele><time>2026-04-04T14:42:56.999Z</time></trkpt><trkpt lat="36.93585903275787" lon="15.053052625452624"><ele>297.0</ele><time>2026-04-04T14:42:58.999Z</time></trkpt><trkpt lat="36.93576339293219" lon="15.053030211552205"><ele>297.0</ele><time>2026-04-04T14:42:59.999Z</time></trkpt><trkpt lat="36.93566767893637" lon="15.053042283037524"><ele>297.0</ele><time>2026-04-04T14:43:00.999Z</time></trkpt><trkpt lat="36.9355841396587" lon="15.053040920467318"><ele>297.6666666666667</ele><time>2026-04-04T14:43:01.999Z</time></trkpt><trkpt lat="36.9355156365941" lon="15.053044104116246"><ele>298.3333333333333</ele><time>2026-04-04T14:43:02.999Z</time></trkpt><trkpt lat="36.935462593883265" lon="15.05312163965979"><ele>299.0</ele><time>2026-04-04T14:43:04.999Z</time></trkpt><trkpt lat="36.93551157139151" lon="15.05318049981245"><ele>299.66666666666663</ele><time>2026-04-04T14:43:08.999Z</time></trkpt><trkpt lat="36.93555575050736" lon="15.053239151113093"><ele>300.3333333333333</ele><time>2026-04-04T14:43:24.999Z</time></trkpt><trkpt lat="36.93558228114399" lon="15.053313187816574"><ele>301.0</ele><time>2026-04-04T14:43:26.999Z</time></trkpt><trkpt lat="36.935706432144464" lon="15.053396129082978"><ele>297.42857142857144</ele><time>2026-04-04T14:43:28.999Z</time></trkpt><trkpt lat="36.935777022434486" lon="15.053441948374012"><ele>293.8571428571429</ele><time>2026-04-04T14:43:29.999Z</time></trkpt><trkpt lat="36.935837980290664" lon="15.053475002403735"><ele>290.2857142857143</ele><time>2026-04-04T14:43:30.999Z</time></trkpt><trkpt lat="36.93590026425046" lon="15.05350152069276"><ele>286.7142857142857</ele><time>2026-04-04T14:43:31.999Z</time></trkpt><trkpt lat="36.93596963604066" lon="15.053549366859876"><ele>283.14285714285717</ele><time>2026-04-04T14:43:33.999Z</time></trkpt><trkpt lat="36.9359698063256" lon="15.05362827677093"><ele>279.57142857142856</ele><time>2026-04-04T14:43:39.999Z</time></trkpt><trkpt lat="36.93590448939311" lon="15.05364231924797"><ele>276.0</ele><time>2026-04-04T14:44:32Z</time></trkpt><trkpt lat="36.93584229519985" lon="15.053624869100599"><ele>275.57142857142856</ele><time>2026-04-04T14:44:41Z</time></trkpt><trkpt lat="36.93577811239973" lon="15.053594849415179"><ele>275.14285714285717</ele><time>2026-04-04T14:44:51.999Z</time></trkpt><trkpt lat="36.93570887626724" lon="15.053608395772045"><ele>274.7142857142857</ele><time>2026-04-04T14:44:59.999Z</time></trkpt><trkpt lat="36.93564251001176" lon="15.053638995105421"><ele>274.2857142857143</ele><time>2026-04-04T14:45:05.999Z</time></trkpt><trkpt lat="36.93558258283649" lon="15.053668711566798"><ele>273.8571428571429</ele><time>2026-04-04T14:45:09.999Z</time></trkpt><trkpt lat="36.93552401366846" lon="15.053716196328176"><ele>273.42857142857144</ele><time>2026-04-04T14:45:22.999Z</time></trkpt><trkpt lat="36.9355875039587" lon="15.053723191809143"><ele>273.0</ele><time>2026-04-04T14:45:56.999Z</time></trkpt><trkpt lat="36.935625412250126" lon="15.053639774416828"><ele>273.0</ele><time>2026-04-04T14:52:47.999Z</time></trkpt><trkpt lat="36.935692599100506" lon="15.053619618542353"><ele>273.0</ele><time>2026-04-04T14:52:54.999Z</time></trkpt><trkpt lat="36.935759303373736" lon="15.05360550743272"><ele>273.0</ele><time>2026-04-04T14:53:09.999Z</time></trkpt><trkpt lat="36.935831696963085" lon="15.053620750296634"><ele>273.0</ele><time>2026-04-04T14:53:25.999Z</time></trkpt><trkpt lat="36.935907172726715" lon="15.05362063154315"><ele>273.0</ele><time>2026-04-04T14:53:37.999Z</time></trkpt><trkpt lat="36.93596596572088" lon="15.053656035725716"><ele>273.0</ele><time>2026-04-04T14:55:29Z</time></trkpt><trkpt lat="36.93599561117424" lon="15.053734936637483"><ele>273.0</ele><time>2026-04-04T14:55:31Z</time></trkpt><trkpt lat="36.936047149583594" lon="15.053783169836857"><ele>273.0</ele><time>2026-04-04T14:55:34Z</time></trkpt><trkpt lat="36.93604359501416" lon="15.053696722341305"><ele>273.0</ele><time>2026-04-04T14:55:37Z</time></trkpt><trkpt lat="36.935959348025946" lon="15.053653473202182"><ele>273.0</ele><time>2026-04-04T14:55:39Z</time></trkpt><trkpt lat="36.93589100330293" lon="15.053546021084069"><ele>273.0</ele><time>2026-04-04T14:55:41Z</time></trkpt><trkpt lat="36.93586037922149" lon="15.053453768339589"><ele>273.0</ele><time>2026-04-04T14:55:43Z</time></trkpt><trkpt lat="36.935773619243406" lon="15.053412022119433"><ele>273.0</ele><time>2026-04-04T14:55:45Z</time></trkpt><trkpt lat="36.93569823938666" lon="15.05338040593137"><ele>273.0</ele><time>2026-04-04T14:55:47Z</time></trkpt><trkpt lat="36.93561150857787" lon="15.053324086484183"><ele>273.0</ele><time>2026-04-04T14:55:49Z</time></trkpt><trkpt lat="36.93553325961793" lon="15.053253675261017"><ele>273.0</ele><time>2026-04-04T14:55:51Z</time></trkpt><trkpt lat="36.93548210250924" lon="15.05316735598211"><ele>273.0</ele><time>2026-04-04T14:55:53Z</time></trkpt><trkpt lat="36.93549616527075" lon="15.053080732714628"><ele>273.0</ele><time>2026-04-04T14:55:56Z</time></trkpt><trkpt lat="36.93558011064199" lon="15.053053622751738"><ele>273.0</ele><time>2026-04-04T14:55:58Z</time></trkpt><trkpt lat="36.935669011166915" lon="15.053056516236676"><ele>277.8</ele><time>2026-04-04T14:55:59Z</time></trkpt><trkpt lat="36.935732475601206" lon="15.053064824493351"><ele>282.6</ele><time>2026-04-04T14:56:00Z</time></trkpt><trkpt lat="36.93583343759439" lon="15.053063285482919"><ele>287.4</ele><time>2026-04-04T14:56:02Z</time></trkpt><trkpt lat="36.935965047978414" lon="15.053128922820624"><ele>292.2</ele><time>2026-04-04T14:56:04Z</time></trkpt><trkpt lat="36.93606301021821" lon="15.053196575674523"><ele>297.0</ele><time>2026-04-04T14:56:06Z</time></trkpt><trkpt lat="36.936142783145705" lon="15.053202364932325"><ele>297.0</ele><time>2026-04-04T14:56:07Z</time></trkpt><trkpt lat="36.93623089489645" lon="15.053241048398217"><ele>297.0</ele><time>2026-04-04T14:56:08Z</time></trkpt><trkpt lat="36.936309461567916" lon="15.05326527040408"><ele>297.0</ele><time>2026-04-04T14:56:09Z</time></trkpt><trkpt lat="36.93641121588831" lon="15.053287692376065"><ele>297.0</ele><time>2026-04-04T14:56:11Z</time></trkpt><trkpt lat="36.936428007866354" lon="15.053200516258977"><ele>297.0</ele><time>2026-04-04T14:56:12.999Z</time></trkpt><trkpt lat="36.9362978080352" lon="15.053150210799387"><ele>297.0</ele><time>2026-04-04T14:56:14.999Z</time></trkpt><trkpt lat="36.93620339335904" lon="15.053112548584767"><ele>297.0</ele><time>2026-04-04T14:56:15.999Z</time></trkpt><trkpt lat="36.93610232614643" lon="15.05306314208847"><ele>297.0</ele><time>2026-04-04T14:56:16.999Z</time></trkpt><trkpt lat="36.93602077007418" lon="15.053031664414739"><ele>297.0</ele><time>2026-04-04T14:56:17.999Z</time></trkpt><trkpt lat="36.93604568426143" lon="15.052919710439811"><ele>297.0</ele><time>2026-04-04T14:56:20.999Z</time></trkpt><trkpt lat="36.936180180017566" lon="15.052918008506028"><ele>297.0</ele><time>2026-04-04T14:56:22.999Z</time></trkpt><trkpt lat="36.93626090960843" lon="15.052949102312859"><ele>297.0</ele><time>2026-04-04T14:56:23.999Z</time></trkpt><trkpt lat="36.93634438412322" lon="15.052997670141862"><ele>297.0</ele><time>2026-04-04T14:56:24.999Z</time></trkpt><trkpt lat="36.93645107573577" lon="15.053021127667005"><ele>297.0</ele><time>2026-04-04T14:56:25.999Z</time></trkpt><trkpt lat="36.936532789064145" lon="15.053053343627738"><ele>297.0</ele><time>2026-04-04T14:56:26.999Z</time></trkpt><trkpt lat="36.93664361198414" lon="15.05304356213921"><ele>293.5</ele><time>2026-04-04T14:56:27.999Z</time></trkpt><trkpt lat="36.936729099060734" lon="15.053006121173476"><ele>290.0</ele><time>2026-04-04T14:56:28.999Z</time></trkpt><trkpt lat="36.93679706038378" lon="15.052954689774415"><ele>286.5</ele><time>2026-04-04T14:56:29.999Z</time></trkpt><trkpt lat="36.93683339327929" lon="15.052874638337183"><ele>283.0</ele><time>2026-04-04T14:56:30.999Z</time></trkpt><trkpt lat="36.93685207102397" lon="15.052788255663932"><ele>279.5</ele><time>2026-04-04T14:56:31.999Z</time></trkpt><trkpt lat="36.93685449799926" lon="15.052691891914504"><ele>276.0</ele><time>2026-04-04T14:56:32.999Z</time></trkpt><trkpt lat="36.936873983501705" lon="15.052563182971802"><ele>278.40000000000003</ele><time>2026-04-04T14:56:33.999Z</time></trkpt><trkpt lat="36.93689768695177" lon="15.05243870947693"><ele>280.8</ele><time>2026-04-04T14:56:34.999Z</time></trkpt><trkpt lat="36.936927762356255" lon="15.052298656491013"><ele>283.20000000000005</ele><time>2026-04-04T14:56:35.999Z</time></trkpt><trkpt lat="36.9369778655791" lon="15.052160820853544"><ele>285.6</ele><time>2026-04-04T14:56:36.999Z</time></trkpt><trkpt lat="36.93703133811362" lon="15.052061792349956"><ele>288.0</ele><time>2026-04-04T14:56:37.999Z</time></trkpt><trkpt lat="36.9370681719939" lon="15.051966399382644"><ele>288.0</ele><time>2026-04-04T14:56:38.999Z</time></trkpt><trkpt lat="36.93707740134206" lon="15.051841984867231"><ele>288.0</ele><time>2026-04-04T14:56:39.999Z</time></trkpt><trkpt lat="36.937089317679614" lon="15.051708205321159"><ele>288.0</ele><time>2026-04-04T14:56:40.999Z</time></trkpt><trkpt lat="36.937118675402644" lon="15.05158337333394"><ele>288.0</ele><time>2026-04-04T14:56:41.999Z</time></trkpt><trkpt lat="36.93717849214256" lon="15.051455673607432"><ele>288.0</ele><time>2026-04-04T14:56:42.999Z</time></trkpt><trkpt lat="36.93726215854614" lon="15.051349473643072"><ele>288.0</ele><time>2026-04-04T14:56:43.999Z</time></trkpt><trkpt lat="36.93732668336287" lon="15.051279721582159"><ele>288.0</ele><time>2026-04-04T14:56:44.999Z</time></trkpt><trkpt lat="36.937374104181146" lon="15.051195302835726"><ele>288.0</ele><time>2026-04-04T14:56:45.999Z</time></trkpt><trkpt lat="36.93740603376142" lon="15.051097889179738"><ele>288.0</ele><time>2026-04-04T14:56:46.999Z</time></trkpt><trkpt lat="36.93745486365549" lon="15.050990572404615"><ele>288.0</ele><time>2026-04-04T14:56:47.999Z</time></trkpt><trkpt lat="36.937518942120725" lon="15.050916856924426"><ele>288.0</ele><time>2026-04-04T14:56:49Z</time></trkpt><trkpt lat="36.93756613333569" lon="15.050846274871638"><ele>289.0</ele><time>2026-04-04T14:56:50Z</time></trkpt><trkpt lat="36.93759816205011" lon="15.050719042604902"><ele>290.0</ele><time>2026-04-04T14:56:52Z</time></trkpt><trkpt lat="36.93761377095865" lon="15.050630427337238"><ele>291.0</ele><time>2026-04-04T14:56:53Z</time></trkpt><trkpt lat="36.93764201203549" lon="15.050552455158977"><ele>292.0</ele><time>2026-04-04T14:56:54Z</time></trkpt><trkpt lat="36.93773417306697" lon="15.050458162566295"><ele>293.0</ele><time>2026-04-04T14:56:56Z</time></trkpt><trkpt lat="36.93775274996755" lon="15.050373552637321"><ele>294.0</ele><time>2026-04-04T14:56:58Z</time></trkpt><trkpt lat="36.937734034009125" lon="15.050270243240512"><ele>294.0</ele><time>2026-04-04T14:57:00Z</time></trkpt><trkpt lat="36.937746506601776" lon="15.050160207006398"><ele>294.0</ele><time>2026-04-04T14:57:02Z</time></trkpt><trkpt lat="36.937750206330136" lon="15.050075453821284"><ele>294.0</ele><time>2026-04-04T14:57:04Z</time></trkpt><trkpt lat="36.93760552618351" lon="15.049834573872104"><ele>294.0</ele><time>2026-04-04T14:57:07Z</time></trkpt><trkpt lat="36.937576720337475" lon="15.049725918275024"><ele>298.75</ele><time>2026-04-04T14:57:08Z</time></trkpt><trkpt lat="36.93756173151587" lon="15.049599573962944"><ele>303.5</ele><time>2026-04-04T14:57:09Z</time></trkpt><trkpt lat="36.93755124985811" lon="15.049447063867383"><ele>308.25</ele><time>2026-04-04T14:57:10Z</time></trkpt><trkpt lat="36.937539185750126" lon="15.049299866692268"><ele>313.0</ele><time>2026-04-04T14:57:11Z</time></trkpt><trkpt lat="36.93753882401235" lon="15.04914535397814"><ele>315.2</ele><time>2026-04-04T14:57:12Z</time></trkpt><trkpt lat="36.93754269899439" lon="15.04897235743298"><ele>317.4</ele><time>2026-04-04T14:57:13Z</time></trkpt><trkpt lat="36.937573018113774" lon="15.048838373907385"><ele>319.59999999999997</ele><time>2026-04-04T14:57:14Z</time></trkpt><trkpt lat="36.93759493229587" lon="15.048727714606265"><ele>321.8</ele><time>2026-04-04T14:57:15Z</time></trkpt><trkpt lat="36.93761972843568" lon="15.048608586520224"><ele>324.0</ele><time>2026-04-04T14:57:16Z</time></trkpt><trkpt lat="36.93765547263375" lon="15.048487094719226"><ele>324.0</ele><time>2026-04-04T14:57:17Z</time></trkpt><trkpt lat="36.93770346703746" lon="15.048385880737921"><ele>324.0</ele><time>2026-04-04T14:57:18Z</time></trkpt><trkpt lat="36.937744450049" lon="15.04830103537171"><ele>324.0</ele><time>2026-04-04T14:57:19Z</time></trkpt><trkpt lat="36.93778020872703" lon="15.048223422996816"><ele>324.0</ele><time>2026-04-04T14:57:20Z</time></trkpt><trkpt lat="36.93779991948924" lon="15.048126562234147"><ele>324.0</ele><time>2026-04-04T14:57:21Z</time></trkpt><trkpt lat="36.93780028675821" lon="15.048026103996987"><ele>324.0</ele><time>2026-04-04T14:57:22Z</time></trkpt><trkpt lat="36.937808551672816" lon="15.04792246358267"><ele>325.79999999999995</ele><time>2026-04-04T14:57:23Z</time></trkpt><trkpt lat="36.93790520231909" lon="15.047820229275544"><ele>327.59999999999997</ele><time>2026-04-04T14:57:24Z</time></trkpt><trkpt lat="36.93791376215065" lon="15.047703053737164"><ele>329.4</ele><time>2026-04-04T14:57:25Z</time></trkpt><trkpt lat="36.93792214472303" lon="15.047588303672994"><ele>331.2</ele><time>2026-04-04T14:57:26Z</time></trkpt><trkpt lat="36.93792275728277" lon="15.047473976624623"><ele>333.0</ele><time>2026-04-04T14:57:27Z</time></trkpt><trkpt lat="36.93792645366455" lon="15.047363964136675"><ele>334.4</ele><time>2026-04-04T14:57:28Z</time></trkpt><trkpt lat="36.93793685256972" lon="15.047246996376748"><ele>335.79999999999995</ele><time>2026-04-04T14:57:29Z</time></trkpt><trkpt lat="36.93794659682277" lon="15.047120755094555"><ele>337.2</ele><time>2026-04-04T14:57:30Z</time></trkpt><trkpt lat="36.937953317599124" lon="15.046990314779016"><ele>338.6</ele><time>2026-04-04T14:57:31Z</time></trkpt><trkpt lat="36.93795897070255" lon="15.04686413570795"><ele>340.0</ele><time>2026-04-04T14:57:32Z</time></trkpt><trkpt lat="36.93796421336347" lon="15.046735953407714"><ele>340.5</ele><time>2026-04-04T14:57:33Z</time></trkpt><trkpt lat="36.93796382712364" lon="15.04660630280108"><ele>341.0</ele><time>2026-04-04T14:57:34Z</time></trkpt><trkpt lat="36.93796095164392" lon="15.046502671635322"><ele>341.5</ele><time>2026-04-04T14:57:35Z</time></trkpt><trkpt lat="36.937965325362896" lon="15.046413443243148"><ele>342.0</ele><time>2026-04-04T14:57:36Z</time></trkpt><trkpt lat="36.93799878069871" lon="15.046334106522988"><ele>342.5</ele><time>2026-04-04T14:57:39Z</time></trkpt><trkpt lat="36.93806847998639" lon="15.04639514933457"><ele>343.0</ele><time>2026-04-04T14:57:41Z</time></trkpt><trkpt lat="36.93813334106641" lon="15.04643292829028"><ele>343.0</ele><time>2026-04-04T14:57:43Z</time></trkpt><trkpt lat="36.938286868653556" lon="15.046411318954753"><ele>343.0</ele><time>2026-04-04T14:58:34.999Z</time></trkpt><trkpt lat="36.938379427561216" lon="15.046398455128662"><ele>343.0</ele><time>2026-04-04T14:58:35.999Z</time></trkpt><trkpt lat="36.93847448496591" lon="15.046383399154543"><ele>343.0</ele><time>2026-04-04T14:58:36.999Z</time></trkpt><trkpt lat="36.93857884051158" lon="15.046359369668117"><ele>343.3333333333333</ele><time>2026-04-04T14:58:37.999Z</time></trkpt><trkpt lat="36.938668852850775" lon="15.046354177782417"><ele>343.66666666666663</ele><time>2026-04-04T14:58:38.999Z</time></trkpt><trkpt lat="36.938750531261476" lon="15.046334786818397"><ele>344.0</ele><time>2026-04-04T14:58:39.999Z</time></trkpt><trkpt lat="36.93882390083541" lon="15.046319372811505"><ele>344.3333333333333</ele><time>2026-04-04T14:58:40.999Z</time></trkpt><trkpt lat="36.93891519545934" lon="15.046303394204676"><ele>344.6666666666667</ele><time>2026-04-04T14:58:41.999Z</time></trkpt><trkpt lat="36.93902180497407" lon="15.046290152736399"><ele>345.0</ele><time>2026-04-04T14:58:42.999Z</time></trkpt><trkpt lat="36.93913534844511" lon="15.046277005601851"><ele>343.75</ele><time>2026-04-04T14:58:43.999Z</time></trkpt><trkpt lat="36.93925568853327" lon="15.046236399944911"><ele>342.5</ele><time>2026-04-04T14:58:44.999Z</time></trkpt><trkpt lat="36.93938123657671" lon="15.046201971623542"><ele>341.25</ele><time>2026-04-04T14:58:45.999Z</time></trkpt><trkpt lat="36.939484205973706" lon="15.046131340266076"><ele>340.0</ele><time>2026-04-04T14:58:46.999Z</time></trkpt><trkpt lat="36.93958783273058" lon="15.04609928752816"><ele>340.0</ele><time>2026-04-04T14:58:47.999Z</time></trkpt><trkpt lat="36.9396865786577" lon="15.046053668909709"><ele>340.0</ele><time>2026-04-04T14:58:48.999Z</time></trkpt><trkpt lat="36.93979645614617" lon="15.045982402261037"><ele>340.0</ele><time>2026-04-04T14:58:49.999Z</time></trkpt><trkpt lat="36.939913037296286" lon="15.045928966863585"><ele>340.0</ele><time>2026-04-04T14:58:50.999Z</time></trkpt><trkpt lat="36.94004502666926" lon="15.045870486306178"><ele>339.0</ele><time>2026-04-04T14:58:51.999Z</time></trkpt><trkpt lat="36.94017348357836" lon="15.045802650729636"><ele>338.0</ele><time>2026-04-04T14:58:52.999Z</time></trkpt><trkpt lat="36.94030381963769" lon="15.045727095224573"><ele>337.0</ele><time>2026-04-04T14:58:53.999Z</time></trkpt><trkpt lat="36.940446789158294" lon="15.045687498641081"><ele>336.0</ele><time>2026-04-04T14:58:55.001Z</time></trkpt><trkpt lat="36.94058660134236" lon="15.045642694475081"><ele>336.6666666666667</ele><time>2026-04-04T14:58:56.001Z</time></trkpt><trkpt lat="36.94073617695049" lon="15.045594365944314"><ele>337.33333333333337</ele><time>2026-04-04T14:58:57.001Z</time></trkpt><trkpt lat="36.94088319027557" lon="15.04554010124907"><ele>338.0</ele><time>2026-04-04T14:58:58.001Z</time></trkpt><trkpt lat="36.94102524570913" lon="15.045475087374717"><ele>338.0</ele><time>2026-04-04T14:58:59.001Z</time></trkpt><trkpt lat="36.941160560703125" lon="15.045373341389967"><ele>338.0</ele><time>2026-04-04T14:59:00.001Z</time></trkpt><trkpt lat="36.94129642522415" lon="15.045272123215518"><ele>338.0</ele><time>2026-04-04T14:59:01.001Z</time></trkpt><trkpt lat="36.94143309290244" lon="15.045163511875288"><ele>338.0</ele><time>2026-04-04T14:59:02.001Z</time></trkpt><trkpt lat="36.94156752257617" lon="15.045044578711488"><ele>338.0</ele><time>2026-04-04T14:59:03.001Z</time></trkpt><trkpt lat="36.941680863194236" lon="15.044892027329752"><ele>338.0</ele><time>2026-04-04T14:59:04.001Z</time></trkpt><trkpt lat="36.94180333709222" lon="15.044745808027569"><ele>337.33333333333337</ele><time>2026-04-04T14:59:05.001Z</time></trkpt><trkpt lat="36.941917898922576" lon="15.04458661495308"><ele>336.6666666666667</ele><time>2026-04-04T14:59:06Z</time></trkpt><trkpt lat="36.942031539328326" lon="15.044420123534168"><ele>336.0</ele><time>2026-04-04T14:59:07.001Z</time></trkpt><trkpt lat="36.94213844704573" lon="15.044250910974588"><ele>337.6666666666667</ele><time>2026-04-04T14:59:08.001Z</time></trkpt><trkpt lat="36.942244002725" lon="15.044080020939399"><ele>339.33333333333337</ele><time>2026-04-04T14:59:09Z</time></trkpt><trkpt lat="36.94234288541528" lon="15.043899155450125"><ele>341.0</ele><time>2026-04-04T14:59:10Z</time></trkpt><trkpt lat="36.94242076745173" lon="15.043708552607281"><ele>341.0</ele><time>2026-04-04T14:59:11Z</time></trkpt><trkpt lat="36.94248459690757" lon="15.04350731497968"><ele>341.0</ele><time>2026-04-04T14:59:12Z</time></trkpt><trkpt lat="36.94255323881674" lon="15.043317918535712"><ele>341.0</ele><time>2026-04-04T14:59:13Z</time></trkpt><trkpt lat="36.942628138670194" lon="15.043147936209868"><ele>341.0</ele><time>2026-04-04T14:59:14Z</time></trkpt><trkpt lat="36.94270822791876" lon="15.04296951427734"><ele>341.0</ele><time>2026-04-04T14:59:15Z</time></trkpt><trkpt lat="36.942822350580165" lon="15.042824903538945"><ele>341.0</ele><time>2026-04-04T14:59:16Z</time></trkpt><trkpt lat="36.942945717757745" lon="15.0426938355206"><ele>341.0</ele><time>2026-04-04T14:59:17Z</time></trkpt><trkpt lat="36.9430729245946" lon="15.042565070679455"><ele>341.0</ele><time>2026-04-04T14:59:18Z</time></trkpt><trkpt lat="36.9432080680735" lon="15.04245086720376"><ele>341.0</ele><time>2026-04-04T14:59:19Z</time></trkpt><trkpt lat="36.94335661502219" lon="15.04235485556938"><ele>342.0</ele><time>2026-04-04T14:59:20Z</time></trkpt><trkpt lat="36.943514104872285" lon="15.042250526213637"><ele>343.0</ele><time>2026-04-04T14:59:21Z</time></trkpt><trkpt lat="36.943663478704494" lon="15.042150065322604"><ele>344.0</ele><time>2026-04-04T14:59:22Z</time></trkpt><trkpt lat="36.94379279226531" lon="15.042063096046574"><ele>344.0</ele><time>2026-04-04T14:59:23Z</time></trkpt><trkpt lat="36.94391586792289" lon="15.04197981043265"><ele>344.0</ele><time>2026-04-04T14:59:24Z</time></trkpt><trkpt lat="36.94402613866724" lon="15.04190175522278"><ele>344.0</ele><time>2026-04-04T14:59:25Z</time></trkpt><trkpt lat="36.94411842389185" lon="15.041829856311805"><ele>344.0</ele><time>2026-04-04T14:59:26Z</time></trkpt><trkpt lat="36.94421305102707" lon="15.04174189917442"><ele>345.25</ele><time>2026-04-04T14:59:27Z</time></trkpt><trkpt lat="36.944297647506396" lon="15.041622556882732"><ele>346.5</ele><time>2026-04-04T14:59:28Z</time></trkpt><trkpt lat="36.94438867148558" lon="15.041511110749985"><ele>347.75</ele><time>2026-04-04T14:59:29Z</time></trkpt><trkpt lat="36.94447649039709" lon="15.041389895245171"><ele>349.0</ele><time>2026-04-04T14:59:30Z</time></trkpt><trkpt lat="36.94458774217524" lon="15.041257945708017"><ele>349.0</ele><time>2026-04-04T14:59:31Z</time></trkpt><trkpt lat="36.94472441937472" lon="15.041120488597882"><ele>349.0</ele><time>2026-04-04T14:59:32Z</time></trkpt><trkpt lat="36.94483375543812" lon="15.040977246514414"><ele>349.0</ele><time>2026-04-04T14:59:33Z</time></trkpt><trkpt lat="36.944930752642804" lon="15.040866962073093"><ele>349.5</ele><time>2026-04-04T14:59:34Z</time></trkpt><trkpt lat="36.94504361024991" lon="15.040764553602614"><ele>350.0</ele><time>2026-04-04T14:59:35Z</time></trkpt><trkpt lat="36.94515192812656" lon="15.040656487427531"><ele>350.5</ele><time>2026-04-04T14:59:36Z</time></trkpt><trkpt lat="36.945260064509036" lon="15.040563245391612"><ele>351.0</ele><time>2026-04-04T14:59:37Z</time></trkpt><trkpt lat="36.94538206455573" lon="15.040474117777563"><ele>351.0</ele><time>2026-04-04T14:59:38Z</time></trkpt><trkpt lat="36.94549552574217" lon="15.04038659233284"><ele>351.0</ele><time>2026-04-04T14:59:39Z</time></trkpt><trkpt lat="36.945596553443124" lon="15.04029527958425"><ele>351.0</ele><time>2026-04-04T14:59:40Z</time></trkpt><trkpt lat="36.94570157144573" lon="15.040193852649418"><ele>351.0</ele><time>2026-04-04T14:59:41Z</time></trkpt><trkpt lat="36.945808645813" lon="15.04009194164078"><ele>350.75</ele><time>2026-04-04T14:59:42Z</time></trkpt><trkpt lat="36.9459206047372" lon="15.039992525527596"><ele>350.5</ele><time>2026-04-04T14:59:43Z</time></trkpt><trkpt lat="36.94603739766919" lon="15.039902835731295"><ele>350.25</ele><time>2026-04-04T14:59:44Z</time></trkpt><trkpt lat="36.94616562259224" lon="15.039821017305979"><ele>350.0</ele><time>2026-04-04T14:59:45Z</time></trkpt><trkpt lat="36.946300354308875" lon="15.039740119132967"><ele>350.0</ele><time>2026-04-04T14:59:46Z</time></trkpt><trkpt lat="36.946437648430724" lon="15.039648322841337"><ele>350.0</ele><time>2026-04-04T14:59:47Z</time></trkpt><trkpt lat="36.94657603895409" lon="15.039564692559187"><ele>350.0</ele><time>2026-04-04T14:59:48Z</time></trkpt><trkpt lat="36.946722472205096" lon="15.039495560411956"><ele>346.33333333333337</ele><time>2026-04-04T14:59:49Z</time></trkpt><trkpt lat="36.94687270496168" lon="15.039415219694996"><ele>342.6666666666667</ele><time>2026-04-04T14:59:50Z</time></trkpt><trkpt lat="36.947026740463606" lon="15.039330907274508"><ele>339.0</ele><time>2026-04-04T14:59:51Z</time></trkpt><trkpt lat="36.947169716730166" lon="15.03925595671482"><ele>339.0</ele><time>2026-04-04T14:59:52Z</time></trkpt><trkpt lat="36.947300184955346" lon="15.0391743972361"><ele>339.0</ele><time>2026-04-04T14:59:53Z</time></trkpt><trkpt lat="36.94739099053583" lon="15.039053047636827"><ele>339.0</ele><time>2026-04-04T14:59:54Z</time></trkpt><trkpt lat="36.94750241759394" lon="15.03895466189396"><ele>339.0</ele><time>2026-04-04T14:59:55Z</time></trkpt><trkpt lat="36.94763895969579" lon="15.038892562210778"><ele>340.6666666666667</ele><time>2026-04-04T14:59:56Z</time></trkpt><trkpt lat="36.94779693339675" lon="15.038821491329003"><ele>342.33333333333337</ele><time>2026-04-04T14:59:57Z</time></trkpt><trkpt lat="36.94794468746132" lon="15.038751499559957"><ele>344.0</ele><time>2026-04-04T14:59:58Z</time></trkpt><trkpt lat="36.94807442968711" lon="15.038694896727375"><ele>344.0</ele><time>2026-04-04T14:59:59Z</time></trkpt><trkpt lat="36.9481874329129" lon="15.038668656204171"><ele>344.0</ele><time>2026-04-04T15:00:00Z</time></trkpt><trkpt lat="36.94830932017252" lon="15.038672186299902"><ele>344.0</ele><time>2026-04-04T15:00:01Z</time></trkpt><trkpt lat="36.9484476488442" lon="15.0386844864733"><ele>344.0</ele><time>2026-04-04T15:00:02Z</time></trkpt><trkpt lat="36.9485867322835" lon="15.038706337074204"><ele>344.0</ele><time>2026-04-04T15:00:03Z</time></trkpt><trkpt lat="36.94872313493645" lon="15.038751586439574"><ele>344.0</ele><time>2026-04-04T15:00:04Z</time></trkpt><trkpt lat="36.94887087179962" lon="15.038795805308618"><ele>344.0</ele><time>2026-04-04T15:00:05Z</time></trkpt><trkpt lat="36.94902439941935" lon="15.038839677836272"><ele>344.0</ele><time>2026-04-04T15:00:06Z</time></trkpt><trkpt lat="36.949173075304955" lon="15.03889214539916"><ele>344.0</ele><time>2026-04-04T15:00:07Z</time></trkpt><trkpt lat="36.94930443431356" lon="15.038938619608986"><ele>344.0</ele><time>2026-04-04T15:00:08Z</time></trkpt><trkpt lat="36.949423582881714" lon="15.03894197556077"><ele>344.0</ele><time>2026-04-04T15:00:09Z</time></trkpt><trkpt lat="36.949516215659784" lon="15.038917179722093"><ele>344.33333333333337</ele><time>2026-04-04T15:00:10Z</time></trkpt><trkpt lat="36.94959347909164" lon="15.038904219229174"><ele>344.6666666666667</ele><time>2026-04-04T15:00:11Z</time></trkpt><trkpt lat="36.94966759023258" lon="15.038944475297578"><ele>345.0</ele><time>2026-04-04T15:00:13Z</time></trkpt><trkpt lat="36.949607655580394" lon="15.03901842706153"><ele>345.3333333333333</ele><time>2026-04-04T15:00:15Z</time></trkpt><trkpt lat="36.94961734251242" lon="15.03912941619787"><ele>345.66666666666663</ele><time>2026-04-04T15:00:16Z</time></trkpt><trkpt lat="36.94960753522274" lon="15.039256425197618"><ele>346.0</ele><time>2026-04-04T15:00:17Z</time></trkpt><trkpt lat="36.9495839893743" lon="15.039367657487919"><ele>346.0</ele><time>2026-04-04T15:00:18Z</time></trkpt><trkpt lat="36.94954729578816" lon="15.039559015513353"><ele>346.0</ele><time>2026-04-04T15:00:19Z</time></trkpt><trkpt lat="36.94964453671173" lon="15.039762388205014"><ele>346.0</ele><time>2026-04-04T15:00:20Z</time></trkpt><trkpt lat="36.949729299604876" lon="15.039951861371385"><ele>347.0</ele><time>2026-04-04T15:00:21Z</time></trkpt><trkpt lat="36.94982271727343" lon="15.040170857444895"><ele>348.0</ele><time>2026-04-04T15:00:22Z</time></trkpt><trkpt lat="36.94991822914827" lon="15.04039647582287"><ele>349.0</ele><time>2026-04-04T15:00:23Z</time></trkpt><trkpt lat="36.949998723960825" lon="15.040579848071863"><ele>349.0</ele><time>2026-04-04T15:00:24Z</time></trkpt><trkpt lat="36.95002749221123" lon="15.040701730056881"><ele>349.0</ele><time>2026-04-04T15:00:25Z</time></trkpt><trkpt lat="36.95004197212518" lon="15.040836568188437"><ele>349.0</ele><time>2026-04-04T15:00:26Z</time></trkpt><trkpt lat="36.95005232252727" lon="15.040995944279167"><ele>349.0</ele><time>2026-04-04T15:00:26.999Z</time></trkpt><trkpt lat="36.95006293690868" lon="15.041170986447655"><ele>349.5</ele><time>2026-04-04T15:00:27.999Z</time></trkpt><trkpt lat="36.95007365954243" lon="15.041347813885984"><ele>350.0</ele><time>2026-04-04T15:00:28.999Z</time></trkpt><trkpt lat="36.95008260896396" lon="15.041528586486866"><ele>350.5</ele><time>2026-04-04T15:00:29.999Z</time></trkpt><trkpt lat="36.950085230745465" lon="15.041699502827194"><ele>351.0</ele><time>2026-04-04T15:00:30.999Z</time></trkpt><trkpt lat="36.950075630773675" lon="15.04188231453928"><ele>351.0</ele><time>2026-04-04T15:00:31.999Z</time></trkpt><trkpt lat="36.95006328267053" lon="15.042068427886415"><ele>351.0</ele><time>2026-04-04T15:00:32.999Z</time></trkpt><trkpt lat="36.95005187490823" lon="15.042229527733475"><ele>351.0</ele><time>2026-04-04T15:00:33.999Z</time></trkpt><trkpt lat="36.950039818360885" lon="15.042392191969741"><ele>351.0</ele><time>2026-04-04T15:00:34.999Z</time></trkpt><trkpt lat="36.95002726876047" lon="15.042555562758483"><ele>349.75</ele><time>2026-04-04T15:00:35.999Z</time></trkpt><trkpt lat="36.9500155617702" lon="15.04270796436445"><ele>348.5</ele><time>2026-04-04T15:00:36.999Z</time></trkpt><trkpt lat="36.950004044317254" lon="15.042857898557397"><ele>347.25</ele><time>2026-04-04T15:00:37.999Z</time></trkpt><trkpt lat="36.94999159919696" lon="15.043019909165144"><ele>346.0</ele><time>2026-04-04T15:00:38.999Z</time></trkpt><trkpt lat="36.94997776979302" lon="15.043191273379867"><ele>346.25</ele><time>2026-04-04T15:00:39.999Z</time></trkpt><trkpt lat="36.94996606030765" lon="15.043361863479403"><ele>346.5</ele><time>2026-04-04T15:00:40.999Z</time></trkpt><trkpt lat="36.94996396666354" lon="15.043544281578466"><ele>346.75</ele><time>2026-04-04T15:00:41.999Z</time></trkpt><trkpt lat="36.95002884540038" lon="15.043732208366242"><ele>347.0</ele><time>2026-04-04T15:00:42.999Z</time></trkpt><trkpt lat="36.95004401492724" lon="15.043934560000427"><ele>347.0</ele><time>2026-04-04T15:00:43.999Z</time></trkpt><trkpt lat="36.950043055030875" lon="15.044154970332826"><ele>347.0</ele><time>2026-04-04T15:00:44.999Z</time></trkpt><trkpt lat="36.95003168314328" lon="15.044360988248425"><ele>347.0</ele><time>2026-04-04T15:00:45.999Z</time></trkpt><trkpt lat="36.95002294213856" lon="15.044529549442005"><ele>347.0</ele><time>2026-04-04T15:00:46.999Z</time></trkpt><trkpt lat="36.95001580719124" lon="15.044658190730226"><ele>347.0</ele><time>2026-04-04T15:00:47.999Z</time></trkpt><trkpt lat="36.95001196236726" lon="15.04474835424024"><ele>347.0</ele><time>2026-04-04T15:00:48.999Z</time></trkpt><trkpt lat="36.949958062821" lon="15.044803399201998"><ele>347.0</ele><time>2026-04-04T15:00:49.999Z</time></trkpt><trkpt lat="36.95012871803801" lon="15.044854505477812"><ele>347.0</ele><time>2026-04-04T15:00:52.999Z</time></trkpt><trkpt lat="36.95024797350334" lon="15.044837162887898"><ele>347.83333333333337</ele><time>2026-04-04T15:00:54.999Z</time></trkpt><trkpt lat="36.95035565526841" lon="15.044835010882343"><ele>348.6666666666667</ele><time>2026-04-04T15:00:56.999Z</time></trkpt><trkpt lat="36.950423786270825" lon="15.044815855265409"><ele>349.5</ele><time>2026-04-04T15:00:57.999Z</time></trkpt><trkpt lat="36.950499455437146" lon="15.04480604042497"><ele>350.3333333333333</ele><time>2026-04-04T15:00:58.999Z</time></trkpt><trkpt lat="36.950565496202906" lon="15.044803366328921"><ele>351.16666666666663</ele><time>2026-04-04T15:00:59.999Z</time></trkpt><trkpt lat="36.95066493019698" lon="15.044830790950034"><ele>352.0</ele><time>2026-04-04T15:01:02.001Z</time></trkpt><trkpt lat="36.9507275916383" lon="15.044844649560885"><ele>352.0</ele><time>2026-04-04T15:01:03.001Z</time></trkpt><trkpt lat="36.950780649016785" lon="15.044801652329523"><ele>352.0</ele><time>2026-04-04T15:01:04.001Z</time></trkpt><trkpt lat="36.95082744624866" lon="15.044707702956439"><ele>352.0</ele><time>2026-04-04T15:01:05.001Z</time></trkpt><trkpt lat="36.95088067847187" lon="15.044600674313783"><ele>352.0</ele><time>2026-04-04T15:01:06Z</time></trkpt><trkpt lat="36.950934341724384" lon="15.044509512331306"><ele>352.0</ele><time>2026-04-04T15:01:07.001Z</time></trkpt><trkpt lat="36.95099507678642" lon="15.044426225149543"><ele>352.0</ele><time>2026-04-04T15:01:08.001Z</time></trkpt><trkpt lat="36.951059034896964" lon="15.044335923203434"><ele>353.66666666666663</ele><time>2026-04-04T15:01:09Z</time></trkpt><trkpt lat="36.95108083111099" lon="15.044253178297293"><ele>355.3333333333333</ele><time>2026-04-04T15:01:10Z</time></trkpt><trkpt lat="36.95107764645773" lon="15.044140446156792"><ele>357.0</ele><time>2026-04-04T15:01:11.001Z</time></trkpt><trkpt lat="36.95108183388873" lon="15.044013211698978"><ele>358.6666666666667</ele><time>2026-04-04T15:01:12Z</time></trkpt><trkpt lat="36.95110547918263" lon="15.043927533095708"><ele>360.33333333333337</ele><time>2026-04-04T15:01:13Z</time></trkpt><trkpt lat="36.951152897726516" lon="15.043856463325254"><ele>362.0</ele><time>2026-04-04T15:01:14Z</time></trkpt><trkpt lat="36.95123191948699" lon="15.043800176186245"><ele>362.0</ele><time>2026-04-04T15:01:15Z</time></trkpt><trkpt lat="36.95126775620164" lon="15.043719413378389"><ele>362.0</ele><time>2026-04-04T15:01:17Z</time></trkpt><trkpt lat="36.951246792297354" lon="15.04363899812176"><ele>362.0</ele><time>2026-04-04T15:01:18Z</time></trkpt><trkpt lat="36.95122346138931" lon="15.04356458589386"><ele>362.0</ele><time>2026-04-04T15:01:19Z</time></trkpt><trkpt lat="36.95130744601359" lon="15.043494397722318"><ele>362.0</ele><time>2026-04-04T15:01:21Z</time></trkpt><trkpt lat="36.95138237351307" lon="15.043475175804806"><ele>362.0</ele><time>2026-04-04T15:01:22Z</time></trkpt><trkpt lat="36.95144481417199" lon="15.043457022393508"><ele>362.0</ele><time>2026-04-04T15:01:23Z</time></trkpt><trkpt lat="36.95152762732434" lon="15.04345644244231"><ele>362.0</ele><time>2026-04-04T15:01:25Z</time></trkpt><trkpt lat="36.951595669154266" lon="15.043436118332739"><ele>362.0</ele><time>2026-04-04T15:01:27Z</time></trkpt><trkpt lat="36.951659754470676" lon="15.043421710419072"><ele>362.0</ele><time>2026-04-04T15:01:29Z</time></trkpt><trkpt lat="36.95172920021449" lon="15.043484480337508"><ele>362.0</ele><time>2026-04-04T15:01:33Z</time></trkpt><trkpt lat="36.95179266438903" lon="15.043478250820952"><ele>362.0</ele><time>2026-04-04T15:01:37Z</time></trkpt><trkpt lat="36.951794987324305" lon="15.043563607574107"><ele>362.0</ele><time>2026-04-04T15:01:41Z</time></trkpt><trkpt lat="36.95175009050212" lon="15.04362813622376"><ele>362.0</ele><time>2026-04-04T15:01:48Z</time></trkpt><trkpt lat="36.95171076301011" lon="15.043724266095005"><ele>362.0</ele><time>2026-04-04T15:01:52Z</time></trkpt><trkpt lat="36.95164994599906" lon="15.043809488732375"><ele>362.0</ele><time>2026-04-04T15:01:56Z</time></trkpt><trkpt lat="36.951700170578874" lon="15.04375749558239"><ele>362.0</ele><time>2026-04-04T15:03:25Z</time></trkpt><trkpt lat="36.95174183626354" lon="15.043695327204784"><ele>362.0</ele><time>2026-04-04T15:03:43Z</time></trkpt><trkpt lat="36.95178089673918" lon="15.04360170450486"><ele>362.0</ele><time>2026-04-04T15:03:53Z</time></trkpt><trkpt lat="36.95173944034786" lon="15.0436865901566"><ele>362.0</ele><time>2026-04-04T15:06:59.999Z</time></trkpt><trkpt lat="36.95167533973959" lon="15.04378162424472"><ele>362.0</ele><time>2026-04-04T15:07:07.999Z</time></trkpt><trkpt lat="36.95160509690945" lon="15.043835625435326"><ele>362.0</ele><time>2026-04-04T15:07:10.999Z</time></trkpt><trkpt lat="36.95167799599237" lon="15.043819383783465"><ele>362.0</ele><time>2026-04-04T15:07:39Z</time></trkpt><trkpt lat="36.95171085917522" lon="15.043751994646284"><ele>362.0</ele><time>2026-04-04T15:07:59Z</time></trkpt><trkpt lat="36.95174259086574" lon="15.043683016969098"><ele>362.0</ele><time>2026-04-04T15:08:04Z</time></trkpt><trkpt lat="36.951788974307824" lon="15.04360889901941"><ele>362.0</ele><time>2026-04-04T15:08:07Z</time></trkpt><trkpt lat="36.951753671963154" lon="15.043681341385078"><ele>362.0</ele><time>2026-04-04T15:08:59.999Z</time></trkpt><trkpt lat="36.95167426266597" lon="15.043782150201414"><ele>362.0</ele><time>2026-04-04T15:09:02.999Z</time></trkpt><trkpt lat="36.951616403338555" lon="15.043822807975028"><ele>362.0</ele><time>2026-04-04T15:09:04.999Z</time></trkpt><trkpt lat="36.95171002071247" lon="15.043769360316215"><ele>362.0</ele><time>2026-04-04T15:09:20.999Z</time></trkpt><trkpt lat="36.951755882162566" lon="15.04368247012357"><ele>362.0</ele><time>2026-04-04T15:09:26Z</time></trkpt><trkpt lat="36.951786539366715" lon="15.043593237868308"><ele>362.0</ele><time>2026-04-04T15:09:29Z</time></trkpt><trkpt lat="36.95172885678194" lon="15.043648121716675"><ele>362.0</ele><time>2026-04-04T15:10:14Z</time></trkpt><trkpt lat="36.95166204809553" lon="15.043733885186658"><ele>362.0</ele><time>2026-04-04T15:10:17Z</time></trkpt><trkpt lat="36.951609884721606" lon="15.043798749920287"><ele>362.0</ele><time>2026-04-04T15:10:19Z</time></trkpt><trkpt lat="36.9515561355676" lon="15.043846933455189"><ele>362.0</ele><time>2026-04-04T15:10:23Z</time></trkpt><trkpt lat="36.95164411997501" lon="15.04376147220598"><ele>362.0</ele><time>2026-04-04T15:10:32Z</time></trkpt><trkpt lat="36.951694345545086" lon="15.043694148927123"><ele>362.0</ele><time>2026-04-04T15:10:36Z</time></trkpt><trkpt lat="36.951746601008054" lon="15.0435919211358"><ele>362.0</ele><time>2026-04-04T15:10:38.999Z</time></trkpt><trkpt lat="36.95168075316198" lon="15.043630508074507"><ele>362.0</ele><time>2026-04-04T15:11:14.999Z</time></trkpt><trkpt lat="36.95162801160214" lon="15.043713303084685"><ele>362.0</ele><time>2026-04-04T15:11:17.999Z</time></trkpt><trkpt lat="36.9515867922671" lon="15.04378785117607"><ele>362.0</ele><time>2026-04-04T15:11:19.999Z</time></trkpt><trkpt lat="36.95155513300872" lon="15.043873389709347"><ele>362.0</ele><time>2026-04-04T15:11:21.999Z</time></trkpt><trkpt lat="36.95150935367276" lon="15.043932064206587"><ele>362.0</ele><time>2026-04-04T15:11:24.999Z</time></trkpt><trkpt lat="36.9515021834291" lon="15.044015901123796"><ele>362.0</ele><time>2026-04-04T15:11:26.999Z</time></trkpt><trkpt lat="36.9516116291533" lon="15.044048970678102"><ele>362.0</ele><time>2026-04-04T15:11:29.999Z</time></trkpt><trkpt lat="36.95167916166714" lon="15.044076637576682"><ele>362.0</ele><time>2026-04-04T15:11:31Z</time></trkpt><trkpt lat="36.951747231483964" lon="15.044118288574573"><ele>362.0</ele><time>2026-04-04T15:11:32Z</time></trkpt><trkpt lat="36.95185855183598" lon="15.044152219961566"><ele>362.0</ele><time>2026-04-04T15:11:34Z</time></trkpt><trkpt lat="36.951917168237614" lon="15.0442685339492"><ele>362.0</ele><time>2026-04-04T15:11:36Z</time></trkpt><trkpt lat="36.95193838939441" lon="15.044452577012748"><ele>362.6666666666667</ele><time>2026-04-04T15:11:38Z</time></trkpt><trkpt lat="36.95191595433276" lon="15.044534498449094"><ele>363.33333333333337</ele><time>2026-04-04T15:11:39Z</time></trkpt><trkpt lat="36.95187512984819" lon="15.044616508918446"><ele>364.0</ele><time>2026-04-04T15:11:40Z</time></trkpt><trkpt lat="36.951841687430395" lon="15.044711912864123"><ele>364.6666666666667</ele><time>2026-04-04T15:11:41Z</time></trkpt><trkpt lat="36.95180619425666" lon="15.044808902559264"><ele>365.3333333333333</ele><time>2026-04-04T15:11:42Z</time></trkpt><trkpt lat="36.951779920925006" lon="15.044906128209403"><ele>366.0</ele><time>2026-04-04T15:11:43Z</time></trkpt><trkpt lat="36.95186308885233" lon="15.044948919589972"><ele>365.6</ele><time>2026-04-04T15:11:46Z</time></trkpt><trkpt lat="36.95195214356924" lon="15.045054940818892"><ele>365.20000000000005</ele><time>2026-04-04T15:11:48Z</time></trkpt><trkpt lat="36.952041400820306" lon="15.045160952470344"><ele>364.79999999999995</ele><time>2026-04-04T15:11:50Z</time></trkpt><trkpt lat="36.95211293530246" lon="15.045246160243392"><ele>364.4</ele><time>2026-04-04T15:11:52Z</time></trkpt><trkpt lat="36.95217810726516" lon="15.0452542194039"><ele>364.0</ele><time>2026-04-04T15:11:55Z</time></trkpt><trkpt lat="36.952281040963314" lon="15.045107212437033"><ele>364.0</ele><time>2026-04-04T15:11:57Z</time></trkpt><trkpt lat="36.95234461534897" lon="15.045014228964796"><ele>364.0</ele><time>2026-04-04T15:11:58Z</time></trkpt><trkpt lat="36.952422198500095" lon="15.044903085644972"><ele>364.0</ele><time>2026-04-04T15:11:59Z</time></trkpt><trkpt lat="36.952519527277424" lon="15.044802234688104"><ele>364.0</ele><time>2026-04-04T15:12:00Z</time></trkpt><trkpt lat="36.95262363056501" lon="15.04463031982736"><ele>363.5</ele><time>2026-04-04T15:12:01Z</time></trkpt><trkpt lat="36.952706965629744" lon="15.044493174926005"><ele>363.0</ele><time>2026-04-04T15:12:02Z</time></trkpt><trkpt lat="36.952788106387445" lon="15.044360233738807"><ele>362.5</ele><time>2026-04-04T15:12:03Z</time></trkpt><trkpt lat="36.95286432497333" lon="15.044235356767718"><ele>362.0</ele><time>2026-04-04T15:12:04Z</time></trkpt><trkpt lat="36.952932132870465" lon="15.044124259699322"><ele>362.0</ele><time>2026-04-04T15:12:05Z</time></trkpt><trkpt lat="36.95299618307502" lon="15.04401931962397"><ele>362.0</ele><time>2026-04-04T15:12:06Z</time></trkpt><trkpt lat="36.953062753744774" lon="15.043910250237191"><ele>362.0</ele><time>2026-04-04T15:12:07Z</time></trkpt><trkpt lat="36.953128801124684" lon="15.04380203754466"><ele>362.0</ele><time>2026-04-04T15:12:08Z</time></trkpt><trkpt lat="36.953200353571496" lon="15.043684842028293"><ele>362.0</ele><time>2026-04-04T15:12:09Z</time></trkpt><trkpt lat="36.95327118272828" lon="15.043568988581884"><ele>362.0</ele><time>2026-04-04T15:12:10Z</time></trkpt><trkpt lat="36.953336234882514" lon="15.043462584145624"><ele>362.0</ele><time>2026-04-04T15:12:11Z</time></trkpt><trkpt lat="36.95339575702804" lon="15.043365225269357"><ele>362.0</ele><time>2026-04-04T15:12:12Z</time></trkpt><trkpt lat="36.95345165038414" lon="15.043273801800657"><ele>362.0</ele><time>2026-04-04T15:12:13Z</time></trkpt><trkpt lat="36.953501644130775" lon="15.043192028300473"><ele>362.0</ele><time>2026-04-04T15:12:14Z</time></trkpt><trkpt lat="36.95355045549523" lon="15.043112865558522"><ele>361.8</ele><time>2026-04-04T15:12:15Z</time></trkpt><trkpt lat="36.9535935726255" lon="15.043042972452982"><ele>361.6</ele><time>2026-04-04T15:12:16Z</time></trkpt><trkpt lat="36.95363426679501" lon="15.042977007102406"><ele>361.40000000000003</ele><time>2026-04-04T15:12:17Z</time></trkpt><trkpt lat="36.9537091044075" lon="15.042855694909177"><ele>361.20000000000005</ele><time>2026-04-04T15:12:19Z</time></trkpt><trkpt lat="36.953770758002" lon="15.042755754318398"><ele>361.0</ele><time>2026-04-04T15:12:21Z</time></trkpt><trkpt lat="36.95383706602546" lon="15.042648268843308"><ele>361.0</ele><time>2026-04-04T15:12:23Z</time></trkpt><trkpt lat="36.953823030212845" lon="15.042569039129651"><ele>361.0</ele><time>2026-04-04T15:12:24Z</time></trkpt><trkpt lat="36.95387810048863" lon="15.042491098461177"><ele>361.0</ele><time>2026-04-04T15:12:26Z</time></trkpt><trkpt lat="36.953971346504396" lon="15.042448886631885"><ele>361.0</ele><time>2026-04-04T15:12:28Z</time></trkpt><trkpt lat="36.95401042487934" lon="15.042341803647991"><ele>361.0</ele><time>2026-04-04T15:12:29Z</time></trkpt><trkpt lat="36.95411287880295" lon="15.042253506093626"><ele>361.75</ele><time>2026-04-04T15:12:30Z</time></trkpt><trkpt lat="36.95423000575718" lon="15.042172258096185"><ele>362.5</ele><time>2026-04-04T15:12:31Z</time></trkpt><trkpt lat="36.954344234848875" lon="15.042074312069124"><ele>363.25</ele><time>2026-04-04T15:12:32Z</time></trkpt><trkpt lat="36.95448082793916" lon="15.042002142563605"><ele>364.0</ele><time>2026-04-04T15:12:33Z</time></trkpt><trkpt lat="36.95460501672049" lon="15.041895282480914"><ele>364.0</ele><time>2026-04-04T15:12:34Z</time></trkpt><trkpt lat="36.954717476470144" lon="15.041798183450235"><ele>364.0</ele><time>2026-04-04T15:12:35Z</time></trkpt><trkpt lat="36.95481266413663" lon="15.041715715525848"><ele>364.0</ele><time>2026-04-04T15:12:36Z</time></trkpt><trkpt lat="36.954893839833225" lon="15.041642610336647"><ele>364.0</ele><time>2026-04-04T15:12:37Z</time></trkpt><trkpt lat="36.954963939464115" lon="15.041573196043933"><ele>364.0</ele><time>2026-04-04T15:12:37.999Z</time></trkpt><trkpt lat="36.95502279804803" lon="15.041493349627967"><ele>366.6</ele><time>2026-04-04T15:12:39.999Z</time></trkpt><trkpt lat="36.955067602117" lon="15.041405794991794"><ele>369.2</ele><time>2026-04-04T15:12:42.999Z</time></trkpt><trkpt lat="36.95510379682233" lon="15.041331720210389"><ele>371.8</ele><time>2026-04-04T15:12:45.999Z</time></trkpt><trkpt lat="36.95519436378789" lon="15.041523548125577"><ele>374.40000000000003</ele><time>2026-04-04T15:12:57.999Z</time></trkpt><trkpt lat="36.955247057032345" lon="15.041608174339121"><ele>377.0</ele><time>2026-04-04T15:12:58.999Z</time></trkpt><trkpt lat="36.95530361305411" lon="15.041699004071702"><ele>377.0</ele><time>2026-04-04T15:12:59.999Z</time></trkpt><trkpt lat="36.95536414641108" lon="15.041803702456773"><ele>377.0</ele><time>2026-04-04T15:13:00.999Z</time></trkpt><trkpt lat="36.95542873657178" lon="15.041903555823309"><ele>377.0</ele><time>2026-04-04T15:13:01.999Z</time></trkpt><trkpt lat="36.95547055583638" lon="15.042016749828326"><ele>377.0</ele><time>2026-04-04T15:13:02.999Z</time></trkpt><trkpt lat="36.95548610415919" lon="15.04212096086484"><ele>377.0</ele><time>2026-04-04T15:13:03.999Z</time></trkpt><trkpt lat="36.95551758956798" lon="15.042196443178836"><ele>377.0</ele><time>2026-04-04T15:13:04.999Z</time></trkpt><trkpt lat="36.95557894243343" lon="15.042262259029563"><ele>377.0</ele><time>2026-04-04T15:13:05.999Z</time></trkpt><trkpt lat="36.95566846008092" lon="15.042325843823123"><ele>377.0</ele><time>2026-04-04T15:13:06.999Z</time></trkpt><trkpt lat="36.9557810355846" lon="15.042383489144493"><ele>377.0</ele><time>2026-04-04T15:13:07.999Z</time></trkpt><trkpt lat="36.955861057231346" lon="15.042429836422912"><ele>377.0</ele><time>2026-04-04T15:13:08.999Z</time></trkpt><trkpt lat="36.95591865910475" lon="15.042529642281476"><ele>376.20000000000005</ele><time>2026-04-04T15:13:09.999Z</time></trkpt><trkpt lat="36.95596989714774" lon="15.042654776905277"><ele>375.4</ele><time>2026-04-04T15:13:10.999Z</time></trkpt><trkpt lat="36.956020482887965" lon="15.042776339327723"><ele>374.6</ele><time>2026-04-04T15:13:11.999Z</time></trkpt><trkpt lat="36.95605945388246" lon="15.042894647195942"><ele>373.79999999999995</ele><time>2026-04-04T15:13:12.999Z</time></trkpt><trkpt lat="36.95607024552742" lon="15.043049830486297"><ele>373.0</ele><time>2026-04-04T15:13:13.999Z</time></trkpt><trkpt lat="36.956056130234316" lon="15.04321411230027"><ele>372.2</ele><time>2026-04-04T15:13:14.999Z</time></trkpt><trkpt lat="36.95603559946538" lon="15.043361681440718"><ele>371.4</ele><time>2026-04-04T15:13:15.999Z</time></trkpt><trkpt lat="36.956027763415754" lon="15.043522563608022"><ele>370.59999999999997</ele><time>2026-04-04T15:13:16.999Z</time></trkpt><trkpt lat="36.95604192338178" lon="15.043631807597244"><ele>369.79999999999995</ele><time>2026-04-04T15:13:17.999Z</time></trkpt><trkpt lat="36.95604055722143" lon="15.043746710899194"><ele>369.0</ele><time>2026-04-04T15:13:18.999Z</time></trkpt><trkpt lat="36.956016186472965" lon="15.043879282261267"><ele>369.0</ele><time>2026-04-04T15:13:19.999Z</time></trkpt><trkpt lat="36.95598491026852" lon="15.044012932870547"><ele>369.0</ele><time>2026-04-04T15:13:20.999Z</time></trkpt><trkpt lat="36.95594220913289" lon="15.044138176535839"><ele>369.0</ele><time>2026-04-04T15:13:21.999Z</time></trkpt><trkpt lat="36.95589042007617" lon="15.044268445467365"><ele>369.0</ele><time>2026-04-04T15:13:22.999Z</time></trkpt><trkpt lat="36.95583035423067" lon="15.04438042251616"><ele>369.0</ele><time>2026-04-04T15:13:23.999Z</time></trkpt><trkpt lat="36.95578856479499" lon="15.044478031415444"><ele>369.4</ele><time>2026-04-04T15:13:24.999Z</time></trkpt><trkpt lat="36.95576669844519" lon="15.04457426418342"><ele>369.79999999999995</ele><time>2026-04-04T15:13:25.999Z</time></trkpt><trkpt lat="36.95575936383996" lon="15.0446730259593"><ele>370.20000000000005</ele><time>2026-04-04T15:13:26.999Z</time></trkpt><trkpt lat="36.955780520072" lon="15.04477722872698"><ele>370.6</ele><time>2026-04-04T15:13:27.999Z</time></trkpt><trkpt lat="36.95582399571914" lon="15.044893887909579"><ele>371.0</ele><time>2026-04-04T15:13:28.999Z</time></trkpt><trkpt lat="36.9558719901352" lon="15.04501026551861"><ele>371.0</ele><time>2026-04-04T15:13:29.999Z</time></trkpt><trkpt lat="36.955910428888174" lon="15.0451281945833"><ele>371.0</ele><time>2026-04-04T15:13:30.999Z</time></trkpt><trkpt lat="36.955982628563355" lon="15.045214507647936"><ele>371.0</ele><time>2026-04-04T15:13:31.999Z</time></trkpt><trkpt lat="36.95607512112397" lon="15.045277686376163"><ele>371.0</ele><time>2026-04-04T15:13:32.999Z</time></trkpt><trkpt lat="36.95616199899339" lon="15.045350108009213"><ele>371.0</ele><time>2026-04-04T15:13:33.999Z</time></trkpt><trkpt lat="36.956253911916384" lon="15.045400403750326"><ele>371.0</ele><time>2026-04-04T15:13:34.999Z</time></trkpt><trkpt lat="36.95631998567815" lon="15.045478935530122"><ele>371.0</ele><time>2026-04-04T15:13:35.999Z</time></trkpt><trkpt lat="36.956372753030585" lon="15.045549545398623"><ele>371.0</ele><time>2026-04-04T15:13:37Z</time></trkpt><trkpt lat="36.956472044335506" lon="15.045598606875835"><ele>371.0</ele><time>2026-04-04T15:13:39Z</time></trkpt><trkpt lat="36.95659948065975" lon="15.045611629172928"><ele>371.0</ele><time>2026-04-04T15:13:41Z</time></trkpt><trkpt lat="36.95666025375693" lon="15.04556260815692"><ele>371.5</ele><time>2026-04-04T15:13:42Z</time></trkpt><trkpt lat="36.95671003288723" lon="15.045465468827928"><ele>372.0</ele><time>2026-04-04T15:13:43Z</time></trkpt><trkpt lat="36.95674328174816" lon="15.045370612461978"><ele>372.5</ele><time>2026-04-04T15:13:44Z</time></trkpt><trkpt lat="36.95677039134059" lon="15.045283585328418"><ele>373.0</ele><time>2026-04-04T15:13:45Z</time></trkpt><trkpt lat="36.95679967185799" lon="15.045199663021675"><ele>373.5</ele><time>2026-04-04T15:13:46Z</time></trkpt><trkpt lat="36.956831646297594" lon="15.045113452972164"><ele>374.0</ele><time>2026-04-04T15:13:47Z</time></trkpt><trkpt lat="36.95688677435625" lon="15.04500842805113"><ele>373.6666666666667</ele><time>2026-04-04T15:13:49Z</time></trkpt><trkpt lat="36.956963365762284" lon="15.044899011613683"><ele>373.33333333333337</ele><time>2026-04-04T15:13:51Z</time></trkpt><trkpt lat="36.95701487687174" lon="15.044849926136129"><ele>373.0</ele><time>2026-04-04T15:13:52Z</time></trkpt><trkpt lat="36.95708197887856" lon="15.044804652328112"><ele>372.6666666666667</ele><time>2026-04-04T15:13:53Z</time></trkpt><trkpt lat="36.957152676853084" lon="15.044767130834218"><ele>372.3333333333333</ele><time>2026-04-04T15:13:54Z</time></trkpt><trkpt lat="36.95722265561868" lon="15.044732892283099"><ele>372.0</ele><time>2026-04-04T15:13:55Z</time></trkpt><trkpt lat="36.95728856472679" lon="15.04470285215805"><ele>372.0</ele><time>2026-04-04T15:13:56Z</time></trkpt><trkpt lat="36.95735044959268" lon="15.044674646824122"><ele>372.0</ele><time>2026-04-04T15:13:57Z</time></trkpt><trkpt lat="36.95747680832785" lon="15.044617051528633"><ele>372.0</ele><time>2026-04-04T15:13:59Z</time></trkpt><trkpt lat="36.9574813025218" lon="15.044387039436588"><ele>372.0</ele><time>2026-04-04T15:14:00Z</time></trkpt><trkpt lat="36.95755352109515" lon="15.044350536376882"><ele>373.0</ele><time>2026-04-04T15:14:01Z</time></trkpt><trkpt lat="36.957630185680635" lon="15.044343550888563"><ele>374.0</ele><time>2026-04-04T15:14:02Z</time></trkpt><trkpt lat="36.95770616870922" lon="15.044287801603495"><ele>375.0</ele><time>2026-04-04T15:14:04Z</time></trkpt><trkpt lat="36.95777099481882" lon="15.044203766531139"><ele>376.0</ele><time>2026-04-04T15:14:06Z</time></trkpt><trkpt lat="36.957874939243354" lon="15.044171431687737"><ele>377.0</ele><time>2026-04-04T15:14:08Z</time></trkpt><trkpt lat="36.95793417878907" lon="15.044136854225417"><ele>378.0</ele><time>2026-04-04T15:14:09Z</time></trkpt><trkpt lat="36.95800826129804" lon="15.044087857343964"><ele>378.0</ele><time>2026-04-04T15:14:11Z</time></trkpt><trkpt lat="36.95805688565284" lon="15.04401659417985"><ele>378.0</ele><time>2026-04-04T15:14:13Z</time></trkpt><trkpt lat="36.95808805134292" lon="15.043944339650201"><ele>378.0</ele><time>2026-04-04T15:14:15Z</time></trkpt><trkpt lat="36.95810675531291" lon="15.043848653315427"><ele>378.0</ele><time>2026-04-04T15:14:17Z</time></trkpt><trkpt lat="36.95814305997733" lon="15.04376500170791"><ele>378.0</ele><time>2026-04-04T15:14:20Z</time></trkpt><trkpt lat="36.95827885340436" lon="15.043354408985499"><ele>378.0</ele><time>2026-04-04T15:14:21Z</time></trkpt><trkpt lat="36.95830756646586" lon="15.04327749398377"><ele>378.0</ele><time>2026-04-04T15:14:22Z</time></trkpt><trkpt lat="36.95836404823393" lon="15.043140993652743"><ele>378.0</ele><time>2026-04-04T15:14:24Z</time></trkpt><trkpt lat="36.958399586871636" lon="15.043067123012136"><ele>378.0</ele><time>2026-04-04T15:14:25Z</time></trkpt><trkpt lat="36.95843230391763" lon="15.04299590050861"><ele>378.0</ele><time>2026-04-04T15:14:26Z</time></trkpt><trkpt lat="36.95846235858116" lon="15.042901578881589"><ele>378.0</ele><time>2026-04-04T15:14:28Z</time></trkpt><trkpt lat="36.95850740226471" lon="15.042805637402"><ele>378.57142857142856</ele><time>2026-04-04T15:14:30Z</time></trkpt><trkpt lat="36.958539520414895" lon="15.042724685048691"><ele>379.1428571428571</ele><time>2026-04-04T15:14:32Z</time></trkpt><trkpt lat="36.958576922513245" lon="15.042643686911015"><ele>379.7142857142857</ele><time>2026-04-04T15:14:34Z</time></trkpt><trkpt lat="36.958605803950995" lon="15.042562723059136"><ele>380.2857142857143</ele><time>2026-04-04T15:14:36Z</time></trkpt><trkpt lat="36.958699361165536" lon="15.042578987862132"><ele>380.85714285714283</ele><time>2026-04-04T15:14:41Z</time></trkpt><trkpt lat="36.95876217540923" lon="15.042628407648436"><ele>381.42857142857144</ele><time>2026-04-04T15:14:42.999Z</time></trkpt><trkpt lat="36.958805637122666" lon="15.042685447408111"><ele>382.0</ele><time>2026-04-04T15:14:43.999Z</time></trkpt><trkpt lat="36.958941411088404" lon="15.04269045600991"><ele>382.0</ele><time>2026-04-04T15:14:47.999Z</time></trkpt><trkpt lat="36.95902252809253" lon="15.04264621716359"><ele>382.0</ele><time>2026-04-04T15:14:49.999Z</time></trkpt><trkpt lat="36.95908690759607" lon="15.042550229922142"><ele>382.0</ele><time>2026-04-04T15:14:52.999Z</time></trkpt><trkpt lat="36.95913706704128" lon="15.042496452486416"><ele>382.0</ele><time>2026-04-04T15:14:54.999Z</time></trkpt><trkpt lat="36.95924773163079" lon="15.042467272519907"><ele>382.0</ele><time>2026-04-04T15:16:31Z</time></trkpt><trkpt lat="36.95932538520494" lon="15.042434401461348"><ele>385.16666666666663</ele><time>2026-04-04T15:16:33Z</time></trkpt><trkpt lat="36.959398037994696" lon="15.042399366235488"><ele>388.3333333333333</ele><time>2026-04-04T15:16:35Z</time></trkpt><trkpt lat="36.95946351524699" lon="15.042341355745128"><ele>391.5</ele><time>2026-04-04T15:16:37Z</time></trkpt><trkpt lat="36.959510534878234" lon="15.042276141610696"><ele>394.66666666666663</ele><time>2026-04-04T15:16:39Z</time></trkpt><trkpt lat="36.95953401638327" lon="15.042202670749287"><ele>397.8333333333333</ele><time>2026-04-04T15:16:41Z</time></trkpt><trkpt lat="36.95958426919356" lon="15.042136295267966"><ele>401.0</ele><time>2026-04-04T15:16:43Z</time></trkpt><trkpt lat="36.9596629336422" lon="15.042052889657024"><ele>401.0</ele><time>2026-04-04T15:16:44.999Z</time></trkpt><trkpt lat="36.95972995921146" lon="15.041964013341309"><ele>401.0</ele><time>2026-04-04T15:16:46.999Z</time></trkpt><trkpt lat="36.95981811999805" lon="15.041853947343094"><ele>401.0</ele><time>2026-04-04T15:16:48.999Z</time></trkpt><trkpt lat="36.95989817760639" lon="15.041744014930268"><ele>401.0</ele><time>2026-04-04T15:16:50.999Z</time></trkpt><trkpt lat="36.95997641720422" lon="15.041623461276933"><ele>401.14285714285717</ele><time>2026-04-04T15:16:52.999Z</time></trkpt><trkpt lat="36.9600314468431" lon="15.041557171655434"><ele>401.28571428571433</ele><time>2026-04-04T15:16:53.999Z</time></trkpt><trkpt lat="36.96008557658965" lon="15.041505356996792"><ele>401.42857142857144</ele><time>2026-04-04T15:16:54.999Z</time></trkpt><trkpt lat="36.96014195402096" lon="15.041456291174116"><ele>401.57142857142856</ele><time>2026-04-04T15:16:55.999Z</time></trkpt><trkpt lat="36.96019980339419" lon="15.041398076483784"><ele>401.7142857142857</ele><time>2026-04-04T15:16:56.999Z</time></trkpt><trkpt lat="36.960270025610946" lon="15.041354009550812"><ele>401.85714285714283</ele><time>2026-04-04T15:16:57.999Z</time></trkpt><trkpt lat="36.96033910587361" lon="15.041297209550766"><ele>402.0</ele><time>2026-04-04T15:16:58.999Z</time></trkpt><trkpt lat="36.960403438325194" lon="15.041234564331543"><ele>402.8</ele><time>2026-04-04T15:16:59.999Z</time></trkpt><trkpt lat="36.96047343897802" lon="15.041164870014923"><ele>403.6</ele><time>2026-04-04T15:17:00.999Z</time></trkpt><trkpt lat="36.960545642520636" lon="15.041085746548935"><ele>404.40000000000003</ele><time>2026-04-04T15:17:01.999Z</time></trkpt><trkpt lat="36.960618558093444" lon="15.04101090756968"><ele>405.20000000000005</ele><time>2026-04-04T15:17:02.999Z</time></trkpt><trkpt lat="36.960694432223285" lon="15.04095874112434"><ele>406.0</ele><time>2026-04-04T15:17:03.999Z</time></trkpt><trkpt lat="36.960777281420775" lon="15.04084669062431"><ele>405.83333333333337</ele><time>2026-04-04T15:17:05.999Z</time></trkpt><trkpt lat="36.96079797489486" lon="15.040751062389393"><ele>405.6666666666667</ele><time>2026-04-04T15:17:06.999Z</time></trkpt><trkpt lat="36.96081820151502" lon="15.040664979328938"><ele>405.5</ele><time>2026-04-04T15:17:07.999Z</time></trkpt><trkpt lat="36.960842506734046" lon="15.040582835966669"><ele>405.33333333333337</ele><time>2026-04-04T15:17:08.999Z</time></trkpt><trkpt lat="36.96088861390625" lon="15.04051323828226"><ele>405.1666666666667</ele><time>2026-04-04T15:17:09.999Z</time></trkpt><trkpt lat="36.960899847706784" lon="15.04042101608607"><ele>405.0</ele><time>2026-04-04T15:17:10.999Z</time></trkpt><trkpt lat="36.96086643041289" lon="15.040273506328353"><ele>405.0</ele><time>2026-04-04T15:17:11.999Z</time></trkpt><trkpt lat="36.96086064300658" lon="15.040128880864955"><ele>405.0</ele><time>2026-04-04T15:17:12.999Z</time></trkpt><trkpt lat="36.960858881744166" lon="15.039981405587246"><ele>405.0</ele><time>2026-04-04T15:17:13.999Z</time></trkpt><trkpt lat="36.960912628377315" lon="15.039870516577697"><ele>405.0</ele><time>2026-04-04T15:17:14.999Z</time></trkpt><trkpt lat="36.96092918145719" lon="15.039729466526989"><ele>405.8</ele><time>2026-04-04T15:17:15.999Z</time></trkpt><trkpt lat="36.96095407229513" lon="15.039594401844596"><ele>406.6</ele><time>2026-04-04T15:17:16.999Z</time></trkpt><trkpt lat="36.96096138076928" lon="15.039478929118115"><ele>407.4</ele><time>2026-04-04T15:17:17.999Z</time></trkpt><trkpt lat="36.96096656769473" lon="15.039369619558864"><ele>408.2</ele><time>2026-04-04T15:17:18.999Z</time></trkpt><trkpt lat="36.960935073160975" lon="15.039260127132849"><ele>409.0</ele><time>2026-04-04T15:17:19.999Z</time></trkpt><trkpt lat="36.96088639865313" lon="15.039163745255978"><ele>409.33333333333337</ele><time>2026-04-04T15:17:20.999Z</time></trkpt><trkpt lat="36.96086844448178" lon="15.039077343577798"><ele>409.6666666666667</ele><time>2026-04-04T15:17:21.999Z</time></trkpt><trkpt lat="36.96090466287699" lon="15.0389923528452"><ele>410.0</ele><time>2026-04-04T15:17:22.999Z</time></trkpt><trkpt lat="36.960950260066504" lon="15.038927652069166"><ele>410.33333333333337</ele><time>2026-04-04T15:17:23.999Z</time></trkpt><trkpt lat="36.961017232395555" lon="15.038872281753166"><ele>410.6666666666667</ele><time>2026-04-04T15:17:24.999Z</time></trkpt><trkpt lat="36.96107166345488" lon="15.038790324534569"><ele>411.0</ele><time>2026-04-04T15:17:25.999Z</time></trkpt><trkpt lat="36.961123299482864" lon="15.038701175056085"><ele>411.0</ele><time>2026-04-04T15:17:26.999Z</time></trkpt><trkpt lat="36.96120332423739" lon="15.03862181365799"><ele>411.0</ele><time>2026-04-04T15:17:27.999Z</time></trkpt><trkpt lat="36.961290529040966" lon="15.038531151597091"><ele>411.0</ele><time>2026-04-04T15:17:28.999Z</time></trkpt><trkpt lat="36.96137635701886" lon="15.038453737409608"><ele>411.0</ele><time>2026-04-04T15:17:29.999Z</time></trkpt><trkpt lat="36.961460302585195" lon="15.03837100083042"><ele>411.0</ele><time>2026-04-04T15:17:30.999Z</time></trkpt><trkpt lat="36.96155149184747" lon="15.038284202444155"><ele>410.75</ele><time>2026-04-04T15:17:31.999Z</time></trkpt><trkpt lat="36.961648548138875" lon="15.038203082911783"><ele>410.5</ele><time>2026-04-04T15:17:32.999Z</time></trkpt><trkpt lat="36.961759872418014" lon="15.038133538269195"><ele>410.25</ele><time>2026-04-04T15:17:33.999Z</time></trkpt><trkpt lat="36.961870943297654" lon="15.038065262131074"><ele>410.0</ele><time>2026-04-04T15:17:34.999Z</time></trkpt><trkpt lat="36.96198276591698" lon="15.038000863870067"><ele>411.25</ele><time>2026-04-04T15:17:35.999Z</time></trkpt><trkpt lat="36.96210970716533" lon="15.037945745159218"><ele>412.5</ele><time>2026-04-04T15:17:36.999Z</time></trkpt><trkpt lat="36.962249211940545" lon="15.037927115250334"><ele>413.75</ele><time>2026-04-04T15:17:37.999Z</time></trkpt><trkpt lat="36.962363964454376" lon="15.037896012669918"><ele>415.0</ele><time>2026-04-04T15:17:38.999Z</time></trkpt><trkpt lat="36.96244067630511" lon="15.037850887656795"><ele>415.00000000000006</ele><time>2026-04-04T15:17:39.999Z</time></trkpt><trkpt lat="36.96250993014579" lon="15.037801503012407"><ele>415.0</ele><time>2026-04-04T15:17:40.999Z</time></trkpt><trkpt lat="36.96256862441566" lon="15.037766286227214"><ele>415.0</ele><time>2026-04-04T15:17:41.999Z</time></trkpt><trkpt lat="36.962659212" lon="15.037706452671278"><ele>415.0</ele><time>2026-04-04T15:17:44.999Z</time></trkpt><trkpt lat="36.962736982314254" lon="15.037656905654568"><ele>415.00000000000006</ele><time>2026-04-04T15:17:45.999Z</time></trkpt><trkpt lat="36.96282436210544" lon="15.037613283652943"><ele>415.0</ele><time>2026-04-04T15:17:46.999Z</time></trkpt><trkpt lat="36.96292381801387" lon="15.037544354224318"><ele>416.2</ele><time>2026-04-04T15:17:48Z</time></trkpt><trkpt lat="36.96298736218126" lon="15.037459023595956"><ele>417.4</ele><time>2026-04-04T15:17:49Z</time></trkpt><trkpt lat="36.9630652894744" lon="15.03736205985814"><ele>418.6</ele><time>2026-04-04T15:17:50Z</time></trkpt><trkpt lat="36.96314279617761" lon="15.037270606650976"><ele>419.8</ele><time>2026-04-04T15:17:51Z</time></trkpt><trkpt lat="36.96322319628598" lon="15.037183662694234"><ele>421.0</ele><time>2026-04-04T15:17:52Z</time></trkpt><trkpt lat="36.96330730960962" lon="15.037080033129385"><ele>422.0</ele><time>2026-04-04T15:17:53Z</time></trkpt><trkpt lat="36.963400097997805" lon="15.036975912836017"><ele>423.0</ele><time>2026-04-04T15:17:54Z</time></trkpt><trkpt lat="36.96349386325928" lon="15.036872853571312"><ele>424.0</ele><time>2026-04-04T15:17:55Z</time></trkpt><trkpt lat="36.963563041955595" lon="15.036764351693154"><ele>425.0</ele><time>2026-04-04T15:17:56Z</time></trkpt><trkpt lat="36.96363415259909" lon="15.03665517900714"><ele>426.75</ele><time>2026-04-04T15:17:57Z</time></trkpt><trkpt lat="36.963700180209784" lon="15.03655399541303"><ele>428.5</ele><time>2026-04-04T15:17:58Z</time></trkpt><trkpt lat="36.96378411335214" lon="15.03644850231174"><ele>430.25</ele><time>2026-04-04T15:17:59Z</time></trkpt><trkpt lat="36.96388198240958" lon="15.03635012119146"><ele>432.0</ele><time>2026-04-04T15:18:00Z</time></trkpt><trkpt lat="36.96397458910693" lon="15.03622067167329"><ele>432.0</ele><time>2026-04-04T15:18:01Z</time></trkpt><trkpt lat="36.964052359672245" lon="15.03610521040156"><ele>432.0</ele><time>2026-04-04T15:18:02Z</time></trkpt><trkpt lat="36.96413701383792" lon="15.035999146154731"><ele>432.0</ele><time>2026-04-04T15:18:03Z</time></trkpt><trkpt lat="36.964218437565904" lon="15.035888555654925"><ele>432.0</ele><time>2026-04-04T15:18:04Z</time></trkpt><trkpt lat="36.964300519006294" lon="15.03576038715788"><ele>433.5</ele><time>2026-04-04T15:18:05Z</time></trkpt><trkpt lat="36.96438478596029" lon="15.035631344393527"><ele>435.0</ele><time>2026-04-04T15:18:06Z</time></trkpt><trkpt lat="36.96452222783066" lon="15.035571543271757"><ele>436.5</ele><time>2026-04-04T15:18:07Z</time></trkpt><trkpt lat="36.96461686400267" lon="15.035467553564546"><ele>438.0</ele><time>2026-04-04T15:18:08Z</time></trkpt><trkpt lat="36.964693745986686" lon="15.035393509706163"><ele>438.0</ele><time>2026-04-04T15:18:09Z</time></trkpt><trkpt lat="36.96476930596654" lon="15.035335750272328"><ele>437.99999999999994</ele><time>2026-04-04T15:18:10Z</time></trkpt><trkpt lat="36.96486310613852" lon="15.035279115070363"><ele>437.99999999999994</ele><time>2026-04-04T15:18:11Z</time></trkpt><trkpt lat="36.96496215844452" lon="15.035222452757212"><ele>438.0</ele><time>2026-04-04T15:18:12Z</time></trkpt><trkpt lat="36.96507670791596" lon="15.035146265228793"><ele>438.0</ele><time>2026-04-04T15:18:13Z</time></trkpt><trkpt lat="36.965182328208336" lon="15.035071299163807"><ele>438.0</ele><time>2026-04-04T15:18:14Z</time></trkpt><trkpt lat="36.965288499529876" lon="15.034995809267981"><ele>438.0</ele><time>2026-04-04T15:18:15Z</time></trkpt><trkpt lat="36.96538960806491" lon="15.034929012309412"><ele>438.0</ele><time>2026-04-04T15:18:16Z</time></trkpt><trkpt lat="36.96548992253365" lon="15.034869491212417"><ele>438.0</ele><time>2026-04-04T15:18:17Z</time></trkpt><trkpt lat="36.965590764330926" lon="15.034812544043007"><ele>438.0</ele><time>2026-04-04T15:18:18Z</time></trkpt><trkpt lat="36.965682190385685" lon="15.034761913786099"><ele>438.0</ele><time>2026-04-04T15:18:19Z</time></trkpt><trkpt lat="36.9657515068101" lon="15.034718308485255"><ele>438.0</ele><time>2026-04-04T15:18:20Z</time></trkpt><trkpt lat="36.96581207651148" lon="15.034668628170836"><ele>438.0</ele><time>2026-04-04T15:18:21Z</time></trkpt><trkpt lat="36.96587379389548" lon="15.034588901178351"><ele>438.0</ele><time>2026-04-04T15:18:23Z</time></trkpt><trkpt lat="36.96583509299066" lon="15.03452269853064"><ele>438.0</ele><time>2026-04-04T15:19:10.999Z</time></trkpt><trkpt lat="36.96581671724725" lon="15.034404680039145"><ele>438.0</ele><time>2026-04-04T15:19:15.999Z</time></trkpt><trkpt lat="36.965882730216535" lon="15.034324797042283"><ele>437.99999999999994</ele><time>2026-04-04T15:19:17.999Z</time></trkpt><trkpt lat="36.965945507215736" lon="15.034294826946647"><ele>437.99999999999994</ele><time>2026-04-04T15:19:18.999Z</time></trkpt><trkpt lat="36.96604881251681" lon="15.034274398048682"><ele>438.0</ele><time>2026-04-04T15:19:19.999Z</time></trkpt><trkpt lat="36.96619364485578" lon="15.03430783248814"><ele>438.0</ele><time>2026-04-04T15:19:20.999Z</time></trkpt><trkpt lat="36.96637892723614" lon="15.034261570694495"><ele>438.0</ele><time>2026-04-04T15:19:21.999Z</time></trkpt><trkpt lat="36.966591753098385" lon="15.034208431785311"><ele>438.0</ele><time>2026-04-04T15:19:22.999Z</time></trkpt><trkpt lat="36.96682748830749" lon="15.034148574079751"><ele>438.0</ele><time>2026-04-04T15:19:23.999Z</time></trkpt><trkpt lat="36.9670390535339" lon="15.034094600193164"><ele>438.0</ele><time>2026-04-04T15:19:24.999Z</time></trkpt><trkpt lat="36.96722830535955" lon="15.03404945022262"><ele>438.0</ele><time>2026-04-04T15:19:25.999Z</time></trkpt><trkpt lat="36.967382997683686" lon="15.034010813266605"><ele>439.0</ele><time>2026-04-04T15:19:26.999Z</time></trkpt><trkpt lat="36.967529842267275" lon="15.033973677671568"><ele>440.0</ele><time>2026-04-04T15:19:27.999Z</time></trkpt><trkpt lat="36.96768387536591" lon="15.033935331094924"><ele>441.0</ele><time>2026-04-04T15:19:28.999Z</time></trkpt><trkpt lat="36.967833894292035" lon="15.03389822755868"><ele>441.0</ele><time>2026-04-04T15:19:29.999Z</time></trkpt><trkpt lat="36.96799801885422" lon="15.033857635326457"><ele>441.0</ele><time>2026-04-04T15:19:30.999Z</time></trkpt><trkpt lat="36.968169319979715" lon="15.033815268161522"><ele>441.0</ele><time>2026-04-04T15:19:31.999Z</time></trkpt><trkpt lat="36.968348081757966" lon="15.033766852310698"><ele>441.33333333333337</ele><time>2026-04-04T15:19:32.999Z</time></trkpt><trkpt lat="36.968535005220886" lon="15.033712260308633"><ele>441.6666666666667</ele><time>2026-04-04T15:19:33.999Z</time></trkpt><trkpt lat="36.968721999466325" lon="15.033649773502287"><ele>442.0</ele><time>2026-04-04T15:19:34.999Z</time></trkpt><trkpt lat="36.968909136280566" lon="15.033581656580637"><ele>442.0</ele><time>2026-04-04T15:19:35.999Z</time></trkpt><trkpt lat="36.96908934323887" lon="15.033513038169895"><ele>442.0</ele><time>2026-04-04T15:19:36.999Z</time></trkpt><trkpt lat="36.96926585923035" lon="15.03344564906174"><ele>442.0</ele><time>2026-04-04T15:19:37.999Z</time></trkpt><trkpt lat="36.96943929464042" lon="15.033377879070953"><ele>442.6666666666667</ele><time>2026-04-04T15:19:38.999Z</time></trkpt><trkpt lat="36.96960909451647" lon="15.03331134344681"><ele>443.33333333333337</ele><time>2026-04-04T15:19:39.999Z</time></trkpt><trkpt lat="36.969777345045536" lon="15.033247054717572"><ele>444.0</ele><time>2026-04-04T15:19:40.999Z</time></trkpt><trkpt lat="36.96992258492956" lon="15.033122017080636"><ele>444.0</ele><time>2026-04-04T15:19:41.999Z</time></trkpt><trkpt lat="36.970073573959375" lon="15.033073741122182"><ele>444.0</ele><time>2026-04-04T15:19:42.999Z</time></trkpt><trkpt lat="36.970226701987556" lon="15.033045390477046"><ele>444.0</ele><time>2026-04-04T15:19:43.999Z</time></trkpt><trkpt lat="36.97040900200396" lon="15.03305291599208"><ele>444.0</ele><time>2026-04-04T15:19:44.999Z</time></trkpt><trkpt lat="36.97059568289237" lon="15.033137854049684"><ele>444.0</ele><time>2026-04-04T15:19:45.999Z</time></trkpt><trkpt lat="36.97078577937687" lon="15.033138544534674"><ele>444.0</ele><time>2026-04-04T15:19:46.999Z</time></trkpt><trkpt lat="36.97097299140142" lon="15.033137773343267"><ele>446.0</ele><time>2026-04-04T15:19:47.999Z</time></trkpt><trkpt lat="36.971165136648025" lon="15.0331355799013"><ele>448.0</ele><time>2026-04-04T15:19:48.999Z</time></trkpt><trkpt lat="36.971356293940055" lon="15.033133397739556"><ele>450.0</ele><time>2026-04-04T15:19:49.999Z</time></trkpt><trkpt lat="36.97154487485475" lon="15.033131244988244"><ele>448.66666666666663</ele><time>2026-04-04T15:19:50.999Z</time></trkpt><trkpt lat="36.97173370570089" lon="15.033123752423256"><ele>447.3333333333333</ele><time>2026-04-04T15:19:51.999Z</time></trkpt><trkpt lat="36.97193469363897" lon="15.033080783895626"><ele>446.0</ele><time>2026-04-04T15:19:52.999Z</time></trkpt><trkpt lat="36.9721322936829" lon="15.033007433019812"><ele>446.0</ele><time>2026-04-04T15:19:54Z</time></trkpt><trkpt lat="36.97232231317903" lon="15.032929897470954"><ele>446.0</ele><time>2026-04-04T15:19:55Z</time></trkpt><trkpt lat="36.972505704647254" lon="15.032855066418682"><ele>446.0</ele><time>2026-04-04T15:19:56Z</time></trkpt><trkpt lat="36.97267676586687" lon="15.032719099966886"><ele>446.3333333333333</ele><time>2026-04-04T15:19:57Z</time></trkpt><trkpt lat="36.97285671093143" lon="15.03263835605641"><ele>446.66666666666663</ele><time>2026-04-04T15:19:58Z</time></trkpt><trkpt lat="36.9730359141762" lon="15.032566735202701"><ele>447.0</ele><time>2026-04-04T15:19:59Z</time></trkpt><trkpt lat="36.973228031151756" lon="15.032554566559483"><ele>446.66666666666663</ele><time>2026-04-04T15:20:00Z</time></trkpt><trkpt lat="36.97340541293978" lon="15.032480556081016"><ele>446.3333333333333</ele><time>2026-04-04T15:20:01Z</time></trkpt><trkpt lat="36.97358573658548" lon="15.032405318143544"><ele>446.0</ele><time>2026-04-04T15:20:02Z</time></trkpt><trkpt lat="36.973765358220035" lon="15.032330373114513"><ele>446.0</ele><time>2026-04-04T15:20:03Z</time></trkpt><trkpt lat="36.97394667488207" lon="15.032254722126348"><ele>446.0</ele><time>2026-04-04T15:20:04Z</time></trkpt><trkpt lat="36.97412715432794" lon="15.032178949212593"><ele>446.0</ele><time>2026-04-04T15:20:05Z</time></trkpt><trkpt lat="36.97430746698729" lon="15.032102120341284"><ele>446.0</ele><time>2026-04-04T15:20:06Z</time></trkpt><trkpt lat="36.97448655114759" lon="15.032026138896548"><ele>446.0</ele><time>2026-04-04T15:20:07Z</time></trkpt><trkpt lat="36.974665510148114" lon="15.031950397745842"><ele>446.0</ele><time>2026-04-04T15:20:08Z</time></trkpt><trkpt lat="36.97484217554619" lon="15.031876012303007"><ele>446.0</ele><time>2026-04-04T15:20:09Z</time></trkpt><trkpt lat="36.97501679523008" lon="15.031805107003196"><ele>446.0</ele><time>2026-04-04T15:20:10Z</time></trkpt><trkpt lat="36.975189194754854" lon="15.0317368699625"><ele>446.0</ele><time>2026-04-04T15:20:11Z</time></trkpt><trkpt lat="36.9753565150349" lon="15.031672942707463"><ele>447.3333333333333</ele><time>2026-04-04T15:20:12Z</time></trkpt><trkpt lat="36.97552236324997" lon="15.03163738303887"><ele>448.66666666666663</ele><time>2026-04-04T15:20:13Z</time></trkpt><trkpt lat="36.97568721929663" lon="15.031642919549999"><ele>450.0</ele><time>2026-04-04T15:20:14Z</time></trkpt><trkpt lat="36.97583984197378" lon="15.031693472425438"><ele>452.0</ele><time>2026-04-04T15:20:15Z</time></trkpt><trkpt lat="36.97596192446405" lon="15.031783203611909"><ele>454.0</ele><time>2026-04-04T15:20:16Z</time></trkpt><trkpt lat="36.976081478794526" lon="15.031913950071692"><ele>456.0</ele><time>2026-04-04T15:20:17Z</time></trkpt><trkpt lat="36.976176771323495" lon="15.032089943356377"><ele>456.0</ele><time>2026-04-04T15:20:18Z</time></trkpt><trkpt lat="36.9762813149332" lon="15.032253265218065"><ele>456.0</ele><time>2026-04-04T15:20:19Z</time></trkpt><trkpt lat="36.976382045249224" lon="15.03240341071953"><ele>456.0</ele><time>2026-04-04T15:20:20Z</time></trkpt><trkpt lat="36.976486574684486" lon="15.032540084820319"><ele>454.33333333333337</ele><time>2026-04-04T15:20:21Z</time></trkpt><trkpt lat="36.976648728368616" lon="15.0326119823718"><ele>452.6666666666667</ele><time>2026-04-04T15:20:22Z</time></trkpt><trkpt lat="36.976825827171055" lon="15.032631616185753"><ele>451.0</ele><time>2026-04-04T15:20:23Z</time></trkpt><trkpt lat="36.97700734971335" lon="15.03262341274004"><ele>451.6666666666667</ele><time>2026-04-04T15:20:24Z</time></trkpt><trkpt lat="36.97718252416048" lon="15.032594018947327"><ele>452.33333333333337</ele><time>2026-04-04T15:20:25Z</time></trkpt><trkpt lat="36.97735313116971" lon="15.032533762973134"><ele>453.0</ele><time>2026-04-04T15:20:26Z</time></trkpt><trkpt lat="36.97751536755175" lon="15.032450174272208"><ele>449.0</ele><time>2026-04-04T15:20:27Z</time></trkpt><trkpt lat="36.97767031462705" lon="15.03234089120249"><ele>445.0</ele><time>2026-04-04T15:20:28Z</time></trkpt><trkpt lat="36.977807964371756" lon="15.03221735815332"><ele>441.0</ele><time>2026-04-04T15:20:29Z</time></trkpt><trkpt lat="36.97792103728346" lon="15.032085177255333"><ele>441.0</ele><time>2026-04-04T15:20:30Z</time></trkpt><trkpt lat="36.9780073037331" lon="15.031935094433088"><ele>441.0</ele><time>2026-04-04T15:20:31Z</time></trkpt><trkpt lat="36.97807505585697" lon="15.031791975147994"><ele>441.0</ele><time>2026-04-04T15:20:32Z</time></trkpt><trkpt lat="36.978137365700185" lon="15.031657254359942"><ele>441.0</ele><time>2026-04-04T15:20:33Z</time></trkpt><trkpt lat="36.97819954042661" lon="15.031517660222711"><ele>440.75</ele><time>2026-04-04T15:20:34Z</time></trkpt><trkpt lat="36.97826571399036" lon="15.031367428058264"><ele>440.5</ele><time>2026-04-04T15:20:35Z</time></trkpt><trkpt lat="36.978335465459125" lon="15.031212130072829"><ele>440.25</ele><time>2026-04-04T15:20:36Z</time></trkpt><trkpt lat="36.97840547769834" lon="15.031061227178016"><ele>440.0</ele><time>2026-04-04T15:20:37Z</time></trkpt><trkpt lat="36.97847624403659" lon="15.030933178612994"><ele>440.0</ele><time>2026-04-04T15:20:38Z</time></trkpt><trkpt lat="36.97855134774609" lon="15.030829524196097"><ele>440.0</ele><time>2026-04-04T15:20:39Z</time></trkpt><trkpt lat="36.97863583526211" lon="15.030782030453326"><ele>440.0</ele><time>2026-04-04T15:20:40Z</time></trkpt><trkpt lat="36.97873441002276" lon="15.030778099517578"><ele>440.0</ele><time>2026-04-04T15:20:41Z</time></trkpt><trkpt lat="36.978824579324574" lon="15.030850935710896"><ele>440.0</ele><time>2026-04-04T15:20:42Z</time></trkpt><trkpt lat="36.97894525820748" lon="15.030932164471192"><ele>440.0</ele><time>2026-04-04T15:20:43Z</time></trkpt><trkpt lat="36.979070805409236" lon="15.031007427760894"><ele>440.0</ele><time>2026-04-04T15:20:44Z</time></trkpt><trkpt lat="36.979210992055606" lon="15.031060088818897"><ele>440.0</ele><time>2026-04-04T15:20:45Z</time></trkpt><trkpt lat="36.97936443943099" lon="15.03106750342997"><ele>440.0</ele><time>2026-04-04T15:20:46Z</time></trkpt><trkpt lat="36.97952290896136" lon="15.031021890489047"><ele>439.0</ele><time>2026-04-04T15:20:47Z</time></trkpt><trkpt lat="36.97967450910234" lon="15.030935863046519"><ele>438.0</ele><time>2026-04-04T15:20:48Z</time></trkpt><trkpt lat="36.97982089258674" lon="15.030844100858609"><ele>437.0</ele><time>2026-04-04T15:20:49Z</time></trkpt><trkpt lat="36.97997207881564" lon="15.030742310424465"><ele>437.0</ele><time>2026-04-04T15:20:49.999Z</time></trkpt><trkpt lat="36.98012235320577" lon="15.030639472345081"><ele>437.0</ele><time>2026-04-04T15:20:50.999Z</time></trkpt><trkpt lat="36.98027624009914" lon="15.030536232391889"><ele>437.0</ele><time>2026-04-04T15:20:51.999Z</time></trkpt><trkpt lat="36.980432183962364" lon="15.030435795402031"><ele>437.0</ele><time>2026-04-04T15:20:52.999Z</time></trkpt><trkpt lat="36.980589954275544" lon="15.03033418207497"><ele>437.0</ele><time>2026-04-04T15:20:53.999Z</time></trkpt><trkpt lat="36.98074771922412" lon="15.0302290395347"><ele>437.0</ele><time>2026-04-04T15:20:54.999Z</time></trkpt><trkpt lat="36.98089923905355" lon="15.03012798422138"><ele>436.3333333333333</ele><time>2026-04-04T15:20:55.999Z</time></trkpt><trkpt lat="36.981052566596794" lon="15.030026652491783"><ele>435.66666666666663</ele><time>2026-04-04T15:20:56.999Z</time></trkpt><trkpt lat="36.98120712194499" lon="15.029925021211035"><ele>435.0</ele><time>2026-04-04T15:20:57.999Z</time></trkpt><trkpt lat="36.981361101479884" lon="15.029823766379481"><ele>435.0</ele><time>2026-04-04T15:20:58.999Z</time></trkpt><trkpt lat="36.981512958933905" lon="15.029724625186175"><ele>435.0</ele><time>2026-04-04T15:20:59.999Z</time></trkpt><trkpt lat="36.98166590702346" lon="15.029624771971472"><ele>435.0</ele><time>2026-04-04T15:21:00.999Z</time></trkpt><trkpt lat="36.98181688533766" lon="15.029526204732013"><ele>434.33333333333337</ele><time>2026-04-04T15:21:01.999Z</time></trkpt><trkpt lat="36.981969389836344" lon="15.029425960840241"><ele>433.6666666666667</ele><time>2026-04-04T15:21:02.999Z</time></trkpt><trkpt lat="36.98211984887389" lon="15.029326172522989"><ele>433.0</ele><time>2026-04-04T15:21:03.999Z</time></trkpt><trkpt lat="36.98226933358757" lon="15.029226536089652"><ele>432.6666666666667</ele><time>2026-04-04T15:21:04.999Z</time></trkpt><trkpt lat="36.98242093827821" lon="15.02912542443142"><ele>432.33333333333337</ele><time>2026-04-04T15:21:05.999Z</time></trkpt><trkpt lat="36.98257256930404" lon="15.02902651971948"><ele>432.0</ele><time>2026-04-04T15:21:06.999Z</time></trkpt><trkpt lat="36.98272980545403" lon="15.028933826398388"><ele>432.66666666666663</ele><time>2026-04-04T15:21:07.999Z</time></trkpt><trkpt lat="36.982892838269514" lon="15.02885314566358"><ele>433.3333333333333</ele><time>2026-04-04T15:21:08.999Z</time></trkpt><trkpt lat="36.9830634934132" lon="15.02878544580238"><ele>434.0</ele><time>2026-04-04T15:21:09.999Z</time></trkpt><trkpt lat="36.98323495809535" lon="15.028723099376922"><ele>433.66666666666663</ele><time>2026-04-04T15:21:10.999Z</time></trkpt><trkpt lat="36.98340258905503" lon="15.028662177907712"><ele>433.33333333333337</ele><time>2026-04-04T15:21:11.999Z</time></trkpt><trkpt lat="36.983569152915614" lon="15.028602853218274"><ele>433.0</ele><time>2026-04-04T15:21:12.999Z</time></trkpt><trkpt lat="36.98373473269803" lon="15.028543880115175"><ele>433.0</ele><time>2026-04-04T15:21:13.999Z</time></trkpt><trkpt lat="36.98390413117614" lon="15.028484101621046"><ele>433.0</ele><time>2026-04-04T15:21:14.999Z</time></trkpt><trkpt lat="36.98407314477558" lon="15.028424817038095"><ele>433.0</ele><time>2026-04-04T15:21:15.999Z</time></trkpt><trkpt lat="36.98424151908175" lon="15.0283655361153"><ele>433.33333333333337</ele><time>2026-04-04T15:21:16.999Z</time></trkpt><trkpt lat="36.98441094567322" lon="15.028304512000556"><ele>433.66666666666663</ele><time>2026-04-04T15:21:17.999Z</time></trkpt><trkpt lat="36.984584189929066" lon="15.028242112873636"><ele>434.0</ele><time>2026-04-04T15:21:18.999Z</time></trkpt><trkpt lat="36.984759788758254" lon="15.028178865643127"><ele>434.0</ele><time>2026-04-04T15:21:19.999Z</time></trkpt><trkpt lat="36.98493656780113" lon="15.028117980587208"><ele>434.0</ele><time>2026-04-04T15:21:20.999Z</time></trkpt><trkpt lat="36.98511384975757" lon="15.028056242533857"><ele>434.0</ele><time>2026-04-04T15:21:21.999Z</time></trkpt><trkpt lat="36.9852807957186" lon="15.027995400481348"><ele>431.66666666666663</ele><time>2026-04-04T15:21:22.999Z</time></trkpt><trkpt lat="36.98543036192914" lon="15.027929984132722"><ele>429.33333333333337</ele><time>2026-04-04T15:21:23.999Z</time></trkpt><trkpt lat="36.98556463196333" lon="15.027839118076912"><ele>427.0</ele><time>2026-04-04T15:21:24.999Z</time></trkpt><trkpt lat="36.98567961073502" lon="15.027720342142707"><ele>427.0</ele><time>2026-04-04T15:21:25.999Z</time></trkpt><trkpt lat="36.985771630175456" lon="15.027590724585687"><ele>427.0</ele><time>2026-04-04T15:21:26.999Z</time></trkpt><trkpt lat="36.98585369701346" lon="15.027436687930493"><ele>427.0</ele><time>2026-04-04T15:21:27.999Z</time></trkpt><trkpt lat="36.98592242241296" lon="15.027293583673085"><ele>427.0</ele><time>2026-04-04T15:21:28.999Z</time></trkpt><trkpt lat="36.98598481276701" lon="15.027132461173851"><ele>425.25</ele><time>2026-04-04T15:21:29.999Z</time></trkpt><trkpt lat="36.98604278618191" lon="15.026965776667096"><ele>423.5</ele><time>2026-04-04T15:21:30.999Z</time></trkpt><trkpt lat="36.986099784599396" lon="15.026796596321475"><ele>421.75</ele><time>2026-04-04T15:21:31.999Z</time></trkpt><trkpt lat="36.986160597140945" lon="15.026641887981135"><ele>420.0</ele><time>2026-04-04T15:21:32.999Z</time></trkpt><trkpt lat="36.98622582168657" lon="15.026522132591998"><ele>419.6</ele><time>2026-04-04T15:21:33.999Z</time></trkpt><trkpt lat="36.986294154380445" lon="15.026456673710744"><ele>419.2</ele><time>2026-04-04T15:21:34.999Z</time></trkpt><trkpt lat="36.9863561479753" lon="15.026440648467887"><ele>418.79999999999995</ele><time>2026-04-04T15:21:35.999Z</time></trkpt><trkpt lat="36.98646214024875" lon="15.026472856068255"><ele>418.4</ele><time>2026-04-04T15:21:37.999Z</time></trkpt><trkpt lat="36.98660974111941" lon="15.026330614245339"><ele>418.0</ele><time>2026-04-04T15:21:41.999Z</time></trkpt><trkpt lat="36.98663717309519" lon="15.02625238966751"><ele>418.00000000000006</ele><time>2026-04-04T15:21:42.999Z</time></trkpt><trkpt lat="36.98666321058914" lon="15.02615234356713"><ele>418.0</ele><time>2026-04-04T15:21:43.999Z</time></trkpt><trkpt lat="36.9866808914822" lon="15.026037760205655"><ele>418.0</ele><time>2026-04-04T15:21:44.999Z</time></trkpt><trkpt lat="36.98668938424284" lon="15.025926590827602"><ele>418.0</ele><time>2026-04-04T15:21:45.999Z</time></trkpt><trkpt lat="36.98666958892432" lon="15.025820798744492"><ele>418.00000000000006</ele><time>2026-04-04T15:21:46.999Z</time></trkpt><trkpt lat="36.98661524550964" lon="15.025736583538439"><ele>418.0</ele><time>2026-04-04T15:21:47.999Z</time></trkpt><trkpt lat="36.986570978921435" lon="15.02565052969858"><ele>417.83333333333337</ele><time>2026-04-04T15:21:48.999Z</time></trkpt><trkpt lat="36.986560285813944" lon="15.02557011749922"><ele>417.6666666666667</ele><time>2026-04-04T15:21:49.999Z</time></trkpt><trkpt lat="36.98657191142954" lon="15.025479664614817"><ele>417.5</ele><time>2026-04-04T15:21:50.999Z</time></trkpt><trkpt lat="36.986590173532" lon="15.025386289816696"><ele>417.33333333333337</ele><time>2026-04-04T15:21:51.999Z</time></trkpt><trkpt lat="36.98661163272531" lon="15.025275554944498"><ele>417.1666666666667</ele><time>2026-04-04T15:21:52.999Z</time></trkpt><trkpt lat="36.986637127988566" lon="15.02516135250449"><ele>417.0</ele><time>2026-04-04T15:21:53.999Z</time></trkpt><trkpt lat="36.98666705994483" lon="15.025046485671531"><ele>415.6</ele><time>2026-04-04T15:21:54.999Z</time></trkpt><trkpt lat="36.986703073443415" lon="15.024928751285348"><ele>414.20000000000005</ele><time>2026-04-04T15:21:55.999Z</time></trkpt><trkpt lat="36.9867435209181" lon="15.024837033727048"><ele>412.8</ele><time>2026-04-04T15:21:56.999Z</time></trkpt><trkpt lat="36.986783150004044" lon="15.02475295290766"><ele>411.4</ele><time>2026-04-04T15:21:57.999Z</time></trkpt><trkpt lat="36.98682840993184" lon="15.024659242720709"><ele>410.0</ele><time>2026-04-04T15:21:58.999Z</time></trkpt><trkpt lat="36.98688089073577" lon="15.024527811626687"><ele>410.0</ele><time>2026-04-04T15:22:01Z</time></trkpt><trkpt lat="36.9868072945038" lon="15.024673008168907"><ele>410.0</ele><time>2026-04-04T15:22:07Z</time></trkpt><trkpt lat="36.98679005339023" lon="15.024800076896726"><ele>410.0</ele><time>2026-04-04T15:22:09Z</time></trkpt><trkpt lat="36.98672577397853" lon="15.024911461337105"><ele>410.0</ele><time>2026-04-04T15:22:12Z</time></trkpt><trkpt lat="36.98667153360527" lon="15.024984866818498"><ele>410.0</ele><time>2026-04-04T15:22:15Z</time></trkpt><trkpt lat="36.98666510142342" lon="15.025118431915002"><ele>409.4</ele><time>2026-04-04T15:22:17Z</time></trkpt><trkpt lat="36.986622531358755" lon="15.025243508044621"><ele>408.8</ele><time>2026-04-04T15:22:19Z</time></trkpt><trkpt lat="36.98656661209891" lon="15.02533106224691"><ele>408.20000000000005</ele><time>2026-04-04T15:22:21Z</time></trkpt><trkpt lat="36.98670293256697" lon="15.025366896498022"><ele>407.6</ele><time>2026-04-04T15:22:55.999Z</time></trkpt><trkpt lat="36.9867847431132" lon="15.025378829064795"><ele>407.0</ele><time>2026-04-04T15:23:33.999Z</time></trkpt><trkpt lat="36.98682965298734" lon="15.025471479930294"><ele>407.0</ele><time>2026-04-04T15:23:39.999Z</time></trkpt><trkpt lat="36.986971881822626" lon="15.025511498411815"><ele>407.0</ele><time>2026-04-04T15:24:15Z</time></trkpt><trkpt lat="36.98703722597979" lon="15.02549839442161"><ele>407.0</ele><time>2026-04-04T15:24:21Z</time></trkpt><trkpt lat="36.987075403079984" lon="15.025399978532224"><ele>407.0</ele><time>2026-04-04T15:24:27Z</time></trkpt><trkpt lat="36.98710869285428" lon="15.02531625114951"><ele>407.0</ele><time>2026-04-04T15:24:31Z</time></trkpt><trkpt lat="36.98726117623889" lon="15.025296240667233"><ele>406.99999999999994</ele><time>2026-04-04T15:24:37Z</time></trkpt><trkpt lat="36.98731994742778" lon="15.025227668973981"><ele>407.0</ele><time>2026-04-04T15:24:40Z</time></trkpt><trkpt lat="36.98726986227855" lon="15.025178675647389"><ele>407.0</ele><time>2026-04-04T15:25:02.999Z</time></trkpt><trkpt lat="36.987235227739546" lon="15.025099156193571"><ele>407.0</ele><time>2026-04-04T15:25:59.999Z</time></trkpt><trkpt lat="36.987205028574714" lon="15.02499737716354"><ele>406.99999999999994</ele><time>2026-04-04T15:26:01.999Z</time></trkpt><trkpt lat="36.9872068078747" lon="15.024841188194722"><ele>407.0</ele><time>2026-04-04T15:26:03.999Z</time></trkpt><trkpt lat="36.98725753855638" lon="15.024756815442542"><ele>407.16666666666663</ele><time>2026-04-04T15:26:04.999Z</time></trkpt><trkpt lat="36.98733047140289" lon="15.024678336518082"><ele>407.3333333333333</ele><time>2026-04-04T15:26:05.999Z</time></trkpt><trkpt lat="36.9873887622542" lon="15.024616110829653"><ele>407.5</ele><time>2026-04-04T15:26:06.999Z</time></trkpt><trkpt lat="36.98745634601755" lon="15.024553990299411"><ele>407.66666666666663</ele><time>2026-04-04T15:26:07.999Z</time></trkpt><trkpt lat="36.9875356717089" lon="15.02448978184182"><ele>407.8333333333333</ele><time>2026-04-04T15:26:08.999Z</time></trkpt><trkpt lat="36.98761355064853" lon="15.02443129083205"><ele>408.0</ele><time>2026-04-04T15:26:09.999Z</time></trkpt><trkpt lat="36.987708950337726" lon="15.024369773136263"><ele>408.0</ele><time>2026-04-04T15:26:10.999Z</time></trkpt><trkpt lat="36.98782293402017" lon="15.024333140355772"><ele>408.0</ele><time>2026-04-04T15:26:12Z</time></trkpt><trkpt lat="36.98789938116508" lon="15.024272339845128"><ele>408.0</ele><time>2026-04-04T15:26:13Z</time></trkpt><trkpt lat="36.987979725284" lon="15.024201454009251"><ele>408.0</ele><time>2026-04-04T15:26:14Z</time></trkpt><trkpt lat="36.988055988746716" lon="15.024134212159192"><ele>408.0</ele><time>2026-04-04T15:26:15Z</time></trkpt><trkpt lat="36.988128233725156" lon="15.024075333491242"><ele>409.5</ele><time>2026-04-04T15:26:16Z</time></trkpt><trkpt lat="36.98819811837615" lon="15.024017780793358"><ele>411.0</ele><time>2026-04-04T15:26:17Z</time></trkpt><trkpt lat="36.98826428979992" lon="15.023960253741743"><ele>412.5</ele><time>2026-04-04T15:26:18Z</time></trkpt><trkpt lat="36.988334440070815" lon="15.023911202938317"><ele>414.0</ele><time>2026-04-04T15:26:19Z</time></trkpt><trkpt lat="36.98841007287292" lon="15.02386977893516"><ele>415.5</ele><time>2026-04-04T15:26:20Z</time></trkpt><trkpt lat="36.988498827710984" lon="15.023839261726403"><ele>417.0</ele><time>2026-04-04T15:26:21Z</time></trkpt><trkpt lat="36.98857096617096" lon="15.023804088983823"><ele>417.0</ele><time>2026-04-04T15:26:22Z</time></trkpt><trkpt lat="36.98867319135346" lon="15.023710536750212"><ele>417.0</ele><time>2026-04-04T15:26:24Z</time></trkpt><trkpt lat="36.988744228737424" lon="15.023676210606972"><ele>417.0</ele><time>2026-04-04T15:26:25Z</time></trkpt><trkpt lat="36.988823532435745" lon="15.023653664327696"><ele>417.0</ele><time>2026-04-04T15:26:26Z</time></trkpt><trkpt lat="36.98889071720714" lon="15.023635652111569"><ele>417.0</ele><time>2026-04-04T15:26:27Z</time></trkpt><trkpt lat="36.988960887085824" lon="15.023588627009934"><ele>417.0</ele><time>2026-04-04T15:26:28Z</time></trkpt><trkpt lat="36.98903274360474" lon="15.023574462076322"><ele>417.0</ele><time>2026-04-04T15:26:29Z</time></trkpt><trkpt lat="36.98910842480953" lon="15.023575953981549"><ele>417.0</ele><time>2026-04-04T15:26:30Z</time></trkpt><trkpt lat="36.989179976788634" lon="15.023577305556163"><ele>417.0</ele><time>2026-04-04T15:26:31Z</time></trkpt><trkpt lat="36.98927986153056" lon="15.023595351716708"><ele>417.0</ele><time>2026-04-04T15:26:33Z</time></trkpt><trkpt lat="36.989356685795514" lon="15.02362802271023"><ele>417.0</ele><time>2026-04-04T15:26:35Z</time></trkpt><trkpt lat="36.98944036608814" lon="15.023660887468093"><ele>417.0</ele><time>2026-04-04T15:26:38Z</time></trkpt><trkpt lat="36.98955182346561" lon="15.023657824593068"><ele>417.25</ele><time>2026-04-04T15:26:55Z</time></trkpt><trkpt lat="36.989623111206285" lon="15.023647230719902"><ele>417.5</ele><time>2026-04-04T15:26:58Z</time></trkpt><trkpt lat="36.9896920659626" lon="15.023676157727126"><ele>417.75</ele><time>2026-04-04T15:27:01Z</time></trkpt><trkpt lat="36.98979122947565" lon="15.02369495996495"><ele>418.0</ele><time>2026-04-04T15:27:03.999Z</time></trkpt><trkpt lat="36.98994515589449" lon="15.023928483360384"><ele>418.4</ele><time>2026-04-04T15:27:17.999Z</time></trkpt><trkpt lat="36.99002119222319" lon="15.024016205154803"><ele>418.79999999999995</ele><time>2026-04-04T15:27:18.999Z</time></trkpt><trkpt lat="36.990099166204615" lon="15.024080469655205"><ele>419.2</ele><time>2026-04-04T15:27:19.999Z</time></trkpt><trkpt lat="36.990160514207005" lon="15.024120477044859"><ele>419.6</ele><time>2026-04-04T15:27:20.999Z</time></trkpt><trkpt lat="36.990245824404006" lon="15.024127549781726"><ele>420.0</ele><time>2026-04-04T15:27:21.999Z</time></trkpt><trkpt lat="36.99034800799715" lon="15.024126192293323"><ele>420.0</ele><time>2026-04-04T15:27:22.999Z</time></trkpt><trkpt lat="36.99054727836676" lon="15.024108732539764"><ele>420.0</ele><time>2026-04-04T15:27:24.999Z</time></trkpt><trkpt lat="36.99063860279413" lon="15.024060085816755"><ele>420.0</ele><time>2026-04-04T15:27:26.999Z</time></trkpt><trkpt lat="36.990736195456776" lon="15.024049638744447"><ele>420.0</ele><time>2026-04-04T15:27:28.999Z</time></trkpt><trkpt lat="36.99082721019792" lon="15.024029775608563"><ele>419.2</ele><time>2026-04-04T15:27:30.999Z</time></trkpt><trkpt lat="36.99092304536177" lon="15.023968162745234"><ele>418.4</ele><time>2026-04-04T15:27:32.999Z</time></trkpt><trkpt lat="36.99102609350157" lon="15.023949223831462"><ele>417.6</ele><time>2026-04-04T15:27:34.999Z</time></trkpt><trkpt lat="36.99109387063423" lon="15.023947908147512"><ele>416.8</ele><time>2026-04-04T15:27:37.999Z</time></trkpt><trkpt lat="36.991177518914284" lon="15.023990659231783"><ele>416.0</ele><time>2026-04-04T15:27:40.999Z</time></trkpt><trkpt lat="36.99135202237745" lon="15.023973851378862"><ele>416.0</ele><time>2026-04-04T15:27:44.999Z</time></trkpt><trkpt lat="36.99142791571471" lon="15.023972268575948"><ele>416.0</ele><time>2026-04-04T15:27:45.999Z</time></trkpt><trkpt lat="36.9915848815703" lon="15.023937782897082"><ele>416.0</ele><time>2026-04-04T15:28:12.999Z</time></trkpt><trkpt lat="36.99162562208078" lon="15.023874995668853"><ele>416.0</ele><time>2026-04-04T15:28:13.999Z</time></trkpt><trkpt lat="36.99164651563161" lon="15.023796748930243"><ele>416.0</ele><time>2026-04-04T15:28:14.999Z</time></trkpt><trkpt lat="36.99165070414833" lon="15.023682971898383"><ele>415.3333333333333</ele><time>2026-04-04T15:28:15.999Z</time></trkpt><trkpt lat="36.99171785646377" lon="15.023590503749617"><ele>414.66666666666663</ele><time>2026-04-04T15:28:18Z</time></trkpt><trkpt lat="36.99179591994486" lon="15.023516720314307"><ele>414.0</ele><time>2026-04-04T15:28:20Z</time></trkpt><trkpt lat="36.99178997309519" lon="15.023425536372724"><ele>413.33333333333337</ele><time>2026-04-04T15:28:23Z</time></trkpt><trkpt lat="36.99175027630864" lon="15.023361735360531"><ele>412.6666666666667</ele><time>2026-04-04T15:28:30Z</time></trkpt><trkpt lat="36.99171344543856" lon="15.023292365961035"><ele>412.0</ele><time>2026-04-04T15:28:59Z</time></trkpt><trkpt lat="36.99166948721026" lon="15.023228810521935"><ele>412.00000000000006</ele><time>2026-04-04T15:29:04.999Z</time></trkpt><trkpt lat="36.991660761925495" lon="15.023134200996818"><ele>412.0</ele><time>2026-04-04T15:29:07.999Z</time></trkpt><trkpt lat="36.99169678891905" lon="15.02302211777712"><ele>412.0</ele><time>2026-04-04T15:29:54.999Z</time></trkpt><trkpt lat="36.991677120984924" lon="15.022914988389259"><ele>412.0</ele><time>2026-04-04T15:29:56.999Z</time></trkpt><trkpt lat="36.99166094849427" lon="15.022813998748695"><ele>412.00000000000006</ele><time>2026-04-04T15:29:58.999Z</time></trkpt><trkpt lat="36.991658553924445" lon="15.022717536556398"><ele>412.0</ele><time>2026-04-04T15:30:01.999Z</time></trkpt><trkpt lat="36.99166037050605" lon="15.022632498793978"><ele>411.99999999999994</ele><time>2026-04-04T15:32:51Z</time></trkpt><trkpt lat="36.991674021038136" lon="15.022506034795411"><ele>412.0</ele><time>2026-04-04T15:32:57Z</time></trkpt><trkpt lat="36.99166942034856" lon="15.02242700361716"><ele>412.0</ele><time>2026-04-04T15:33:00Z</time></trkpt><trkpt lat="36.9916812914651" lon="15.022343814012578"><ele>412.0</ele><time>2026-04-04T15:33:06Z</time></trkpt><trkpt lat="36.99170064421724" lon="15.022264962158562"><ele>412.0</ele><time>2026-04-04T15:33:14.999Z</time></trkpt><trkpt lat="36.99167722635304" lon="15.022177666253443"><ele>411.99999999999994</ele><time>2026-04-04T15:33:28.999Z</time></trkpt><trkpt lat="36.99166256622561" lon="15.022086779437037"><ele>412.0</ele><time>2026-04-04T15:33:34.999Z</time></trkpt><trkpt lat="36.99162480487585" lon="15.022006588494023"><ele>413.6666666666667</ele><time>2026-04-04T15:33:36.999Z</time></trkpt><trkpt lat="36.99159016928533" lon="15.021920550755857"><ele>415.33333333333337</ele><time>2026-04-04T15:33:39.999Z</time></trkpt><trkpt lat="36.991581124847926" lon="15.021801722406614"><ele>417.0</ele><time>2026-04-04T15:33:41.999Z</time></trkpt><trkpt lat="36.99158227854336" lon="15.021713191735337"><ele>418.66666666666663</ele><time>2026-04-04T15:33:42.999Z</time></trkpt><trkpt lat="36.991591249047076" lon="15.021627955350782"><ele>420.3333333333333</ele><time>2026-04-04T15:33:43.999Z</time></trkpt><trkpt lat="36.99159515217364" lon="15.021547830449618"><ele>422.0</ele><time>2026-04-04T15:33:44.999Z</time></trkpt><trkpt lat="36.991586067189445" lon="15.021437654222966"><ele>422.8333333333333</ele><time>2026-04-04T15:33:46.999Z</time></trkpt><trkpt lat="36.99156743688004" lon="15.02131032763226"><ele>423.66666666666663</ele><time>2026-04-04T15:33:48.999Z</time></trkpt><trkpt lat="36.99159443898813" lon="15.021213875848156"><ele>424.5</ele><time>2026-04-04T15:33:51.999Z</time></trkpt><trkpt lat="36.99160325757629" lon="15.021134931178588"><ele>425.33333333333337</ele><time>2026-04-04T15:33:53.999Z</time></trkpt><trkpt lat="36.99159854873094" lon="15.021034286061933"><ele>426.1666666666667</ele><time>2026-04-04T15:33:56.999Z</time></trkpt><trkpt lat="36.991580814475206" lon="15.020919398413918"><ele>427.0</ele><time>2026-04-04T15:33:58.999Z</time></trkpt><trkpt lat="36.99158618123422" lon="15.020826542848244"><ele>427.00000000000006</ele><time>2026-04-04T15:34:00.999Z</time></trkpt><trkpt lat="36.991606128881166" lon="15.02074100479866"><ele>427.0</ele><time>2026-04-04T15:34:04.999Z</time></trkpt><trkpt lat="36.99154835604795" lon="15.020705679346092"><ele>427.0</ele><time>2026-04-04T15:34:43Z</time></trkpt><trkpt lat="36.99157334422565" lon="15.020623444442364"><ele>427.0</ele><time>2026-04-04T15:34:48Z</time></trkpt><trkpt lat="36.99159052169314" lon="15.020533544696645"><ele>427.00000000000006</ele><time>2026-04-04T15:34:52Z</time></trkpt><trkpt lat="36.99158818640646" lon="15.020423908150232"><ele>427.0</ele><time>2026-04-04T15:34:55Z</time></trkpt><trkpt lat="36.99154906664598" lon="15.020321726642926"><ele>427.0</ele><time>2026-04-04T15:34:57Z</time></trkpt><trkpt lat="36.991545276083016" lon="15.020212816725229"><ele>427.00000000000006</ele><time>2026-04-04T15:34:59Z</time></trkpt><trkpt lat="36.991563138864066" lon="15.020128567919206"><ele>427.00000000000006</ele><time>2026-04-04T15:35:02Z</time></trkpt><trkpt lat="36.99152909026173" lon="15.019954992355665"><ele>427.0</ele><time>2026-04-04T15:35:04Z</time></trkpt><trkpt lat="36.99150874826444" lon="15.019864185721252"><ele>427.0</ele><time>2026-04-04T15:35:05Z</time></trkpt><trkpt lat="36.99150286761511" lon="15.019740014917947"><ele>427.00000000000006</ele><time>2026-04-04T15:35:07Z</time></trkpt><trkpt lat="36.99148594837704" lon="15.019661954005809"><ele>427.0</ele><time>2026-04-04T15:35:09Z</time></trkpt><trkpt lat="36.991465773774465" lon="15.019570675156174"><ele>427.0</ele><time>2026-04-04T15:35:12Z</time></trkpt><trkpt lat="36.99146205461561" lon="15.019491742613898"><ele>427.0</ele><time>2026-04-04T15:35:15Z</time></trkpt><trkpt lat="36.99145079762528" lon="15.019412369589727"><ele>427.00000000000006</ele><time>2026-04-04T15:35:20.999Z</time></trkpt><trkpt lat="36.991469609266325" lon="15.019323599449022"><ele>427.0</ele><time>2026-04-04T15:35:24.999Z</time></trkpt><trkpt lat="36.99139549172514" lon="15.019221086883158"><ele>427.57142857142856</ele><time>2026-04-04T15:35:26.999Z</time></trkpt><trkpt lat="36.991370672253744" lon="15.019123790867926"><ele>428.1428571428571</ele><time>2026-04-04T15:35:30.999Z</time></trkpt><trkpt lat="36.99134137083906" lon="15.019051292865967"><ele>428.7142857142857</ele><time>2026-04-04T15:35:39.999Z</time></trkpt><trkpt lat="36.99132062794552" lon="15.018972945458081"><ele>429.2857142857143</ele><time>2026-04-04T15:35:43.999Z</time></trkpt><trkpt lat="36.99128574001074" lon="15.018860775939201"><ele>429.85714285714283</ele><time>2026-04-04T15:35:45.999Z</time></trkpt><trkpt lat="36.99128044668018" lon="15.018773804288557"><ele>430.42857142857144</ele><time>2026-04-04T15:35:47.999Z</time></trkpt><trkpt lat="36.991211632980075" lon="15.018764484326889"><ele>431.0</ele><time>2026-04-04T15:35:51.999Z</time></trkpt><trkpt lat="36.99117672975538" lon="15.018690886650248"><ele>431.0</ele><time>2026-04-04T15:35:56.999Z</time></trkpt><trkpt lat="36.99111389357999" lon="15.018641795908614"><ele>431.0</ele><time>2026-04-04T15:36:25.999Z</time></trkpt><trkpt lat="36.991141009985625" lon="15.018565851390337"><ele>431.0</ele><time>2026-04-04T15:36:39.998Z</time></trkpt><trkpt lat="36.991134963795886" lon="15.018483631703932"><ele>431.0</ele><time>2026-04-04T15:36:58Z</time></trkpt><trkpt lat="36.99120148412218" lon="15.01845446301734"><ele>431.0</ele><time>2026-04-04T15:37:09Z</time></trkpt><trkpt lat="36.991240523335684" lon="15.018390658821229"><ele>431.0</ele><time>2026-04-04T15:37:14Z</time></trkpt><trkpt lat="36.99122545229084" lon="15.018308581461802"><ele>431.0</ele><time>2026-04-04T15:37:21.999Z</time></trkpt><trkpt lat="36.99120192184455" lon="15.018229786846005"><ele>431.16666666666663</ele><time>2026-04-04T15:37:37.999Z</time></trkpt><trkpt lat="36.991160689248" lon="15.018156713875358"><ele>431.3333333333333</ele><time>2026-04-04T15:37:46.999Z</time></trkpt><trkpt lat="36.99118534215159" lon="15.018066602505002"><ele>431.5</ele><time>2026-04-04T15:37:49.999Z</time></trkpt><trkpt lat="36.99121561315337" lon="15.017992587945118"><ele>431.66666666666663</ele><time>2026-04-04T15:37:57.999Z</time></trkpt><trkpt lat="36.991248371707854" lon="15.017880457783882"><ele>431.8333333333333</ele><time>2026-04-04T15:38:18.999Z</time></trkpt><trkpt lat="36.99130913352046" lon="15.017832121092301"><ele>432.0</ele><time>2026-04-04T15:38:29.999Z</time></trkpt><trkpt lat="36.9913712809273" lon="15.017789592850862"><ele>432.0</ele><time>2026-04-04T15:38:36.998Z</time></trkpt><trkpt lat="36.99144015006127" lon="15.017739932143781"><ele>432.0</ele><time>2026-04-04T15:38:40.998Z</time></trkpt><trkpt lat="36.99146589948744" lon="15.017667901389602"><ele>432.0</ele><time>2026-04-04T15:39:00Z</time></trkpt><trkpt lat="36.991498805932686" lon="15.017578869643959"><ele>432.0</ele><time>2026-04-04T15:40:10.999Z</time></trkpt><trkpt lat="36.991477406523856" lon="15.017434011723509"><ele>432.0</ele><time>2026-04-04T15:42:26.999Z</time></trkpt><trkpt lat="36.99153390471975" lon="15.017398077818875"><ele>432.0</ele><time>2026-04-04T15:43:15Z</time></trkpt><trkpt lat="36.99153549889349" lon="15.01731185345014"><ele>432.1666666666667</ele><time>2026-04-04T15:43:20Z</time></trkpt><trkpt lat="36.99154571804168" lon="15.017227431693474"><ele>432.33333333333337</ele><time>2026-04-04T15:43:24Z</time></trkpt><trkpt lat="36.99154226596175" lon="15.017071008507669"><ele>432.5</ele><time>2026-04-04T15:45:02.998Z</time></trkpt><trkpt lat="36.99152363180066" lon="15.016993076838242"><ele>432.6666666666667</ele><time>2026-04-04T15:45:16Z</time></trkpt><trkpt lat="36.99158888574568" lon="15.01693248246952"><ele>432.83333333333337</ele><time>2026-04-04T15:45:56.999Z</time></trkpt><trkpt lat="36.991598095989005" lon="15.016849483602012"><ele>433.0</ele><time>2026-04-04T15:47:23Z</time></trkpt><trkpt lat="36.99158233192604" lon="15.016763505987072"><ele>433.00000000000006</ele><time>2026-04-04T15:47:58.999Z</time></trkpt><trkpt lat="36.99163948969227" lon="15.016694105004277"><ele>433.0</ele><time>2026-04-04T15:48:47.999Z</time></trkpt><trkpt lat="36.991569896544206" lon="15.016711139873287"><ele>433.0</ele><time>2026-04-04T15:49:47.999Z</time></trkpt><trkpt lat="36.99161690789418" lon="15.016765282317825"><ele>433.0</ele><time>2026-04-04T16:00:34Z</time></trkpt><trkpt lat="36.99163036790021" lon="15.016844936611118"><ele>433.00000000000006</ele><time>2026-04-04T16:00:57Z</time></trkpt><trkpt lat="36.99163406773544" lon="15.016725321660642"><ele>433.0</ele><time>2026-04-04T16:03:41.999Z</time></trkpt><trkpt lat="36.991711501533665" lon="15.016690258384479"><ele>433.99999999999994</ele><time>2026-04-04T16:05:00Z</time></trkpt><trkpt lat="36.99177578443201" lon="15.016686675076478"><ele>435.0</ele><time>2026-04-04T16:06:01.999Z</time></trkpt><trkpt lat="36.991824198202316" lon="15.016633284495999"><ele>436.0</ele><time>2026-04-04T16:06:18Z</time></trkpt><trkpt lat="36.991888214022225" lon="15.016640149565495"><ele>437.0</ele><time>2026-04-04T16:06:24Z</time></trkpt><trkpt lat="36.99194200480805" lon="15.016694713295264"><ele>438.0</ele><time>2026-04-04T16:06:29Z</time></trkpt><trkpt lat="36.99202867184068" lon="15.016706304567828"><ele>438.99999999999994</ele><time>2026-04-04T16:10:34Z</time></trkpt><trkpt lat="36.992110194950996" lon="15.016753856604742"><ele>440.0</ele><time>2026-04-04T16:10:37Z</time></trkpt><trkpt lat="36.99215294436473" lon="15.016827256430656"><ele>440.0</ele><time>2026-04-04T16:10:40Z</time></trkpt><trkpt lat="36.9922501828422" lon="15.016865298930668"><ele>440.0</ele><time>2026-04-04T16:10:59Z</time></trkpt><trkpt lat="36.99228399649585" lon="15.016936151889341"><ele>440.0</ele><time>2026-04-04T16:11:01Z</time></trkpt><trkpt lat="36.992483688575746" lon="15.017040837765391"><ele>440.0</ele><time>2026-04-04T16:12:12.999Z</time></trkpt><trkpt lat="36.9925890146963" lon="15.017067850364022"><ele>440.0</ele><time>2026-04-04T16:12:14.999Z</time></trkpt><trkpt lat="36.99263419623716" lon="15.0171537040786"><ele>440.0</ele><time>2026-04-04T16:12:16.999Z</time></trkpt><trkpt lat="36.99265873106936" lon="15.01727046146771"><ele>440.0</ele><time>2026-04-04T16:12:18.999Z</time></trkpt><trkpt lat="36.99263558895121" lon="15.017400224636818"><ele>440.0</ele><time>2026-04-04T16:12:21Z</time></trkpt><trkpt lat="36.992606961571916" lon="15.017509780798932"><ele>440.0</ele><time>2026-04-04T16:12:23Z</time></trkpt><trkpt lat="36.9925993617094" lon="15.01760494817344"><ele>439.6</ele><time>2026-04-04T16:12:25Z</time></trkpt><trkpt lat="36.99256538718256" lon="15.017741297494489"><ele>439.2</ele><time>2026-04-04T16:12:27Z</time></trkpt><trkpt lat="36.99259675736005" lon="15.017850203439421"><ele>438.79999999999995</ele><time>2026-04-04T16:12:29Z</time></trkpt><trkpt lat="36.99270255470515" lon="15.017891067140136"><ele>438.4</ele><time>2026-04-04T16:12:31Z</time></trkpt><trkpt lat="36.992804744304735" lon="15.017951760165513"><ele>438.0</ele><time>2026-04-04T16:12:33Z</time></trkpt><trkpt lat="36.992897837464426" lon="15.01799216899045"><ele>438.0</ele><time>2026-04-04T16:12:35Z</time></trkpt><trkpt lat="36.99297167536674" lon="15.018071153430283"><ele>437.99999999999994</ele><time>2026-04-04T16:12:37Z</time></trkpt><trkpt lat="36.99302783979728" lon="15.018189539469537"><ele>437.99999999999994</ele><time>2026-04-04T16:12:39Z</time></trkpt><trkpt lat="36.99307433970888" lon="15.018263621922102"><ele>438.0</ele><time>2026-04-04T16:12:40Z</time></trkpt><trkpt lat="36.99311974071805" lon="15.018339472764684"><ele>438.0</ele><time>2026-04-04T16:12:41Z</time></trkpt><trkpt lat="36.99319522192601" lon="15.018430235720219"><ele>438.0</ele><time>2026-04-04T16:12:43Z</time></trkpt><trkpt lat="36.99324191071278" lon="15.018529317592458"><ele>437.99999999999994</ele><time>2026-04-04T16:12:45Z</time></trkpt><trkpt lat="36.99328598364503" lon="15.018585752827914"><ele>437.99999999999994</ele><time>2026-04-04T16:12:46Z</time></trkpt><trkpt lat="36.99333643131502" lon="15.018654418080347"><ele>438.0</ele><time>2026-04-04T16:12:47Z</time></trkpt><trkpt lat="36.99337999005795" lon="15.018722349356642"><ele>438.0</ele><time>2026-04-04T16:12:48Z</time></trkpt><trkpt lat="36.993582525371686" lon="15.018592647475074"><ele>437.8333333333333</ele><time>2026-04-04T16:12:54Z</time></trkpt><trkpt lat="36.993676704913845" lon="15.018508077382114"><ele>437.66666666666663</ele><time>2026-04-04T16:12:56Z</time></trkpt><trkpt lat="36.99374364995937" lon="15.018488300006403"><ele>437.5</ele><time>2026-04-04T16:12:57Z</time></trkpt><trkpt lat="36.99380919669726" lon="15.018457244450776"><ele>437.3333333333333</ele><time>2026-04-04T16:12:58Z</time></trkpt><trkpt lat="36.99387414070248" lon="15.01843078143891"><ele>437.16666666666663</ele><time>2026-04-04T16:12:59Z</time></trkpt><trkpt lat="36.99399769347709" lon="15.018452976777269"><ele>437.0</ele><time>2026-04-04T16:13:01Z</time></trkpt><trkpt lat="36.994073588109615" lon="15.018475267247284"><ele>436.3333333333333</ele><time>2026-04-04T16:13:03Z</time></trkpt><trkpt lat="36.994174156638074" lon="15.018485231610399"><ele>435.66666666666663</ele><time>2026-04-04T16:13:06Z</time></trkpt><trkpt lat="36.99424049262673" lon="15.018510179555173"><ele>435.0</ele><time>2026-04-04T16:13:07Z</time></trkpt><trkpt lat="36.99430982174833" lon="15.018561289094595"><ele>434.33333333333337</ele><time>2026-04-04T16:13:08Z</time></trkpt><trkpt lat="36.99436843465469" lon="15.018629974067446"><ele>433.6666666666667</ele><time>2026-04-04T16:13:10Z</time></trkpt><trkpt lat="36.99441729594377" lon="15.018728540050898"><ele>433.0</ele><time>2026-04-04T16:13:12Z</time></trkpt><trkpt lat="36.9944653815049" lon="15.01879881441606"><ele>433.0</ele><time>2026-04-04T16:13:14Z</time></trkpt><trkpt lat="36.99456502227549" lon="15.018811816186627"><ele>432.99999999999994</ele><time>2026-04-04T16:13:16Z</time></trkpt><trkpt lat="36.994730626658054" lon="15.018706213990969"><ele>432.99999999999994</ele><time>2026-04-04T16:13:20Z</time></trkpt><trkpt lat="36.99478375213472" lon="15.018660613016571"><ele>433.0</ele><time>2026-04-04T16:13:21Z</time></trkpt><trkpt lat="36.994840841691214" lon="15.018614129582758"><ele>433.0</ele><time>2026-04-04T16:13:22Z</time></trkpt><trkpt lat="36.99489911604476" lon="15.018583235352413"><ele>433.0</ele><time>2026-04-04T16:13:23Z</time></trkpt><trkpt lat="36.994988862316255" lon="15.018521855736022"><ele>432.99999999999994</ele><time>2026-04-04T16:13:25Z</time></trkpt><trkpt lat="36.995067178806" lon="15.018420660171305"><ele>432.99999999999994</ele><time>2026-04-04T16:13:27Z</time></trkpt><trkpt lat="36.995123696979725" lon="15.018495793431827"><ele>433.0</ele><time>2026-04-04T16:13:33.999Z</time></trkpt><trkpt lat="36.99511512454196" lon="15.01861687896714"><ele>433.0</ele><time>2026-04-04T16:13:35.999Z</time></trkpt><trkpt lat="36.99512528875856" lon="15.01871012577898"><ele>431.83333333333337</ele><time>2026-04-04T16:13:36.999Z</time></trkpt><trkpt lat="36.99513211850188" lon="15.018790090839758"><ele>430.6666666666667</ele><time>2026-04-04T16:13:37.999Z</time></trkpt><trkpt lat="36.99515203893983" lon="15.01889850445528"><ele>429.5</ele><time>2026-04-04T16:13:39.999Z</time></trkpt><trkpt lat="36.99518890189939" lon="15.019013920122381"><ele>428.33333333333337</ele><time>2026-04-04T16:13:41.999Z</time></trkpt><trkpt lat="36.99519190697113" lon="15.019125272167066"><ele>427.1666666666667</ele><time>2026-04-04T16:13:43.999Z</time></trkpt><trkpt lat="36.99517720306137" lon="15.019214448716726"><ele>426.0</ele><time>2026-04-04T16:13:45.999Z</time></trkpt><trkpt lat="36.99516632922002" lon="15.01931878805906"><ele>425.3333333333333</ele><time>2026-04-04T16:13:47.999Z</time></trkpt><trkpt lat="36.99517828965725" lon="15.019401926114371"><ele>424.66666666666663</ele><time>2026-04-04T16:13:49.999Z</time></trkpt><trkpt lat="36.99519505032896" lon="15.019523773281229"><ele>424.0</ele><time>2026-04-04T16:13:52.999Z</time></trkpt><trkpt lat="36.99521437084395" lon="15.019620602424279"><ele>423.3333333333333</ele><time>2026-04-04T16:13:54.999Z</time></trkpt><trkpt lat="36.99526106530148" lon="15.019704848652944"><ele>422.66666666666663</ele><time>2026-04-04T16:13:56.999Z</time></trkpt><trkpt lat="36.99529468051405" lon="15.019792410748357"><ele>422.0</ele><time>2026-04-04T16:13:59.999Z</time></trkpt><trkpt lat="36.995325597046886" lon="15.019861432074643"><ele>421.99999999999994</ele><time>2026-04-04T16:14:01.999Z</time></trkpt><trkpt lat="36.99535964306813" lon="15.019940638952137"><ele>422.0</ele><time>2026-04-04T16:14:03.999Z</time></trkpt><trkpt lat="36.99543061832468" lon="15.020034517433384"><ele>422.0</ele><time>2026-04-04T16:14:06.999Z</time></trkpt><trkpt lat="36.9954952564199" lon="15.020114808645246"><ele>422.0</ele><time>2026-04-04T16:14:08.999Z</time></trkpt><trkpt lat="36.9955549241515" lon="15.020155735911056"><ele>421.99999999999994</ele><time>2026-04-04T16:14:11.999Z</time></trkpt><trkpt lat="36.99563616426141" lon="15.020117020391165"><ele>422.0</ele><time>2026-04-04T16:14:14.999Z</time></trkpt><trkpt lat="36.99569747453821" lon="15.020072533945141"><ele>422.0</ele><time>2026-04-04T16:14:16.999Z</time></trkpt><trkpt lat="36.995789117926826" lon="15.019981762988019"><ele>422.0</ele><time>2026-04-04T16:14:18.999Z</time></trkpt><trkpt lat="36.99585092239734" lon="15.019936514293487"><ele>422.0</ele><time>2026-04-04T16:14:19.999Z</time></trkpt><trkpt lat="36.995949981554254" lon="15.019907878613118"><ele>422.0</ele><time>2026-04-04T16:14:21.999Z</time></trkpt><trkpt lat="36.99605218570098" lon="15.019885242440205"><ele>422.0</ele><time>2026-04-04T16:14:23.999Z</time></trkpt><trkpt lat="36.996120603564954" lon="15.019880495497656"><ele>422.3333333333333</ele><time>2026-04-04T16:14:24.999Z</time></trkpt><trkpt lat="36.996196461633275" lon="15.019866173459315"><ele>422.66666666666663</ele><time>2026-04-04T16:14:25.999Z</time></trkpt><trkpt lat="36.99626062208419" lon="15.019849132230334"><ele>423.0</ele><time>2026-04-04T16:14:27Z</time></trkpt><trkpt lat="36.996344358999856" lon="15.019780037214085"><ele>423.33333333333337</ele><time>2026-04-04T16:14:29Z</time></trkpt><trkpt lat="36.99638370861495" lon="15.019715213679866"><ele>423.6666666666667</ele><time>2026-04-04T16:14:31Z</time></trkpt><trkpt lat="36.996508703572935" lon="15.019684484590702"><ele>424.0</ele><time>2026-04-04T16:14:45Z</time></trkpt><trkpt lat="36.99660684281461" lon="15.019628678916195"><ele>423.83333333333337</ele><time>2026-04-04T16:14:49Z</time></trkpt><trkpt lat="36.99668613305806" lon="15.019563956902566"><ele>423.6666666666667</ele><time>2026-04-04T16:14:51Z</time></trkpt><trkpt lat="36.996732154643915" lon="15.01950470627131"><ele>423.5</ele><time>2026-04-04T16:14:53Z</time></trkpt><trkpt lat="36.996800114981625" lon="15.01947145696687"><ele>423.33333333333337</ele><time>2026-04-04T16:14:59Z</time></trkpt><trkpt lat="36.99687633720609" lon="15.019464378159245"><ele>423.1666666666667</ele><time>2026-04-04T16:15:02Z</time></trkpt><trkpt lat="36.996962124223174" lon="15.019419131230004"><ele>423.0</ele><time>2026-04-04T16:15:04Z</time></trkpt><trkpt lat="36.99705727356273" lon="15.019345814036194"><ele>423.0</ele><time>2026-04-04T16:15:06Z</time></trkpt><trkpt lat="36.9971201132235" lon="15.019308842920866"><ele>423.0</ele><time>2026-04-04T16:15:08Z</time></trkpt><trkpt lat="36.9971910123733" lon="15.019273221954297"><ele>423.0</ele><time>2026-04-04T16:15:10Z</time></trkpt><trkpt lat="36.99725936858122" lon="15.01923420272789"><ele>423.0</ele><time>2026-04-04T16:15:13Z</time></trkpt><trkpt lat="36.99743037914343" lon="15.019212008586301"><ele>423.0</ele><time>2026-04-04T16:15:29.999Z</time></trkpt><trkpt lat="36.99750724290897" lon="15.019179345561394"><ele>422.79999999999995</ele><time>2026-04-04T16:15:31.999Z</time></trkpt><trkpt lat="36.997601184718675" lon="15.019152878183233"><ele>422.6</ele><time>2026-04-04T16:15:33.999Z</time></trkpt><trkpt lat="36.99767034253393" lon="15.019125583602575"><ele>422.4</ele><time>2026-04-04T16:15:34.999Z</time></trkpt><trkpt lat="36.9977374346521" lon="15.019101608736277"><ele>422.20000000000005</ele><time>2026-04-04T16:15:35.999Z</time></trkpt><trkpt lat="36.997822935082894" lon="15.019000765747094"><ele>422.0</ele><time>2026-04-04T16:15:37.999Z</time></trkpt><trkpt lat="36.99788481463851" lon="15.018878729243962"><ele>421.99999999999994</ele><time>2026-04-04T16:15:39.999Z</time></trkpt><trkpt lat="36.99794126544979" lon="15.01881173702455"><ele>422.0</ele><time>2026-04-04T16:15:41.999Z</time></trkpt><trkpt lat="36.99802101140325" lon="15.01876200184214"><ele>422.0</ele><time>2026-04-04T16:15:52.999Z</time></trkpt><trkpt lat="36.99812391207686" lon="15.018758643470107"><ele>422.0</ele><time>2026-04-04T16:16:02.999Z</time></trkpt><trkpt lat="36.99817479446308" lon="15.018710089263582"><ele>421.99999999999994</ele><time>2026-04-04T16:16:36Z</time></trkpt><trkpt lat="36.99825640148769" lon="15.018677774484665"><ele>422.0</ele><time>2026-04-04T16:16:44Z</time></trkpt><trkpt lat="36.9983265517714" lon="15.018656167001698"><ele>422.0</ele><time>2026-04-04T16:16:47Z</time></trkpt><trkpt lat="36.99833718975031" lon="15.018742938358253"><ele>422.0</ele><time>2026-04-04T16:18:11.999Z</time></trkpt><trkpt lat="36.99827503199579" lon="15.018720376804161"><ele>422.0</ele><time>2026-04-04T16:18:18.999Z</time></trkpt><trkpt lat="36.99820463367311" lon="15.018718736293172"><ele>422.0</ele><time>2026-04-04T16:18:21.999Z</time></trkpt><trkpt lat="36.99811075583488" lon="15.018745770897077"><ele>422.0</ele><time>2026-04-04T16:18:24.999Z</time></trkpt><trkpt lat="36.99805550422136" lon="15.018787374831703"><ele>422.0</ele><time>2026-04-04T16:18:30.999Z</time></trkpt><trkpt lat="36.998105295049285" lon="15.018721884630946"><ele>422.0</ele><time>2026-04-04T16:19:35Z</time></trkpt><trkpt lat="36.99816600220696" lon="15.018664343286119"><ele>422.0</ele><time>2026-04-04T16:19:37Z</time></trkpt><trkpt lat="36.99825947859903" lon="15.018619051121805"><ele>422.0</ele><time>2026-04-04T16:19:38.999Z</time></trkpt><trkpt lat="36.99842197854879" lon="15.01861853703202"><ele>422.0</ele><time>2026-04-04T16:19:48.999Z</time></trkpt><trkpt lat="36.99849374527174" lon="15.018604600292344"><ele>422.0</ele><time>2026-04-04T16:19:57.999Z</time></trkpt><trkpt lat="36.99853335985598" lon="15.018672586892013"><ele>422.0</ele><time>2026-04-04T16:21:26Z</time></trkpt><trkpt lat="36.99867278138512" lon="15.018711629743954"><ele>424.42857142857144</ele><time>2026-04-04T16:33:44Z</time></trkpt><trkpt lat="36.998675861639626" lon="15.01879373341546"><ele>426.8571428571429</ele><time>2026-04-04T16:33:46Z</time></trkpt><trkpt lat="36.998660772724875" lon="15.018882608464697"><ele>429.2857142857143</ele><time>2026-04-04T16:33:49Z</time></trkpt><trkpt lat="36.99865182318812" lon="15.018973940927987"><ele>431.7142857142857</ele><time>2026-04-04T16:33:53Z</time></trkpt><trkpt lat="36.998632192877935" lon="15.01906708747893"><ele>434.1428571428571</ele><time>2026-04-04T16:33:55Z</time></trkpt><trkpt lat="36.99863584573523" lon="15.019152706773221"><ele>436.57142857142856</ele><time>2026-04-04T16:33:56.999Z</time></trkpt><trkpt lat="36.998644134590585" lon="15.019231501660176"><ele>439.0</ele><time>2026-04-04T16:33:59.999Z</time></trkpt><trkpt lat="36.998744250971946" lon="15.019375628331247"><ele>439.2</ele><time>2026-04-04T16:34:11.999Z</time></trkpt><trkpt lat="36.99884000903111" lon="15.019426200693784"><ele>439.4</ele><time>2026-04-04T16:34:13.999Z</time></trkpt><trkpt lat="36.998941254142785" lon="15.019446656603742"><ele>439.6</ele><time>2026-04-04T16:34:15.999Z</time></trkpt><trkpt lat="36.99905784445317" lon="15.019418973072161"><ele>439.8</ele><time>2026-04-04T16:34:17.999Z</time></trkpt><trkpt lat="36.999157128101345" lon="15.019427463113537"><ele>440.0</ele><time>2026-04-04T16:34:19.999Z</time></trkpt><trkpt lat="36.99925574300516" lon="15.019423857518396"><ele>441.0</ele><time>2026-04-04T16:34:21.999Z</time></trkpt><trkpt lat="36.99936702122467" lon="15.019431826154921"><ele>442.0</ele><time>2026-04-04T16:34:23.999Z</time></trkpt><trkpt lat="36.99948631855138" lon="15.019460162308553"><ele>443.0</ele><time>2026-04-04T16:34:25.999Z</time></trkpt><trkpt lat="36.99960022233949" lon="15.01952817981552"><ele>444.0</ele><time>2026-04-04T16:34:27.999Z</time></trkpt><trkpt lat="36.99969530906275" lon="15.0195967898304"><ele>444.0</ele><time>2026-04-04T16:34:29.999Z</time></trkpt><trkpt lat="36.999784523647875" lon="15.019627193005395"><ele>444.0</ele><time>2026-04-04T16:34:31.999Z</time></trkpt><trkpt lat="36.999879578370816" lon="15.019679883298595"><ele>444.0</ele><time>2026-04-04T16:34:33.999Z</time></trkpt><trkpt lat="36.99995633513976" lon="15.019736006606546"><ele>444.0</ele><time>2026-04-04T16:34:35.999Z</time></trkpt><trkpt lat="37.00004066579649" lon="15.01980364693724"><ele>444.0</ele><time>2026-04-04T16:34:37.999Z</time></trkpt><trkpt lat="37.00013777954883" lon="15.01990385613514"><ele>444.0</ele><time>2026-04-04T16:34:39.999Z</time></trkpt><trkpt lat="37.00018711101089" lon="15.01997215553916"><ele>444.0</ele><time>2026-04-04T16:34:40.999Z</time></trkpt><trkpt lat="37.00024409781342" lon="15.020017511576876"><ele>444.0</ele><time>2026-04-04T16:34:41.999Z</time></trkpt><trkpt lat="37.00029203020342" lon="15.020073927139284"><ele>444.0</ele><time>2026-04-04T16:34:43.999Z</time></trkpt><trkpt lat="37.00017311343977" lon="15.0202472453937"><ele>444.0</ele><time>2026-04-04T16:34:54.999Z</time></trkpt><trkpt lat="37.0000272415342" lon="15.020291288489494"><ele>444.0</ele><time>2026-04-04T16:34:55.999Z</time></trkpt><trkpt lat="36.9998688907428" lon="15.020307939212792"><ele>444.0</ele><time>2026-04-04T16:34:56.999Z</time></trkpt><trkpt lat="36.99972406408941" lon="15.020400620339059"><ele>444.0</ele><time>2026-04-04T16:34:57.999Z</time></trkpt><trkpt lat="36.99958960121429" lon="15.020502613600891"><ele>444.0</ele><time>2026-04-04T16:34:58.999Z</time></trkpt><trkpt lat="36.99947246078834" lon="15.020604340094772"><ele>444.0</ele><time>2026-04-04T16:34:59.999Z</time></trkpt><trkpt lat="36.99937822829436" lon="15.020691655192056"><ele>444.0</ele><time>2026-04-04T16:35:00.999Z</time></trkpt><trkpt lat="36.99928631979542" lon="15.020778998680314"><ele>444.0</ele><time>2026-04-04T16:35:01.999Z</time></trkpt><trkpt lat="36.99919960262694" lon="15.020864138511"><ele>444.0</ele><time>2026-04-04T16:35:02.999Z</time></trkpt><trkpt lat="36.99912713809134" lon="15.020935262240407"><ele>444.0</ele><time>2026-04-04T16:35:03.999Z</time></trkpt><trkpt lat="36.99905600124491" lon="15.021005082852291"><ele>444.0</ele><time>2026-04-04T16:35:04.999Z</time></trkpt><trkpt lat="36.998987297602994" lon="15.021072515013463"><ele>444.0</ele><time>2026-04-04T16:35:05.999Z</time></trkpt><trkpt lat="36.99891400303286" lon="15.021141941649715"><ele>444.0</ele><time>2026-04-04T16:35:06.999Z</time></trkpt><trkpt lat="36.99884065966982" lon="15.02121256671164"><ele>444.0</ele><time>2026-04-04T16:35:07.999Z</time></trkpt><trkpt lat="36.99876855681663" lon="15.021281997235432"><ele>444.0</ele><time>2026-04-04T16:35:08.999Z</time></trkpt><trkpt lat="36.99869486115901" lon="15.021352961524931"><ele>444.0</ele><time>2026-04-04T16:35:09.999Z</time></trkpt><trkpt lat="36.99861935737808" lon="15.021425666924765"><ele>444.0</ele><time>2026-04-04T16:35:10.999Z</time></trkpt><trkpt lat="36.998542801291755" lon="15.021499925239562"><ele>444.0</ele><time>2026-04-04T16:35:11.999Z</time></trkpt><trkpt lat="36.99846370295485" lon="15.021576661934073"><ele>444.0</ele><time>2026-04-04T16:35:12.999Z</time></trkpt><trkpt lat="36.99838180319978" lon="15.021656116412569"><ele>444.0</ele><time>2026-04-04T16:35:13.999Z</time></trkpt><trkpt lat="36.99829831352519" lon="15.021737113328113"><ele>444.0</ele><time>2026-04-04T16:35:14.999Z</time></trkpt><trkpt lat="36.99821641504298" lon="15.0218165665693"><ele>444.0</ele><time>2026-04-04T16:35:15.999Z</time></trkpt><trkpt lat="36.99813599885376" lon="15.021894598458276"><ele>444.0</ele><time>2026-04-04T16:35:16.998Z</time></trkpt><trkpt lat="36.99806005825276" lon="15.021968480963965"><ele>443.8333333333333</ele><time>2026-04-04T16:35:17.998Z</time></trkpt><trkpt lat="36.99799372162704" lon="15.022033019777872"><ele>443.66666666666663</ele><time>2026-04-04T16:35:18.998Z</time></trkpt><trkpt lat="36.997930206981884" lon="15.022094813097327"><ele>443.5</ele><time>2026-04-04T16:35:19.998Z</time></trkpt><trkpt lat="36.99786691053097" lon="15.022156394126077"><ele>443.3333333333333</ele><time>2026-04-04T16:35:20.998Z</time></trkpt><trkpt lat="36.99780927299221" lon="15.02221246961197"><ele>443.16666666666663</ele><time>2026-04-04T16:35:21.998Z</time></trkpt><trkpt lat="36.997757548200624" lon="15.022262792588682"><ele>443.0</ele><time>2026-04-04T16:35:22.998Z</time></trkpt><trkpt lat="36.99766280388065" lon="15.02235496921705"><ele>443.0</ele><time>2026-04-04T16:35:25Z</time></trkpt><trkpt lat="36.997568781757714" lon="15.022446443216817"><ele>442.99999999999994</ele><time>2026-04-04T16:35:27Z</time></trkpt><trkpt lat="36.9974878225183" lon="15.022549664503313"><ele>442.99999999999994</ele><time>2026-04-04T16:35:29Z</time></trkpt><trkpt lat="36.99738637508062" lon="15.02262390642448"><ele>443.0</ele><time>2026-04-04T16:35:31Z</time></trkpt><trkpt lat="36.997346487639824" lon="15.022686641317998"><ele>443.0</ele><time>2026-04-04T16:35:32Z</time></trkpt><trkpt lat="36.99729120967535" lon="15.022739912460079"><ele>442.99999999999994</ele><time>2026-04-04T16:35:33Z</time></trkpt><trkpt lat="36.997231613008985" lon="15.022799296740985"><ele>443.0</ele><time>2026-04-04T16:35:34Z</time></trkpt><trkpt lat="36.99715582506169" lon="15.022847300509024"><ele>443.0</ele><time>2026-04-04T16:35:35Z</time></trkpt><trkpt lat="36.997085241438015" lon="15.022915683193695"><ele>443.0</ele><time>2026-04-04T16:35:36Z</time></trkpt><trkpt lat="36.99702107849106" lon="15.023004114385179"><ele>442.99999999999994</ele><time>2026-04-04T16:35:37Z</time></trkpt><trkpt lat="36.996936033421484" lon="15.023060238579701"><ele>443.0</ele><time>2026-04-04T16:35:38Z</time></trkpt><trkpt lat="36.996870645004215" lon="15.023123588039825"><ele>443.0</ele><time>2026-04-04T16:35:39Z</time></trkpt><trkpt lat="36.996816338644" lon="15.023200176156543"><ele>442.99999999999994</ele><time>2026-04-04T16:35:40Z</time></trkpt><trkpt lat="36.99674482446251" lon="15.0232684381714"><ele>442.99999999999994</ele><time>2026-04-04T16:35:41Z</time></trkpt><trkpt lat="36.996667072810524" lon="15.023344562274218"><ele>443.0</ele><time>2026-04-04T16:35:42Z</time></trkpt><trkpt lat="36.99657643896893" lon="15.023408620107297"><ele>443.0</ele><time>2026-04-04T16:35:43Z</time></trkpt><trkpt lat="36.99649784732259" lon="15.02348476108801"><ele>442.59999999999997</ele><time>2026-04-04T16:35:44Z</time></trkpt><trkpt lat="36.99644018718104" lon="15.023562114575718"><ele>442.19999999999993</ele><time>2026-04-04T16:35:45Z</time></trkpt><trkpt lat="36.99637894813903" lon="15.023624120221333"><ele>441.8</ele><time>2026-04-04T16:35:46Z</time></trkpt><trkpt lat="36.996299698154274" lon="15.023676323953278"><ele>441.4</ele><time>2026-04-04T16:35:47Z</time></trkpt><trkpt lat="36.99622111137617" lon="15.02375196891451"><ele>441.0</ele><time>2026-04-04T16:35:48Z</time></trkpt><trkpt lat="36.99613658362865" lon="15.023833332450584"><ele>441.0</ele><time>2026-04-04T16:35:49Z</time></trkpt><trkpt lat="36.99605461255502" lon="15.023937686170882"><ele>441.0</ele><time>2026-04-04T16:35:50Z</time></trkpt><trkpt lat="36.995966185430575" lon="15.024019293057664"><ele>441.0</ele><time>2026-04-04T16:35:51Z</time></trkpt><trkpt lat="36.99588556784549" lon="15.02409544959363"><ele>441.0</ele><time>2026-04-04T16:35:52Z</time></trkpt><trkpt lat="36.99581463830211" lon="15.024168195589478"><ele>441.0</ele><time>2026-04-04T16:35:53Z</time></trkpt><trkpt lat="36.995734806807405" lon="15.024220069164953"><ele>441.20000000000005</ele><time>2026-04-04T16:35:54Z</time></trkpt><trkpt lat="36.99567035521638" lon="15.024305261939876"><ele>441.40000000000003</ele><time>2026-04-04T16:35:55Z</time></trkpt><trkpt lat="36.995587997857236" lon="15.024379536065931"><ele>441.6</ele><time>2026-04-04T16:35:56Z</time></trkpt><trkpt lat="36.99550607286631" lon="15.024459295698643"><ele>441.8</ele><time>2026-04-04T16:35:57Z</time></trkpt><trkpt lat="36.9954192828222" lon="15.02454651435365"><ele>442.0</ele><time>2026-04-04T16:35:58Z</time></trkpt><trkpt lat="36.99532391635615" lon="15.024636272397078"><ele>442.0</ele><time>2026-04-04T16:35:59Z</time></trkpt><trkpt lat="36.99522316743937" lon="15.024718631356757"><ele>442.0</ele><time>2026-04-04T16:36:00Z</time></trkpt><trkpt lat="36.9951152147382" lon="15.024807158927544"><ele>442.0</ele><time>2026-04-04T16:36:01Z</time></trkpt><trkpt lat="36.994994439319306" lon="15.024871022417539"><ele>442.0</ele><time>2026-04-04T16:36:01.999Z</time></trkpt><trkpt lat="36.99487359733258" lon="15.024938548475962"><ele>442.0</ele><time>2026-04-04T16:36:02.999Z</time></trkpt><trkpt lat="36.99474352022073" lon="15.024984588372071"><ele>442.0</ele><time>2026-04-04T16:36:03.999Z</time></trkpt><trkpt lat="36.99460549573465" lon="15.02502794871368"><ele>442.0</ele><time>2026-04-04T16:36:04.999Z</time></trkpt><trkpt lat="36.99446302730351" lon="15.02506851963835"><ele>442.0</ele><time>2026-04-04T16:36:05.999Z</time></trkpt><trkpt lat="36.99432522567152" lon="15.02510780916098"><ele>442.0</ele><time>2026-04-04T16:36:06.999Z</time></trkpt><trkpt lat="36.99418395223313" lon="15.025148105059433"><ele>442.0</ele><time>2026-04-04T16:36:07.999Z</time></trkpt><trkpt lat="36.99403962218121" lon="15.02518927280408"><ele>442.0</ele><time>2026-04-04T16:36:08.999Z</time></trkpt><trkpt lat="36.99389506615309" lon="15.025230505002368"><ele>442.0</ele><time>2026-04-04T16:36:09.999Z</time></trkpt><trkpt lat="36.99374799140864" lon="15.025273099953125"><ele>441.75</ele><time>2026-04-04T16:36:10.999Z</time></trkpt><trkpt lat="36.993621263183" lon="15.025312323571521"><ele>441.5</ele><time>2026-04-04T16:36:11.999Z</time></trkpt><trkpt lat="36.993497458247305" lon="15.025348901799273"><ele>441.25</ele><time>2026-04-04T16:36:12.999Z</time></trkpt><trkpt lat="36.99337109235582" lon="15.02538597146043"><ele>441.0</ele><time>2026-04-04T16:36:13.999Z</time></trkpt><trkpt lat="36.99324150270986" lon="15.025423959301836"><ele>440.25</ele><time>2026-04-04T16:36:14.999Z</time></trkpt><trkpt lat="36.99311116939277" lon="15.02546092977993"><ele>439.5</ele><time>2026-04-04T16:36:15.999Z</time></trkpt><trkpt lat="36.99298011796683" lon="15.025498103957423"><ele>438.75</ele><time>2026-04-04T16:36:16.999Z</time></trkpt><trkpt lat="36.99284644951034" lon="15.025536020484777"><ele>438.0</ele><time>2026-04-04T16:36:17.999Z</time></trkpt><trkpt lat="36.99271241010225" lon="15.025574042235947"><ele>438.0</ele><time>2026-04-04T16:36:18.999Z</time></trkpt><trkpt lat="36.992576759161835" lon="15.02561348323793"><ele>438.0</ele><time>2026-04-04T16:36:19.999Z</time></trkpt><trkpt lat="36.992439953258256" lon="15.025654404278388"><ele>438.0</ele><time>2026-04-04T16:36:20.999Z</time></trkpt><trkpt lat="36.99230541717397" lon="15.025693871147531"><ele>438.0</ele><time>2026-04-04T16:36:21.999Z</time></trkpt><trkpt lat="36.992166276268996" lon="15.025734578320764"><ele>438.0</ele><time>2026-04-04T16:36:22.999Z</time></trkpt><trkpt lat="36.99202280480051" lon="15.025775591459169"><ele>438.0</ele><time>2026-04-04T16:36:23.999Z</time></trkpt><trkpt lat="36.99188044123677" lon="15.025816113926613"><ele>438.0</ele><time>2026-04-04T16:36:24.999Z</time></trkpt><trkpt lat="36.991734886604206" lon="15.025857544702886"><ele>438.0</ele><time>2026-04-04T16:36:25.999Z</time></trkpt><trkpt lat="36.99159048627733" lon="15.0258986469173"><ele>437.5</ele><time>2026-04-04T16:36:26.999Z</time></trkpt><trkpt lat="36.991452337573115" lon="15.025937969664371"><ele>437.0</ele><time>2026-04-04T16:36:27.999Z</time></trkpt><trkpt lat="36.99131386826536" lon="15.02597798798111"><ele>436.5</ele><time>2026-04-04T16:36:28.999Z</time></trkpt><trkpt lat="36.991179974452216" lon="15.026017227025589"><ele>436.0</ele><time>2026-04-04T16:36:29.999Z</time></trkpt><trkpt lat="36.991044808161256" lon="15.026056838983859"><ele>436.0</ele><time>2026-04-04T16:36:30.999Z</time></trkpt><trkpt lat="36.99091196881141" lon="15.026095769006124"><ele>436.0</ele><time>2026-04-04T16:36:31.999Z</time></trkpt><trkpt lat="36.99077913309831" lon="15.02613450615439"><ele>436.0</ele><time>2026-04-04T16:36:32.999Z</time></trkpt><trkpt lat="36.99064781087095" lon="15.026172340411826"><ele>436.0</ele><time>2026-04-04T16:36:33.999Z</time></trkpt><trkpt lat="36.99051841062739" lon="15.026209622195303"><ele>434.6</ele><time>2026-04-04T16:36:34.999Z</time></trkpt><trkpt lat="36.99039498370925" lon="15.026245181799984"><ele>433.20000000000005</ele><time>2026-04-04T16:36:35.999Z</time></trkpt><trkpt lat="36.990280712383246" lon="15.026272789707571"><ele>431.79999999999995</ele><time>2026-04-04T16:36:36.999Z</time></trkpt><trkpt lat="36.99017815310372" lon="15.026260989180878"><ele>430.4</ele><time>2026-04-04T16:36:37.999Z</time></trkpt><trkpt lat="36.99009084877514" lon="15.026208300617157"><ele>429.0</ele><time>2026-04-04T16:36:38.999Z</time></trkpt><trkpt lat="36.98999344747711" lon="15.026132765387928"><ele>428.0</ele><time>2026-04-04T16:36:39.999Z</time></trkpt><trkpt lat="36.989895606695136" lon="15.026044761063403"><ele>427.0</ele><time>2026-04-04T16:36:40.999Z</time></trkpt><trkpt lat="36.98980787912415" lon="15.025954915609654"><ele>426.0</ele><time>2026-04-04T16:36:41.999Z</time></trkpt><trkpt lat="36.98972298363585" lon="15.025849326509118"><ele>425.0</ele><time>2026-04-04T16:36:42.999Z</time></trkpt><trkpt lat="36.989643054019965" lon="15.025730398620693"><ele>422.75</ele><time>2026-04-04T16:36:43.999Z</time></trkpt><trkpt lat="36.989566556713335" lon="15.025599563614119"><ele>420.5</ele><time>2026-04-04T16:36:44.999Z</time></trkpt><trkpt lat="36.9894948313295" lon="15.025460170654958"><ele>418.25</ele><time>2026-04-04T16:36:45.999Z</time></trkpt><trkpt lat="36.989440186432326" lon="15.02532338376436"><ele>416.0</ele><time>2026-04-04T16:36:46.999Z</time></trkpt><trkpt lat="36.98941781764508" lon="15.025183484812036"><ele>416.0</ele><time>2026-04-04T16:36:47.999Z</time></trkpt><trkpt lat="36.98940642953882" lon="15.025043330547728"><ele>416.0</ele><time>2026-04-04T16:36:48.999Z</time></trkpt><trkpt lat="36.98943162248976" lon="15.024904731523858"><ele>416.0</ele><time>2026-04-04T16:36:49.999Z</time></trkpt><trkpt lat="36.98944932440814" lon="15.024768420433452"><ele>416.0</ele><time>2026-04-04T16:36:50.999Z</time></trkpt><trkpt lat="36.98944559664287" lon="15.024628594590725"><ele>416.0</ele><time>2026-04-04T16:36:51.999Z</time></trkpt><trkpt lat="36.98944532352532" lon="15.02449180051843"><ele>415.8</ele><time>2026-04-04T16:36:52.999Z</time></trkpt><trkpt lat="36.989402377098585" lon="15.024367837972147"><ele>415.6</ele><time>2026-04-04T16:36:53.999Z</time></trkpt><trkpt lat="36.98932482287982" lon="15.024277390366963"><ele>415.4</ele><time>2026-04-04T16:36:54.999Z</time></trkpt><trkpt lat="36.98920486951147" lon="15.024280328828025"><ele>415.2</ele><time>2026-04-04T16:36:55.999Z</time></trkpt><trkpt lat="36.989100934685986" lon="15.02431650556276"><ele>415.0</ele><time>2026-04-04T16:36:56.999Z</time></trkpt><trkpt lat="36.98900228815432" lon="15.024377238278865"><ele>415.0</ele><time>2026-04-04T16:36:57.999Z</time></trkpt><trkpt lat="36.98888903456528" lon="15.024413536871377"><ele>415.0</ele><time>2026-04-04T16:36:58.999Z</time></trkpt><trkpt lat="36.988775370220324" lon="15.024463947597493"><ele>415.0</ele><time>2026-04-04T16:36:59.999Z</time></trkpt><trkpt lat="36.98866385807989" lon="15.024538739202322"><ele>415.0</ele><time>2026-04-04T16:37:00.999Z</time></trkpt><trkpt lat="36.988568821096955" lon="15.024613716918644"><ele>415.0</ele><time>2026-04-04T16:37:01.999Z</time></trkpt><trkpt lat="36.98849933693855" lon="15.024744379813857"><ele>415.0</ele><time>2026-04-04T16:37:02.999Z</time></trkpt><trkpt lat="36.98846631792586" lon="15.02490355869172"><ele>415.0</ele><time>2026-04-04T16:37:03.999Z</time></trkpt><trkpt lat="36.98845331201289" lon="15.025071964261912"><ele>415.0</ele><time>2026-04-04T16:37:04.999Z</time></trkpt><trkpt lat="36.98844104425403" lon="15.02524207705815"><ele>416.0</ele><time>2026-04-04T16:37:05.999Z</time></trkpt><trkpt lat="36.98842130173476" lon="15.025413854867502"><ele>417.0</ele><time>2026-04-04T16:37:06.999Z</time></trkpt><trkpt lat="36.98839850948404" lon="15.025586243195562"><ele>418.0</ele><time>2026-04-04T16:37:07.999Z</time></trkpt><trkpt lat="36.988374670150606" lon="15.025758651675288"><ele>419.0</ele><time>2026-04-04T16:37:08.999Z</time></trkpt><trkpt lat="36.98834025119419" lon="15.025931097726053"><ele>416.5</ele><time>2026-04-04T16:37:09.999Z</time></trkpt><trkpt lat="36.98828607525444" lon="15.026097890015164"><ele>414.0</ele><time>2026-04-04T16:37:10.999Z</time></trkpt><trkpt lat="36.988217599257055" lon="15.026259003539653"><ele>411.5</ele><time>2026-04-04T16:37:11.999Z</time></trkpt><trkpt lat="36.9881487796885" lon="15.02642006235345"><ele>409.0</ele><time>2026-04-04T16:37:12.999Z</time></trkpt><trkpt lat="36.988088401936835" lon="15.026584884379686"><ele>408.0</ele><time>2026-04-04T16:37:13.999Z</time></trkpt><trkpt lat="36.98802700224419" lon="15.026739654155225"><ele>407.0</ele><time>2026-04-04T16:37:14.999Z</time></trkpt><trkpt lat="36.98796827497315" lon="15.02688623764213"><ele>406.0</ele><time>2026-04-04T16:37:15.999Z</time></trkpt><trkpt lat="36.98791409341374" lon="15.027032233639185"><ele>405.0</ele><time>2026-04-04T16:37:16.999Z</time></trkpt><trkpt lat="36.98785936384683" lon="15.027173198451669"><ele>405.0</ele><time>2026-04-04T16:37:17.999Z</time></trkpt><trkpt lat="36.987800379707664" lon="15.027308574824913"><ele>405.0</ele><time>2026-04-04T16:37:18.999Z</time></trkpt><trkpt lat="36.98773375351235" lon="15.027428363507804"><ele>405.0</ele><time>2026-04-04T16:37:19.999Z</time></trkpt><trkpt lat="36.98764787731024" lon="15.02753480059646"><ele>405.0</ele><time>2026-04-04T16:37:20.999Z</time></trkpt><trkpt lat="36.98753750965202" lon="15.027591573652927"><ele>407.25</ele><time>2026-04-04T16:37:21.998Z</time></trkpt><trkpt lat="36.98743759128597" lon="15.027666803952464"><ele>409.5</ele><time>2026-04-04T16:37:22.998Z</time></trkpt><trkpt lat="36.987327669766" lon="15.027714997100475"><ele>411.75</ele><time>2026-04-04T16:37:23.998Z</time></trkpt><trkpt lat="36.987217579613436" lon="15.027766524611451"><ele>414.0</ele><time>2026-04-04T16:37:24.998Z</time></trkpt><trkpt lat="36.98711668538323" lon="15.027810673751963"><ele>414.0</ele><time>2026-04-04T16:37:25.998Z</time></trkpt><trkpt lat="36.9870112182756" lon="15.027854163417272"><ele>414.0</ele><time>2026-04-04T16:37:26.998Z</time></trkpt><trkpt lat="36.986899439522674" lon="15.027879353371038"><ele>414.0</ele><time>2026-04-04T16:37:27.998Z</time></trkpt><trkpt lat="36.98680359894093" lon="15.027912653839152"><ele>414.0</ele><time>2026-04-04T16:37:28.998Z</time></trkpt><trkpt lat="36.98672638327343" lon="15.027921423398597"><ele>414.0</ele><time>2026-04-04T16:37:29.998Z</time></trkpt><trkpt lat="36.986685166231936" lon="15.02777902710602"><ele>414.0</ele><time>2026-04-04T16:37:32Z</time></trkpt><trkpt lat="36.986683433482256" lon="15.027667207515512"><ele>414.0</ele><time>2026-04-04T16:37:33Z</time></trkpt><trkpt lat="36.98670034837157" lon="15.02754332736939"><ele>414.0</ele><time>2026-04-04T16:37:34Z</time></trkpt><trkpt lat="36.98671366736748" lon="15.027407880397242"><ele>414.0</ele><time>2026-04-04T16:37:35Z</time></trkpt><trkpt lat="36.986721703668934" lon="15.027262414413926"><ele>414.0</ele><time>2026-04-04T16:37:36Z</time></trkpt><trkpt lat="36.98672584927855" lon="15.02711618791916"><ele>415.0</ele><time>2026-04-04T16:37:37Z</time></trkpt><trkpt lat="36.9867119923986" lon="15.026966133381796"><ele>416.0</ele><time>2026-04-04T16:37:38Z</time></trkpt><trkpt lat="36.98667544863754" lon="15.026814861641833"><ele>417.0</ele><time>2026-04-04T16:37:39Z</time></trkpt><trkpt lat="36.986641541117436" lon="15.026660094611138"><ele>418.0</ele><time>2026-04-04T16:37:40Z</time></trkpt><trkpt lat="36.986559795648105" lon="15.026534738952767"><ele>418.0</ele><time>2026-04-04T16:37:41Z</time></trkpt><trkpt lat="36.986484889079456" lon="15.026418808877871"><ele>418.0</ele><time>2026-04-04T16:37:42Z</time></trkpt><trkpt lat="36.98635826317436" lon="15.02638845251085"><ele>418.0</ele><time>2026-04-04T16:37:43Z</time></trkpt><trkpt lat="36.986240439003716" lon="15.026444530740763"><ele>418.0</ele><time>2026-04-04T16:37:44Z</time></trkpt><trkpt lat="36.98614833083773" lon="15.02653715258143"><ele>418.5</ele><time>2026-04-04T16:37:45Z</time></trkpt><trkpt lat="36.98609110635731" lon="15.026670042855116"><ele>419.0</ele><time>2026-04-04T16:37:46Z</time></trkpt><trkpt lat="36.98605832524929" lon="15.026820569680732"><ele>419.5</ele><time>2026-04-04T16:37:47Z</time></trkpt><trkpt lat="36.98601876448504" lon="15.026966433530694"><ele>420.0</ele><time>2026-04-04T16:37:48Z</time></trkpt><trkpt lat="36.98596259696245" lon="15.027106245042178"><ele>420.0</ele><time>2026-04-04T16:37:49Z</time></trkpt><trkpt lat="36.98590671777688" lon="15.02725063195796"><ele>420.0</ele><time>2026-04-04T16:37:50Z</time></trkpt><trkpt lat="36.985849706150965" lon="15.027394240867531"><ele>420.0</ele><time>2026-04-04T16:37:51Z</time></trkpt><trkpt lat="36.985782034119175" lon="15.027534926394557"><ele>420.0</ele><time>2026-04-04T16:37:52Z</time></trkpt><trkpt lat="36.98568631717075" lon="15.027651537298453"><ele>421.75</ele><time>2026-04-04T16:37:53Z</time></trkpt><trkpt lat="36.985589689831976" lon="15.027764528047557"><ele>423.5</ele><time>2026-04-04T16:37:54Z</time></trkpt><trkpt lat="36.985478826985315" lon="15.027855335073736"><ele>425.25</ele><time>2026-04-04T16:37:55Z</time></trkpt><trkpt lat="36.98535871983897" lon="15.027919248002187"><ele>427.0</ele><time>2026-04-04T16:37:56Z</time></trkpt><trkpt lat="36.98522759449821" lon="15.027972136118255"><ele>427.0</ele><time>2026-04-04T16:37:57Z</time></trkpt><trkpt lat="36.985095603864735" lon="15.028019480321147"><ele>427.0</ele><time>2026-04-04T16:37:58Z</time></trkpt><trkpt lat="36.98496058465709" lon="15.0280666372953"><ele>427.0</ele><time>2026-04-04T16:37:59Z</time></trkpt><trkpt lat="36.98482603430744" lon="15.02811280656072"><ele>427.0</ele><time>2026-04-04T16:38:00Z</time></trkpt><trkpt lat="36.98469192516995" lon="15.02816005234204"><ele>427.75</ele><time>2026-04-04T16:38:01Z</time></trkpt><trkpt lat="36.98455989317699" lon="15.028207607631217"><ele>428.5</ele><time>2026-04-04T16:38:02Z</time></trkpt><trkpt lat="36.98443022781442" lon="15.028254310598482"><ele>429.25</ele><time>2026-04-04T16:38:03Z</time></trkpt><trkpt lat="36.98430368385044" lon="15.028299889200747"><ele>430.0</ele><time>2026-04-04T16:38:04Z</time></trkpt><trkpt lat="36.98418002210467" lon="15.02834415762384"><ele>430.75</ele><time>2026-04-04T16:38:05Z</time></trkpt><trkpt lat="36.984055293652006" lon="15.028387908323534"><ele>431.5</ele><time>2026-04-04T16:38:05.999Z</time></trkpt><trkpt lat="36.98392915792018" lon="15.028432152669989"><ele>432.25</ele><time>2026-04-04T16:38:06.999Z</time></trkpt><trkpt lat="36.98379607319926" lon="15.028478834529157"><ele>433.0</ele><time>2026-04-04T16:38:07.999Z</time></trkpt><trkpt lat="36.98365690089654" lon="15.028528382026348"><ele>433.0</ele><time>2026-04-04T16:38:08.999Z</time></trkpt><trkpt lat="36.98351511832" lon="15.028578880411093"><ele>433.0</ele><time>2026-04-04T16:38:09.999Z</time></trkpt><trkpt lat="36.983368146103466" lon="15.028631383705665"><ele>433.0</ele><time>2026-04-04T16:38:10.999Z</time></trkpt><trkpt lat="36.98322105074943" lon="15.028684869180813"><ele>433.33333333333337</ele><time>2026-04-04T16:38:11.999Z</time></trkpt><trkpt lat="36.983071540210226" lon="15.02873923286207"><ele>433.66666666666663</ele><time>2026-04-04T16:38:12.999Z</time></trkpt><trkpt lat="36.98292068661888" lon="15.028797640443138"><ele>434.0</ele><time>2026-04-04T16:38:13.999Z</time></trkpt><trkpt lat="36.982782457029074" lon="15.028879521016814"><ele>434.0</ele><time>2026-04-04T16:38:14.999Z</time></trkpt><trkpt lat="36.98264193133668" lon="15.028938003380299"><ele>434.0</ele><time>2026-04-04T16:38:15.999Z</time></trkpt><trkpt lat="36.98250649521054" lon="15.029021940960199"><ele>434.0</ele><time>2026-04-04T16:38:16.999Z</time></trkpt><trkpt lat="36.98237027350586" lon="15.029112085339387"><ele>433.66666666666663</ele><time>2026-04-04T16:38:17.999Z</time></trkpt><trkpt lat="36.9822362296881" lon="15.029201484922487"><ele>433.33333333333337</ele><time>2026-04-04T16:38:18.999Z</time></trkpt><trkpt lat="36.982107349283055" lon="15.0293086340121"><ele>433.0</ele><time>2026-04-04T16:38:19.999Z</time></trkpt><trkpt lat="36.9819727142812" lon="15.029394768571347"><ele>433.0</ele><time>2026-04-04T16:38:20.999Z</time></trkpt><trkpt lat="36.981841830777796" lon="15.02948282932269"><ele>433.0</ele><time>2026-04-04T16:38:21.999Z</time></trkpt><trkpt lat="36.98171269261402" lon="15.029568443808468"><ele>433.0</ele><time>2026-04-04T16:38:22.999Z</time></trkpt><trkpt lat="36.981582172653454" lon="15.02965547314804"><ele>433.0</ele><time>2026-04-04T16:38:23.999Z</time></trkpt><trkpt lat="36.98144744583287" lon="15.029720485973273"><ele>433.5</ele><time>2026-04-04T16:38:24.999Z</time></trkpt><trkpt lat="36.981318344940554" lon="15.029804770467502"><ele>434.0</ele><time>2026-04-04T16:38:25.999Z</time></trkpt><trkpt lat="36.98119012295198" lon="15.02988848161848"><ele>434.5</ele><time>2026-04-04T16:38:26.999Z</time></trkpt><trkpt lat="36.981061032630805" lon="15.029974102469799"><ele>435.0</ele><time>2026-04-04T16:38:27.999Z</time></trkpt><trkpt lat="36.9809315749336" lon="15.030059288384578"><ele>435.5</ele><time>2026-04-04T16:38:28.999Z</time></trkpt><trkpt lat="36.9808032940136" lon="15.03014484578316"><ele>436.0</ele><time>2026-04-04T16:38:29.999Z</time></trkpt><trkpt lat="36.98067291025759" lon="15.030231804490704"><ele>436.5</ele><time>2026-04-04T16:38:30.999Z</time></trkpt><trkpt lat="36.9805518925666" lon="15.030331199402642"><ele>437.0</ele><time>2026-04-04T16:38:31.999Z</time></trkpt><trkpt lat="36.980421072423226" lon="15.030418044431416"><ele>437.0</ele><time>2026-04-04T16:38:32.999Z</time></trkpt><trkpt lat="36.98029373999092" lon="15.030478188131603"><ele>437.0</ele><time>2026-04-04T16:38:33.999Z</time></trkpt><trkpt lat="36.98018610104914" lon="15.030548442721265"><ele>437.0</ele><time>2026-04-04T16:38:34.999Z</time></trkpt><trkpt lat="36.980093420884536" lon="15.030634018557611"><ele>437.0</ele><time>2026-04-04T16:38:35.999Z</time></trkpt><trkpt lat="36.979993954244584" lon="15.030698605915207"><ele>437.0</ele><time>2026-04-04T16:38:36.999Z</time></trkpt><trkpt lat="36.97990272149125" lon="15.030741706833581"><ele>437.00000000000006</ele><time>2026-04-04T16:38:37.999Z</time></trkpt><trkpt lat="36.97983115725201" lon="15.0307897947097"><ele>437.00000000000006</ele><time>2026-04-04T16:38:38.999Z</time></trkpt><trkpt lat="36.97979322176091" lon="15.03099770214453"><ele>437.0</ele><time>2026-04-04T16:38:40.999Z</time></trkpt><trkpt lat="36.979769177054145" lon="15.031071359155371"><ele>437.0</ele><time>2026-04-04T16:38:41.999Z</time></trkpt><trkpt lat="36.97975534743862" lon="15.031150317401822"><ele>437.0</ele><time>2026-04-04T16:38:42.999Z</time></trkpt><trkpt lat="36.97973584767049" lon="15.031295898216934"><ele>437.00000000000006</ele><time>2026-04-04T16:38:44.999Z</time></trkpt><trkpt lat="36.979712118054444" lon="15.031401000345216"><ele>437.00000000000006</ele><time>2026-04-04T16:38:46.999Z</time></trkpt><trkpt lat="36.979710095231944" lon="15.031554278419456"><ele>437.0</ele><time>2026-04-04T16:41:09.999Z</time></trkpt><trkpt lat="36.97969830158523" lon="15.031643397699387"><ele>437.0</ele><time>2026-04-04T16:41:10.999Z</time></trkpt><trkpt lat="36.97968689892086" lon="15.031740253328666"><ele>436.20000000000005</ele><time>2026-04-04T16:41:11.999Z</time></trkpt><trkpt lat="36.97965663072163" lon="15.03184312142224"><ele>435.40000000000003</ele><time>2026-04-04T16:41:12.999Z</time></trkpt><trkpt lat="36.979648037487515" lon="15.031949952802087"><ele>434.59999999999997</ele><time>2026-04-04T16:41:13.999Z</time></trkpt><trkpt lat="36.979639052334555" lon="15.032061656765826"><ele>433.79999999999995</ele><time>2026-04-04T16:41:14.999Z</time></trkpt><trkpt lat="36.979629542834765" lon="15.03217987930932"><ele>433.0</ele><time>2026-04-04T16:41:15.999Z</time></trkpt><trkpt lat="36.97961941657726" lon="15.032305769377496"><ele>433.0</ele><time>2026-04-04T16:41:16.999Z</time></trkpt><trkpt lat="36.97960895533394" lon="15.032436804274184"><ele>432.99999999999994</ele><time>2026-04-04T16:41:17.999Z</time></trkpt><trkpt lat="36.97961454531926" lon="15.032574048703191"><ele>432.99999999999994</ele><time>2026-04-04T16:41:18.999Z</time></trkpt><trkpt lat="36.979601081178906" lon="15.032708015136665"><ele>433.0</ele><time>2026-04-04T16:41:19.999Z</time></trkpt><trkpt lat="36.97959597416076" lon="15.03283407361237"><ele>433.0</ele><time>2026-04-04T16:41:20.999Z</time></trkpt><trkpt lat="36.97956563455958" lon="15.032947527700612"><ele>432.2</ele><time>2026-04-04T16:41:21.999Z</time></trkpt><trkpt lat="36.97954605573787" lon="15.03305830489562"><ele>431.4</ele><time>2026-04-04T16:41:22.999Z</time></trkpt><trkpt lat="36.979536921607" lon="15.033180555022126"><ele>430.59999999999997</ele><time>2026-04-04T16:41:23.999Z</time></trkpt><trkpt lat="36.979506201982296" lon="15.033298849266664"><ele>429.79999999999995</ele><time>2026-04-04T16:41:24.999Z</time></trkpt><trkpt lat="36.97947503680979" lon="15.033423414838909"><ele>429.0</ele><time>2026-04-04T16:41:25.999Z</time></trkpt><trkpt lat="36.97942344049108" lon="15.033539742949763"><ele>428.6</ele><time>2026-04-04T16:41:26.999Z</time></trkpt><trkpt lat="36.97937361401564" lon="15.033656965525728"><ele>428.2</ele><time>2026-04-04T16:41:27.999Z</time></trkpt><trkpt lat="36.979312856956916" lon="15.033767619325525"><ele>427.80000000000007</ele><time>2026-04-04T16:41:28.999Z</time></trkpt><trkpt lat="36.979262430018345" lon="15.033890958927955"><ele>427.40000000000003</ele><time>2026-04-04T16:41:29.998Z</time></trkpt><trkpt lat="36.97919880622989" lon="15.034005493352614"><ele>427.0</ele><time>2026-04-04T16:41:30.998Z</time></trkpt><trkpt lat="36.979135658147996" lon="15.034118949479696"><ele>427.5</ele><time>2026-04-04T16:41:31.998Z</time></trkpt><trkpt lat="36.979070044556046" lon="15.034237426282962"><ele>428.0</ele><time>2026-04-04T16:41:32.998Z</time></trkpt><trkpt lat="36.979005628921705" lon="15.034354225367935"><ele>428.5</ele><time>2026-04-04T16:41:33.998Z</time></trkpt><trkpt lat="36.97894003636588" lon="15.034466567928177"><ele>429.0</ele><time>2026-04-04T16:41:34.998Z</time></trkpt><trkpt lat="36.97887075487375" lon="15.034576383675168"><ele>429.0</ele><time>2026-04-04T16:41:35.998Z</time></trkpt><trkpt lat="36.97880096567847" lon="15.03469043437318"><ele>429.0</ele><time>2026-04-04T16:41:36.998Z</time></trkpt><trkpt lat="36.978736000947805" lon="15.034809947325735"><ele>429.0</ele><time>2026-04-04T16:41:37.998Z</time></trkpt><trkpt lat="36.97866875863969" lon="15.034933511968656"><ele>429.0</ele><time>2026-04-04T16:41:38.998Z</time></trkpt><trkpt lat="36.978603821256776" lon="15.035064680211278"><ele>428.75</ele><time>2026-04-04T16:41:39.998Z</time></trkpt><trkpt lat="36.97853438229649" lon="15.035191522193525"><ele>428.5</ele><time>2026-04-04T16:41:40.998Z</time></trkpt><trkpt lat="36.978469155468005" lon="15.035322200063172"><ele>428.25</ele><time>2026-04-04T16:41:41.998Z</time></trkpt><trkpt lat="36.97841006074003" lon="15.035453824658271"><ele>428.0</ele><time>2026-04-04T16:41:43Z</time></trkpt><trkpt lat="36.978337773623416" lon="15.035567271332672"><ele>428.0</ele><time>2026-04-04T16:41:44Z</time></trkpt><trkpt lat="36.97828117039487" lon="15.03568142021583"><ele>427.99999999999994</ele><time>2026-04-04T16:41:45Z</time></trkpt><trkpt lat="36.97823323393435" lon="15.035810756848738"><ele>427.99999999999994</ele><time>2026-04-04T16:41:46Z</time></trkpt><trkpt lat="36.978177604812224" lon="15.035917718270392"><ele>428.0</ele><time>2026-04-04T16:41:47Z</time></trkpt><trkpt lat="36.97812806157796" lon="15.036013165823503"><ele>428.0</ele><time>2026-04-04T16:41:48Z</time></trkpt><trkpt lat="36.97806762511948" lon="15.036101180453036"><ele>427.4</ele><time>2026-04-04T16:41:49Z</time></trkpt><trkpt lat="36.978013962418956" lon="15.036191351962154"><ele>426.79999999999995</ele><time>2026-04-04T16:41:50Z</time></trkpt><trkpt lat="36.97795010214012" lon="15.036279538790287"><ele>426.2</ele><time>2026-04-04T16:41:51Z</time></trkpt><trkpt lat="36.977876856194186" lon="15.036369492573746"><ele>425.6</ele><time>2026-04-04T16:41:52Z</time></trkpt><trkpt lat="36.97779837222711" lon="15.036459812833609"><ele>425.0</ele><time>2026-04-04T16:41:53Z</time></trkpt><trkpt lat="36.97772366547161" lon="15.036565696724509"><ele>424.5</ele><time>2026-04-04T16:41:54Z</time></trkpt><trkpt lat="36.97763574530829" lon="15.036662707414129"><ele>424.0</ele><time>2026-04-04T16:41:55Z</time></trkpt><trkpt lat="36.97754549277993" lon="15.03676309749746"><ele>423.5</ele><time>2026-04-04T16:41:56Z</time></trkpt><trkpt lat="36.97745430564791" lon="15.036871672343157"><ele>423.0</ele><time>2026-04-04T16:41:57Z</time></trkpt><trkpt lat="36.97735018894202" lon="15.03696145444733"><ele>424.5</ele><time>2026-04-04T16:41:58Z</time></trkpt><trkpt lat="36.97725540388508" lon="15.037063537461794"><ele>426.0</ele><time>2026-04-04T16:41:59Z</time></trkpt><trkpt lat="36.97715947045574" lon="15.03716367244307"><ele>427.5</ele><time>2026-04-04T16:42:00Z</time></trkpt><trkpt lat="36.97706064895848" lon="15.03725895575479"><ele>429.0</ele><time>2026-04-04T16:42:01Z</time></trkpt><trkpt lat="36.976959956156776" lon="15.037349602261374"><ele>429.0</ele><time>2026-04-04T16:42:02Z</time></trkpt><trkpt lat="36.97687048045547" lon="15.037457481218151"><ele>429.0</ele><time>2026-04-04T16:42:03Z</time></trkpt><trkpt lat="36.976764620614205" lon="15.037535046420093"><ele>429.0</ele><time>2026-04-04T16:42:04Z</time></trkpt><trkpt lat="36.97667923002263" lon="15.037646861798372"><ele>429.0</ele><time>2026-04-04T16:42:05Z</time></trkpt><trkpt lat="36.9765861879228" lon="15.037751715835773"><ele>429.25</ele><time>2026-04-04T16:42:06Z</time></trkpt><trkpt lat="36.97649104490788" lon="15.03785682994066"><ele>429.5</ele><time>2026-04-04T16:42:07Z</time></trkpt><trkpt lat="36.97639670428662" lon="15.03797564048187"><ele>429.75</ele><time>2026-04-04T16:42:08Z</time></trkpt><trkpt lat="36.97629879089669" lon="15.038099648960808"><ele>430.0</ele><time>2026-04-04T16:42:09Z</time></trkpt><trkpt lat="36.97620706936452" lon="15.038223908174759"><ele>427.5</ele><time>2026-04-04T16:42:10Z</time></trkpt><trkpt lat="36.976122436807756" lon="15.038353584947721"><ele>425.0</ele><time>2026-04-04T16:42:11Z</time></trkpt><trkpt lat="36.976050678351314" lon="15.03850231767841"><ele>422.5</ele><time>2026-04-04T16:42:12Z</time></trkpt><trkpt lat="36.97598125100271" lon="15.038658129200646"><ele>420.0</ele><time>2026-04-04T16:42:13Z</time></trkpt><trkpt lat="36.975910570392514" lon="15.038815096952103"><ele>422.25</ele><time>2026-04-04T16:42:14Z</time></trkpt><trkpt lat="36.97583929080787" lon="15.03896748742848"><ele>424.5</ele><time>2026-04-04T16:42:15Z</time></trkpt><trkpt lat="36.97576763561406" lon="15.039120634406105"><ele>426.75</ele><time>2026-04-04T16:42:16Z</time></trkpt><trkpt lat="36.975702182313995" lon="15.039269120815677"><ele>429.0</ele><time>2026-04-04T16:42:16.999Z</time></trkpt><trkpt lat="36.975634645555765" lon="15.03941819898929"><ele>429.0</ele><time>2026-04-04T16:42:17.999Z</time></trkpt><trkpt lat="36.97556600613308" lon="15.039568489525058"><ele>429.0</ele><time>2026-04-04T16:42:18.999Z</time></trkpt><trkpt lat="36.97549656244688" lon="15.039716128602766"><ele>429.0</ele><time>2026-04-04T16:42:19.999Z</time></trkpt><trkpt lat="36.97542904855808" lon="15.0398678006981"><ele>429.0</ele><time>2026-04-04T16:42:20.999Z</time></trkpt><trkpt lat="36.97535886908315" lon="15.040021790219269"><ele>427.75</ele><time>2026-04-04T16:42:21.999Z</time></trkpt><trkpt lat="36.97529073100956" lon="15.040177381684863"><ele>426.5</ele><time>2026-04-04T16:42:22.999Z</time></trkpt><trkpt lat="36.97522356546138" lon="15.040337630381325"><ele>425.25</ele><time>2026-04-04T16:42:23.999Z</time></trkpt><trkpt lat="36.97516032903995" lon="15.040501480044556"><ele>424.0</ele><time>2026-04-04T16:42:24.999Z</time></trkpt><trkpt lat="36.97510366249521" lon="15.040673415186026"><ele>425.0</ele><time>2026-04-04T16:42:25.999Z</time></trkpt><trkpt lat="36.97504955695772" lon="15.04084622108773"><ele>426.0</ele><time>2026-04-04T16:42:26.999Z</time></trkpt><trkpt lat="36.97499809857143" lon="15.041025488503593"><ele>427.0</ele><time>2026-04-04T16:42:27.999Z</time></trkpt><trkpt lat="36.97494839408894" lon="15.041207220116938"><ele>427.6666666666667</ele><time>2026-04-04T16:42:28.999Z</time></trkpt><trkpt lat="36.97490018639676" lon="15.041388455809841"><ele>428.33333333333337</ele><time>2026-04-04T16:42:29.999Z</time></trkpt><trkpt lat="36.974851876999644" lon="15.041564852278016"><ele>429.0</ele><time>2026-04-04T16:42:30.999Z</time></trkpt><trkpt lat="36.974802832962354" lon="15.04174045586525"><ele>429.0</ele><time>2026-04-04T16:42:31.999Z</time></trkpt><trkpt lat="36.97475513055849" lon="15.041913390649167"><ele>429.0</ele><time>2026-04-04T16:42:32.999Z</time></trkpt><trkpt lat="36.97470836697729" lon="15.042087218903976"><ele>429.0</ele><time>2026-04-04T16:42:33.999Z</time></trkpt><trkpt lat="36.974662198154135" lon="15.042256379465154"><ele>429.0</ele><time>2026-04-04T16:42:34.999Z</time></trkpt><trkpt lat="36.974615948308575" lon="15.042425186304717"><ele>429.75</ele><time>2026-04-04T16:42:35.999Z</time></trkpt><trkpt lat="36.97456927583836" lon="15.042590532781718"><ele>430.5</ele><time>2026-04-04T16:42:36.999Z</time></trkpt><trkpt lat="36.974524919258535" lon="15.042753621585621"><ele>431.25</ele><time>2026-04-04T16:42:37.999Z</time></trkpt><trkpt lat="36.974482895744515" lon="15.04291445734618"><ele>432.0</ele><time>2026-04-04T16:42:38.999Z</time></trkpt><trkpt lat="36.9744416496741" lon="15.043076745908092"><ele>432.0</ele><time>2026-04-04T16:42:39.999Z</time></trkpt><trkpt lat="36.974397930648195" lon="15.043241750775213"><ele>432.0</ele><time>2026-04-04T16:42:40.999Z</time></trkpt><trkpt lat="36.974353142373324" lon="15.04340780688271"><ele>432.0</ele><time>2026-04-04T16:42:41.999Z</time></trkpt><trkpt lat="36.97430389988001" lon="15.043572880284229"><ele>432.0</ele><time>2026-04-04T16:42:42.999Z</time></trkpt><trkpt lat="36.97425230981994" lon="15.043736159489306"><ele>433.0</ele><time>2026-04-04T16:42:43.999Z</time></trkpt><trkpt lat="36.97419997766755" lon="15.04390157789667"><ele>434.0</ele><time>2026-04-04T16:42:44.999Z</time></trkpt><trkpt lat="36.974146155854775" lon="15.04406771020655"><ele>435.0</ele><time>2026-04-04T16:42:45.999Z</time></trkpt><trkpt lat="36.97409093925575" lon="15.044232198411022"><ele>436.0</ele><time>2026-04-04T16:42:46.999Z</time></trkpt><trkpt lat="36.97403410517321" lon="15.044397432819535"><ele>437.5</ele><time>2026-04-04T16:42:47.999Z</time></trkpt><trkpt lat="36.97397650646822" lon="15.044561324465835"><ele>439.0</ele><time>2026-04-04T16:42:48.999Z</time></trkpt><trkpt lat="36.97391869364578" lon="15.044726250156923"><ele>440.5</ele><time>2026-04-04T16:42:49.999Z</time></trkpt><trkpt lat="36.97386013291798" lon="15.044892480831201"><ele>442.0</ele><time>2026-04-04T16:42:50.999Z</time></trkpt><trkpt lat="36.97379818569892" lon="15.045057054650156"><ele>443.0</ele><time>2026-04-04T16:42:51.999Z</time></trkpt><trkpt lat="36.97373521123621" lon="15.045220753767202"><ele>444.0</ele><time>2026-04-04T16:42:52.999Z</time></trkpt><trkpt lat="36.97367532745922" lon="15.045388408008552"><ele>445.0</ele><time>2026-04-04T16:42:53.999Z</time></trkpt><trkpt lat="36.97362449860948" lon="15.045559081953662"><ele>446.0</ele><time>2026-04-04T16:42:54.999Z</time></trkpt><trkpt lat="36.97358163516691" lon="15.045736149808558"><ele>447.75</ele><time>2026-04-04T16:42:55.999Z</time></trkpt><trkpt lat="36.97354259676733" lon="15.045913298770648"><ele>449.5</ele><time>2026-04-04T16:42:56.999Z</time></trkpt><trkpt lat="36.973503191541546" lon="15.046087198331414"><ele>451.25</ele><time>2026-04-04T16:42:57.999Z</time></trkpt><trkpt lat="36.973466937938014" lon="15.046263313026206"><ele>453.0</ele><time>2026-04-04T16:42:58.999Z</time></trkpt><trkpt lat="36.97342894689484" lon="15.046435338656034"><ele>453.0</ele><time>2026-04-04T16:42:59.999Z</time></trkpt><trkpt lat="36.97338600315732" lon="15.0466055888925"><ele>453.0</ele><time>2026-04-04T16:43:00.999Z</time></trkpt><trkpt lat="36.97333997712941" lon="15.046771975940107"><ele>453.0</ele><time>2026-04-04T16:43:01.999Z</time></trkpt><trkpt lat="36.97326355600061" lon="15.04691653766337"><ele>453.0</ele><time>2026-04-04T16:43:02.999Z</time></trkpt><trkpt lat="36.973190986207214" lon="15.04706097757781"><ele>453.75</ele><time>2026-04-04T16:43:03.999Z</time></trkpt><trkpt lat="36.973114637393685" lon="15.047200318846714"><ele>454.5</ele><time>2026-04-04T16:43:04.999Z</time></trkpt><trkpt lat="36.97303455165133" lon="15.047337703513385"><ele>455.25</ele><time>2026-04-04T16:43:05.999Z</time></trkpt><trkpt lat="36.972948545690805" lon="15.04746948472424"><ele>456.0</ele><time>2026-04-04T16:43:06.999Z</time></trkpt><trkpt lat="36.972854692639594" lon="15.047581358948824"><ele>457.0</ele><time>2026-04-04T16:43:07.999Z</time></trkpt><trkpt lat="36.97275100044439" lon="15.047694557278719"><ele>458.0</ele><time>2026-04-04T16:43:08.999Z</time></trkpt><trkpt lat="36.97265045058333" lon="15.047809504666956"><ele>459.0</ele><time>2026-04-04T16:43:09.999Z</time></trkpt><trkpt lat="36.97257006919351" lon="15.047944332848283"><ele>460.0</ele><time>2026-04-04T16:43:10.999Z</time></trkpt><trkpt lat="36.972488120601966" lon="15.048033492505315"><ele>460.0</ele><time>2026-04-04T16:43:11.999Z</time></trkpt><trkpt lat="36.97243658969969" lon="15.048116538018663"><ele>460.0</ele><time>2026-04-04T16:43:12.999Z</time></trkpt><trkpt lat="36.972429396365094" lon="15.048212126991421"><ele>460.0</ele><time>2026-04-04T16:43:13.999Z</time></trkpt><trkpt lat="36.97244894879325" lon="15.048314831124603"><ele>460.0</ele><time>2026-04-04T16:43:14.999Z</time></trkpt><trkpt lat="36.97247043708506" lon="15.04843352637466"><ele>460.0</ele><time>2026-04-04T16:43:15.999Z</time></trkpt><trkpt lat="36.97250515181976" lon="15.048562479314171"><ele>464.25</ele><time>2026-04-04T16:43:16.999Z</time></trkpt><trkpt lat="36.97255250513473" lon="15.048696558742606"><ele>468.5</ele><time>2026-04-04T16:43:17.999Z</time></trkpt><trkpt lat="36.972606408250094" lon="15.048832510156256"><ele>472.75</ele><time>2026-04-04T16:43:18.999Z</time></trkpt><trkpt lat="36.972660262804524" lon="15.048967722693089"><ele>477.0</ele><time>2026-04-04T16:43:19.999Z</time></trkpt><trkpt lat="36.972698647782615" lon="15.04910477634093"><ele>478.75</ele><time>2026-04-04T16:43:20.999Z</time></trkpt><trkpt lat="36.97271142598252" lon="15.049252429573672"><ele>480.5</ele><time>2026-04-04T16:43:21.999Z</time></trkpt><trkpt lat="36.97271181624203" lon="15.049400444360195"><ele>482.25</ele><time>2026-04-04T16:43:22.999Z</time></trkpt><trkpt lat="36.97268407653753" lon="15.049539129229988"><ele>484.0</ele><time>2026-04-04T16:43:23.999Z</time></trkpt><trkpt lat="36.97267640052704" lon="15.049688145477207"><ele>484.0</ele><time>2026-04-04T16:43:24.999Z</time></trkpt><trkpt lat="36.97264596017879" lon="15.049833666512647"><ele>484.0</ele><time>2026-04-04T16:43:25.999Z</time></trkpt><trkpt lat="36.9726213991609" lon="15.04998158851966"><ele>484.0</ele><time>2026-04-04T16:43:26.999Z</time></trkpt><trkpt lat="36.97259564258193" lon="15.050134151352658"><ele>484.0</ele><time>2026-04-04T16:43:27.999Z</time></trkpt><trkpt lat="36.97257123852422" lon="15.050292840118415"><ele>485.0</ele><time>2026-04-04T16:43:28.999Z</time></trkpt><trkpt lat="36.97254663190523" lon="15.050451207287974"><ele>486.0</ele><time>2026-04-04T16:43:29.999Z</time></trkpt><trkpt lat="36.9725180471987" lon="15.050613084173063"><ele>487.0</ele><time>2026-04-04T16:43:30.999Z</time></trkpt><trkpt lat="36.97248827323316" lon="15.050776197160344"><ele>488.0</ele><time>2026-04-04T16:43:31.999Z</time></trkpt><trkpt lat="36.972463900952505" lon="15.050943830421001"><ele>485.25</ele><time>2026-04-04T16:43:32.999Z</time></trkpt><trkpt lat="36.97243972929765" lon="15.05111359375051"><ele>482.5</ele><time>2026-04-04T16:43:33.999Z</time></trkpt><trkpt lat="36.972414575340515" lon="15.05128310778484"><ele>479.75</ele><time>2026-04-04T16:43:34.998Z</time></trkpt><trkpt lat="36.97238534691445" lon="15.05145721424189"><ele>477.0</ele><time>2026-04-04T16:43:35.998Z</time></trkpt><trkpt lat="36.97235841442666" lon="15.051622063991516"><ele>477.75</ele><time>2026-04-04T16:43:36.998Z</time></trkpt><trkpt lat="36.972331001750696" lon="15.051790364000754"><ele>478.5</ele><time>2026-04-04T16:43:37.998Z</time></trkpt><trkpt lat="36.97230380528324" lon="15.051943863709715"><ele>479.25</ele><time>2026-04-04T16:43:38.998Z</time></trkpt><trkpt lat="36.972282949935156" lon="15.05208094948503"><ele>480.0</ele><time>2026-04-04T16:43:39.998Z</time></trkpt><trkpt lat="36.972260803395464" lon="15.05220865151795"><ele>480.0</ele><time>2026-04-04T16:43:40.998Z</time></trkpt><trkpt lat="36.97224179793332" lon="15.05234478919619"><ele>480.0</ele><time>2026-04-04T16:43:41.998Z</time></trkpt><trkpt lat="36.97221788883149" lon="15.05247419654156"><ele>480.0</ele><time>2026-04-04T16:43:42.998Z</time></trkpt><trkpt lat="36.972191005330224" lon="15.052605948975708"><ele>480.0</ele><time>2026-04-04T16:43:43.998Z</time></trkpt><trkpt lat="36.97213831409863" lon="15.052721241593787"><ele>480.0</ele><time>2026-04-04T16:43:44.998Z</time></trkpt><trkpt lat="36.97208275771676" lon="15.052833305019549"><ele>480.8</ele><time>2026-04-04T16:43:45.998Z</time></trkpt><trkpt lat="36.97201646217426" lon="15.052948035291791"><ele>481.6</ele><time>2026-04-04T16:43:46.998Z</time></trkpt><trkpt lat="36.971948138265724" lon="15.053063689639888"><ele>482.4</ele><time>2026-04-04T16:43:47.998Z</time></trkpt><trkpt lat="36.971875126059714" lon="15.053178900273304"><ele>483.2</ele><time>2026-04-04T16:43:49Z</time></trkpt><trkpt lat="36.971815870159105" lon="15.053278233894206"><ele>484.0</ele><time>2026-04-04T16:43:50Z</time></trkpt><trkpt lat="36.971791684021795" lon="15.053356216152661"><ele>484.79999999999995</ele><time>2026-04-04T16:43:51Z</time></trkpt><trkpt lat="36.97172606292263" lon="15.053467028078021"><ele>485.59999999999997</ele><time>2026-04-04T16:43:53Z</time></trkpt><trkpt lat="36.971617618129066" lon="15.053362699501255"><ele>486.4</ele><time>2026-04-04T16:43:56Z</time></trkpt><trkpt lat="36.971554996441306" lon="15.05334118101981"><ele>487.2</ele><time>2026-04-04T16:43:57Z</time></trkpt><trkpt lat="36.971482766190455" lon="15.053313995312992"><ele>488.0</ele><time>2026-04-04T16:43:58Z</time></trkpt><trkpt lat="36.97136714335472" lon="15.053255084982778"><ele>485.71428571428567</ele><time>2026-04-04T16:44:00Z</time></trkpt><trkpt lat="36.97130762080253" lon="15.053222117791488"><ele>483.42857142857144</ele><time>2026-04-04T16:44:01Z</time></trkpt><trkpt lat="36.971243428087014" lon="15.05318656406655"><ele>481.1428571428571</ele><time>2026-04-04T16:44:02Z</time></trkpt><trkpt lat="36.97117573428569" lon="15.053151332260233"><ele>478.85714285714283</ele><time>2026-04-04T16:44:03Z</time></trkpt><trkpt lat="36.971111686965095" lon="15.053119739421101"><ele>476.57142857142856</ele><time>2026-04-04T16:44:04Z</time></trkpt><trkpt lat="36.97104950011716" lon="15.05309035081337"><ele>474.2857142857143</ele><time>2026-04-04T16:44:05Z</time></trkpt><trkpt lat="36.97097991973424" lon="15.053057763483793"><ele>472.0</ele><time>2026-04-04T16:44:06Z</time></trkpt><trkpt lat="36.970920886037995" lon="15.053030115584857"><ele>472.00000000000006</ele><time>2026-04-04T16:44:07Z</time></trkpt><trkpt lat="36.970859744126095" lon="15.052998372473773"><ele>472.0</ele><time>2026-04-04T16:44:08Z</time></trkpt><trkpt lat="36.97079280924142" lon="15.052965899376224"><ele>472.0</ele><time>2026-04-04T16:44:09Z</time></trkpt><trkpt lat="36.97072620478155" lon="15.052942307236664"><ele>472.0</ele><time>2026-04-04T16:44:10Z</time></trkpt><trkpt lat="36.97063053102821" lon="15.05295768168787"><ele>472.00000000000006</ele><time>2026-04-04T16:44:12Z</time></trkpt><trkpt lat="36.97054168252703" lon="15.05293999232894"><ele>472.0</ele><time>2026-04-04T16:44:14Z</time></trkpt><trkpt lat="36.97046326957867" lon="15.052912397405965"><ele>471.0</ele><time>2026-04-04T16:44:16Z</time></trkpt><trkpt lat="36.97035888414677" lon="15.053215967975916"><ele>470.0</ele><time>2026-04-04T16:44:18Z</time></trkpt><trkpt lat="36.970303322799325" lon="15.053278903624769"><ele>469.0</ele><time>2026-04-04T16:44:19Z</time></trkpt><trkpt lat="36.97023804739449" lon="15.053320296028398"><ele>468.0</ele><time>2026-04-04T16:44:20Z</time></trkpt><trkpt lat="36.97017011413992" lon="15.053364133607912"><ele>468.0</ele><time>2026-04-04T16:44:20.999Z</time></trkpt><trkpt lat="36.97010448343332" lon="15.053407623348322"><ele>468.0</ele><time>2026-04-04T16:44:21.999Z</time></trkpt><trkpt lat="36.97004364978136" lon="15.053467547673183"><ele>468.0</ele><time>2026-04-04T16:44:22.999Z</time></trkpt><trkpt lat="36.96998206191628" lon="15.053500177142341"><ele>468.0</ele><time>2026-04-04T16:44:23.999Z</time></trkpt><trkpt lat="36.96986092788871" lon="15.053476922287631"><ele>468.0</ele><time>2026-04-04T16:44:25.999Z</time></trkpt><trkpt lat="36.96979149583855" lon="15.05339652511977"><ele>468.0</ele><time>2026-04-04T16:44:27.999Z</time></trkpt><trkpt lat="36.96973740028197" lon="15.053350095637327"><ele>466.8571428571429</ele><time>2026-04-04T16:44:28.999Z</time></trkpt><trkpt lat="36.969672930610315" lon="15.053299746273632"><ele>465.7142857142858</ele><time>2026-04-04T16:44:29.999Z</time></trkpt><trkpt lat="36.96960261638953" lon="15.053255240733215"><ele>464.57142857142856</ele><time>2026-04-04T16:44:30.999Z</time></trkpt><trkpt lat="36.96954187896831" lon="15.053211288068033"><ele>463.42857142857144</ele><time>2026-04-04T16:44:31.999Z</time></trkpt><trkpt lat="36.969492035027024" lon="15.0531610486419"><ele>462.2857142857143</ele><time>2026-04-04T16:44:32.999Z</time></trkpt><trkpt lat="36.96943341815271" lon="15.053107173472313"><ele>461.1428571428571</ele><time>2026-04-04T16:44:33.999Z</time></trkpt><trkpt lat="36.969366507983054" lon="15.053064904635795"><ele>459.99999999999994</ele><time>2026-04-04T16:44:34.999Z</time></trkpt><trkpt lat="36.96930256120746" lon="15.053015839979288"><ele>458.6666666666667</ele><time>2026-04-04T16:44:35.999Z</time></trkpt><trkpt lat="36.969232365901874" lon="15.052960039562931"><ele>457.33333333333337</ele><time>2026-04-04T16:44:36.999Z</time></trkpt><trkpt lat="36.9691704224415" lon="15.052900761966388"><ele>456.0</ele><time>2026-04-04T16:44:37.999Z</time></trkpt><trkpt lat="36.96911757880996" lon="15.052853208416744"><ele>454.66666666666663</ele><time>2026-04-04T16:44:38.999Z</time></trkpt><trkpt lat="36.96904891483185" lon="15.052807475369997"><ele>453.3333333333333</ele><time>2026-04-04T16:44:39.999Z</time></trkpt><trkpt lat="36.9689832042541" lon="15.052745995250625"><ele>452.0</ele><time>2026-04-04T16:44:40.999Z</time></trkpt><trkpt lat="36.968889139501684" lon="15.052657161034661"><ele>451.20000000000005</ele><time>2026-04-04T16:44:42.999Z</time></trkpt><trkpt lat="36.96880916010465" lon="15.05259018657125"><ele>450.40000000000003</ele><time>2026-04-04T16:44:45.999Z</time></trkpt><trkpt lat="36.96870219053194" lon="15.052511767347548"><ele>449.59999999999997</ele><time>2026-04-04T16:44:47.999Z</time></trkpt><trkpt lat="36.96864984802481" lon="15.052464587421602"><ele>448.79999999999995</ele><time>2026-04-04T16:44:48.999Z</time></trkpt><trkpt lat="36.968562532200245" lon="15.052376178744458"><ele>448.0</ele><time>2026-04-04T16:44:50.999Z</time></trkpt><trkpt lat="36.968483913989914" lon="15.052305194839862"><ele>446.75</ele><time>2026-04-04T16:44:52.999Z</time></trkpt><trkpt lat="36.96829702688132" lon="15.05217216266848"><ele>445.5</ele><time>2026-04-04T16:44:55.999Z</time></trkpt><trkpt lat="36.96823831830789" lon="15.052142724351818"><ele>444.25</ele><time>2026-04-04T16:44:56.999Z</time></trkpt><trkpt lat="36.96817961390329" lon="15.052107961202317"><ele>443.0</ele><time>2026-04-04T16:44:57.999Z</time></trkpt><trkpt lat="36.96806594314467" lon="15.05203433481449"><ele>443.0</ele><time>2026-04-04T16:44:59.999Z</time></trkpt><trkpt lat="36.96802354053471" lon="15.051973368241821"><ele>443.0</ele><time>2026-04-04T16:45:00.999Z</time></trkpt><trkpt lat="36.96797472572729" lon="15.051906892517536"><ele>443.0</ele><time>2026-04-04T16:45:01.999Z</time></trkpt><trkpt lat="36.96792132645829" lon="15.051841274157164"><ele>443.0</ele><time>2026-04-04T16:45:02.999Z</time></trkpt><trkpt lat="36.96787078003823" lon="15.051777443959601"><ele>443.0</ele><time>2026-04-04T16:45:03.999Z</time></trkpt><trkpt lat="36.96782042434108" lon="15.051719590642108"><ele>443.0</ele><time>2026-04-04T16:45:04.999Z</time></trkpt><trkpt lat="36.9677602857407" lon="15.051674491988452"><ele>443.0</ele><time>2026-04-04T16:45:05.999Z</time></trkpt><trkpt lat="36.9676996690283" lon="15.051629343732639"><ele>442.0</ele><time>2026-04-04T16:45:06.999Z</time></trkpt><trkpt lat="36.96764253635751" lon="15.051573461107926"><ele>440.99999999999994</ele><time>2026-04-04T16:45:07.999Z</time></trkpt><trkpt lat="36.96758690020854" lon="15.051528758286713"><ele>439.99999999999994</ele><time>2026-04-04T16:45:08.999Z</time></trkpt><trkpt lat="36.9674990873976" lon="15.0514430011837"><ele>439.0</ele><time>2026-04-04T16:45:10.999Z</time></trkpt><trkpt lat="36.967389083933874" lon="15.051385455690577"><ele>438.0</ele><time>2026-04-04T16:45:12.999Z</time></trkpt><trkpt lat="36.967265038721585" lon="15.051298947160817"><ele>438.0</ele><time>2026-04-04T16:45:14.999Z</time></trkpt><trkpt lat="36.96719536432079" lon="15.051238391990095"><ele>438.0</ele><time>2026-04-04T16:45:15.999Z</time></trkpt><trkpt lat="36.96713739784001" lon="15.051164930172451"><ele>438.0</ele><time>2026-04-04T16:45:16.999Z</time></trkpt><trkpt lat="36.96706997530888" lon="15.05110256178519"><ele>438.0</ele><time>2026-04-04T16:45:17.999Z</time></trkpt><trkpt lat="36.967003966042846" lon="15.051040666089394"><ele>438.0</ele><time>2026-04-04T16:45:18.999Z</time></trkpt><trkpt lat="36.966942437874025" lon="15.05097299072183"><ele>438.0</ele><time>2026-04-04T16:45:19.999Z</time></trkpt><trkpt lat="36.96688301944377" lon="15.050909201178104"><ele>438.0</ele><time>2026-04-04T16:45:20.999Z</time></trkpt><trkpt lat="36.96682716509824" lon="15.050851842189434"><ele>438.0</ele><time>2026-04-04T16:45:21.999Z</time></trkpt><trkpt lat="36.966773854281605" lon="15.050800323553982"><ele>438.0</ele><time>2026-04-04T16:45:22.999Z</time></trkpt><trkpt lat="36.96672001575296" lon="15.050755295179428"><ele>438.0</ele><time>2026-04-04T16:45:23.999Z</time></trkpt><trkpt lat="36.966611755767815" lon="15.050686428845951"><ele>438.0</ele><time>2026-04-04T16:45:25.999Z</time></trkpt><trkpt lat="36.966512985491114" lon="15.05062158896451"><ele>438.0</ele><time>2026-04-04T16:45:27.999Z</time></trkpt><trkpt lat="36.96645239376581" lon="15.050586674701522"><ele>435.3333333333333</ele><time>2026-04-04T16:45:28.999Z</time></trkpt><trkpt lat="36.96639874530707" lon="15.050543682208438"><ele>432.66666666666663</ele><time>2026-04-04T16:45:29.999Z</time></trkpt><trkpt lat="36.966344886600936" lon="15.05050283537129"><ele>430.0</ele><time>2026-04-04T16:45:30.999Z</time></trkpt><trkpt lat="36.9662530075758" lon="15.050425024826975"><ele>427.3333333333333</ele><time>2026-04-04T16:45:32.999Z</time></trkpt><trkpt lat="36.966176072584304" lon="15.050355152868942"><ele>424.66666666666663</ele><time>2026-04-04T16:45:34.999Z</time></trkpt><trkpt lat="36.966111347458586" lon="15.050347694396207"><ele>422.0</ele><time>2026-04-04T16:45:37.999Z</time></trkpt><trkpt lat="36.96608184360801" lon="15.050434274678265"><ele>422.0</ele><time>2026-04-04T16:45:39.998Z</time></trkpt><trkpt lat="36.96612321104496" lon="15.050583644963483"><ele>422.0</ele><time>2026-04-04T16:45:41.998Z</time></trkpt><trkpt lat="36.96615889880987" lon="15.050675978812567"><ele>422.0</ele><time>2026-04-04T16:45:42.998Z</time></trkpt><trkpt lat="36.96618774847233" lon="15.050769366163223"><ele>422.0</ele><time>2026-04-04T16:45:43.998Z</time></trkpt><trkpt lat="36.96621346011746" lon="15.050868166031579"><ele>422.0</ele><time>2026-04-04T16:45:44.998Z</time></trkpt><trkpt lat="36.96624132586161" lon="15.050973933321075"><ele>423.99999999999994</ele><time>2026-04-04T16:45:45.998Z</time></trkpt><trkpt lat="36.96626908782748" lon="15.051081922957236"><ele>426.0</ele><time>2026-04-04T16:45:46.998Z</time></trkpt><trkpt lat="36.96629894257864" lon="15.051190177990458"><ele>428.0</ele><time>2026-04-04T16:45:47.998Z</time></trkpt><trkpt lat="36.96632473782581" lon="15.05129168953968"><ele>430.0</ele><time>2026-04-04T16:45:48.998Z</time></trkpt><trkpt lat="36.966347095270685" lon="15.051388399004516"><ele>431.99999999999994</ele><time>2026-04-04T16:45:49.998Z</time></trkpt><trkpt lat="36.96635970276837" lon="15.051494674133412"><ele>434.0</ele><time>2026-04-04T16:45:50.998Z</time></trkpt><trkpt lat="36.966379535435905" lon="15.05159294522861"><ele>434.6</ele><time>2026-04-04T16:45:51.998Z</time></trkpt><trkpt lat="36.96640979187775" lon="15.051694644885293"><ele>435.2</ele><time>2026-04-04T16:45:52.998Z</time></trkpt><trkpt lat="36.966431493253744" lon="15.051809029518848"><ele>435.80000000000007</ele><time>2026-04-04T16:45:53.998Z</time></trkpt><trkpt lat="36.96646644196341" lon="15.051921544820868"><ele>436.40000000000003</ele><time>2026-04-04T16:45:55Z</time></trkpt><trkpt lat="36.966522447020395" lon="15.052027438867217"><ele>437.0</ele><time>2026-04-04T16:45:56Z</time></trkpt><trkpt lat="36.9665794172753" lon="15.052128797388379"><ele>437.0</ele><time>2026-04-04T16:45:57Z</time></trkpt><trkpt lat="36.966631312075066" lon="15.05225517636709"><ele>437.00000000000006</ele><time>2026-04-04T16:45:58Z</time></trkpt><trkpt lat="36.966674634953854" lon="15.052372131695266"><ele>437.00000000000006</ele><time>2026-04-04T16:45:59Z</time></trkpt><trkpt lat="36.96671369878073" lon="15.052491251911267"><ele>437.0</ele><time>2026-04-04T16:46:00Z</time></trkpt><trkpt lat="36.96671778307414" lon="15.052618338430513"><ele>437.0</ele><time>2026-04-04T16:46:01Z</time></trkpt><trkpt lat="36.96673451706578" lon="15.052748927989128"><ele>439.6</ele><time>2026-04-04T16:46:02Z</time></trkpt><trkpt lat="36.96675712284255" lon="15.052873372255624"><ele>442.20000000000005</ele><time>2026-04-04T16:46:03Z</time></trkpt><trkpt lat="36.96676900092391" lon="15.053000469571385"><ele>444.8</ele><time>2026-04-04T16:46:04Z</time></trkpt><trkpt lat="36.96675890849329" lon="15.053119365646499"><ele>447.4</ele><time>2026-04-04T16:46:05Z</time></trkpt><trkpt lat="36.96675131638439" lon="15.053247412046577"><ele>450.0</ele><time>2026-04-04T16:46:06Z</time></trkpt><trkpt lat="36.9667408604333" lon="15.05335012480791"><ele>450.0</ele><time>2026-04-04T16:46:07Z</time></trkpt><trkpt lat="36.966726443376885" lon="15.053430069295318"><ele>450.0</ele><time>2026-04-04T16:46:08Z</time></trkpt><trkpt lat="36.966711591322" lon="15.053509328948955"><ele>450.0</ele><time>2026-04-04T16:46:09Z</time></trkpt><trkpt lat="36.96669174157605" lon="15.053616828015105"><ele>450.0</ele><time>2026-04-04T16:46:10Z</time></trkpt><trkpt lat="36.96667258154438" lon="15.053728806947149"><ele>450.0</ele><time>2026-04-04T16:46:11Z</time></trkpt><trkpt lat="36.9666529702214" lon="15.053843423396959"><ele>450.0</ele><time>2026-04-04T16:46:12Z</time></trkpt><trkpt lat="36.9666329351956" lon="15.053954507639371"><ele>449.2</ele><time>2026-04-04T16:46:13Z</time></trkpt><trkpt lat="36.966610789625655" lon="15.054074216606839"><ele>448.4</ele><time>2026-04-04T16:46:14Z</time></trkpt><trkpt lat="36.966590741257086" lon="15.054197190786553"><ele>447.6</ele><time>2026-04-04T16:46:15Z</time></trkpt><trkpt lat="36.96657066040172" lon="15.054327049104709"><ele>446.8</ele><time>2026-04-04T16:46:16Z</time></trkpt><trkpt lat="36.96655462372094" lon="15.054432261735563"><ele>446.0</ele><time>2026-04-04T16:46:17Z</time></trkpt><trkpt lat="36.96653773092898" lon="15.05452840155485"><ele>445.99999999999994</ele><time>2026-04-04T16:46:18Z</time></trkpt><trkpt lat="36.96652012460099" lon="15.054624682637217"><ele>446.0</ele><time>2026-04-04T16:46:19Z</time></trkpt><trkpt lat="36.96650057488595" lon="15.054729260299132"><ele>446.0</ele><time>2026-04-04T16:46:20Z</time></trkpt><trkpt lat="36.96648122350727" lon="15.054825307726833"><ele>446.0</ele><time>2026-04-04T16:46:21Z</time></trkpt><trkpt lat="36.9664604731662" lon="15.054925671970416"><ele>445.99999999999994</ele><time>2026-04-04T16:46:22Z</time></trkpt><trkpt lat="36.96643858557902" lon="15.055030417376937"><ele>446.0</ele><time>2026-04-04T16:46:22.999Z</time></trkpt><trkpt lat="36.96641665056072" lon="15.055135389543041"><ele>446.99999999999994</ele><time>2026-04-04T16:46:23.999Z</time></trkpt><trkpt lat="36.966396162505504" lon="15.055243270490848"><ele>448.0</ele><time>2026-04-04T16:46:24.999Z</time></trkpt><trkpt lat="36.966382628245434" lon="15.055341956235834"><ele>449.0</ele><time>2026-04-04T16:46:25.999Z</time></trkpt><trkpt lat="36.966381279327486" lon="15.055462001012698"><ele>450.0</ele><time>2026-04-04T16:46:26.999Z</time></trkpt><trkpt lat="36.966362187469436" lon="15.055564511383034"><ele>450.99999999999994</ele><time>2026-04-04T16:46:27.999Z</time></trkpt><trkpt lat="36.96635218146539" lon="15.05566326250434"><ele>452.0</ele><time>2026-04-04T16:46:28.999Z</time></trkpt><trkpt lat="36.966357386580235" lon="15.055745389954419"><ele>453.0</ele><time>2026-04-04T16:46:29.999Z</time></trkpt><trkpt lat="36.96635914239265" lon="15.055856965128383"><ele>454.00000000000006</ele><time>2026-04-04T16:46:30.999Z</time></trkpt><trkpt lat="36.96636918920286" lon="15.055982189224952"><ele>455.00000000000006</ele><time>2026-04-04T16:46:31.999Z</time></trkpt><trkpt lat="36.96637414908444" lon="15.056098452804637"><ele>456.0</ele><time>2026-04-04T16:46:32.999Z</time></trkpt><trkpt lat="36.96637593779357" lon="15.056199452084542"><ele>457.0</ele><time>2026-04-04T16:46:33.999Z</time></trkpt><trkpt lat="36.9663537024137" lon="15.056315585119782"><ele>457.0</ele><time>2026-04-04T16:46:34.999Z</time></trkpt><trkpt lat="36.966352840364756" lon="15.056447843654007"><ele>457.00000000000006</ele><time>2026-04-04T16:46:35.999Z</time></trkpt><trkpt lat="36.96633855609407" lon="15.056563380509157"><ele>457.00000000000006</ele><time>2026-04-04T16:46:36.999Z</time></trkpt><trkpt lat="36.96632958755561" lon="15.056685506058098"><ele>457.0</ele><time>2026-04-04T16:46:37.999Z</time></trkpt><trkpt lat="36.966300239065305" lon="15.056800624991176"><ele>457.0</ele><time>2026-04-04T16:46:38.999Z</time></trkpt><trkpt lat="36.966282478822045" lon="15.056918099541397"><ele>457.8</ele><time>2026-04-04T16:46:39.999Z</time></trkpt><trkpt lat="36.96626108593404" lon="15.057037597943705"><ele>458.6</ele><time>2026-04-04T16:46:40.999Z</time></trkpt><trkpt lat="36.966236552657556" lon="15.057159154035933"><ele>459.40000000000003</ele><time>2026-04-04T16:46:41.999Z</time></trkpt><trkpt lat="36.966210151384274" lon="15.057270656134111"><ele>460.20000000000005</ele><time>2026-04-04T16:46:42.999Z</time></trkpt><trkpt lat="36.96618056892009" lon="15.057382862504024"><ele>461.0</ele><time>2026-04-04T16:46:43.999Z</time></trkpt><trkpt lat="36.966159995173534" lon="15.057488128519868"><ele>461.8333333333333</ele><time>2026-04-04T16:46:44.999Z</time></trkpt><trkpt lat="36.96612878679855" lon="15.05758133873098"><ele>462.66666666666663</ele><time>2026-04-04T16:46:45.999Z</time></trkpt><trkpt lat="36.96610821410274" lon="15.057677380608297"><ele>463.5</ele><time>2026-04-04T16:46:46.999Z</time></trkpt><trkpt lat="36.96610663867197" lon="15.057776738833667"><ele>464.33333333333337</ele><time>2026-04-04T16:46:47.999Z</time></trkpt><trkpt lat="36.96608529306611" lon="15.057888318092044"><ele>465.1666666666667</ele><time>2026-04-04T16:46:48.999Z</time></trkpt><trkpt lat="36.966078873603614" lon="15.05801195555718"><ele>466.0</ele><time>2026-04-04T16:46:49.999Z</time></trkpt><trkpt lat="36.96609263953926" lon="15.05814646389382"><ele>466.0</ele><time>2026-04-04T16:46:50.999Z</time></trkpt><trkpt lat="36.966076292877204" lon="15.05826686203411"><ele>466.0</ele><time>2026-04-04T16:46:51.999Z</time></trkpt><trkpt lat="36.96607468818851" lon="15.058379846551539"><ele>466.0</ele><time>2026-04-04T16:46:52.999Z</time></trkpt><trkpt lat="36.96607334385521" lon="15.058497048081833"><ele>466.0</ele><time>2026-04-04T16:46:53.999Z</time></trkpt><trkpt lat="36.96606912532462" lon="15.05862061687101"><ele>466.0</ele><time>2026-04-04T16:46:54.999Z</time></trkpt><trkpt lat="36.96605932005166" lon="15.058723134450823"><ele>466.6</ele><time>2026-04-04T16:46:55.999Z</time></trkpt><trkpt lat="36.966041214277276" lon="15.058829766337954"><ele>467.20000000000005</ele><time>2026-04-04T16:46:56.999Z</time></trkpt><trkpt lat="36.96601750895005" lon="15.05894013774608"><ele>467.79999999999995</ele><time>2026-04-04T16:46:57.999Z</time></trkpt><trkpt lat="36.965992420816626" lon="15.059050336123104"><ele>468.4</ele><time>2026-04-04T16:46:58.999Z</time></trkpt><trkpt lat="36.96596398751986" lon="15.059156546754238"><ele>469.0</ele><time>2026-04-04T16:46:59.999Z</time></trkpt><trkpt lat="36.965928716268" lon="15.059260593108807"><ele>469.4</ele><time>2026-04-04T16:47:00.999Z</time></trkpt><trkpt lat="36.96588736730147" lon="15.059365822311465"><ele>469.79999999999995</ele><time>2026-04-04T16:47:01.999Z</time></trkpt><trkpt lat="36.965840183700045" lon="15.059472482871719"><ele>470.20000000000005</ele><time>2026-04-04T16:47:02.999Z</time></trkpt><trkpt lat="36.96578822692702" lon="15.059586516644183"><ele>470.6</ele><time>2026-04-04T16:47:03.999Z</time></trkpt><trkpt lat="36.965749343145944" lon="15.05970583258368"><ele>471.0</ele><time>2026-04-04T16:47:04.999Z</time></trkpt><trkpt lat="36.96569901793694" lon="15.059808646038737"><ele>470.8</ele><time>2026-04-04T16:47:05.999Z</time></trkpt><trkpt lat="36.96562906145537" lon="15.059887584044041"><ele>470.6</ele><time>2026-04-04T16:47:06.999Z</time></trkpt><trkpt lat="36.96556554432472" lon="15.05996872108611"><ele>470.4</ele><time>2026-04-04T16:47:07.999Z</time></trkpt><trkpt lat="36.96549314248316" lon="15.06005905286704"><ele>470.2</ele><time>2026-04-04T16:47:08.999Z</time></trkpt><trkpt lat="36.96543274349813" lon="15.060155930519878"><ele>470.0</ele><time>2026-04-04T16:47:09.999Z</time></trkpt><trkpt lat="36.9653768228648" lon="15.060257400027789"><ele>470.0</ele><time>2026-04-04T16:47:10.999Z</time></trkpt><trkpt lat="36.965316265808205" lon="15.060377903718773"><ele>470.0</ele><time>2026-04-04T16:47:11.999Z</time></trkpt><trkpt lat="36.96527464051016" lon="15.060501651974457"><ele>470.0</ele><time>2026-04-04T16:47:12.999Z</time></trkpt><trkpt lat="36.965223176118954" lon="15.060625219675027"><ele>470.0</ele><time>2026-04-04T16:47:13.999Z</time></trkpt><trkpt lat="36.96517419082006" lon="15.060743075010192"><ele>470.0</ele><time>2026-04-04T16:47:14.999Z</time></trkpt><trkpt lat="36.96511203404231" lon="15.060850300588655"><ele>470.0</ele><time>2026-04-04T16:47:15.999Z</time></trkpt><trkpt lat="36.96507996354523" lon="15.060966589280813"><ele>470.0</ele><time>2026-04-04T16:47:16.999Z</time></trkpt><trkpt lat="36.965017546525736" lon="15.061063355798382"><ele>470.0</ele><time>2026-04-04T16:47:17.999Z</time></trkpt><trkpt lat="36.964968858372075" lon="15.061168388826967"><ele>470.0</ele><time>2026-04-04T16:47:18.999Z</time></trkpt><trkpt lat="36.964913442542816" lon="15.061280573371041"><ele>470.0</ele><time>2026-04-04T16:47:19.999Z</time></trkpt><trkpt lat="36.96485651801018" lon="15.061393011029935"><ele>469.6</ele><time>2026-04-04T16:47:20.999Z</time></trkpt><trkpt lat="36.964799354023405" lon="15.06150364192622"><ele>469.2</ele><time>2026-04-04T16:47:21.999Z</time></trkpt><trkpt lat="36.96474481696117" lon="15.061609188773742"><ele>468.79999999999995</ele><time>2026-04-04T16:47:22.999Z</time></trkpt><trkpt lat="36.964687397486905" lon="15.061726932021609"><ele>468.4</ele><time>2026-04-04T16:47:23.999Z</time></trkpt><trkpt lat="36.964633215639246" lon="15.061841774129254"><ele>468.0</ele><time>2026-04-04T16:47:24.999Z</time></trkpt><trkpt lat="36.964585582019836" lon="15.061946417466503"><ele>467.79999999999995</ele><time>2026-04-04T16:47:25.999Z</time></trkpt><trkpt lat="36.96454279432893" lon="15.06204035369238"><ele>467.59999999999997</ele><time>2026-04-04T16:47:26.999Z</time></trkpt><trkpt lat="36.96449243851898" lon="15.062150869594019"><ele>467.40000000000003</ele><time>2026-04-04T16:47:27.999Z</time></trkpt><trkpt lat="36.96445027413783" lon="15.062260048665166"><ele>467.20000000000005</ele><time>2026-04-04T16:47:28.999Z</time></trkpt><trkpt lat="36.96442066729896" lon="15.0623650861868"><ele>467.0</ele><time>2026-04-04T16:47:29.999Z</time></trkpt><trkpt lat="36.964419374461905" lon="15.062461883478347"><ele>466.20000000000005</ele><time>2026-04-04T16:47:30.999Z</time></trkpt><trkpt lat="36.96438216348926" lon="15.062543964149333"><ele>465.40000000000003</ele><time>2026-04-04T16:47:31.999Z</time></trkpt><trkpt lat="36.96433362332772" lon="15.062692254549948"><ele>464.59999999999997</ele><time>2026-04-04T16:47:33.999Z</time></trkpt><trkpt lat="36.96421177932949" lon="15.062775036839371"><ele>463.79999999999995</ele><time>2026-04-04T16:47:35.999Z</time></trkpt><trkpt lat="36.964143390820944" lon="15.062840545248912"><ele>463.0</ele><time>2026-04-04T16:47:36.999Z</time></trkpt><trkpt lat="36.964073464212944" lon="15.062932761996768"><ele>462.59999999999997</ele><time>2026-04-04T16:47:37.999Z</time></trkpt><trkpt lat="36.96403809623008" lon="15.06303489556586"><ele>462.19999999999993</ele><time>2026-04-04T16:47:38.998Z</time></trkpt><trkpt lat="36.963975679260905" lon="15.063115120436477"><ele>461.8</ele><time>2026-04-04T16:47:39.998Z</time></trkpt><trkpt lat="36.96392555504322" lon="15.063208193114468"><ele>461.4</ele><time>2026-04-04T16:47:40.998Z</time></trkpt><trkpt lat="36.963873027060956" lon="15.063304939453166"><ele>461.0</ele><time>2026-04-04T16:47:41.998Z</time></trkpt><trkpt lat="36.9638196686405" lon="15.063403964837647"><ele>459.8</ele><time>2026-04-04T16:47:42.998Z</time></trkpt><trkpt lat="36.96376805494765" lon="15.063499752395698"><ele>458.6</ele><time>2026-04-04T16:47:43.998Z</time></trkpt><trkpt lat="36.963726060141624" lon="15.063593708749488"><ele>457.4</ele><time>2026-04-04T16:47:44.998Z</time></trkpt><trkpt lat="36.96366677964599" lon="15.063699166853343"><ele>456.2</ele><time>2026-04-04T16:47:45.998Z</time></trkpt><trkpt lat="36.963594893969045" lon="15.063796467421016"><ele>455.0</ele><time>2026-04-04T16:47:46.998Z</time></trkpt><trkpt lat="36.96354743558666" lon="15.06390847960711"><ele>455.0</ele><time>2026-04-04T16:47:47.998Z</time></trkpt><trkpt lat="36.963476821740876" lon="15.063984554927098"><ele>455.0</ele><time>2026-04-04T16:47:48.998Z</time></trkpt><trkpt lat="36.9634424135901" lon="15.06408717748138"><ele>455.0</ele><time>2026-04-04T16:47:49.998Z</time></trkpt><trkpt lat="36.96341412639564" lon="15.064203396166283"><ele>455.0</ele><time>2026-04-04T16:47:50.998Z</time></trkpt><trkpt lat="36.963393653501534" lon="15.064314786417889"><ele>455.0</ele><time>2026-04-04T16:47:51.998Z</time></trkpt><trkpt lat="36.96336626871131" lon="15.064416035421793"><ele>454.49999999999994</ele><time>2026-04-04T16:47:52.998Z</time></trkpt><trkpt lat="36.96335613982389" lon="15.06450521083483"><ele>454.0</ele><time>2026-04-04T16:47:53.998Z</time></trkpt><trkpt lat="36.96331833308613" lon="15.064576544173823"><ele>453.5</ele><time>2026-04-04T16:47:54.998Z</time></trkpt><trkpt lat="36.96328743536609" lon="15.064701185747246"><ele>453.0</ele><time>2026-04-04T16:47:56.998Z</time></trkpt><trkpt lat="36.963273650365366" lon="15.064818775867046"><ele>452.49999999999994</ele><time>2026-04-04T16:47:58.998Z</time></trkpt><trkpt lat="36.96326192432001" lon="15.064946909630468"><ele>452.0</ele><time>2026-04-04T16:48:01Z</time></trkpt><trkpt lat="36.963270832295564" lon="15.065046640161343"><ele>451.99999999999994</ele><time>2026-04-04T16:48:02Z</time></trkpt><trkpt lat="36.96327001793277" lon="15.065141369667804"><ele>452.0</ele><time>2026-04-04T16:48:03Z</time></trkpt><trkpt lat="36.963255431056226" lon="15.065239912358985"><ele>452.0</ele><time>2026-04-04T16:48:04Z</time></trkpt><trkpt lat="36.96324953009104" lon="15.065342768744324"><ele>452.0</ele><time>2026-04-04T16:48:05Z</time></trkpt><trkpt lat="36.96323235542399" lon="15.065437822947521"><ele>451.99999999999994</ele><time>2026-04-04T16:48:06Z</time></trkpt><trkpt lat="36.963214808828084" lon="15.065535947983351"><ele>452.0</ele><time>2026-04-04T16:48:07Z</time></trkpt><trkpt lat="36.963210121488004" lon="15.065647702623313"><ele>451.99999999999994</ele><time>2026-04-04T16:48:08Z</time></trkpt><trkpt lat="36.96315506423853" lon="15.06573863491214"><ele>452.0</ele><time>2026-04-04T16:48:09Z</time></trkpt><trkpt lat="36.96312951723279" lon="15.065832823124993"><ele>452.0</ele><time>2026-04-04T16:48:10Z</time></trkpt><trkpt lat="36.96310951077058" lon="15.065919884448041"><ele>452.0</ele><time>2026-04-04T16:48:11Z</time></trkpt><trkpt lat="36.963109189477755" lon="15.066010511375042"><ele>451.99999999999994</ele><time>2026-04-04T16:48:12Z</time></trkpt><trkpt lat="36.96309150396023" lon="15.066107745537238"><ele>452.0</ele><time>2026-04-04T16:48:13Z</time></trkpt><trkpt lat="36.96306573531498" lon="15.066211909714273"><ele>453.0</ele><time>2026-04-04T16:48:14Z</time></trkpt><trkpt lat="36.96303353081132" lon="15.066321704729319"><ele>454.00000000000006</ele><time>2026-04-04T16:48:15Z</time></trkpt><trkpt lat="36.96302341910243" lon="15.066434156473797"><ele>455.00000000000006</ele><time>2026-04-04T16:48:16Z</time></trkpt><trkpt lat="36.96300325074381" lon="15.066549385212817"><ele>456.0</ele><time>2026-04-04T16:48:17Z</time></trkpt><trkpt lat="36.96296966425562" lon="15.06665733140725"><ele>457.0</ele><time>2026-04-04T16:48:18Z</time></trkpt><trkpt lat="36.9629483821434" lon="15.06677182083589"><ele>457.8</ele><time>2026-04-04T16:48:19Z</time></trkpt><trkpt lat="36.962937229360115" lon="15.066893390483548"><ele>458.6</ele><time>2026-04-04T16:48:20Z</time></trkpt><trkpt lat="36.96289524946035" lon="15.066999978047434"><ele>459.40000000000003</ele><time>2026-04-04T16:48:21Z</time></trkpt><trkpt lat="36.96285848774577" lon="15.067113666414693"><ele>460.20000000000005</ele><time>2026-04-04T16:48:22Z</time></trkpt><trkpt lat="36.96281836527027" lon="15.067234990139845"><ele>461.0</ele><time>2026-04-04T16:48:23Z</time></trkpt><trkpt lat="36.96278932756094" lon="15.06736489949696"><ele>461.3333333333333</ele><time>2026-04-04T16:48:23.999Z</time></trkpt><trkpt lat="36.962737947433126" lon="15.067472001802635"><ele>461.66666666666663</ele><time>2026-04-04T16:48:24.999Z</time></trkpt><trkpt lat="36.96271774523321" lon="15.067563165896436"><ele>462.0</ele><time>2026-04-04T16:48:25.999Z</time></trkpt><trkpt lat="36.96267958340796" lon="15.067642621113377"><ele>462.33333333333337</ele><time>2026-04-04T16:48:26.999Z</time></trkpt><trkpt lat="36.96261479929799" lon="15.067688206277358"><ele>462.6666666666667</ele><time>2026-04-04T16:48:27.999Z</time></trkpt><trkpt lat="36.9625483765463" lon="15.067726595491958"><ele>463.0</ele><time>2026-04-04T16:48:28.999Z</time></trkpt><trkpt lat="36.9624746971696" lon="15.06777099805124"><ele>462.33333333333337</ele><time>2026-04-04T16:48:29.999Z</time></trkpt><trkpt lat="36.9624052903071" lon="15.067823526462437"><ele>461.6666666666667</ele><time>2026-04-04T16:48:30.999Z</time></trkpt><trkpt lat="36.9623392347272" lon="15.067881387626446"><ele>461.0</ele><time>2026-04-04T16:48:31.999Z</time></trkpt><trkpt lat="36.96229210441726" lon="15.067974662453937"><ele>460.33333333333337</ele><time>2026-04-04T16:48:32.999Z</time></trkpt><trkpt lat="36.96222112610874" lon="15.068047694013902"><ele>459.6666666666667</ele><time>2026-04-04T16:48:33.999Z</time></trkpt><trkpt lat="36.96215297921976" lon="15.068143930064135"><ele>459.0</ele><time>2026-04-04T16:48:34.999Z</time></trkpt><trkpt lat="36.9620934874865" lon="15.068249587566536"><ele>459.2</ele><time>2026-04-04T16:48:35.999Z</time></trkpt><trkpt lat="36.96203070077907" lon="15.068344847062786"><ele>459.4</ele><time>2026-04-04T16:48:36.999Z</time></trkpt><trkpt lat="36.96196882229467" lon="15.068435324754848"><ele>459.6</ele><time>2026-04-04T16:48:37.999Z</time></trkpt><trkpt lat="36.96190326898973" lon="15.068521947977269"><ele>459.8</ele><time>2026-04-04T16:48:38.999Z</time></trkpt><trkpt lat="36.96183783693854" lon="15.06860418027761"><ele>460.0</ele><time>2026-04-04T16:48:39.999Z</time></trkpt><trkpt lat="36.96177480747028" lon="15.068680990781532"><ele>460.00000000000006</ele><time>2026-04-04T16:48:40.999Z</time></trkpt><trkpt lat="36.96170973388055" lon="15.068760977788546"><ele>460.0</ele><time>2026-04-04T16:48:41.999Z</time></trkpt><trkpt lat="36.96163048657469" lon="15.06881456271265"><ele>460.0</ele><time>2026-04-04T16:48:42.999Z</time></trkpt><trkpt lat="36.96156051247566" lon="15.068863642524072"><ele>460.0</ele><time>2026-04-04T16:48:43.999Z</time></trkpt><trkpt lat="36.961503392055846" lon="15.068922663136782"><ele>460.00000000000006</ele><time>2026-04-04T16:48:44.999Z</time></trkpt><trkpt lat="36.96144815532084" lon="15.068962004679015"><ele>460.0</ele><time>2026-04-04T16:48:45.999Z</time></trkpt><trkpt lat="36.96132278823595" lon="15.069060369446657"><ele>459.50000000000006</ele><time>2026-04-04T16:48:47.999Z</time></trkpt><trkpt lat="36.961247265623854" lon="15.069118526587076"><ele>459.0</ele><time>2026-04-04T16:48:48.999Z</time></trkpt><trkpt lat="36.96116748190726" lon="15.069181566164334"><ele>458.5</ele><time>2026-04-04T16:48:49.999Z</time></trkpt><trkpt lat="36.961089338395844" lon="15.06922462217814"><ele>458.0</ele><time>2026-04-04T16:48:50.999Z</time></trkpt><trkpt lat="36.96101786895638" lon="15.069231391406449"><ele>457.50000000000006</ele><time>2026-04-04T16:48:51.999Z</time></trkpt><trkpt lat="36.96094841876632" lon="15.06923364899375"><ele>457.0</ele><time>2026-04-04T16:48:52.999Z</time></trkpt><trkpt lat="36.9608748432021" lon="15.069218440750468"><ele>456.8</ele><time>2026-04-04T16:48:53.999Z</time></trkpt><trkpt lat="36.96080100242269" lon="15.069206062917985"><ele>456.6</ele><time>2026-04-04T16:48:54.999Z</time></trkpt><trkpt lat="36.96071583264625" lon="15.069192273107749"><ele>456.40000000000003</ele><time>2026-04-04T16:48:55.999Z</time></trkpt><trkpt lat="36.960622511406456" lon="15.0691756638313"><ele>456.20000000000005</ele><time>2026-04-04T16:48:56.999Z</time></trkpt><trkpt lat="36.96051672491984" lon="15.069156490616862"><ele>456.0</ele><time>2026-04-04T16:48:57.999Z</time></trkpt><trkpt lat="36.96040879998538" lon="15.069136273281957"><ele>456.0</ele><time>2026-04-04T16:48:58.999Z</time></trkpt><trkpt lat="36.96030861757621" lon="15.069117171575245"><ele>456.0</ele><time>2026-04-04T16:48:59.999Z</time></trkpt><trkpt lat="36.960206583021844" lon="15.0691017611484"><ele>456.0</ele><time>2026-04-04T16:49:00.999Z</time></trkpt><trkpt lat="36.96010726953403" lon="15.069091206947505"><ele>456.0</ele><time>2026-04-04T16:49:01.999Z</time></trkpt><trkpt lat="36.960006939055624" lon="15.069085938834888"><ele>456.0</ele><time>2026-04-04T16:49:02.999Z</time></trkpt><trkpt lat="36.959900303653036" lon="15.069104696541425"><ele>455.20000000000005</ele><time>2026-04-04T16:49:03.999Z</time></trkpt><trkpt lat="36.95979307659838" lon="15.069084227207215"><ele>454.40000000000003</ele><time>2026-04-04T16:49:04.999Z</time></trkpt><trkpt lat="36.959694270024464" lon="15.06908609621276"><ele>453.6</ele><time>2026-04-04T16:49:05.999Z</time></trkpt><trkpt lat="36.95958344761111" lon="15.069092795181234"><ele>452.8</ele><time>2026-04-04T16:49:06.999Z</time></trkpt><trkpt lat="36.959482037393265" lon="15.06910090329942"><ele>452.0</ele><time>2026-04-04T16:49:07.999Z</time></trkpt><trkpt lat="36.95937727355988" lon="15.069109372042579"><ele>452.0</ele><time>2026-04-04T16:49:08.999Z</time></trkpt><trkpt lat="36.95927715387926" lon="15.069117465366938"><ele>452.00000000000006</ele><time>2026-04-04T16:49:09.999Z</time></trkpt><trkpt lat="36.95917179259555" lon="15.069125982407066"><ele>452.00000000000006</ele><time>2026-04-04T16:49:10.999Z</time></trkpt><trkpt lat="36.95905168440676" lon="15.069135349180273"><ele>452.0</ele><time>2026-04-04T16:49:11.999Z</time></trkpt><trkpt lat="36.958930449736364" lon="15.069141688004683"><ele>452.0</ele><time>2026-04-04T16:49:12.999Z</time></trkpt><trkpt lat="36.958807884754435" lon="15.06914557212088"><ele>450.75</ele><time>2026-04-04T16:49:13.999Z</time></trkpt><trkpt lat="36.958686076082074" lon="15.069140477542447"><ele>449.5</ele><time>2026-04-04T16:49:14.999Z</time></trkpt><trkpt lat="36.958562909817424" lon="15.069133638166406"><ele>448.25</ele><time>2026-04-04T16:49:15.999Z</time></trkpt><trkpt lat="36.95844018257993" lon="15.069126003292846"><ele>447.0</ele><time>2026-04-04T16:49:16.999Z</time></trkpt><trkpt lat="36.958350245823844" lon="15.069120408318996"><ele>446.8333333333333</ele><time>2026-04-04T16:49:17.999Z</time></trkpt><trkpt lat="36.958265591324206" lon="15.069117127986614"><ele>446.66666666666663</ele><time>2026-04-04T16:49:18.999Z</time></trkpt><trkpt lat="36.958199415589526" lon="15.069120121205916"><ele>446.5</ele><time>2026-04-04T16:49:19.999Z</time></trkpt><trkpt lat="36.958118580518786" lon="15.069144036767387"><ele>446.3333333333333</ele><time>2026-04-04T16:49:20.999Z</time></trkpt><trkpt lat="36.9580323516462" lon="15.069137030739322"><ele>446.16666666666663</ele><time>2026-04-04T16:49:21.999Z</time></trkpt><trkpt lat="36.95793855315009" lon="15.06913347456745"><ele>446.0</ele><time>2026-04-04T16:49:22.999Z</time></trkpt><trkpt lat="36.95785717468139" lon="15.069117127981668"><ele>445.99999999999994</ele><time>2026-04-04T16:49:23.999Z</time></trkpt><trkpt lat="36.95777021408133" lon="15.069123775349544"><ele>446.0</ele><time>2026-04-04T16:49:24.999Z</time></trkpt><trkpt lat="36.957695738897996" lon="15.069154346181469"><ele>446.0</ele><time>2026-04-04T16:49:25.999Z</time></trkpt><trkpt lat="36.957620422453154" lon="15.069201672922794"><ele>446.0</ele><time>2026-04-04T16:49:26.999Z</time></trkpt><trkpt lat="36.95755757637036" lon="15.069254879620166"><ele>445.99999999999994</ele><time>2026-04-04T16:49:27.999Z</time></trkpt><trkpt lat="36.9574788050413" lon="15.06933955349169"><ele>446.0</ele><time>2026-04-04T16:49:28.999Z</time></trkpt><trkpt lat="36.957384981290204" lon="15.069405306573449"><ele>445.20000000000005</ele><time>2026-04-04T16:49:29.999Z</time></trkpt><trkpt lat="36.95728372598513" lon="15.069479344046188"><ele>444.40000000000003</ele><time>2026-04-04T16:49:30.999Z</time></trkpt><trkpt lat="36.95718802267055" lon="15.069547924290589"><ele>443.6</ele><time>2026-04-04T16:49:31.999Z</time></trkpt><trkpt lat="36.95709410631843" lon="15.069618651453363"><ele>442.8</ele><time>2026-04-04T16:49:32.999Z</time></trkpt><trkpt lat="36.95701870442008" lon="15.06969602955773"><ele>442.0</ele><time>2026-04-04T16:49:33.999Z</time></trkpt><trkpt lat="36.956934394772" lon="15.069762633377696"><ele>442.00000000000006</ele><time>2026-04-04T16:49:34.999Z</time></trkpt><trkpt lat="36.95683987090809" lon="15.06983842114843"><ele>442.0</ele><time>2026-04-04T16:49:35.999Z</time></trkpt><trkpt lat="36.95675457012236" lon="15.069903249245378"><ele>442.0</ele><time>2026-04-04T16:49:36.999Z</time></trkpt><trkpt lat="36.95667349832022" lon="15.069963708701955"><ele>442.0</ele><time>2026-04-04T16:49:37.999Z</time></trkpt><trkpt lat="36.95660351477395" lon="15.06998141081927"><ele>442.00000000000006</ele><time>2026-04-04T16:49:38.999Z</time></trkpt><trkpt lat="36.95653745767777" lon="15.069987646837259"><ele>442.0</ele><time>2026-04-04T16:49:39.998Z</time></trkpt><trkpt lat="36.95646396119552" lon="15.070008828888684"><ele>441.50000000000006</ele><time>2026-04-04T16:49:40.998Z</time></trkpt><trkpt lat="36.956377926752616" lon="15.070035642188156"><ele>441.0</ele><time>2026-04-04T16:49:41.998Z</time></trkpt><trkpt lat="36.95629129503002" lon="15.070061272606237"><ele>440.5</ele><time>2026-04-04T16:49:42.998Z</time></trkpt><trkpt lat="36.956203871757396" lon="15.07007119366565"><ele>440.0</ele><time>2026-04-04T16:49:43.998Z</time></trkpt><trkpt lat="36.95611879341607" lon="15.070061743685057"><ele>439.50000000000006</ele><time>2026-04-04T16:49:44.998Z</time></trkpt><trkpt lat="36.95604045623662" lon="15.070031200066849"><ele>439.0</ele><time>2026-04-04T16:49:45.998Z</time></trkpt><trkpt lat="36.95596174209465" lon="15.070005951719661"><ele>439.0</ele><time>2026-04-04T16:49:46.998Z</time></trkpt><trkpt lat="36.95587318149659" lon="15.069977545010788"><ele>439.0</ele><time>2026-04-04T16:49:47.998Z</time></trkpt><trkpt lat="36.955772928533555" lon="15.069945387894377"><ele>439.0</ele><time>2026-04-04T16:49:48.998Z</time></trkpt><trkpt lat="36.95567402617706" lon="15.069930820108786"><ele>439.0</ele><time>2026-04-04T16:49:49.998Z</time></trkpt><trkpt lat="36.95558748164887" lon="15.06997317453344"><ele>439.0</ele><time>2026-04-04T16:49:50.998Z</time></trkpt><trkpt lat="36.955508596372844" lon="15.070018561265082"><ele>441.2</ele><time>2026-04-04T16:49:51.998Z</time></trkpt><trkpt lat="36.95542973148784" lon="15.070089976933168"><ele>443.4</ele><time>2026-04-04T16:49:52.998Z</time></trkpt><trkpt lat="36.95535683691653" lon="15.070169032643125"><ele>445.6</ele><time>2026-04-04T16:49:53.998Z</time></trkpt><trkpt lat="36.955275991839464" lon="15.070237555674867"><ele>447.8</ele><time>2026-04-04T16:49:54.998Z</time></trkpt><trkpt lat="36.95518481533522" lon="15.070306030223074"><ele>450.0</ele><time>2026-04-04T16:49:55.998Z</time></trkpt><trkpt lat="36.95509638676849" lon="15.070389552494067"><ele>451.2</ele><time>2026-04-04T16:49:56.998Z</time></trkpt><trkpt lat="36.95501567038829" lon="15.070480124887526"><ele>452.4</ele><time>2026-04-04T16:49:57.998Z</time></trkpt><trkpt lat="36.95494279972447" lon="15.070569393319655"><ele>453.6</ele><time>2026-04-04T16:49:58.998Z</time></trkpt><trkpt lat="36.954871972631494" lon="15.07064434258707"><ele>454.8</ele><time>2026-04-04T16:49:59.998Z</time></trkpt><trkpt lat="36.95482205109811" lon="15.070737369691884"><ele>456.0</ele><time>2026-04-04T16:50:00.998Z</time></trkpt><trkpt lat="36.954793870839936" lon="15.070866693828055"><ele>456.0</ele><time>2026-04-04T16:50:01.998Z</time></trkpt><trkpt lat="36.95477040906508" lon="15.071017312096023"><ele>456.0</ele><time>2026-04-04T16:50:02.998Z</time></trkpt><trkpt lat="36.95473563191978" lon="15.071165960095419"><ele>456.0</ele><time>2026-04-04T16:50:03.998Z</time></trkpt><trkpt lat="36.95469809066513" lon="15.071301466399712"><ele>456.0</ele><time>2026-04-04T16:50:04.998Z</time></trkpt><trkpt lat="36.95465978873051" lon="15.071435133559296"><ele>456.0</ele><time>2026-04-04T16:50:05.998Z</time></trkpt><trkpt lat="36.954624180432155" lon="15.071556605858966"><ele>456.0</ele><time>2026-04-04T16:50:07Z</time></trkpt><trkpt lat="36.9545885235801" lon="15.071671604502875"><ele>456.0</ele><time>2026-04-04T16:50:08Z</time></trkpt><trkpt lat="36.95455908265427" lon="15.071776716112625"><ele>456.0</ele><time>2026-04-04T16:50:09Z</time></trkpt><trkpt lat="36.95453207267192" lon="15.071875351698502"><ele>456.0</ele><time>2026-04-04T16:50:10Z</time></trkpt><trkpt lat="36.954501416074976" lon="15.07198203418312"><ele>455.4</ele><time>2026-04-04T16:50:11Z</time></trkpt><trkpt lat="36.95446712642378" lon="15.072100902886827"><ele>454.8</ele><time>2026-04-04T16:50:12Z</time></trkpt><trkpt lat="36.954432177624184" lon="15.072228742917648"><ele>454.19999999999993</ele><time>2026-04-04T16:50:13Z</time></trkpt><trkpt lat="36.95438620492679" lon="15.072357888015391"><ele>453.59999999999997</ele><time>2026-04-04T16:50:14Z</time></trkpt><trkpt lat="36.95434366968001" lon="15.072470000173054"><ele>453.0</ele><time>2026-04-04T16:50:15Z</time></trkpt><trkpt lat="36.954306047690345" lon="15.072565590408217"><ele>452.6666666666667</ele><time>2026-04-04T16:50:16Z</time></trkpt><trkpt lat="36.9542712759134" lon="15.072640181546488"><ele>452.33333333333337</ele><time>2026-04-04T16:50:17Z</time></trkpt><trkpt lat="36.954171695198916" lon="15.072702073578625"><ele>452.0</ele><time>2026-04-04T16:50:19Z</time></trkpt><trkpt lat="36.954091306100544" lon="15.072683805135155"><ele>451.6666666666667</ele><time>2026-04-04T16:50:20Z</time></trkpt><trkpt lat="36.95400859330898" lon="15.072719097045178"><ele>451.33333333333337</ele><time>2026-04-04T16:50:21Z</time></trkpt><trkpt lat="36.95391671226344" lon="15.072758258294673"><ele>451.0</ele><time>2026-04-04T16:50:22Z</time></trkpt><trkpt lat="36.95381498763112" lon="15.072800001652604"><ele>450.25</ele><time>2026-04-04T16:50:23Z</time></trkpt><trkpt lat="36.953704137023905" lon="15.072841343959945"><ele>449.5</ele><time>2026-04-04T16:50:24Z</time></trkpt><trkpt lat="36.95358900880063" lon="15.07287854358569"><ele>448.75</ele><time>2026-04-04T16:50:24.999Z</time></trkpt><trkpt lat="36.953474908293494" lon="15.072911561104073"><ele>448.0</ele><time>2026-04-04T16:50:25.999Z</time></trkpt><trkpt lat="36.953363036915384" lon="15.072942471594187"><ele>448.0</ele><time>2026-04-04T16:50:26.999Z</time></trkpt><trkpt lat="36.9532462771217" lon="15.07297958146454"><ele>448.0</ele><time>2026-04-04T16:50:27.999Z</time></trkpt><trkpt lat="36.95312950152179" lon="15.073024922030077"><ele>448.0</ele><time>2026-04-04T16:50:28.999Z</time></trkpt><trkpt lat="36.95301754927841" lon="15.073070664149741"><ele>448.0</ele><time>2026-04-04T16:50:29.999Z</time></trkpt><trkpt lat="36.95290883314293" lon="15.073117865580983"><ele>448.0</ele><time>2026-04-04T16:50:30.999Z</time></trkpt><trkpt lat="36.95279498034488" lon="15.073167297186066"><ele>448.0</ele><time>2026-04-04T16:50:31.999Z</time></trkpt><trkpt lat="36.95267797855658" lon="15.073215729006634"><ele>448.0</ele><time>2026-04-04T16:50:32.999Z</time></trkpt><trkpt lat="36.9525671933532" lon="15.073260416685283"><ele>448.0</ele><time>2026-04-04T16:50:33.999Z</time></trkpt><trkpt lat="36.95244735156277" lon="15.073308853664535"><ele>446.5</ele><time>2026-04-04T16:50:34.999Z</time></trkpt><trkpt lat="36.95232624523919" lon="15.0733610639824"><ele>445.0</ele><time>2026-04-04T16:50:35.999Z</time></trkpt><trkpt lat="36.95220941968349" lon="15.0734114276369"><ele>443.5</ele><time>2026-04-04T16:50:36.999Z</time></trkpt><trkpt lat="36.95209004643347" lon="15.073462889569912"><ele>442.0</ele><time>2026-04-04T16:50:37.999Z</time></trkpt><trkpt lat="36.95197012131694" lon="15.073514589433215"><ele>442.0</ele><time>2026-04-04T16:50:38.999Z</time></trkpt><trkpt lat="36.95184657592386" lon="15.07356784999947"><ele>442.0</ele><time>2026-04-04T16:50:39.999Z</time></trkpt><trkpt lat="36.95172219527491" lon="15.0736215414051"><ele>442.0</ele><time>2026-04-04T16:50:40.999Z</time></trkpt><trkpt lat="36.95160318060141" lon="15.073672093826547"><ele>442.0</ele><time>2026-04-04T16:50:41.999Z</time></trkpt><trkpt lat="36.9514897627032" lon="15.073718128434228"><ele>440.40000000000003</ele><time>2026-04-04T16:50:42.999Z</time></trkpt><trkpt lat="36.951380108661375" lon="15.073762635339246"><ele>438.80000000000007</ele><time>2026-04-04T16:50:43.999Z</time></trkpt><trkpt lat="36.951279364477585" lon="15.073803525856508"><ele>437.2</ele><time>2026-04-04T16:50:44.999Z</time></trkpt><trkpt lat="36.95117797987969" lon="15.07384467633146"><ele>435.6</ele><time>2026-04-04T16:50:45.999Z</time></trkpt><trkpt lat="36.951072734925624" lon="15.073889345118943"><ele>434.0</ele><time>2026-04-04T16:50:46.999Z</time></trkpt><trkpt lat="36.950961965815644" lon="15.073934058435315"><ele>433.4</ele><time>2026-04-04T16:50:47.999Z</time></trkpt><trkpt lat="36.95085347228488" lon="15.073974486592308"><ele>432.79999999999995</ele><time>2026-04-04T16:50:48.999Z</time></trkpt><trkpt lat="36.95075436208694" lon="15.07402004756679"><ele>432.20000000000005</ele><time>2026-04-04T16:50:49.999Z</time></trkpt><trkpt lat="36.95067129243397" lon="15.074092321803352"><ele>431.6</ele><time>2026-04-04T16:50:50.999Z</time></trkpt><trkpt lat="36.95059144585262" lon="15.074163021332613"><ele>431.0</ele><time>2026-04-04T16:50:51.999Z</time></trkpt><trkpt lat="36.950519218971486" lon="15.074243129130187"><ele>430.99999999999994</ele><time>2026-04-04T16:50:52.999Z</time></trkpt><trkpt lat="36.95044451791592" lon="15.074301800818517"><ele>431.0</ele><time>2026-04-04T16:50:53.999Z</time></trkpt><trkpt lat="36.95037856949866" lon="15.074366236023442"><ele>431.0</ele><time>2026-04-04T16:50:54.999Z</time></trkpt><trkpt lat="36.95031442223403" lon="15.074392816021527"><ele>431.0</ele><time>2026-04-04T16:50:55.999Z</time></trkpt><trkpt lat="36.950214056966715" lon="15.074332058649581"><ele>430.99999999999994</ele><time>2026-04-04T16:50:57.999Z</time></trkpt><trkpt lat="36.95018873590444" lon="15.074243997320915"><ele>431.0</ele><time>2026-04-04T16:50:58.999Z</time></trkpt><trkpt lat="36.950114973658266" lon="15.07417043827509"><ele>430.4</ele><time>2026-04-04T16:50:59.999Z</time></trkpt><trkpt lat="36.95003790241527" lon="15.074107278720081"><ele>429.8</ele><time>2026-04-04T16:51:00.999Z</time></trkpt><trkpt lat="36.94993809268127" lon="15.074056861774306"><ele>429.19999999999993</ele><time>2026-04-04T16:51:01.999Z</time></trkpt><trkpt lat="36.949825011215246" lon="15.074040885500965"><ele>428.59999999999997</ele><time>2026-04-04T16:51:02.999Z</time></trkpt><trkpt lat="36.94971976069584" lon="15.074126110970319"><ele>428.0</ele><time>2026-04-04T16:51:03.999Z</time></trkpt><trkpt lat="36.94962494452396" lon="15.07418869271028"><ele>428.0</ele><time>2026-04-04T16:51:04.999Z</time></trkpt><trkpt lat="36.9495227258097" lon="15.074274753949744"><ele>428.0</ele><time>2026-04-04T16:51:05.999Z</time></trkpt><trkpt lat="36.94940661352063" lon="15.074340466285673"><ele>428.0</ele><time>2026-04-04T16:51:06.999Z</time></trkpt><trkpt lat="36.94929373143789" lon="15.074422993143653"><ele>428.0</ele><time>2026-04-04T16:51:07.999Z</time></trkpt><trkpt lat="36.94918335534313" lon="15.07450426059823"><ele>428.25</ele><time>2026-04-04T16:51:08.999Z</time></trkpt><trkpt lat="36.9490683646184" lon="15.074587195700014"><ele>428.5</ele><time>2026-04-04T16:51:09.999Z</time></trkpt><trkpt lat="36.9489507023372" lon="15.074671643252357"><ele>428.75</ele><time>2026-04-04T16:51:10.999Z</time></trkpt><trkpt lat="36.948838554362766" lon="15.07475485692622"><ele>429.0</ele><time>2026-04-04T16:51:11.999Z</time></trkpt><trkpt lat="36.948741082092425" lon="15.074857954848396"><ele>430.25</ele><time>2026-04-04T16:51:12.999Z</time></trkpt><trkpt lat="36.94863600577954" lon="15.074944563686659"><ele>431.5</ele><time>2026-04-04T16:51:13.999Z</time></trkpt><trkpt lat="36.94852053771" lon="15.075002799125377"><ele>432.75</ele><time>2026-04-04T16:51:14.999Z</time></trkpt><trkpt lat="36.94841772917966" lon="15.075058295104233"><ele>434.0</ele><time>2026-04-04T16:51:15.999Z</time></trkpt><trkpt lat="36.948309303108914" lon="15.07510770839442"><ele>435.0</ele><time>2026-04-04T16:51:16.999Z</time></trkpt><trkpt lat="36.94820581430464" lon="15.075120224753265"><ele>436.0</ele><time>2026-04-04T16:51:17.999Z</time></trkpt><trkpt lat="36.94810191107227" lon="15.075124630664083"><ele>437.0</ele><time>2026-04-04T16:51:18.999Z</time></trkpt><trkpt lat="36.94799413783903" lon="15.075117409025282"><ele>438.0</ele><time>2026-04-04T16:51:19.999Z</time></trkpt><trkpt lat="36.94787896033801" lon="15.075106297499651"><ele>439.0</ele><time>2026-04-04T16:51:20.999Z</time></trkpt><trkpt lat="36.947759987433194" lon="15.07510393373473"><ele>439.0</ele><time>2026-04-04T16:51:21.999Z</time></trkpt><trkpt lat="36.94764665926217" lon="15.075133339937091"><ele>439.0</ele><time>2026-04-04T16:51:22.999Z</time></trkpt><trkpt lat="36.947541182574625" lon="15.07510751439273"><ele>439.0</ele><time>2026-04-04T16:51:23.999Z</time></trkpt><trkpt lat="36.947465386898614" lon="15.07508722698395"><ele>439.0</ele><time>2026-04-04T16:51:24.999Z</time></trkpt><trkpt lat="36.94736512091174" lon="15.075049340849732"><ele>439.0</ele><time>2026-04-04T16:51:25.999Z</time></trkpt><trkpt lat="36.94728864048132" lon="15.074999909290717"><ele>439.2</ele><time>2026-04-04T16:51:26.999Z</time></trkpt><trkpt lat="36.94722146747888" lon="15.074939703536074"><ele>439.4</ele><time>2026-04-04T16:51:27.999Z</time></trkpt><trkpt lat="36.94713149702476" lon="15.07488777877685"><ele>439.6</ele><time>2026-04-04T16:51:28.999Z</time></trkpt><trkpt lat="36.94704590902678" lon="15.074878485602024"><ele>439.8</ele><time>2026-04-04T16:51:29.999Z</time></trkpt><trkpt lat="36.946953385472966" lon="15.074904420503115"><ele>440.0</ele><time>2026-04-04T16:51:30.999Z</time></trkpt><trkpt lat="36.94688822841802" lon="15.075006499635233"><ele>439.6</ele><time>2026-04-04T16:51:31.999Z</time></trkpt><trkpt lat="36.94680703145153" lon="15.075066852851148"><ele>439.2</ele><time>2026-04-04T16:51:32.999Z</time></trkpt><trkpt lat="36.946719475486205" lon="15.075140304614223"><ele>438.79999999999995</ele><time>2026-04-04T16:51:33.999Z</time></trkpt><trkpt lat="36.94664799291198" lon="15.075202966882404"><ele>438.4</ele><time>2026-04-04T16:51:34.999Z</time></trkpt><trkpt lat="36.946543269108375" lon="15.07524757925618"><ele>438.0</ele><time>2026-04-04T16:51:36.999Z</time></trkpt><trkpt lat="36.946507258847944" lon="15.075153498181004"><ele>438.0</ele><time>2026-04-04T16:51:38.999Z</time></trkpt><trkpt lat="36.94649705724141" lon="15.074999801175096"><ele>437.99999999999994</ele><time>2026-04-04T16:51:40.999Z</time></trkpt><trkpt lat="36.94649422356452" lon="15.074900066685323"><ele>437.99999999999994</ele><time>2026-04-04T16:51:41.998Z</time></trkpt><trkpt lat="36.94649268410677" lon="15.074792526982202"><ele>438.0</ele><time>2026-04-04T16:51:42.998Z</time></trkpt><trkpt lat="36.94648834824613" lon="15.074674860115392"><ele>438.0</ele><time>2026-04-04T16:51:43.998Z</time></trkpt><trkpt lat="36.94648012824985" lon="15.074548417702214"><ele>437.25</ele><time>2026-04-04T16:51:44.998Z</time></trkpt><trkpt lat="36.94646579890892" lon="15.074408798672069"><ele>436.5</ele><time>2026-04-04T16:51:45.998Z</time></trkpt><trkpt lat="36.94644136980635" lon="15.074264405318289"><ele>435.75</ele><time>2026-04-04T16:51:46.998Z</time></trkpt><trkpt lat="36.94641799514144" lon="15.074117734392985"><ele>435.0</ele><time>2026-04-04T16:51:47.998Z</time></trkpt><trkpt lat="36.94639925430867" lon="15.073966744682762"><ele>434.75</ele><time>2026-04-04T16:51:48.998Z</time></trkpt><trkpt lat="36.94638523045035" lon="15.073806167416356"><ele>434.5</ele><time>2026-04-04T16:51:49.998Z</time></trkpt><trkpt lat="36.94636416156079" lon="15.073636066393636"><ele>434.25</ele><time>2026-04-04T16:51:50.998Z</time></trkpt><trkpt lat="36.94633420550973" lon="15.073473039057145"><ele>434.0</ele><time>2026-04-04T16:51:51.998Z</time></trkpt><trkpt lat="36.946293337421885" lon="15.07330417460431"><ele>432.5</ele><time>2026-04-04T16:51:52.998Z</time></trkpt><trkpt lat="36.946242139847676" lon="15.073140428099773"><ele>431.0</ele><time>2026-04-04T16:51:53.998Z</time></trkpt><trkpt lat="36.946178758739485" lon="15.07298566659017"><ele>429.5</ele><time>2026-04-04T16:51:54.998Z</time></trkpt><trkpt lat="36.94610875158626" lon="15.072842623845128"><ele>428.0</ele><time>2026-04-04T16:51:55.998Z</time></trkpt><trkpt lat="36.94603298225405" lon="15.072708067864298"><ele>428.0</ele><time>2026-04-04T16:51:56.998Z</time></trkpt><trkpt lat="36.94594522759005" lon="15.072595151174157"><ele>428.0</ele><time>2026-04-04T16:51:57.998Z</time></trkpt><trkpt lat="36.945861181760094" lon="15.072477416064139"><ele>428.0</ele><time>2026-04-04T16:51:58.998Z</time></trkpt><trkpt lat="36.94577883133331" lon="15.072356014798803"><ele>428.0</ele><time>2026-04-04T16:51:59.998Z</time></trkpt><trkpt lat="36.945683800149766" lon="15.072254336720325"><ele>432.25</ele><time>2026-04-04T16:52:00.998Z</time></trkpt><trkpt lat="36.945589713875464" lon="15.072156013547913"><ele>436.5</ele><time>2026-04-04T16:52:01.998Z</time></trkpt><trkpt lat="36.94549871458797" lon="15.07206091636657"><ele>440.75</ele><time>2026-04-04T16:52:02.998Z</time></trkpt><trkpt lat="36.945411824014315" lon="15.071969068368277"><ele>445.0</ele><time>2026-04-04T16:52:03.998Z</time></trkpt><trkpt lat="36.945339557932385" lon="15.071888421148826"><ele>445.0</ele><time>2026-04-04T16:52:04.998Z</time></trkpt><trkpt lat="36.94526603612131" lon="15.071802581116254"><ele>445.0</ele><time>2026-04-04T16:52:05.998Z</time></trkpt><trkpt lat="36.94519123491995" lon="15.0717123520428"><ele>445.0</ele><time>2026-04-04T16:52:06.998Z</time></trkpt><trkpt lat="36.9451155384029" lon="15.071619174163029"><ele>445.0</ele><time>2026-04-04T16:52:07.998Z</time></trkpt><trkpt lat="36.94503799618579" lon="15.071520175891106"><ele>445.0</ele><time>2026-04-04T16:52:08.998Z</time></trkpt><trkpt lat="36.9449715725185" lon="15.071432305709624"><ele>443.83333333333337</ele><time>2026-04-04T16:52:09.998Z</time></trkpt><trkpt lat="36.94491198655443" lon="15.071350084250698"><ele>442.6666666666667</ele><time>2026-04-04T16:52:10.998Z</time></trkpt><trkpt lat="36.94485412256" lon="15.07126762920856"><ele>441.5</ele><time>2026-04-04T16:52:11.998Z</time></trkpt><trkpt lat="36.94479612568139" lon="15.071187301269243"><ele>440.33333333333337</ele><time>2026-04-04T16:52:12.999Z</time></trkpt><trkpt lat="36.94473814774494" lon="15.07111776406592"><ele>439.1666666666667</ele><time>2026-04-04T16:52:14Z</time></trkpt><trkpt lat="36.94465468003419" lon="15.071060631925096"><ele>438.0</ele><time>2026-04-04T16:52:14.999Z</time></trkpt><trkpt lat="36.94455286268791" lon="15.071051726371039"><ele>438.0</ele><time>2026-04-04T16:52:15.999Z</time></trkpt><trkpt lat="36.94447171258412" lon="15.071021490695689"><ele>438.0</ele><time>2026-04-04T16:52:17Z</time></trkpt><trkpt lat="36.944406125167475" lon="15.070973397109197"><ele>438.0</ele><time>2026-04-04T16:52:17.999Z</time></trkpt><trkpt lat="36.94436078521467" lon="15.070874834665045"><ele>438.0</ele><time>2026-04-04T16:52:19Z</time></trkpt><trkpt lat="36.9443120969614" lon="15.07077194212497"><ele>438.0</ele><time>2026-04-04T16:52:20Z</time></trkpt><trkpt lat="36.94426060942261" lon="15.07066783418534"><ele>438.0</ele><time>2026-04-04T16:52:20.999Z</time></trkpt><trkpt lat="36.94419588405379" lon="15.070558646390987"><ele>434.0</ele><time>2026-04-04T16:52:22Z</time></trkpt><trkpt lat="36.944123728721685" lon="15.070461792270148"><ele>429.99999999999994</ele><time>2026-04-04T16:52:23Z</time></trkpt><trkpt lat="36.94402777051716" lon="15.070384309816664"><ele>426.0</ele><time>2026-04-04T16:52:23.999Z</time></trkpt><trkpt lat="36.94393750362398" lon="15.070319440980455"><ele>422.0</ele><time>2026-04-04T16:52:25Z</time></trkpt><trkpt lat="36.94384073214823" lon="15.070252916760076"><ele>418.0</ele><time>2026-04-04T16:52:26Z</time></trkpt><trkpt lat="36.94374204061522" lon="15.070185554604073"><ele>418.0</ele><time>2026-04-04T16:52:27Z</time></trkpt><trkpt lat="36.94364111459314" lon="15.070115951010782"><ele>418.0</ele><time>2026-04-04T16:52:27.999Z</time></trkpt><trkpt lat="36.94353255677522" lon="15.070039338049588"><ele>418.0</ele><time>2026-04-04T16:52:28.999Z</time></trkpt><trkpt lat="36.94342635820143" lon="15.06996439009622"><ele>418.0</ele><time>2026-04-04T16:52:29.999Z</time></trkpt><trkpt lat="36.943314307835855" lon="15.069887233424536"><ele>411.5</ele><time>2026-04-04T16:52:30.999Z</time></trkpt><trkpt lat="36.94319776786744" lon="15.069811887056028"><ele>405.0</ele><time>2026-04-04T16:52:31.999Z</time></trkpt><trkpt lat="36.94308035173929" lon="15.069739210052076"><ele>398.5</ele><time>2026-04-04T16:52:32.999Z</time></trkpt><trkpt lat="36.94296262526742" lon="15.069667094475335"><ele>392.0</ele><time>2026-04-04T16:52:33.999Z</time></trkpt><trkpt lat="36.94283534860401" lon="15.069608648785504"><ele>392.0</ele><time>2026-04-04T16:52:34.999Z</time></trkpt><trkpt lat="36.942707382897495" lon="15.069568752186333"><ele>392.0</ele><time>2026-04-04T16:52:35.999Z</time></trkpt><trkpt lat="36.94257881975781" lon="15.06954076636535"><ele>392.0</ele><time>2026-04-04T16:52:36.999Z</time></trkpt><trkpt lat="36.94245102867797" lon="15.069517278179408"><ele>392.0</ele><time>2026-04-04T16:52:37.999Z</time></trkpt><trkpt lat="36.942328314181005" lon="15.069516563814974"><ele>389.75</ele><time>2026-04-04T16:52:38.999Z</time></trkpt><trkpt lat="36.94220206051458" lon="15.069474056234517"><ele>387.5</ele><time>2026-04-04T16:52:39.999Z</time></trkpt><trkpt lat="36.942074819807395" lon="15.069449328563174"><ele>385.25</ele><time>2026-04-04T16:52:40.999Z</time></trkpt><trkpt lat="36.94194662615429" lon="15.069421272542808"><ele>383.0</ele><time>2026-04-04T16:52:41.999Z</time></trkpt><trkpt lat="36.94182327576945" lon="15.069383063407683"><ele>381.79999999999995</ele><time>2026-04-04T16:52:42.999Z</time></trkpt><trkpt lat="36.94170549402108" lon="15.069342253155686"><ele>380.6</ele><time>2026-04-04T16:52:43.999Z</time></trkpt><trkpt lat="36.94159487578817" lon="15.069303804091186"><ele>379.4</ele><time>2026-04-04T16:52:44.999Z</time></trkpt><trkpt lat="36.9414855523448" lon="15.069286789314031"><ele>378.20000000000005</ele><time>2026-04-04T16:52:45.999Z</time></trkpt><trkpt lat="36.94139314415374" lon="15.069257388786887"><ele>377.0</ele><time>2026-04-04T16:52:46.999Z</time></trkpt><trkpt lat="36.94131155535627" lon="15.069214350845119"><ele>377.0</ele><time>2026-04-04T16:52:47.999Z</time></trkpt><trkpt lat="36.941230428470824" lon="15.06922621833171"><ele>377.0</ele><time>2026-04-04T16:52:48.999Z</time></trkpt><trkpt lat="36.94116610470659" lon="15.069305501858748"><ele>377.0</ele><time>2026-04-04T16:52:49.999Z</time></trkpt><trkpt lat="36.94110012838451" lon="15.06939068938531"><ele>377.0</ele><time>2026-04-04T16:52:50.999Z</time></trkpt><trkpt lat="36.94101297188606" lon="15.06945409382246"><ele>377.0</ele><time>2026-04-04T16:52:51.999Z</time></trkpt><trkpt lat="36.94094296022356" lon="15.069540791830137"><ele>376.5</ele><time>2026-04-04T16:52:52.999Z</time></trkpt><trkpt lat="36.94087980547047" lon="15.069612578374663"><ele>376.0</ele><time>2026-04-04T16:52:53.999Z</time></trkpt><trkpt lat="36.94081947657466" lon="15.0696571951396"><ele>375.5</ele><time>2026-04-04T16:52:54.999Z</time></trkpt><trkpt lat="36.94071844824179" lon="15.069669050895019"><ele>375.0</ele><time>2026-04-04T16:52:56.999Z</time></trkpt><trkpt lat="36.940703436255376" lon="15.069587994579132"><ele>374.5</ele><time>2026-04-04T16:52:57.999Z</time></trkpt><trkpt lat="36.9406871900278" lon="15.069508888915173"><ele>374.0</ele><time>2026-04-04T16:52:58.999Z</time></trkpt><trkpt lat="36.94068360927523" lon="15.069408627940184"><ele>374.0</ele><time>2026-04-04T16:52:59.999Z</time></trkpt><trkpt lat="36.94068062405214" lon="15.06927771099239"><ele>374.0</ele><time>2026-04-04T16:53:00.999Z</time></trkpt><trkpt lat="36.94069327423503" lon="15.06914739426029"><ele>374.0</ele><time>2026-04-04T16:53:01.999Z</time></trkpt><trkpt lat="36.94071572360618" lon="15.069010620726692"><ele>374.0</ele><time>2026-04-04T16:53:02.999Z</time></trkpt><trkpt lat="36.94071725391305" lon="15.068880201907515"><ele>374.0</ele><time>2026-04-04T16:53:03.999Z</time></trkpt><trkpt lat="36.94072832865003" lon="15.068787051604138"><ele>373.79999999999995</ele><time>2026-04-04T16:53:04.999Z</time></trkpt><trkpt lat="36.94062185293603" lon="15.068689514047861"><ele>373.59999999999997</ele><time>2026-04-04T16:53:06.999Z</time></trkpt><trkpt lat="36.940511590514625" lon="15.068686596985794"><ele>373.4</ele><time>2026-04-04T16:53:07.999Z</time></trkpt><trkpt lat="36.940415204281756" lon="15.068669374138185"><ele>373.2</ele><time>2026-04-04T16:53:08.999Z</time></trkpt><trkpt lat="36.94032114109876" lon="15.068609620963521"><ele>373.0</ele><time>2026-04-04T16:53:09.999Z</time></trkpt><trkpt lat="36.94021913179711" lon="15.068551535983268"><ele>373.0</ele><time>2026-04-04T16:53:10.999Z</time></trkpt><trkpt lat="36.94011704279449" lon="15.068488472400364"><ele>373.0</ele><time>2026-04-04T16:53:11.999Z</time></trkpt><trkpt lat="36.940011240258556" lon="15.068427937323985"><ele>373.0</ele><time>2026-04-04T16:53:12.999Z</time></trkpt><trkpt lat="36.93989535176242" lon="15.06838376525001"><ele>373.0</ele><time>2026-04-04T16:53:13.999Z</time></trkpt><trkpt lat="36.93978314612125" lon="15.068317987940466"><ele>375.5</ele><time>2026-04-04T16:53:14.999Z</time></trkpt><trkpt lat="36.939667013510125" lon="15.068250309772784"><ele>378.0</ele><time>2026-04-04T16:53:15.999Z</time></trkpt><trkpt lat="36.93954923339905" lon="15.068178077878182"><ele>380.5</ele><time>2026-04-04T16:53:16.999Z</time></trkpt><trkpt lat="36.93943730582983" lon="15.068104519022354"><ele>383.0</ele><time>2026-04-04T16:53:17.999Z</time></trkpt><trkpt lat="36.939328726793235" lon="15.068031290421724"><ele>383.0</ele><time>2026-04-04T16:53:18.999Z</time></trkpt><trkpt lat="36.93922006322314" lon="15.067959096411983"><ele>383.0</ele><time>2026-04-04T16:53:19.999Z</time></trkpt><trkpt lat="36.93911694753606" lon="15.067869605151895"><ele>383.0</ele><time>2026-04-04T16:53:20.999Z</time></trkpt><trkpt lat="36.938997176701925" lon="15.067814444617671"><ele>383.0</ele><time>2026-04-04T16:53:21.999Z</time></trkpt><trkpt lat="36.93888470656603" lon="15.067740619244868"><ele>384.79999999999995</ele><time>2026-04-04T16:53:22.999Z</time></trkpt><trkpt lat="36.93877402915533" lon="15.067675545694051"><ele>386.6</ele><time>2026-04-04T16:53:23.999Z</time></trkpt><trkpt lat="36.938663733145425" lon="15.067607955776008"><ele>388.4</ele><time>2026-04-04T16:53:24.999Z</time></trkpt><trkpt lat="36.938572187205594" lon="15.067547046880033"><ele>390.20000000000005</ele><time>2026-04-04T16:53:25.999Z</time></trkpt><trkpt lat="36.9384902591844" lon="15.067492621261449"><ele>392.0</ele><time>2026-04-04T16:53:26.999Z</time></trkpt><trkpt lat="36.93842164699449" lon="15.067460134396004"><ele>392.75</ele><time>2026-04-04T16:53:27.999Z</time></trkpt><trkpt lat="36.93831231730847" lon="15.067491929541355"><ele>393.5</ele><time>2026-04-04T16:53:29.999Z</time></trkpt><trkpt lat="36.93823116723346" lon="15.067642247409232"><ele>394.25</ele><time>2026-04-04T16:53:31.999Z</time></trkpt><trkpt lat="36.93820384533758" lon="15.067756975275321"><ele>395.0</ele><time>2026-04-04T16:53:32.999Z</time></trkpt><trkpt lat="36.9381780165475" lon="15.067881267215412"><ele>395.0</ele><time>2026-04-04T16:53:33.999Z</time></trkpt><trkpt lat="36.93814246371632" lon="15.068008590535953"><ele>395.0</ele><time>2026-04-04T16:53:34.999Z</time></trkpt><trkpt lat="36.93809073364277" lon="15.068136659459302"><ele>395.0</ele><time>2026-04-04T16:53:35.999Z</time></trkpt><trkpt lat="36.938032662251004" lon="15.068266476870921"><ele>395.0</ele><time>2026-04-04T16:53:36.999Z</time></trkpt><trkpt lat="36.93796837954417" lon="15.068397254640852"><ele>395.0</ele><time>2026-04-04T16:53:37.999Z</time></trkpt><trkpt lat="36.93789610207829" lon="15.068531386077463"><ele>395.0</ele><time>2026-04-04T16:53:38.999Z</time></trkpt><trkpt lat="36.93781771396644" lon="15.068667138901079"><ele>395.0</ele><time>2026-04-04T16:53:39.999Z</time></trkpt><trkpt lat="36.93773357442013" lon="15.068800569659409"><ele>395.0</ele><time>2026-04-04T16:53:40.999Z</time></trkpt><trkpt lat="36.93764363190218" lon="15.068931935934652"><ele>395.0</ele><time>2026-04-04T16:53:41.999Z</time></trkpt><trkpt lat="36.937553890802405" lon="15.069063068363814"><ele>395.0</ele><time>2026-04-04T16:53:42.999Z</time></trkpt><trkpt lat="36.93746253792116" lon="15.069195330976562"><ele>395.0</ele><time>2026-04-04T16:53:43.999Z</time></trkpt><trkpt lat="36.937367257845665" lon="15.069327249767355"><ele>395.0</ele><time>2026-04-04T16:53:44.999Z</time></trkpt><trkpt lat="36.93727300367499" lon="15.069457451589482"><ele>394.75</ele><time>2026-04-04T16:53:45.999Z</time></trkpt><trkpt lat="36.937182045975426" lon="15.069585641108315"><ele>394.5</ele><time>2026-04-04T16:53:46.998Z</time></trkpt><trkpt lat="36.93708697601918" lon="15.069707714746464"><ele>394.25</ele><time>2026-04-04T16:53:47.998Z</time></trkpt><trkpt lat="36.936988016428955" lon="15.069821609484636"><ele>394.0</ele><time>2026-04-04T16:53:48.998Z</time></trkpt><trkpt lat="36.9368875385768" lon="15.06993537293452"><ele>394.0</ele><time>2026-04-04T16:53:49.998Z</time></trkpt><trkpt lat="36.93678222771567" lon="15.070039548729797"><ele>394.0</ele><time>2026-04-04T16:53:50.998Z</time></trkpt><trkpt lat="36.936678776062735" lon="15.070158150197763"><ele>394.0</ele><time>2026-04-04T16:53:51.998Z</time></trkpt><trkpt lat="36.9365757519291" lon="15.070274060690148"><ele>394.0</ele><time>2026-04-04T16:53:52.998Z</time></trkpt><trkpt lat="36.93646031950684" lon="15.070377141139556"><ele>394.0</ele><time>2026-04-04T16:53:53.998Z</time></trkpt><trkpt lat="36.93634647610165" lon="15.07047876378786"><ele>394.0</ele><time>2026-04-04T16:53:54.998Z</time></trkpt><trkpt lat="36.936237820072236" lon="15.070581193721427"><ele>394.0</ele><time>2026-04-04T16:53:55.998Z</time></trkpt><trkpt lat="36.936129854639695" lon="15.070682902972267"><ele>394.0</ele><time>2026-04-04T16:53:56.998Z</time></trkpt><trkpt lat="36.93601952150473" lon="15.070774254146883"><ele>395.0</ele><time>2026-04-04T16:53:57.998Z</time></trkpt><trkpt lat="36.93590442145221" lon="15.070845512634786"><ele>396.0</ele><time>2026-04-04T16:53:58.998Z</time></trkpt><trkpt lat="36.93578689034142" lon="15.070900020585418"><ele>397.0</ele><time>2026-04-04T16:53:59.998Z</time></trkpt><trkpt lat="36.93566564580263" lon="15.070924753818622"><ele>398.0</ele><time>2026-04-04T16:54:00.998Z</time></trkpt><trkpt lat="36.93555027977962" lon="15.070963212302178"><ele>398.0</ele><time>2026-04-04T16:54:01.998Z</time></trkpt><trkpt lat="36.935434807364544" lon="15.070992670084681"><ele>398.0</ele><time>2026-04-04T16:54:02.998Z</time></trkpt><trkpt lat="36.935321853795095" lon="15.071006820971508"><ele>398.0</ele><time>2026-04-04T16:54:03.998Z</time></trkpt><trkpt lat="36.93522018574299" lon="15.071011614338445"><ele>398.0</ele><time>2026-04-04T16:54:04.998Z</time></trkpt><trkpt lat="36.93512339501269" lon="15.071042693899495"><ele>398.0</ele><time>2026-04-04T16:54:05.998Z</time></trkpt><trkpt lat="36.93503247444626" lon="15.07110163443735"><ele>398.0</ele><time>2026-04-04T16:54:06.998Z</time></trkpt><trkpt lat="36.93496212943463" lon="15.071229998233896"><ele>398.0</ele><time>2026-04-04T16:54:07.998Z</time></trkpt><trkpt lat="36.93488643137358" lon="15.071342540853408"><ele>398.0</ele><time>2026-04-04T16:54:08.998Z</time></trkpt><trkpt lat="36.93479709213113" lon="15.071441392244633"><ele>398.0</ele><time>2026-04-04T16:54:09.998Z</time></trkpt><trkpt lat="36.93470968753874" lon="15.071548952994858"><ele>399.0</ele><time>2026-04-04T16:54:10.998Z</time></trkpt><trkpt lat="36.93462672914679" lon="15.071667761937235"><ele>400.0</ele><time>2026-04-04T16:54:11.998Z</time></trkpt><trkpt lat="36.934539374397175" lon="15.07178426331089"><ele>401.0</ele><time>2026-04-04T16:54:12.998Z</time></trkpt><trkpt lat="36.93444945053836" lon="15.071905294652815"><ele>402.0</ele><time>2026-04-04T16:54:13.998Z</time></trkpt><trkpt lat="36.93436761133333" lon="15.072030859177065"><ele>402.0</ele><time>2026-04-04T16:54:14.998Z</time></trkpt><trkpt lat="36.934296445025254" lon="15.072169653297037"><ele>402.0</ele><time>2026-04-04T16:54:15.998Z</time></trkpt><trkpt lat="36.934225796239325" lon="15.072303515938605"><ele>402.0</ele><time>2026-04-04T16:54:16.998Z</time></trkpt><trkpt lat="36.93415426396996" lon="15.072425815447199"><ele>402.0</ele><time>2026-04-04T16:54:17.998Z</time></trkpt><trkpt lat="36.934089400517195" lon="15.072544378971115"><ele>401.40000000000003</ele><time>2026-04-04T16:54:18.999Z</time></trkpt><trkpt lat="36.93403301347552" lon="15.072655902612224"><ele>400.8</ele><time>2026-04-04T16:54:19.999Z</time></trkpt><trkpt lat="36.933974907112734" lon="15.072774141716165"><ele>400.2</ele><time>2026-04-04T16:54:20.999Z</time></trkpt><trkpt lat="36.93391244429948" lon="15.072896213056035"><ele>399.6</ele><time>2026-04-04T16:54:21.999Z</time></trkpt><trkpt lat="36.933852907032154" lon="15.073012667199025"><ele>399.0</ele><time>2026-04-04T16:54:22.999Z</time></trkpt><trkpt lat="36.93379846920044" lon="15.073129481032106"><ele>399.0</ele><time>2026-04-04T16:54:23.999Z</time></trkpt><trkpt lat="36.933744221350075" lon="15.073232961536311"><ele>399.0</ele><time>2026-04-04T16:54:24.999Z</time></trkpt><trkpt lat="36.933684361558" lon="15.073326518351001"><ele>399.0</ele><time>2026-04-04T16:54:25.999Z</time></trkpt><trkpt lat="36.933627743916" lon="15.073415594081139"><ele>399.0</ele><time>2026-04-04T16:54:26.999Z</time></trkpt><trkpt lat="36.933579176368276" lon="15.073508997615216"><ele>399.0</ele><time>2026-04-04T16:54:27.999Z</time></trkpt><trkpt lat="36.933539341602774" lon="15.07358932690504"><ele>398.75</ele><time>2026-04-04T16:54:28.999Z</time></trkpt><trkpt lat="36.933486935309425" lon="15.073698070184058"><ele>398.5</ele><time>2026-04-04T16:54:30.999Z</time></trkpt><trkpt lat="36.9334074856187" lon="15.073582322080304"><ele>398.25</ele><time>2026-04-04T16:54:34.999Z</time></trkpt><trkpt lat="36.93332501591498" lon="15.073448674122162"><ele>398.0</ele><time>2026-04-04T16:54:36.999Z</time></trkpt><trkpt lat="36.93326398089868" lon="15.073357358543872"><ele>395.0</ele><time>2026-04-04T16:54:37.999Z</time></trkpt><trkpt lat="36.93318799129822" lon="15.073254700635498"><ele>392.0</ele><time>2026-04-04T16:54:38.999Z</time></trkpt><trkpt lat="36.93310361587876" lon="15.073147189516144"><ele>389.0</ele><time>2026-04-04T16:54:39.999Z</time></trkpt><trkpt lat="36.9330172242487" lon="15.073038369804271"><ele>386.0</ele><time>2026-04-04T16:54:40.999Z</time></trkpt><trkpt lat="36.932933412448136" lon="15.072930859097166"><ele>386.0</ele><time>2026-04-04T16:54:41.999Z</time></trkpt><trkpt lat="36.93285380010998" lon="15.072822566364"><ele>386.0</ele><time>2026-04-04T16:54:42.999Z</time></trkpt><trkpt lat="36.93277525145467" lon="15.072714259179824"><ele>386.0</ele><time>2026-04-04T16:54:43.999Z</time></trkpt><trkpt lat="36.93269221833958" lon="15.072601218948463"><ele>386.0</ele><time>2026-04-04T16:54:44.999Z</time></trkpt><trkpt lat="36.932611019802316" lon="15.072490690400748"><ele>383.75</ele><time>2026-04-04T16:54:45.999Z</time></trkpt><trkpt lat="36.93253128415303" lon="15.072382153153468"><ele>381.5</ele><time>2026-04-04T16:54:46.999Z</time></trkpt><trkpt lat="36.93244977513515" lon="15.072271201973102"><ele>379.25</ele><time>2026-04-04T16:54:47.999Z</time></trkpt><trkpt lat="36.93236903509481" lon="15.072159930954015"><ele>377.0</ele><time>2026-04-04T16:54:48.999Z</time></trkpt><trkpt lat="36.9322941275084" lon="15.07204666570151"><ele>377.0</ele><time>2026-04-04T16:54:49.999Z</time></trkpt><trkpt lat="36.93222443595274" lon="15.071920152438008"><ele>377.0</ele><time>2026-04-04T16:54:50.999Z</time></trkpt><trkpt lat="36.93215299962411" lon="15.07178865437789"><ele>377.0</ele><time>2026-04-04T16:54:51.999Z</time></trkpt><trkpt lat="36.93208131225182" lon="15.07165824145245"><ele>377.0</ele><time>2026-04-04T16:54:52.999Z</time></trkpt><trkpt lat="36.932007506587134" lon="15.071531808213017"><ele>376.5</ele><time>2026-04-04T16:54:53.999Z</time></trkpt><trkpt lat="36.93192965611957" lon="15.071399959565689"><ele>376.0</ele><time>2026-04-04T16:54:54.999Z</time></trkpt><trkpt lat="36.931840949568446" lon="15.071270699903291"><ele>375.5</ele><time>2026-04-04T16:54:55.999Z</time></trkpt><trkpt lat="36.93174611472486" lon="15.071149210208507"><ele>375.0</ele><time>2026-04-04T16:54:56.999Z</time></trkpt><trkpt lat="36.9316509535904" lon="15.071028418771322"><ele>375.0</ele><time>2026-04-04T16:54:57.999Z</time></trkpt><trkpt lat="36.9315560759676" lon="15.070906683825196"><ele>375.0</ele><time>2026-04-04T16:54:58.999Z</time></trkpt><trkpt lat="36.931464549817434" lon="15.070782079151627"><ele>375.0</ele><time>2026-04-04T16:54:59.999Z</time></trkpt><trkpt lat="36.93137633151073" lon="15.07065595407057"><ele>375.0</ele><time>2026-04-04T16:55:00.999Z</time></trkpt><trkpt lat="36.93128810753404" lon="15.070527618112324"><ele>372.75</ele><time>2026-04-04T16:55:01.999Z</time></trkpt><trkpt lat="36.931202307449404" lon="15.070399038386924"><ele>370.5</ele><time>2026-04-04T16:55:02.999Z</time></trkpt><trkpt lat="36.93111619247837" lon="15.070268524104135"><ele>368.25</ele><time>2026-04-04T16:55:03.999Z</time></trkpt><trkpt lat="36.931036736890036" lon="15.070144007594259"><ele>366.0</ele><time>2026-04-04T16:55:04.999Z</time></trkpt><trkpt lat="36.930959773068274" lon="15.07001973390495"><ele>367.5</ele><time>2026-04-04T16:55:05.999Z</time></trkpt><trkpt lat="36.930886397397906" lon="15.069895401228734"><ele>369.0</ele><time>2026-04-04T16:55:06.999Z</time></trkpt><trkpt lat="36.93081784213602" lon="15.069770869955281"><ele>370.5</ele><time>2026-04-04T16:55:07.999Z</time></trkpt><trkpt lat="36.9307495460359" lon="15.069643261394068"><ele>372.0</ele><time>2026-04-04T16:55:08.999Z</time></trkpt><trkpt lat="36.930677193270334" lon="15.069521967729715"><ele>372.0</ele><time>2026-04-04T16:55:09.999Z</time></trkpt><trkpt lat="36.93059083861457" lon="15.069412686759712"><ele>372.0</ele><time>2026-04-04T16:55:10.999Z</time></trkpt><trkpt lat="36.93049423402032" lon="15.069314578746575"><ele>372.0</ele><time>2026-04-04T16:55:11.999Z</time></trkpt><trkpt lat="36.93039053924248" lon="15.069221135526226"><ele>372.0</ele><time>2026-04-04T16:55:12.999Z</time></trkpt><trkpt lat="36.930295656542256" lon="15.069136199851828"><ele>370.40000000000003</ele><time>2026-04-04T16:55:13.999Z</time></trkpt><trkpt lat="36.930215238779006" lon="15.069046683031459"><ele>368.8</ele><time>2026-04-04T16:55:14.999Z</time></trkpt><trkpt lat="36.93012839866607" lon="15.06895947007604"><ele>367.2</ele><time>2026-04-04T16:55:15.999Z</time></trkpt><trkpt lat="36.9300662656037" lon="15.068838555256857"><ele>365.6</ele><time>2026-04-04T16:55:16.999Z</time></trkpt><trkpt lat="36.929976635933016" lon="15.068752472561306"><ele>364.0</ele><time>2026-04-04T16:55:18Z</time></trkpt><trkpt lat="36.92986589306443" lon="15.0686832549212"><ele>364.0</ele><time>2026-04-04T16:55:19Z</time></trkpt><trkpt lat="36.92973837776203" lon="15.068621122775049"><ele>364.0</ele><time>2026-04-04T16:55:20Z</time></trkpt><trkpt lat="36.929607486771935" lon="15.068562303908184"><ele>364.0</ele><time>2026-04-04T16:55:21Z</time></trkpt><trkpt lat="36.92947639154144" lon="15.06851122136939"><ele>364.0</ele><time>2026-04-04T16:55:22Z</time></trkpt><trkpt lat="36.929348864980106" lon="15.068466926592775"><ele>361.0</ele><time>2026-04-04T16:55:23Z</time></trkpt><trkpt lat="36.92921972101178" lon="15.068414089038045"><ele>358.0</ele><time>2026-04-04T16:55:24Z</time></trkpt><trkpt lat="36.929091206206564" lon="15.06835720556826"><ele>355.0</ele><time>2026-04-04T16:55:25Z</time></trkpt><trkpt lat="36.92896821849245" lon="15.068301081773795"><ele>352.0</ele><time>2026-04-04T16:55:26Z</time></trkpt><trkpt lat="36.928840689812155" lon="15.068240820655149"><ele>350.0</ele><time>2026-04-04T16:55:27Z</time></trkpt><trkpt lat="36.92872332489943" lon="15.068185362219394"><ele>348.0</ele><time>2026-04-04T16:55:28Z</time></trkpt><trkpt lat="36.928608127678544" lon="15.068130928086363"><ele>346.0</ele><time>2026-04-04T16:55:29Z</time></trkpt><trkpt lat="36.92848855674626" lon="15.06807630093012"><ele>344.0</ele><time>2026-04-04T16:55:30Z</time></trkpt><trkpt lat="36.92836174162776" lon="15.068029705274705"><ele>343.25</ele><time>2026-04-04T16:55:31Z</time></trkpt><trkpt lat="36.928236348545674" lon="15.067987848956344"><ele>342.5</ele><time>2026-04-04T16:55:32Z</time></trkpt><trkpt lat="36.92811565614771" lon="15.067947561733702"><ele>341.75</ele><time>2026-04-04T16:55:33Z</time></trkpt><trkpt lat="36.928005445526814" lon="15.067910593775853"><ele>341.0</ele><time>2026-04-04T16:55:34Z</time></trkpt><trkpt lat="36.92788579812154" lon="15.067869666907974"><ele>341.0</ele><time>2026-04-04T16:55:35Z</time></trkpt><trkpt lat="36.927766040104856" lon="15.067847385717407"><ele>341.0</ele><time>2026-04-04T16:55:36Z</time></trkpt><trkpt lat="36.92766917565454" lon="15.067774208315937"><ele>341.0</ele><time>2026-04-04T16:55:37Z</time></trkpt><trkpt lat="36.92757473422019" lon="15.067715981049929"><ele>341.0</ele><time>2026-04-04T16:55:38Z</time></trkpt><trkpt lat="36.927483274302645" lon="15.067660366496936"><ele>341.0</ele><time>2026-04-04T16:55:39Z</time></trkpt><trkpt lat="36.92737938547351" lon="15.067620248568794"><ele>341.25</ele><time>2026-04-04T16:55:40Z</time></trkpt><trkpt lat="36.92728689838865" lon="15.067551540898604"><ele>341.5</ele><time>2026-04-04T16:55:41Z</time></trkpt><trkpt lat="36.92718287901473" lon="15.067500837099617"><ele>341.75</ele><time>2026-04-04T16:55:42Z</time></trkpt><trkpt lat="36.927073531731914" lon="15.067437579027423"><ele>342.0</ele><time>2026-04-04T16:55:43Z</time></trkpt><trkpt lat="36.92696207584493" lon="15.0673818693751"><ele>341.0</ele><time>2026-04-04T16:55:44Z</time></trkpt><trkpt lat="36.92683937963426" lon="15.067374828949719"><ele>340.0</ele><time>2026-04-04T16:55:45Z</time></trkpt><trkpt lat="36.92671701022388" lon="15.067376236395612"><ele>339.0</ele><time>2026-04-04T16:55:46Z</time></trkpt><trkpt lat="36.9266067563026" lon="15.06736223954746"><ele>338.0</ele><time>2026-04-04T16:55:47Z</time></trkpt><trkpt lat="36.92649703632387" lon="15.067359187053768"><ele>338.0</ele><time>2026-04-04T16:55:48Z</time></trkpt><trkpt lat="36.926393447044894" lon="15.067354595457891"><ele>338.0</ele><time>2026-04-04T16:55:48.999Z</time></trkpt><trkpt lat="36.926307636499835" lon="15.06735111665229"><ele>338.0</ele><time>2026-04-04T16:55:49.999Z</time></trkpt><trkpt lat="36.926234948789414" lon="15.067341691203561"><ele>338.0</ele><time>2026-04-04T16:55:50.999Z</time></trkpt><trkpt lat="36.92616656432267" lon="15.067328808537466"><ele>338.0</ele><time>2026-04-04T16:55:51.999Z</time></trkpt><trkpt lat="36.92610748226895" lon="15.06729064257034"><ele>338.0</ele><time>2026-04-04T16:55:54.999Z</time></trkpt><trkpt lat="36.925949403224095" lon="15.067241166649506"><ele>338.33333333333337</ele><time>2026-04-04T16:56:36Z</time></trkpt><trkpt lat="36.925888649489885" lon="15.06721369378515"><ele>338.6666666666667</ele><time>2026-04-04T16:56:37Z</time></trkpt><trkpt lat="36.925808106979524" lon="15.067205353736446"><ele>339.0</ele><time>2026-04-04T16:56:38Z</time></trkpt><trkpt lat="36.92571931933433" lon="15.067184769270645"><ele>339.3333333333333</ele><time>2026-04-04T16:56:39Z</time></trkpt><trkpt lat="36.92562071941186" lon="15.067207484836672"><ele>339.66666666666663</ele><time>2026-04-04T16:56:40Z</time></trkpt><trkpt lat="36.92552138117757" lon="15.067235477469085"><ele>340.0</ele><time>2026-04-04T16:56:41Z</time></trkpt><trkpt lat="36.92541209674096" lon="15.067266776447216"><ele>340.0</ele><time>2026-04-04T16:56:42Z</time></trkpt><trkpt lat="36.92530449276631" lon="15.06728863380942"><ele>340.0</ele><time>2026-04-04T16:56:43Z</time></trkpt><trkpt lat="36.92520141213168" lon="15.067291264698364"><ele>340.0</ele><time>2026-04-04T16:56:44Z</time></trkpt><trkpt lat="36.925096416807676" lon="15.067287800848412"><ele>340.0</ele><time>2026-04-04T16:56:45Z</time></trkpt><trkpt lat="36.924995910869505" lon="15.06727955247788"><ele>340.0</ele><time>2026-04-04T16:56:46Z</time></trkpt><trkpt lat="36.924891583860926" lon="15.067265228678078"><ele>338.75</ele><time>2026-04-04T16:56:47Z</time></trkpt><trkpt lat="36.92477864366412" lon="15.067248519844675"><ele>337.5</ele><time>2026-04-04T16:56:48Z</time></trkpt><trkpt lat="36.924664810133685" lon="15.067231678823891"><ele>336.25</ele><time>2026-04-04T16:56:49Z</time></trkpt><trkpt lat="36.924551066741444" lon="15.067265859432426"><ele>335.0</ele><time>2026-04-04T16:56:50Z</time></trkpt><trkpt lat="36.92443972201232" lon="15.067286582665599"><ele>335.0</ele><time>2026-04-04T16:56:51Z</time></trkpt><trkpt lat="36.92431561157433" lon="15.067290861336495"><ele>335.0</ele><time>2026-04-04T16:56:52Z</time></trkpt><trkpt lat="36.924190029050536" lon="15.067314930715616"><ele>335.0</ele><time>2026-04-04T16:56:53Z</time></trkpt><trkpt lat="36.92406839629194" lon="15.067338884472258"><ele>335.0</ele><time>2026-04-04T16:56:54Z</time></trkpt><trkpt lat="36.923945536250976" lon="15.067362377094513"><ele>333.0</ele><time>2026-04-04T16:56:55Z</time></trkpt><trkpt lat="36.92382706716845" lon="15.067382682869997"><ele>331.0</ele><time>2026-04-04T16:56:56Z</time></trkpt><trkpt lat="36.92371123786521" lon="15.06740152627836"><ele>329.0</ele><time>2026-04-04T16:56:57Z</time></trkpt><trkpt lat="36.923600059345496" lon="15.067418377408796"><ele>327.0</ele><time>2026-04-04T16:56:58Z</time></trkpt><trkpt lat="36.923488478196674" lon="15.067439134577368"><ele>324.8</ele><time>2026-04-04T16:56:59Z</time></trkpt><trkpt lat="36.9233837719448" lon="15.067463268548195"><ele>322.6</ele><time>2026-04-04T16:57:00Z</time></trkpt><trkpt lat="36.92328578350793" lon="15.067486013677856"><ele>320.40000000000003</ele><time>2026-04-04T16:57:01Z</time></trkpt><trkpt lat="36.92318937313203" lon="15.067509970005297"><ele>318.20000000000005</ele><time>2026-04-04T16:57:02Z</time></trkpt><trkpt lat="36.92308959003074" lon="15.067534765690981"><ele>316.0</ele><time>2026-04-04T16:57:03Z</time></trkpt><trkpt lat="36.92298865910809" lon="15.067559845291651"><ele>316.0</ele><time>2026-04-04T16:57:04Z</time></trkpt><trkpt lat="36.922890614598636" lon="15.06758116084225"><ele>316.0</ele><time>2026-04-04T16:57:05Z</time></trkpt><trkpt lat="36.92279052873735" lon="15.067599811796452"><ele>316.0</ele><time>2026-04-04T16:57:06Z</time></trkpt><trkpt lat="36.922699350450586" lon="15.067613916860289"><ele>316.0</ele><time>2026-04-04T16:57:07Z</time></trkpt><trkpt lat="36.922595135634026" lon="15.067627218367388"><ele>316.0</ele><time>2026-04-04T16:57:08Z</time></trkpt><trkpt lat="36.922501992154736" lon="15.06763596312661"><ele>315.2</ele><time>2026-04-04T16:57:09Z</time></trkpt><trkpt lat="36.922422293554675" lon="15.067641805286835"><ele>314.40000000000003</ele><time>2026-04-04T16:57:10Z</time></trkpt><trkpt lat="36.9223462928428" lon="15.067647376402698"><ele>313.6</ele><time>2026-04-04T16:57:12Z</time></trkpt><trkpt lat="36.92240687203884" lon="15.06750500034081"><ele>312.8</ele><time>2026-04-04T16:57:14Z</time></trkpt><trkpt lat="36.92239711546998" lon="15.067398117258223"><ele>312.0</ele><time>2026-04-04T16:57:15Z</time></trkpt><trkpt lat="36.92238562733787" lon="15.067275236171122"><ele>311.2</ele><time>2026-04-04T16:57:16Z</time></trkpt><trkpt lat="36.92237282788786" lon="15.067143606007006"><ele>310.4</ele><time>2026-04-04T16:57:17Z</time></trkpt><trkpt lat="36.92236000022579" lon="15.067011685355965"><ele>309.6</ele><time>2026-04-04T16:57:18Z</time></trkpt><trkpt lat="36.922348160150975" lon="15.066883023058814"><ele>308.8</ele><time>2026-04-04T16:57:19Z</time></trkpt><trkpt lat="36.9223364964829" lon="15.06675810430553"><ele>308.0</ele><time>2026-04-04T16:57:20Z</time></trkpt><trkpt lat="36.922324911547" lon="15.066634028762586"><ele>307.2</ele><time>2026-04-04T16:57:21Z</time></trkpt><trkpt lat="36.92230849019739" lon="15.066501424895346"><ele>306.4</ele><time>2026-04-04T16:57:22Z</time></trkpt><trkpt lat="36.92229114804874" lon="15.06637922597313"><ele>305.59999999999997</ele><time>2026-04-04T16:57:23Z</time></trkpt><trkpt lat="36.92227030093109" lon="15.066261993745842"><ele>304.8</ele><time>2026-04-04T16:57:24Z</time></trkpt><trkpt lat="36.92225839035105" lon="15.066155019411825"><ele>304.0</ele><time>2026-04-04T16:57:25Z</time></trkpt><trkpt lat="36.92225416628374" lon="15.066059829274913"><ele>304.0</ele><time>2026-04-04T16:57:26Z</time></trkpt><trkpt lat="36.922255351348014" lon="15.065967240513674"><ele>304.0</ele><time>2026-04-04T16:57:27Z</time></trkpt><trkpt lat="36.92223539786707" lon="15.065887622465787"><ele>304.0</ele><time>2026-04-04T16:57:28Z</time></trkpt><trkpt lat="36.922193084029836" lon="15.065740306523141"><ele>304.0</ele><time>2026-04-04T16:57:30Z</time></trkpt><trkpt lat="36.922144099140276" lon="15.065600970010424"><ele>304.0</ele><time>2026-04-04T16:57:32Z</time></trkpt><trkpt lat="36.9221812968741" lon="15.065519224792139"><ele>301.66666666666663</ele><time>2026-04-04T16:57:33Z</time></trkpt><trkpt lat="36.92223254941352" lon="15.06545866178846"><ele>299.3333333333333</ele><time>2026-04-04T16:57:34Z</time></trkpt><trkpt lat="36.922267758552074" lon="15.065366098750856"><ele>297.0</ele><time>2026-04-04T16:57:36Z</time></trkpt><trkpt lat="36.92221482060512" lon="15.065307492484873"><ele>294.6666666666667</ele><time>2026-04-04T16:57:42Z</time></trkpt><trkpt lat="36.92209210318751" lon="15.065328629758644"><ele>292.33333333333337</ele><time>2026-04-04T16:57:44Z</time></trkpt><trkpt lat="36.92202524599751" lon="15.065406658194206"><ele>290.0</ele><time>2026-04-04T16:57:45Z</time></trkpt><trkpt lat="36.92194402333069" lon="15.065471907002228"><ele>290.0</ele><time>2026-04-04T16:57:46Z</time></trkpt><trkpt lat="36.9218705804028" lon="15.065521922446965"><ele>290.0</ele><time>2026-04-04T16:57:47Z</time></trkpt><trkpt lat="36.92181266936618" lon="15.065594297688557"><ele>290.0</ele><time>2026-04-04T16:57:49Z</time></trkpt><trkpt lat="36.92178881485047" lon="15.065507247019855"><ele>290.0</ele><time>2026-04-04T16:57:51Z</time></trkpt><trkpt lat="36.92187133623936" lon="15.06545694240749"><ele>290.0</ele><time>2026-04-04T16:57:52.999Z</time></trkpt><trkpt lat="36.92194838015693" lon="15.065354271203622"><ele>290.0</ele><time>2026-04-04T16:57:54.999Z</time></trkpt><trkpt lat="36.921996253105355" lon="15.065301154736723"><ele>290.0</ele><time>2026-04-04T16:57:55.999Z</time></trkpt><trkpt lat="36.92206102470353" lon="15.065241781409583"><ele>290.0</ele><time>2026-04-04T16:57:56.999Z</time></trkpt><trkpt lat="36.922120995376034" lon="15.065165675778232"><ele>290.0</ele><time>2026-04-04T16:57:57.999Z</time></trkpt><trkpt lat="36.922186707313955" lon="15.06508345611109"><ele>290.0</ele><time>2026-04-04T16:57:58.999Z</time></trkpt><trkpt lat="36.92225641547917" lon="15.064996236409135"><ele>290.0</ele><time>2026-04-04T16:57:59.999Z</time></trkpt><trkpt lat="36.92231135429317" lon="15.064895603917126"><ele>289.83333333333337</ele><time>2026-04-04T16:58:00.999Z</time></trkpt><trkpt lat="36.922376620343435" lon="15.06481699427885"><ele>289.6666666666667</ele><time>2026-04-04T16:58:01.999Z</time></trkpt><trkpt lat="36.922435020786835" lon="15.064733720002094"><ele>289.5</ele><time>2026-04-04T16:58:02.999Z</time></trkpt><trkpt lat="36.92249910118238" lon="15.064678562824406"><ele>289.3333333333333</ele><time>2026-04-04T16:58:03.999Z</time></trkpt><trkpt lat="36.92254428028818" lon="15.064596332344413"><ele>289.16666666666663</ele><time>2026-04-04T16:58:04.999Z</time></trkpt><trkpt lat="36.922618218831296" lon="15.064556920079314"><ele>289.0</ele><time>2026-04-04T16:58:05.999Z</time></trkpt><trkpt lat="36.92269488647429" lon="15.064508852557942"><ele>289.0</ele><time>2026-04-04T16:58:06.999Z</time></trkpt><trkpt lat="36.92278473519964" lon="15.064452640902786"><ele>289.0</ele><time>2026-04-04T16:58:07.999Z</time></trkpt><trkpt lat="36.92286546364141" lon="15.064382254821258"><ele>289.0</ele><time>2026-04-04T16:58:08.999Z</time></trkpt><trkpt lat="36.92293998933632" lon="15.064338211991632"><ele>289.0</ele><time>2026-04-04T16:58:09.999Z</time></trkpt><trkpt lat="36.922998499973374" lon="15.06428257207182"><ele>289.0</ele><time>2026-04-04T16:58:10.999Z</time></trkpt><trkpt lat="36.923049351631704" lon="15.064220124358384"><ele>289.0</ele><time>2026-04-04T16:58:11.999Z</time></trkpt><trkpt lat="36.92308813093174" lon="15.064156392623484"><ele>289.5</ele><time>2026-04-04T16:58:12.999Z</time></trkpt><trkpt lat="36.92310400853605" lon="15.064034340809267"><ele>290.0</ele><time>2026-04-04T16:58:14.999Z</time></trkpt><trkpt lat="36.92305308545195" lon="15.063942805623325"><ele>290.5</ele><time>2026-04-04T16:58:16.999Z</time></trkpt><trkpt lat="36.92297152357277" lon="15.063926346977416"><ele>291.0</ele><time>2026-04-04T16:58:19.999Z</time></trkpt><trkpt lat="36.922873082994194" lon="15.063946975265164"><ele>291.5</ele><time>2026-04-04T16:58:21.999Z</time></trkpt><trkpt lat="36.9228064382297" lon="15.063967274586377"><ele>292.0</ele><time>2026-04-04T16:58:22.999Z</time></trkpt><trkpt lat="36.92273013226045" lon="15.063986149079735"><ele>292.0</ele><time>2026-04-04T16:58:23.999Z</time></trkpt><trkpt lat="36.92264171618733" lon="15.063989932181535"><ele>292.0</ele><time>2026-04-04T16:58:24.999Z</time></trkpt><trkpt lat="36.92255424312295" lon="15.063965064853646"><ele>292.0</ele><time>2026-04-04T16:58:25.999Z</time></trkpt><trkpt lat="36.92246251743488" lon="15.06393753067133"><ele>292.0</ele><time>2026-04-04T16:58:26.999Z</time></trkpt><trkpt lat="36.92237687051269" lon="15.063886678263176"><ele>292.0</ele><time>2026-04-04T16:58:27.999Z</time></trkpt><trkpt lat="36.92227728495276" lon="15.063905370614695"><ele>291.6</ele><time>2026-04-04T16:58:28.999Z</time></trkpt><trkpt lat="36.92218324283156" lon="15.063920717794659"><ele>291.2</ele><time>2026-04-04T16:58:29.999Z</time></trkpt><trkpt lat="36.92209142910684" lon="15.063946369516312"><ele>290.8</ele><time>2026-04-04T16:58:31Z</time></trkpt><trkpt lat="36.92199121633835" lon="15.063944570155586"><ele>290.4</ele><time>2026-04-04T16:58:32Z</time></trkpt><trkpt lat="36.921882037785394" lon="15.063962776420503"><ele>290.0</ele><time>2026-04-04T16:58:33Z</time></trkpt><trkpt lat="36.92177807059489" lon="15.06398020970506"><ele>290.0</ele><time>2026-04-04T16:58:34Z</time></trkpt><trkpt lat="36.92168817812593" lon="15.063992950945329"><ele>290.0</ele><time>2026-04-04T16:58:35Z</time></trkpt><trkpt lat="36.9215961788697" lon="15.063993538091971"><ele>290.0</ele><time>2026-04-04T16:58:37Z</time></trkpt><trkpt lat="36.92162447235651" lon="15.063909111390094"><ele>290.0</ele><time>2026-04-04T16:58:39Z</time></trkpt><trkpt lat="36.921722060137654" lon="15.063868840611109"><ele>290.0</ele><time>2026-04-04T16:58:41Z</time></trkpt><trkpt lat="36.92179358333297" lon="15.063846000545178"><ele>290.0</ele><time>2026-04-04T16:58:42Z</time></trkpt><trkpt lat="36.9218683551192" lon="15.063813461189117"><ele>290.0</ele><time>2026-04-04T16:58:43Z</time></trkpt><trkpt lat="36.921942463376894" lon="15.063784874542447"><ele>290.0</ele><time>2026-04-04T16:58:44Z</time></trkpt><trkpt lat="36.92202125983265" lon="15.063711903589633"><ele>290.0</ele><time>2026-04-04T16:58:46Z</time></trkpt><trkpt lat="36.92201596950705" lon="15.063622186861034"><ele>290.0</ele><time>2026-04-04T16:58:47Z</time></trkpt><trkpt lat="36.92195778544497" lon="15.063541938898657"><ele>290.0</ele><time>2026-04-04T16:58:48Z</time></trkpt><trkpt lat="36.92183693951257" lon="15.063584213876991"><ele>290.0</ele><time>2026-04-04T16:58:49Z</time></trkpt><trkpt lat="36.92176340203993" lon="15.063569204537053"><ele>290.0</ele><time>2026-04-04T16:58:50Z</time></trkpt><trkpt lat="36.921680238242715" lon="15.063565699452072"><ele>290.0</ele><time>2026-04-04T16:58:51Z</time></trkpt><trkpt lat="36.92159091956166" lon="15.063562122435878"><ele>290.0</ele><time>2026-04-04T16:58:52Z</time></trkpt><trkpt lat="36.92150258557734" lon="15.06355574267267"><ele>290.0</ele><time>2026-04-04T16:58:53Z</time></trkpt><trkpt lat="36.92142631647915" lon="15.063547527152759"><ele>290.0</ele><time>2026-04-04T16:58:54Z</time></trkpt><trkpt lat="36.92139387687212" lon="15.063435478190183"><ele>290.0</ele><time>2026-04-04T16:58:56Z</time></trkpt><trkpt lat="36.92137621156358" lon="15.06326447272769"><ele>290.0</ele><time>2026-04-04T16:58:58Z</time></trkpt><trkpt lat="36.92136209611893" lon="15.063156006676385"><ele>290.0</ele><time>2026-04-04T16:58:59Z</time></trkpt><trkpt lat="36.92132992584388" lon="15.06303488905503"><ele>290.0</ele><time>2026-04-04T16:59:00Z</time></trkpt><trkpt lat="36.921279640952676" lon="15.06292658366303"><ele>290.0</ele><time>2026-04-04T16:59:01Z</time></trkpt><trkpt lat="36.92122792233864" lon="15.062815011976843"><ele>290.0</ele><time>2026-04-04T16:59:02Z</time></trkpt><trkpt lat="36.92117394891943" lon="15.062698576018605"><ele>290.0</ele><time>2026-04-04T16:59:03Z</time></trkpt><trkpt lat="36.9211213636044" lon="15.062585134618965"><ele>290.0</ele><time>2026-04-04T16:59:04Z</time></trkpt><trkpt lat="36.921067501232365" lon="15.062468938198712"><ele>290.0</ele><time>2026-04-04T16:59:05Z</time></trkpt><trkpt lat="36.92101255900597" lon="15.062350412273299"><ele>290.0</ele><time>2026-04-04T16:59:06Z</time></trkpt><trkpt lat="36.920955324299904" lon="15.06222821956773"><ele>291.0</ele><time>2026-04-04T16:59:07Z</time></trkpt><trkpt lat="36.92089754857326" lon="15.062112294683727"><ele>292.0</ele><time>2026-04-04T16:59:08Z</time></trkpt><trkpt lat="36.9208416364519" lon="15.061997854785757"><ele>293.0</ele><time>2026-04-04T16:59:09Z</time></trkpt><trkpt lat="36.92079065538665" lon="15.061887281352405"><ele>294.0</ele><time>2026-04-04T16:59:10Z</time></trkpt><trkpt lat="36.92074759686298" lon="15.061795677749254"><ele>295.0</ele><time>2026-04-04T16:59:11Z</time></trkpt><trkpt lat="36.920702441366586" lon="15.06172533296557"><ele>295.0</ele><time>2026-04-04T16:59:12Z</time></trkpt><trkpt lat="36.92057643649077" lon="15.061702655194456"><ele>295.0</ele><time>2026-04-04T16:59:14Z</time></trkpt><trkpt lat="36.92052112596188" lon="15.061806689640145"><ele>295.0</ele><time>2026-04-04T16:59:15Z</time></trkpt><trkpt lat="36.9205144707894" lon="15.061903370305622"><ele>295.0</ele><time>2026-04-04T16:59:16Z</time></trkpt><trkpt lat="36.920564741638415" lon="15.06199998451754"><ele>295.0</ele><time>2026-04-04T16:59:17Z</time></trkpt><trkpt lat="36.92057887925714" lon="15.062109861127093"><ele>295.0</ele><time>2026-04-04T16:59:18Z</time></trkpt><trkpt lat="36.920620377758354" lon="15.062209130884385"><ele>295.0</ele><time>2026-04-04T16:59:19Z</time></trkpt><trkpt lat="36.92064953086487" lon="15.062325506546056"><ele>295.0</ele><time>2026-04-04T16:59:20Z</time></trkpt><trkpt lat="36.92068316072452" lon="15.062442162294676"><ele>295.0</ele><time>2026-04-04T16:59:21Z</time></trkpt><trkpt lat="36.92071040128181" lon="15.06255953114611"><ele>295.0</ele><time>2026-04-04T16:59:22Z</time></trkpt><trkpt lat="36.92073011615435" lon="15.062670118387572"><ele>296.3333333333333</ele><time>2026-04-04T16:59:23Z</time></trkpt><trkpt lat="36.920751107375644" lon="15.062780052146623"><ele>297.66666666666663</ele><time>2026-04-04T16:59:24Z</time></trkpt><trkpt lat="36.92077378180452" lon="15.062899089934962"><ele>299.0</ele><time>2026-04-04T16:59:25Z</time></trkpt><trkpt lat="36.920795104906034" lon="15.063010047866872"><ele>300.3333333333333</ele><time>2026-04-04T16:59:26Z</time></trkpt><trkpt lat="36.920789884195585" lon="15.063097303568261"><ele>301.6666666666667</ele><time>2026-04-04T16:59:27Z</time></trkpt><trkpt lat="36.920759558937654" lon="15.063195597815392"><ele>303.0</ele><time>2026-04-04T16:59:29Z</time></trkpt><trkpt lat="36.920693143715745" lon="15.063150617579051"><ele>303.0</ele><time>2026-04-04T16:59:30Z</time></trkpt><trkpt lat="36.920678029648364" lon="15.063033141116017"><ele>303.0</ele><time>2026-04-04T16:59:32Z</time></trkpt><trkpt lat="36.92066965896278" lon="15.06294703300464"><ele>303.0</ele><time>2026-04-04T16:59:33Z</time></trkpt><trkpt lat="36.9206398419265" lon="15.062851020019218"><ele>303.0</ele><time>2026-04-04T16:59:34Z</time></trkpt><trkpt lat="36.92059021570848" lon="15.062749372249359"><ele>303.0</ele><time>2026-04-04T16:59:35Z</time></trkpt><trkpt lat="36.92053350529226" lon="15.062646121386019"><ele>303.0</ele><time>2026-04-04T16:59:36Z</time></trkpt><trkpt lat="36.920470903238304" lon="15.062535890158419"><ele>301.4</ele><time>2026-04-04T16:59:37Z</time></trkpt><trkpt lat="36.92040348662434" lon="15.062437261404993"><ele>299.8</ele><time>2026-04-04T16:59:38Z</time></trkpt><trkpt lat="36.92032983395128" lon="15.06234192855238"><ele>298.2</ele><time>2026-04-04T16:59:39Z</time></trkpt><trkpt lat="36.92025084145071" lon="15.06225156103133"><ele>296.6</ele><time>2026-04-04T16:59:40Z</time></trkpt><trkpt lat="36.92016876823675" lon="15.062163107483295"><ele>295.0</ele><time>2026-04-04T16:59:41Z</time></trkpt><trkpt lat="36.92009050422637" lon="15.06207946998685"><ele>298.8333333333333</ele><time>2026-04-04T16:59:42Z</time></trkpt><trkpt lat="36.920015143262006" lon="15.061994965231227"><ele>302.66666666666663</ele><time>2026-04-04T16:59:43Z</time></trkpt><trkpt lat="36.919951782885015" lon="15.061934062075442"><ele>306.5</ele><time>2026-04-04T16:59:44Z</time></trkpt><trkpt lat="36.919887541017545" lon="15.061910957573122"><ele>310.3333333333333</ele><time>2026-04-04T16:59:45Z</time></trkpt><trkpt lat="36.91982193594057" lon="15.0619515632549"><ele>314.1666666666667</ele><time>2026-04-04T16:59:46Z</time></trkpt><trkpt lat="36.91979523259548" lon="15.061869999239132"><ele>318.0</ele><time>2026-04-04T16:59:48Z</time></trkpt><trkpt lat="36.91982253278497" lon="15.061767423954908"><ele>318.0</ele><time>2026-04-04T16:59:50Z</time></trkpt><trkpt lat="36.91973117532149" lon="15.061841576270261"><ele>318.0</ele><time>2026-04-04T16:59:51Z</time></trkpt><trkpt lat="36.91971709843535" lon="15.06202254763561"><ele>318.0</ele><time>2026-04-04T16:59:53Z</time></trkpt><trkpt lat="36.91959727705188" lon="15.062073988193127"><ele>318.0</ele><time>2026-04-04T16:59:55Z</time></trkpt><trkpt lat="36.91946916385749" lon="15.062113910065968"><ele>318.0</ele><time>2026-04-04T16:59:57Z</time></trkpt><trkpt lat="36.91927872226385" lon="15.061756209578622"><ele>318.0</ele><time>2026-04-04T16:59:58Z</time></trkpt><trkpt lat="36.91914780138067" lon="15.061725255021527"><ele>317.8333333333333</ele><time>2026-04-04T16:59:59.999Z</time></trkpt><trkpt lat="36.91906339353771" lon="15.06171476044121"><ele>317.6666666666667</ele><time>2026-04-04T17:00:00.999Z</time></trkpt><trkpt lat="36.918978147109655" lon="15.061721020491486"><ele>317.5</ele><time>2026-04-04T17:00:01.999Z</time></trkpt><trkpt lat="36.91888464083076" lon="15.061726539297947"><ele>317.33333333333337</ele><time>2026-04-04T17:00:02.999Z</time></trkpt><trkpt lat="36.91880562482593" lon="15.061730350836008"><ele>317.1666666666667</ele><time>2026-04-04T17:00:03.999Z</time></trkpt><trkpt lat="36.91871567697241" lon="15.061731515657225"><ele>317.0</ele><time>2026-04-04T17:00:04.999Z</time></trkpt><trkpt lat="36.918623146115685" lon="15.061732865450216"><ele>317.0</ele><time>2026-04-04T17:00:05.999Z</time></trkpt><trkpt lat="36.91855633717741" lon="15.061736860456518"><ele>317.0</ele><time>2026-04-04T17:00:06.999Z</time></trkpt><trkpt lat="36.918472828176256" lon="15.061744387414322"><ele>317.0</ele><time>2026-04-04T17:00:07.999Z</time></trkpt><trkpt lat="36.91838798751277" lon="15.061758342387211"><ele>317.0</ele><time>2026-04-04T17:00:08.999Z</time></trkpt><trkpt lat="36.91829566319256" lon="15.06176451259195"><ele>317.0</ele><time>2026-04-04T17:00:09.999Z</time></trkpt><trkpt lat="36.91820363327002" lon="15.061765381861665"><ele>317.0</ele><time>2026-04-04T17:00:10.999Z</time></trkpt><trkpt lat="36.918103928552114" lon="15.061769642321217"><ele>315.6</ele><time>2026-04-04T17:00:11.999Z</time></trkpt><trkpt lat="36.91800638330223" lon="15.061774696158924"><ele>314.2</ele><time>2026-04-04T17:00:12.999Z</time></trkpt><trkpt lat="36.917907911225406" lon="15.061779090657192"><ele>312.8</ele><time>2026-04-04T17:00:13.999Z</time></trkpt><trkpt lat="36.917826758978116" lon="15.061777410111537"><ele>311.4</ele><time>2026-04-04T17:00:14.999Z</time></trkpt><trkpt lat="36.91774189374896" lon="15.061785891529684"><ele>310.0</ele><time>2026-04-04T17:00:15.999Z</time></trkpt><trkpt lat="36.91765354473616" lon="15.061788904887756"><ele>309.66666666666663</ele><time>2026-04-04T17:00:16.999Z</time></trkpt><trkpt lat="36.91756061390217" lon="15.061791900573235"><ele>309.3333333333333</ele><time>2026-04-04T17:00:17.999Z</time></trkpt><trkpt lat="36.91746722841362" lon="15.06180068027112"><ele>309.0</ele><time>2026-04-04T17:00:18.999Z</time></trkpt><trkpt lat="36.917381478624044" lon="15.061802724252804"><ele>308.6666666666667</ele><time>2026-04-04T17:00:19.999Z</time></trkpt><trkpt lat="36.91729894625359" lon="15.061805169555425"><ele>308.33333333333337</ele><time>2026-04-04T17:00:20.999Z</time></trkpt><trkpt lat="36.91721681553044" lon="15.061818423699597"><ele>308.0</ele><time>2026-04-04T17:00:21.999Z</time></trkpt><trkpt lat="36.91712826092044" lon="15.061791976972302"><ele>308.0</ele><time>2026-04-04T17:00:22.999Z</time></trkpt><trkpt lat="36.917039497826686" lon="15.061790951762983"><ele>308.0</ele><time>2026-04-04T17:00:23.999Z</time></trkpt><trkpt lat="36.91695156012404" lon="15.061781193682231"><ele>308.0</ele><time>2026-04-04T17:00:24.999Z</time></trkpt><trkpt lat="36.91686713051992" lon="15.061760491325048"><ele>308.0</ele><time>2026-04-04T17:00:25.999Z</time></trkpt><trkpt lat="36.916777197202656" lon="15.061733655309693"><ele>308.0</ele><time>2026-04-04T17:00:26.999Z</time></trkpt><trkpt lat="36.91669546294027" lon="15.061703426326991"><ele>308.0</ele><time>2026-04-04T17:00:27.999Z</time></trkpt><trkpt lat="36.91662440904968" lon="15.061666719443146"><ele>307.57142857142856</ele><time>2026-04-04T17:00:28.999Z</time></trkpt><trkpt lat="36.91656092871203" lon="15.061622864536522"><ele>307.1428571428571</ele><time>2026-04-04T17:00:29.999Z</time></trkpt><trkpt lat="36.91650591208026" lon="15.061566608530416"><ele>306.7142857142857</ele><time>2026-04-04T17:00:30.999Z</time></trkpt><trkpt lat="36.91645513425178" lon="15.061501051944116"><ele>306.2857142857143</ele><time>2026-04-04T17:00:31.999Z</time></trkpt><trkpt lat="36.91640761027302" lon="15.061433211928799"><ele>305.85714285714283</ele><time>2026-04-04T17:00:32.999Z</time></trkpt><trkpt lat="36.916365416383755" lon="15.061360146842311"><ele>305.42857142857144</ele><time>2026-04-04T17:00:33.999Z</time></trkpt><trkpt lat="36.91632086017252" lon="15.061278256745933"><ele>305.0</ele><time>2026-04-04T17:00:34.999Z</time></trkpt><trkpt lat="36.916276456071664" lon="15.061197093784227"><ele>306.5</ele><time>2026-04-04T17:00:35.999Z</time></trkpt><trkpt lat="36.9162319886165" lon="15.061121483608064"><ele>308.0</ele><time>2026-04-04T17:00:37Z</time></trkpt><trkpt lat="36.91618712155823" lon="15.061050459499869"><ele>309.5</ele><time>2026-04-04T17:00:38Z</time></trkpt><trkpt lat="36.91613636232056" lon="15.060976300341075"><ele>311.0</ele><time>2026-04-04T17:00:39Z</time></trkpt><trkpt lat="36.91607462302789" lon="15.060903556586425"><ele>312.5</ele><time>2026-04-04T17:00:40Z</time></trkpt><trkpt lat="36.91600761036033" lon="15.06083955346712"><ele>314.0</ele><time>2026-04-04T17:00:41Z</time></trkpt><trkpt lat="36.91593644647865" lon="15.060784310218445"><ele>313.6666666666667</ele><time>2026-04-04T17:00:42Z</time></trkpt><trkpt lat="36.91585362966357" lon="15.060740500762101"><ele>313.33333333333337</ele><time>2026-04-04T17:00:43Z</time></trkpt><trkpt lat="36.91576944770656" lon="15.060728992754088"><ele>313.0</ele><time>2026-04-04T17:00:44Z</time></trkpt><trkpt lat="36.91569201202618" lon="15.060720101394567"><ele>312.6666666666667</ele><time>2026-04-04T17:00:45Z</time></trkpt><trkpt lat="36.91560601741045" lon="15.060712901591518"><ele>312.3333333333333</ele><time>2026-04-04T17:00:46Z</time></trkpt><trkpt lat="36.9155181872834" lon="15.060745111757667"><ele>312.0</ele><time>2026-04-04T17:00:47Z</time></trkpt><trkpt lat="36.91543609386771" lon="15.0607409852205"><ele>312.0</ele><time>2026-04-04T17:00:48Z</time></trkpt><trkpt lat="36.915360494334024" lon="15.060753180015237"><ele>312.0</ele><time>2026-04-04T17:00:49Z</time></trkpt><trkpt lat="36.91528690775779" lon="15.06076264065525"><ele>312.0</ele><time>2026-04-04T17:00:50Z</time></trkpt><trkpt lat="36.915205705690205" lon="15.060772798800565"><ele>312.0</ele><time>2026-04-04T17:00:51Z</time></trkpt><trkpt lat="36.91512093929403" lon="15.060783402833211"><ele>312.0</ele><time>2026-04-04T17:00:52Z</time></trkpt><trkpt lat="36.91502828457925" lon="15.06079053956706"><ele>312.0</ele><time>2026-04-04T17:00:53Z</time></trkpt><trkpt lat="36.91493742536788" lon="15.060775459713545"><ele>310.6</ele><time>2026-04-04T17:00:54Z</time></trkpt><trkpt lat="36.91484686659873" lon="15.06074911641135"><ele>309.2</ele><time>2026-04-04T17:00:55Z</time></trkpt><trkpt lat="36.91477202466745" lon="15.06069898685336"><ele>307.8</ele><time>2026-04-04T17:00:56Z</time></trkpt><trkpt lat="36.9146905418053" lon="15.060650698869607"><ele>306.4</ele><time>2026-04-04T17:00:57Z</time></trkpt><trkpt lat="36.91460265002632" lon="15.060598738408688"><ele>305.0</ele><time>2026-04-04T17:00:58Z</time></trkpt><trkpt lat="36.91449686593303" lon="15.060553388898596"><ele>305.0</ele><time>2026-04-04T17:00:59Z</time></trkpt><trkpt lat="36.914393066182356" lon="15.060519668962451"><ele>305.0</ele><time>2026-04-04T17:01:00Z</time></trkpt><trkpt lat="36.914287442916454" lon="15.06047210726964"><ele>305.0</ele><time>2026-04-04T17:01:01Z</time></trkpt><trkpt lat="36.91417378694583" lon="15.060413652423247"><ele>305.0</ele><time>2026-04-04T17:01:02Z</time></trkpt><trkpt lat="36.91406059673118" lon="15.060351602999953"><ele>300.25</ele><time>2026-04-04T17:01:03Z</time></trkpt><trkpt lat="36.9139741188065" lon="15.060264346574547"><ele>295.5</ele><time>2026-04-04T17:01:04Z</time></trkpt><trkpt lat="36.91388316085988" lon="15.060179702198502"><ele>290.75</ele><time>2026-04-04T17:01:05Z</time></trkpt><trkpt lat="36.91379530145797" lon="15.060089577162957"><ele>286.0</ele><time>2026-04-04T17:01:06Z</time></trkpt><trkpt lat="36.91370518394005" lon="15.05999662377281"><ele>284.75</ele><time>2026-04-04T17:01:07Z</time></trkpt><trkpt lat="36.91361354208581" lon="15.059904714673362"><ele>283.5</ele><time>2026-04-04T17:01:08Z</time></trkpt><trkpt lat="36.913513067219846" lon="15.059819120103448"><ele>282.25</ele><time>2026-04-04T17:01:09Z</time></trkpt><trkpt lat="36.913423217814056" lon="15.059742843729243"><ele>281.0</ele><time>2026-04-04T17:01:10Z</time></trkpt><trkpt lat="36.91333891141351" lon="15.059655828435357"><ele>277.0</ele><time>2026-04-04T17:01:11Z</time></trkpt><trkpt lat="36.91324485396684" lon="15.059570663147545"><ele>273.0</ele><time>2026-04-04T17:01:12Z</time></trkpt><trkpt lat="36.91314733196243" lon="15.059490447187388"><ele>269.0</ele><time>2026-04-04T17:01:13Z</time></trkpt><trkpt lat="36.91304759532988" lon="15.059416588326823"><ele>265.0</ele><time>2026-04-04T17:01:14Z</time></trkpt><trkpt lat="36.912948636168295" lon="15.059348171405206"><ele>265.0</ele><time>2026-04-04T17:01:15Z</time></trkpt><trkpt lat="36.91285226279211" lon="15.059281817161194"><ele>265.0</ele><time>2026-04-04T17:01:16Z</time></trkpt><trkpt lat="36.91274900405166" lon="15.05922873507099"><ele>265.0</ele><time>2026-04-04T17:01:17Z</time></trkpt><trkpt lat="36.91265580896234" lon="15.059192169164547"><ele>265.0</ele><time>2026-04-04T17:01:18Z</time></trkpt><trkpt lat="36.9125750878436" lon="15.05916231457211"><ele>265.0</ele><time>2026-04-04T17:01:19Z</time></trkpt><trkpt lat="36.91250965066238" lon="15.059131022474862"><ele>262.0</ele><time>2026-04-04T17:01:20Z</time></trkpt><trkpt lat="36.912472728497654" lon="15.059046767767015"><ele>259.0</ele><time>2026-04-04T17:01:21Z</time></trkpt><trkpt lat="36.91240745754371" lon="15.058973403992903"><ele>256.0</ele><time>2026-04-04T17:01:22Z</time></trkpt><trkpt lat="36.91233457787942" lon="15.058907034027447"><ele>253.0</ele><time>2026-04-04T17:01:23Z</time></trkpt><trkpt lat="36.912260583099616" lon="15.058840799818661"><ele>249.99999999999997</ele><time>2026-04-04T17:01:24Z</time></trkpt><trkpt lat="36.91218099763597" lon="15.058768542160504"><ele>247.0</ele><time>2026-04-04T17:01:25Z</time></trkpt><trkpt lat="36.912098422148134" lon="15.058689288670783"><ele>247.0</ele><time>2026-04-04T17:01:26Z</time></trkpt><trkpt lat="36.912009525742505" lon="15.058606655535385"><ele>247.0</ele><time>2026-04-04T17:01:27Z</time></trkpt><trkpt lat="36.91191766615729" lon="15.058528289633703"><ele>247.0</ele><time>2026-04-04T17:01:28Z</time></trkpt><trkpt lat="36.91182854316823" lon="15.058456419173186"><ele>247.0</ele><time>2026-04-04T17:01:29Z</time></trkpt><trkpt lat="36.91174644066126" lon="15.058394372020285"><ele>247.0</ele><time>2026-04-04T17:01:30Z</time></trkpt><trkpt lat="36.911666585422694" lon="15.058334128739267"><ele>246.0</ele><time>2026-04-04T17:01:31Z</time></trkpt><trkpt lat="36.9115960641127" lon="15.058267008077754"><ele>245.0</ele><time>2026-04-04T17:01:32Z</time></trkpt><trkpt lat="36.91153355461703" lon="15.058177118449937"><ele>244.0</ele><time>2026-04-04T17:01:33Z</time></trkpt><trkpt lat="36.91146953332715" lon="15.058073535774117"><ele>243.0</ele><time>2026-04-04T17:01:34Z</time></trkpt><trkpt lat="36.91140239552821" lon="15.057970361130618"><ele>242.0</ele><time>2026-04-04T17:01:35Z</time></trkpt><trkpt lat="36.9113423780955" lon="15.057880050548523"><ele>242.00000000000003</ele><time>2026-04-04T17:01:36Z</time></trkpt><trkpt lat="36.911284176528326" lon="15.057804885158896"><ele>242.0</ele><time>2026-04-04T17:01:37Z</time></trkpt><trkpt lat="36.911218086412305" lon="15.057762401238236"><ele>242.0</ele><time>2026-04-04T17:01:38Z</time></trkpt><trkpt lat="36.9111477358372" lon="15.05776972008218"><ele>242.0</ele><time>2026-04-04T17:01:39Z</time></trkpt><trkpt lat="36.91104601172645" lon="15.057726621901564"><ele>242.00000000000003</ele><time>2026-04-04T17:01:41Z</time></trkpt><trkpt lat="36.9109787201563" lon="15.057704862459758"><ele>242.0</ele><time>2026-04-04T17:01:44Z</time></trkpt><trkpt lat="36.91076063469289" lon="15.05772716670708"><ele>239.8</ele><time>2026-04-04T17:08:22.999Z</time></trkpt><trkpt lat="36.9106931493145" lon="15.057693649071078"><ele>237.6</ele><time>2026-04-04T17:08:23.999Z</time></trkpt><trkpt lat="36.910609332682455" lon="15.057661994029326"><ele>235.40000000000003</ele><time>2026-04-04T17:08:24.999Z</time></trkpt><trkpt lat="36.91054051032651" lon="15.05752315144757"><ele>233.20000000000002</ele><time>2026-04-04T17:08:25.999Z</time></trkpt><trkpt lat="36.91043703512914" lon="15.057491191570268"><ele>231.0</ele><time>2026-04-04T17:08:26.999Z</time></trkpt><trkpt lat="36.910331791510174" lon="15.057457058659882"><ele>228.0</ele><time>2026-04-04T17:08:27.999Z</time></trkpt><trkpt lat="36.91023865205799" lon="15.057407649648104"><ele>225.00000000000003</ele><time>2026-04-04T17:08:28.999Z</time></trkpt><trkpt lat="36.91014596136569" lon="15.057339977915387"><ele>222.00000000000003</ele><time>2026-04-04T17:08:29.999Z</time></trkpt><trkpt lat="36.91005649246881" lon="15.057277386856407"><ele>219.0</ele><time>2026-04-04T17:08:30.999Z</time></trkpt><trkpt lat="36.909971403067544" lon="15.057222638043903"><ele>216.0</ele><time>2026-04-04T17:08:31.999Z</time></trkpt><trkpt lat="36.90989008833879" lon="15.057174847583749"><ele>214.60000000000002</ele><time>2026-04-04T17:08:32.999Z</time></trkpt><trkpt lat="36.90980819755598" lon="15.057135387275725"><ele>213.20000000000002</ele><time>2026-04-04T17:08:33.999Z</time></trkpt><trkpt lat="36.90971790375363" lon="15.057104575690278"><ele>211.8</ele><time>2026-04-04T17:08:34.999Z</time></trkpt><trkpt lat="36.90962359681104" lon="15.057087241850503"><ele>210.39999999999998</ele><time>2026-04-04T17:08:35.999Z</time></trkpt><trkpt lat="36.90953436126334" lon="15.05708210149728"><ele>209.0</ele><time>2026-04-04T17:08:36.999Z</time></trkpt><trkpt lat="36.9094400275142" lon="15.057084440377832"><ele>209.00000000000003</ele><time>2026-04-04T17:08:37.999Z</time></trkpt><trkpt lat="36.909355486994386" lon="15.057087400930971"><ele>209.0</ele><time>2026-04-04T17:08:38.999Z</time></trkpt><trkpt lat="36.90927309387946" lon="15.057092039869966"><ele>209.0</ele><time>2026-04-04T17:08:39.999Z</time></trkpt><trkpt lat="36.90919018018254" lon="15.057095919476254"><ele>209.0</ele><time>2026-04-04T17:08:40.999Z</time></trkpt><trkpt lat="36.90910349310612" lon="15.057101561769606"><ele>209.00000000000003</ele><time>2026-04-04T17:08:41.999Z</time></trkpt><trkpt lat="36.909011576246385" lon="15.057118801543453"><ele>209.0</ele><time>2026-04-04T17:08:42.999Z</time></trkpt><trkpt lat="36.90891959751189" lon="15.057147832206283"><ele>209.0</ele><time>2026-04-04T17:08:43.999Z</time></trkpt><trkpt lat="36.90882991122105" lon="15.057181770281437"><ele>209.0</ele><time>2026-04-04T17:08:44.999Z</time></trkpt><trkpt lat="36.908732681395755" lon="15.057220712248"><ele>209.0</ele><time>2026-04-04T17:08:45.999Z</time></trkpt><trkpt lat="36.90863732169713" lon="15.057264609411488"><ele>209.0</ele><time>2026-04-04T17:08:46.999Z</time></trkpt><trkpt lat="36.90853966800091" lon="15.057318197232755"><ele>209.0</ele><time>2026-04-04T17:08:47.999Z</time></trkpt><trkpt lat="36.90843546391465" lon="15.057373025294195"><ele>209.25</ele><time>2026-04-04T17:08:48.999Z</time></trkpt><trkpt lat="36.9083203931759" lon="15.057428792744796"><ele>209.5</ele><time>2026-04-04T17:08:49.999Z</time></trkpt><trkpt lat="36.90821319367202" lon="15.057479382581874"><ele>209.75</ele><time>2026-04-04T17:08:50.999Z</time></trkpt><trkpt lat="36.90810835294868" lon="15.057527976022076"><ele>210.0</ele><time>2026-04-04T17:08:51.999Z</time></trkpt><trkpt lat="36.90799873345137" lon="15.057578785562367"><ele>210.0</ele><time>2026-04-04T17:08:52.999Z</time></trkpt><trkpt lat="36.907883110456574" lon="15.057632376638876"><ele>210.0</ele><time>2026-04-04T17:08:53.999Z</time></trkpt><trkpt lat="36.90776759271134" lon="15.057690860461587"><ele>210.0</ele><time>2026-04-04T17:08:54.999Z</time></trkpt><trkpt lat="36.90765075277935" lon="15.05775792779679"><ele>210.0</ele><time>2026-04-04T17:08:55.999Z</time></trkpt><trkpt lat="36.90752949326229" lon="15.0578275468971"><ele>208.4</ele><time>2026-04-04T17:08:56.999Z</time></trkpt><trkpt lat="36.90741697615626" lon="15.057908375042725"><ele>206.8</ele><time>2026-04-04T17:08:57.999Z</time></trkpt><trkpt lat="36.907320614986666" lon="15.057956758288714"><ele>205.2</ele><time>2026-04-04T17:08:59Z</time></trkpt><trkpt lat="36.907257505587324" lon="15.057990414392693"><ele>203.6</ele><time>2026-04-04T17:09:00Z</time></trkpt><trkpt lat="36.90713169529798" lon="15.05802269754197"><ele>202.0</ele><time>2026-04-04T17:09:02Z</time></trkpt><trkpt lat="36.90705316110595" lon="15.058047929811861"><ele>202.0</ele><time>2026-04-04T17:09:03Z</time></trkpt><trkpt lat="36.906950549840914" lon="15.058074838118213"><ele>202.0</ele><time>2026-04-04T17:09:04Z</time></trkpt><trkpt lat="36.9068413193878" lon="15.058101608811812"><ele>202.0</ele><time>2026-04-04T17:09:05Z</time></trkpt><trkpt lat="36.90670770208721" lon="15.0581360970232"><ele>202.0</ele><time>2026-04-04T17:09:06Z</time></trkpt><trkpt lat="36.9065832873818" lon="15.058172873284088"><ele>199.5</ele><time>2026-04-04T17:09:07Z</time></trkpt><trkpt lat="36.906461776327376" lon="15.058210506822565"><ele>197.0</ele><time>2026-04-04T17:09:08Z</time></trkpt><trkpt lat="36.906343122771986" lon="15.058249722110705"><ele>194.5</ele><time>2026-04-04T17:09:09Z</time></trkpt><trkpt lat="36.9062222661866" lon="15.058295262935443"><ele>192.0</ele><time>2026-04-04T17:09:10Z</time></trkpt><trkpt lat="36.90610272290624" lon="15.058340851074536"><ele>192.0</ele><time>2026-04-04T17:09:11Z</time></trkpt><trkpt lat="36.90598061386309" lon="15.058387133757012"><ele>192.0</ele><time>2026-04-04T17:09:12Z</time></trkpt><trkpt lat="36.90586492750693" lon="15.05843578796545"><ele>192.0</ele><time>2026-04-04T17:09:13Z</time></trkpt><trkpt lat="36.90576239390558" lon="15.058496870469895"><ele>192.0</ele><time>2026-04-04T17:09:14Z</time></trkpt><trkpt lat="36.905673077573084" lon="15.058584387835916"><ele>188.75</ele><time>2026-04-04T17:09:15Z</time></trkpt><trkpt lat="36.90557095348986" lon="15.058648469266695"><ele>185.5</ele><time>2026-04-04T17:09:16Z</time></trkpt><trkpt lat="36.90547641301678" lon="15.058726788178788"><ele>182.25</ele><time>2026-04-04T17:09:17Z</time></trkpt><trkpt lat="36.9053803450841" lon="15.05880373311074"><ele>179.0</ele><time>2026-04-04T17:09:18Z</time></trkpt><trkpt lat="36.905285434938705" lon="15.05888204393462"><ele>179.0</ele><time>2026-04-04T17:09:19Z</time></trkpt><trkpt lat="36.90519302807552" lon="15.058966656166046"><ele>179.0</ele><time>2026-04-04T17:09:20Z</time></trkpt><trkpt lat="36.905100845704276" lon="15.059059003417643"><ele>179.0</ele><time>2026-04-04T17:09:21Z</time></trkpt><trkpt lat="36.90501525564209" lon="15.059152734106881"><ele>179.0</ele><time>2026-04-04T17:09:22Z</time></trkpt><trkpt lat="36.904926596900616" lon="15.059239637241138"><ele>178.6</ele><time>2026-04-04T17:09:23Z</time></trkpt><trkpt lat="36.90483639881199" lon="15.059323937125866"><ele>178.2</ele><time>2026-04-04T17:09:24Z</time></trkpt><trkpt lat="36.90474671628164" lon="15.059404668256274"><ele>177.79999999999998</ele><time>2026-04-04T17:09:25Z</time></trkpt><trkpt lat="36.90465887144162" lon="15.059475145071389"><ele>177.39999999999998</ele><time>2026-04-04T17:09:26Z</time></trkpt><trkpt lat="36.904570800428125" lon="15.05953495979637"><ele>177.0</ele><time>2026-04-04T17:09:27Z</time></trkpt><trkpt lat="36.904480411749304" lon="15.059597384625118"><ele>177.0</ele><time>2026-04-04T17:09:28Z</time></trkpt><trkpt lat="36.904390228289074" lon="15.059661697346435"><ele>177.0</ele><time>2026-04-04T17:09:29Z</time></trkpt><trkpt lat="36.90429336871344" lon="15.05973016598221"><ele>177.0</ele><time>2026-04-04T17:09:30Z</time></trkpt><trkpt lat="36.90418665371224" lon="15.059802133725182"><ele>177.0</ele><time>2026-04-04T17:09:31Z</time></trkpt><trkpt lat="36.90407033957259" lon="15.059876463056488"><ele>176.75</ele><time>2026-04-04T17:09:32Z</time></trkpt><trkpt lat="36.90395556113335" lon="15.059945191594814"><ele>176.5</ele><time>2026-04-04T17:09:33Z</time></trkpt><trkpt lat="36.90384351242321" lon="15.060010390257967"><ele>176.25</ele><time>2026-04-04T17:09:34Z</time></trkpt><trkpt lat="36.90373543335751" lon="15.060077106917776"><ele>176.0</ele><time>2026-04-04T17:09:35Z</time></trkpt><trkpt lat="36.90362518035655" lon="15.060128796605298"><ele>176.0</ele><time>2026-04-04T17:09:36Z</time></trkpt><trkpt lat="36.90352585672505" lon="15.060161269896584"><ele>176.0</ele><time>2026-04-04T17:09:37Z</time></trkpt><trkpt lat="36.903418208748676" lon="15.060157025285358"><ele>176.0</ele><time>2026-04-04T17:09:38Z</time></trkpt><trkpt lat="36.903309588695834" lon="15.060159475351869"><ele>176.0</ele><time>2026-04-04T17:09:39Z</time></trkpt><trkpt lat="36.90320320724082" lon="15.06016286250653"><ele>176.0</ele><time>2026-04-04T17:09:40Z</time></trkpt><trkpt lat="36.903103774096934" lon="15.060192567387688"><ele>173.60000000000002</ele><time>2026-04-04T17:09:41Z</time></trkpt><trkpt lat="36.90300746273128" lon="15.060256508862423"><ele>171.2</ele><time>2026-04-04T17:09:42Z</time></trkpt><trkpt lat="36.902910553913024" lon="15.060314932087277"><ele>168.8</ele><time>2026-04-04T17:09:43Z</time></trkpt><trkpt lat="36.90281690525991" lon="15.06039410554278"><ele>166.39999999999998</ele><time>2026-04-04T17:09:44Z</time></trkpt><trkpt lat="36.90273464012887" lon="15.060456907905728"><ele>164.0</ele><time>2026-04-04T17:09:45Z</time></trkpt><trkpt lat="36.90264705353068" lon="15.060492884027331"><ele>161.2</ele><time>2026-04-04T17:09:46Z</time></trkpt><trkpt lat="36.90256327723515" lon="15.060489389371734"><ele>158.39999999999998</ele><time>2026-04-04T17:09:47Z</time></trkpt><trkpt lat="36.902469160440006" lon="15.06046630148829"><ele>155.6</ele><time>2026-04-04T17:09:48Z</time></trkpt><trkpt lat="36.90237184186371" lon="15.060463200680854"><ele>152.8</ele><time>2026-04-04T17:09:49Z</time></trkpt><trkpt lat="36.902261553587884" lon="15.060493590489928"><ele>150.0</ele><time>2026-04-04T17:09:50Z</time></trkpt><trkpt lat="36.90215747856892" lon="15.060524453697784"><ele>150.0</ele><time>2026-04-04T17:09:51Z</time></trkpt><trkpt lat="36.90205851149603" lon="15.060570994431048"><ele>150.0</ele><time>2026-04-04T17:09:52Z</time></trkpt><trkpt lat="36.901969905540234" lon="15.060626429575183"><ele>150.0</ele><time>2026-04-04T17:09:53Z</time></trkpt><trkpt lat="36.901880249821744" lon="15.060679095169709"><ele>150.0</ele><time>2026-04-04T17:09:54Z</time></trkpt><trkpt lat="36.90178868386093" lon="15.060731427009323"><ele>150.0</ele><time>2026-04-04T17:09:55Z</time></trkpt><trkpt lat="36.90169887100386" lon="15.060775788582058"><ele>151.5</ele><time>2026-04-04T17:09:56Z</time></trkpt><trkpt lat="36.90160124117619" lon="15.060805104678513"><ele>153.0</ele><time>2026-04-04T17:09:57Z</time></trkpt><trkpt lat="36.90152017390717" lon="15.060821736887835"><ele>154.5</ele><time>2026-04-04T17:09:58Z</time></trkpt><trkpt lat="36.90145278507947" lon="15.060831923510323"><ele>156.0</ele><time>2026-04-04T17:10:00Z</time></trkpt><trkpt lat="36.90134241475733" lon="15.060852417537374"><ele>157.5</ele><time>2026-04-04T17:10:06Z</time></trkpt><trkpt lat="36.90126912782424" lon="15.06086724075261"><ele>159.0</ele><time>2026-04-04T17:10:07Z</time></trkpt><trkpt lat="36.90119066454886" lon="15.060883110933709"><ele>159.0</ele><time>2026-04-04T17:10:08Z</time></trkpt><trkpt lat="36.90110596749915" lon="15.060900242000969"><ele>159.0</ele><time>2026-04-04T17:10:09Z</time></trkpt><trkpt lat="36.90102832555706" lon="15.060906524192884"><ele>159.0</ele><time>2026-04-04T17:10:10Z</time></trkpt><trkpt lat="36.90094896167596" lon="15.060910260606288"><ele>159.0</ele><time>2026-04-04T17:10:11Z</time></trkpt><trkpt lat="36.90087103356864" lon="15.060912947776346"><ele>159.0</ele><time>2026-04-04T17:10:12Z</time></trkpt><trkpt lat="36.90079028045695" lon="15.06091525034598"><ele>159.0</ele><time>2026-04-04T17:10:13Z</time></trkpt><trkpt lat="36.90070978225168" lon="15.060917275928803"><ele>157.0</ele><time>2026-04-04T17:10:14Z</time></trkpt><trkpt lat="36.900628674741434" lon="15.060913741473074"><ele>155.0</ele><time>2026-04-04T17:10:15Z</time></trkpt><trkpt lat="36.900540976493346" lon="15.060911354516248"><ele>153.0</ele><time>2026-04-04T17:10:16Z</time></trkpt><trkpt lat="36.900469969043826" lon="15.060906758938842"><ele>151.0</ele><time>2026-04-04T17:10:17Z</time></trkpt><trkpt lat="36.90037018826475" lon="15.060890390236317"><ele>149.0</ele><time>2026-04-04T17:10:19Z</time></trkpt><trkpt lat="36.90030410590535" lon="15.06087447111561"><ele>147.0</ele><time>2026-04-04T17:10:22Z</time></trkpt><trkpt lat="36.90022943866187" lon="15.060897326590082"><ele>147.0</ele><time>2026-04-04T17:10:24.999Z</time></trkpt><trkpt lat="36.90013509790977" lon="15.061027777069796"><ele>147.0</ele><time>2026-04-04T17:11:28Z</time></trkpt><trkpt lat="36.9000770633433" lon="15.061068332182888"><ele>147.0</ele><time>2026-04-04T17:11:29Z</time></trkpt><trkpt lat="36.90001164658048" lon="15.0611214588819"><ele>147.0</ele><time>2026-04-04T17:11:30Z</time></trkpt><trkpt lat="36.89992546963053" lon="15.061168856327075"><ele>147.0</ele><time>2026-04-04T17:11:31Z</time></trkpt><trkpt lat="36.89985322684921" lon="15.06127411353519"><ele>144.75</ele><time>2026-04-04T17:11:32Z</time></trkpt><trkpt lat="36.89977105724863" lon="15.061366466257946"><ele>142.5</ele><time>2026-04-04T17:11:33Z</time></trkpt><trkpt lat="36.89968579858519" lon="15.061470463847327"><ele>140.25</ele><time>2026-04-04T17:11:34Z</time></trkpt><trkpt lat="36.89959605463506" lon="15.061578761336369"><ele>138.0</ele><time>2026-04-04T17:11:35Z</time></trkpt><trkpt lat="36.89949276244691" lon="15.06168461958179"><ele>137.5</ele><time>2026-04-04T17:11:36Z</time></trkpt><trkpt lat="36.89936720787571" lon="15.061757739083028"><ele>137.0</ele><time>2026-04-04T17:11:37Z</time></trkpt><trkpt lat="36.89923426121418" lon="15.061835632376493"><ele>136.5</ele><time>2026-04-04T17:11:38Z</time></trkpt><trkpt lat="36.89909672793117" lon="15.061897475061587"><ele>136.0</ele><time>2026-04-04T17:11:39Z</time></trkpt><trkpt lat="36.89894955015066" lon="15.061939340517311"><ele>135.25</ele><time>2026-04-04T17:11:40Z</time></trkpt><trkpt lat="36.898811563903855" lon="15.06195069354198"><ele>134.5</ele><time>2026-04-04T17:11:41Z</time></trkpt><trkpt lat="36.89867035747279" lon="15.061953215877491"><ele>133.75</ele><time>2026-04-04T17:11:42Z</time></trkpt><trkpt lat="36.89852603875422" lon="15.06194951672654"><ele>133.0</ele><time>2026-04-04T17:11:43Z</time></trkpt><trkpt lat="36.898377633678905" lon="15.061930660708756"><ele>131.66666666666669</ele><time>2026-04-04T17:11:44Z</time></trkpt><trkpt lat="36.89821953215661" lon="15.061894073217195"><ele>130.33333333333334</ele><time>2026-04-04T17:11:45Z</time></trkpt><trkpt lat="36.89805103057018" lon="15.061876435149896"><ele>129.0</ele><time>2026-04-04T17:11:46Z</time></trkpt><trkpt lat="36.897880599328" lon="15.0618825082123"><ele>129.0</ele><time>2026-04-04T17:11:47Z</time></trkpt><trkpt lat="36.897715508318555" lon="15.061885466104401"><ele>129.0</ele><time>2026-04-04T17:11:48Z</time></trkpt><trkpt lat="36.897544386626215" lon="15.061870688771226"><ele>129.0</ele><time>2026-04-04T17:11:49Z</time></trkpt><trkpt lat="36.897375812760295" lon="15.061853033812126"><ele>125.66666666666666</ele><time>2026-04-04T17:11:50Z</time></trkpt><trkpt lat="36.89720735476013" lon="15.061835321993339"><ele>122.33333333333333</ele><time>2026-04-04T17:11:51Z</time></trkpt><trkpt lat="36.897041972613316" lon="15.061816830924348"><ele>119.0</ele><time>2026-04-04T17:11:52Z</time></trkpt><trkpt lat="36.89689309636042" lon="15.061800111690197"><ele>119.0</ele><time>2026-04-04T17:11:53Z</time></trkpt><trkpt lat="36.89675377853913" lon="15.061783194236053"><ele>119.0</ele><time>2026-04-04T17:11:54Z</time></trkpt><trkpt lat="36.89662803219545" lon="15.061772099965733"><ele>119.0</ele><time>2026-04-04T17:11:55Z</time></trkpt><trkpt lat="36.8965163851662" lon="15.06176250897707"><ele>119.0</ele><time>2026-04-04T17:11:56Z</time></trkpt><trkpt lat="36.896428235252785" lon="15.061754843020797"><ele>116.80000000000001</ele><time>2026-04-04T17:11:57Z</time></trkpt><trkpt lat="36.8963504310811" lon="15.061747155996244"><ele>114.60000000000001</ele><time>2026-04-04T17:11:58Z</time></trkpt><trkpt lat="36.89625905582254" lon="15.061735822132444"><ele>112.4</ele><time>2026-04-04T17:11:59Z</time></trkpt><trkpt lat="36.89616895931806" lon="15.061723612580789"><ele>110.2</ele><time>2026-04-04T17:12:00Z</time></trkpt><trkpt lat="36.896070656171716" lon="15.061712607030014"><ele>108.0</ele><time>2026-04-04T17:12:01Z</time></trkpt><trkpt lat="36.895967397029494" lon="15.06170419395052"><ele>108.5</ele><time>2026-04-04T17:12:02Z</time></trkpt><trkpt lat="36.89584833729515" lon="15.061711183267192"><ele>109.0</ele><time>2026-04-04T17:12:03Z</time></trkpt><trkpt lat="36.89573160527296" lon="15.06173714514653"><ele>109.5</ele><time>2026-04-04T17:12:04Z</time></trkpt><trkpt lat="36.89561777946452" lon="15.06176524546063"><ele>110.0</ele><time>2026-04-04T17:12:05Z</time></trkpt><trkpt lat="36.895506361516546" lon="15.061796662925705"><ele>110.0</ele><time>2026-04-04T17:12:06Z</time></trkpt><trkpt lat="36.895390904502364" lon="15.061826959012533"><ele>110.0</ele><time>2026-04-04T17:12:07Z</time></trkpt><trkpt lat="36.89528038332481" lon="15.06184916053541"><ele>110.0</ele><time>2026-04-04T17:12:08Z</time></trkpt><trkpt lat="36.895145924654685" lon="15.061857310434458"><ele>110.0</ele><time>2026-04-04T17:12:09Z</time></trkpt><trkpt lat="36.89499615783826" lon="15.061863288913987"><ele>110.0</ele><time>2026-04-04T17:12:10Z</time></trkpt><trkpt lat="36.894848787411654" lon="15.061879686162715"><ele>110.0</ele><time>2026-04-04T17:12:11Z</time></trkpt><trkpt lat="36.894700493703965" lon="15.061910917858945"><ele>110.0</ele><time>2026-04-04T17:12:12Z</time></trkpt><trkpt lat="36.894564311514536" lon="15.061917477838515"><ele>110.0</ele><time>2026-04-04T17:12:13Z</time></trkpt><trkpt lat="36.894415372815615" lon="15.061927081367513"><ele>110.0</ele><time>2026-04-04T17:12:14Z</time></trkpt><trkpt lat="36.894269588483404" lon="15.061967894857956"><ele>110.0</ele><time>2026-04-04T17:12:15Z</time></trkpt><trkpt lat="36.89411624047547" lon="15.061955332437927"><ele>110.0</ele><time>2026-04-04T17:12:16Z</time></trkpt><trkpt lat="36.89396357341834" lon="15.061940276833816"><ele>110.33333333333333</ele><time>2026-04-04T17:12:17Z</time></trkpt><trkpt lat="36.893809672945125" lon="15.061918114677443"><ele>110.66666666666666</ele><time>2026-04-04T17:12:18Z</time></trkpt><trkpt lat="36.89367350810515" lon="15.061825468022942"><ele>111.0</ele><time>2026-04-04T17:12:19Z</time></trkpt><trkpt lat="36.89352852281583" lon="15.06176427716706"><ele>111.66666666666666</ele><time>2026-04-04T17:12:20Z</time></trkpt><trkpt lat="36.893383610054904" lon="15.061703118133321"><ele>112.33333333333333</ele><time>2026-04-04T17:12:21Z</time></trkpt><trkpt lat="36.893239366021156" lon="15.061642023862593"><ele>113.0</ele><time>2026-04-04T17:12:22Z</time></trkpt><trkpt lat="36.89309366424798" lon="15.061577546314291"><ele>108.66666666666666</ele><time>2026-04-04T17:12:23Z</time></trkpt><trkpt lat="36.892944342925844" lon="15.061510046612533"><ele>104.33333333333334</ele><time>2026-04-04T17:12:24Z</time></trkpt><trkpt lat="36.892803060511284" lon="15.06146621179791"><ele>100.0</ele><time>2026-04-04T17:12:24.999Z</time></trkpt><trkpt lat="36.892655685562495" lon="15.061453829783169"><ele>99.0</ele><time>2026-04-04T17:12:25.999Z</time></trkpt><trkpt lat="36.892503067080035" lon="15.061473342950308"><ele>98.0</ele><time>2026-04-04T17:12:26.999Z</time></trkpt><trkpt lat="36.8923577517774" lon="15.06151312310213"><ele>97.0</ele><time>2026-04-04T17:12:27.999Z</time></trkpt><trkpt lat="36.892222907778766" lon="15.061577196514223"><ele>96.0</ele><time>2026-04-04T17:12:28.999Z</time></trkpt><trkpt lat="36.89209554117973" lon="15.06164437182926"><ele>96.0</ele><time>2026-04-04T17:12:29.999Z</time></trkpt><trkpt lat="36.89197991070476" lon="15.0617164616899"><ele>96.0</ele><time>2026-04-04T17:12:30.999Z</time></trkpt><trkpt lat="36.89186699527994" lon="15.061788974451787"><ele>96.0</ele><time>2026-04-04T17:12:31.999Z</time></trkpt><trkpt lat="36.89175052908093" lon="15.061869024603629"><ele>96.0</ele><time>2026-04-04T17:12:32.999Z</time></trkpt><trkpt lat="36.89163789457021" lon="15.061945828746843"><ele>96.0</ele><time>2026-04-04T17:12:33.999Z</time></trkpt><trkpt lat="36.89154084552914" lon="15.062009978682108"><ele>96.0</ele><time>2026-04-04T17:12:34.999Z</time></trkpt><trkpt lat="36.89144822962862" lon="15.062071198355698"><ele>96.0</ele><time>2026-04-04T17:12:35.999Z</time></trkpt><trkpt lat="36.8913517109748" lon="15.062134997908394"><ele>96.0</ele><time>2026-04-04T17:12:36.999Z</time></trkpt><trkpt lat="36.891253355751346" lon="15.062203301298302"><ele>96.0</ele><time>2026-04-04T17:12:37.999Z</time></trkpt><trkpt lat="36.891154341177405" lon="15.062273891803345"><ele>96.0</ele><time>2026-04-04T17:12:38.999Z</time></trkpt><trkpt lat="36.8910590636043" lon="15.062341276041606"><ele>96.0</ele><time>2026-04-04T17:12:39.999Z</time></trkpt><trkpt lat="36.89097011782309" lon="15.06240182085774"><ele>96.0</ele><time>2026-04-04T17:12:40.999Z</time></trkpt><trkpt lat="36.89089260118376" lon="15.062454585857548"><ele>96.0</ele><time>2026-04-04T17:12:41.999Z</time></trkpt><trkpt lat="36.89084268656744" lon="15.062542361156929"><ele>96.0</ele><time>2026-04-04T17:12:42.999Z</time></trkpt><trkpt lat="36.890786616358" lon="15.062583900544825"><ele>95.5</ele><time>2026-04-04T17:12:43.999Z</time></trkpt><trkpt lat="36.89068710817302" lon="15.062671306481793"><ele>95.0</ele><time>2026-04-04T17:12:45.999Z</time></trkpt><trkpt lat="36.890613233667494" lon="15.062696156576585"><ele>94.5</ele><time>2026-04-04T17:12:46.999Z</time></trkpt><trkpt lat="36.8905486591165" lon="15.062737831110763"><ele>94.0</ele><time>2026-04-04T17:12:47.999Z</time></trkpt><trkpt lat="36.89048360768937" lon="15.062769176541641"><ele>93.5</ele><time>2026-04-04T17:12:48.999Z</time></trkpt><trkpt lat="36.890473185569" lon="15.062892384423867"><ele>93.0</ele><time>2026-04-04T17:12:49.999Z</time></trkpt><trkpt lat="36.89045856828957" lon="15.063001385842364"><ele>93.0</ele><time>2026-04-04T17:12:50.999Z</time></trkpt><trkpt lat="36.89044921786482" lon="15.063112623915192"><ele>93.0</ele><time>2026-04-04T17:12:51.999Z</time></trkpt><trkpt lat="36.89042738120377" lon="15.063214059449162"><ele>93.0</ele><time>2026-04-04T17:12:52.999Z</time></trkpt><trkpt lat="36.89040508602504" lon="15.063296833710888"><ele>93.0</ele><time>2026-04-04T17:12:53.999Z</time></trkpt><trkpt lat="36.890382870819245" lon="15.063438620531448"><ele>93.0</ele><time>2026-04-04T17:12:55.999Z</time></trkpt><trkpt lat="36.89036209587764" lon="15.0635292514877"><ele>93.0</ele><time>2026-04-04T17:12:56.999Z</time></trkpt><trkpt lat="36.89034015716017" lon="15.06362992181005"><ele>94.2</ele><time>2026-04-04T17:12:57.999Z</time></trkpt><trkpt lat="36.89032228728648" lon="15.063738142219226"><ele>95.4</ele><time>2026-04-04T17:12:58.999Z</time></trkpt><trkpt lat="36.89029963726094" lon="15.063855260036899"><ele>96.60000000000001</ele><time>2026-04-04T17:12:59.999Z</time></trkpt><trkpt lat="36.89027076187677" lon="15.06397445388075"><ele>97.80000000000001</ele><time>2026-04-04T17:13:00.999Z</time></trkpt><trkpt lat="36.890246387440406" lon="15.064101983600755"><ele>99.0</ele><time>2026-04-04T17:13:01.999Z</time></trkpt><trkpt lat="36.8902229058363" lon="15.064214070145082"><ele>100.0</ele><time>2026-04-04T17:13:02.999Z</time></trkpt><trkpt lat="36.89020347404863" lon="15.06430377510991"><ele>101.0</ele><time>2026-04-04T17:13:03.999Z</time></trkpt><trkpt lat="36.89017353249234" lon="15.064439496008426"><ele>102.0</ele><time>2026-04-04T17:13:05.999Z</time></trkpt><trkpt lat="36.89014509459356" lon="15.064543362905033"><ele>103.0</ele><time>2026-04-04T17:13:07.999Z</time></trkpt><trkpt lat="36.890121380346535" lon="15.064670484906145"><ele>104.0</ele><time>2026-04-04T17:13:10Z</time></trkpt><trkpt lat="36.89009980204926" lon="15.064779132990061"><ele>103.99999999999999</ele><time>2026-04-04T17:13:12Z</time></trkpt><trkpt lat="36.89008022728993" lon="15.064878505363831"><ele>104.0</ele><time>2026-04-04T17:13:14Z</time></trkpt><trkpt lat="36.89005456487268" lon="15.065012233056299"><ele>104.0</ele><time>2026-04-04T17:13:16Z</time></trkpt><trkpt lat="36.890036661196014" lon="15.065090954986495"><ele>104.0</ele><time>2026-04-04T17:13:17Z</time></trkpt><trkpt lat="36.89002142474443" lon="15.06516805410741"><ele>103.99999999999999</ele><time>2026-04-04T17:13:18Z</time></trkpt><trkpt lat="36.889993425804924" lon="15.065306144133597"><ele>104.0</ele><time>2026-04-04T17:13:20Z</time></trkpt><trkpt lat="36.889967787826436" lon="15.065455705502217"><ele>103.99999999999999</ele><time>2026-04-04T17:13:22Z</time></trkpt><trkpt lat="36.88994110826002" lon="15.065573596559249"><ele>104.0</ele><time>2026-04-04T17:13:24Z</time></trkpt><trkpt lat="36.88991263241511" lon="15.065692923939732"><ele>104.0</ele><time>2026-04-04T17:13:26Z</time></trkpt><trkpt lat="36.88988669742557" lon="15.065787878921446"><ele>104.0</ele><time>2026-04-04T17:13:28Z</time></trkpt><trkpt lat="36.88985152593657" lon="15.065854542434405"><ele>103.99999999999999</ele><time>2026-04-04T17:13:30Z</time></trkpt><trkpt lat="36.88978875930771" lon="15.065763368462234"><ele>104.0</ele><time>2026-04-04T17:13:31Z</time></trkpt><trkpt lat="36.88967416449158" lon="15.065716891425792"><ele>103.99999999999999</ele><time>2026-04-04T17:13:33Z</time></trkpt><trkpt lat="36.8896046708103" lon="15.065693120782898"><ele>104.0</ele><time>2026-04-04T17:13:34Z</time></trkpt><trkpt lat="36.88952545461639" lon="15.065663592149665"><ele>104.0</ele><time>2026-04-04T17:13:35Z</time></trkpt><trkpt lat="36.88944415324928" lon="15.065633285947133"><ele>104.0</ele><time>2026-04-04T17:13:36Z</time></trkpt><trkpt lat="36.88937925800672" lon="15.065601266373985"><ele>103.99999999999999</ele><time>2026-04-04T17:13:37Z</time></trkpt><trkpt lat="36.889320207450645" lon="15.065571614579568"><ele>104.0</ele><time>2026-04-04T17:13:38Z</time></trkpt><trkpt lat="36.889153812430216" lon="15.065696267007207"><ele>103.85714285714285</ele><time>2026-04-04T17:13:41Z</time></trkpt><trkpt lat="36.88910228768718" lon="15.065783041836491"><ele>103.71428571428572</ele><time>2026-04-04T17:13:42Z</time></trkpt><trkpt lat="36.88903722573098" lon="15.06584246322205"><ele>103.57142857142857</ele><time>2026-04-04T17:13:43Z</time></trkpt><trkpt lat="36.88897586995693" lon="15.06588650251096"><ele>103.42857142857142</ele><time>2026-04-04T17:13:44Z</time></trkpt><trkpt lat="36.88891932325413" lon="15.065925002019574"><ele>103.28571428571428</ele><time>2026-04-04T17:13:45Z</time></trkpt><trkpt lat="36.88886930685179" lon="15.065975841622253"><ele>103.14285714285714</ele><time>2026-04-04T17:13:46Z</time></trkpt><trkpt lat="36.888814299961595" lon="15.066021756421348"><ele>103.0</ele><time>2026-04-04T17:13:47Z</time></trkpt><trkpt lat="36.88870646331732" lon="15.066068468163122"><ele>103.00000000000001</ele><time>2026-04-04T17:13:49Z</time></trkpt><trkpt lat="36.88870880727472" lon="15.066181444110686"><ele>103.0</ele><time>2026-04-04T17:13:52Z</time></trkpt><trkpt lat="36.88875169751159" lon="15.066253086059614"><ele>103.0</ele><time>2026-04-04T17:13:54Z</time></trkpt><trkpt lat="36.88881389593722" lon="15.066333949010613"><ele>103.0</ele><time>2026-04-04T17:13:57Z</time></trkpt><trkpt lat="36.88871791960938" lon="15.066402525182273"><ele>103.00000000000001</ele><time>2026-04-04T17:13:59Z</time></trkpt><trkpt lat="36.88865507588353" lon="15.06643581946203"><ele>103.0</ele><time>2026-04-04T17:14:01Z</time></trkpt><trkpt lat="36.88857055792703" lon="15.06649308856363"><ele>103.0</ele><time>2026-04-04T17:14:03Z</time></trkpt><trkpt lat="36.88851288562086" lon="15.066532167019762"><ele>103.0</ele><time>2026-04-04T17:14:05Z</time></trkpt><trkpt lat="36.8884915917804" lon="15.066697565597078"><ele>103.0</ele><time>2026-04-04T17:14:07Z</time></trkpt><trkpt lat="36.88853570043694" lon="15.066814427538024"><ele>103.0</ele><time>2026-04-04T17:14:09Z</time></trkpt><trkpt lat="36.8886510414591" lon="15.066869483246192"><ele>103.0</ele><time>2026-04-04T17:14:11Z</time></trkpt><trkpt lat="36.88873828012402" lon="15.06682842389391"><ele>103.00000000000001</ele><time>2026-04-04T17:14:12Z</time></trkpt><trkpt lat="36.888803761016426" lon="15.066859151605271"><ele>103.0</ele><time>2026-04-04T17:14:13Z</time></trkpt><trkpt lat="36.888873946575835" lon="15.066892087776466"><ele>103.0</ele><time>2026-04-04T17:14:14Z</time></trkpt><trkpt lat="36.88894681391305" lon="15.066926281667918"><ele>103.0</ele><time>2026-04-04T17:14:15Z</time></trkpt><trkpt lat="36.88901647054164" lon="15.06695932325621"><ele>103.00000000000001</ele><time>2026-04-04T17:14:16Z</time></trkpt><trkpt lat="36.88908097358138" lon="15.066989818884457"><ele>103.0</ele><time>2026-04-04T17:14:17Z</time></trkpt><trkpt lat="36.88919200690392" lon="15.067041080522682"><ele>103.0</ele><time>2026-04-04T17:14:19Z</time></trkpt><trkpt lat="36.88925959841061" lon="15.067069031885218"><ele>106.0</ele><time>2026-04-04T17:14:21Z</time></trkpt><trkpt lat="36.88918069411191" lon="15.067259025900874"><ele>103.0</ele><time>2026-04-04T17:15:51.293Z</time></trkpt></trkseg></trk></gpx>